<?xml version="1.0" encoding="UTF-8" standalone="no" ?>
<gpx xmlns="http://www.topografix.com/GPX/1/1" xmlns:xsi="http://www.w3.org/2001/XMLSchema-instance" xsi:schemaLocation="http://www.topografix.com/GPX/1/1 http://www.topografix.com/GPX/1/1/gpx.xsd" version="1.1" creator="VisuGPX - https://www.visugpx.com">
  <metadata>
    <name>2021-06-05 10:23:44 [Suunto App]</name>
  </metadata>
  <trk>
    <name><![CDATA[2021-06-05 10:23:44 [Suunto App]_1]]></name>
    <trkseg>
      <trkpt lat="45.62122" lon="6.77296">
        <ele>810.3</ele>
        <time>2021-06-05T08:23:44Z</time>
      </trkpt>
      <trkpt lat="45.62121" lon="6.77292">
        <ele>810.5</ele>
        <time>2021-06-05T08:23:45Z</time>
      </trkpt>
      <trkpt lat="45.6212" lon="6.77289">
        <ele>810.6</ele>
        <time>2021-06-05T08:23:46Z</time>
      </trkpt>
      <trkpt lat="45.62118" lon="6.77285">
        <ele>810.7</ele>
        <time>2021-06-05T08:23:47Z</time>
      </trkpt>
      <trkpt lat="45.62116" lon="6.77282">
        <ele>810.8</ele>
        <time>2021-06-05T08:23:48Z</time>
      </trkpt>
      <trkpt lat="45.62115" lon="6.77279">
        <ele>811</ele>
        <time>2021-06-05T08:23:49Z</time>
      </trkpt>
      <trkpt lat="45.62113" lon="6.77276">
        <ele>811</ele>
        <time>2021-06-05T08:23:50Z</time>
      </trkpt>
      <trkpt lat="45.62112" lon="6.77272">
        <ele>837.6</ele>
        <time>2021-06-05T08:23:51Z</time>
      </trkpt>
      <trkpt lat="45.6211" lon="6.77268">
        <ele>837.4</ele>
        <time>2021-06-05T08:23:52Z</time>
      </trkpt>
      <trkpt lat="45.62109" lon="6.77264">
        <ele>837.8</ele>
        <time>2021-06-05T08:23:53Z</time>
      </trkpt>
      <trkpt lat="45.62108" lon="6.77261">
        <ele>837.8</ele>
        <time>2021-06-05T08:23:54Z</time>
      </trkpt>
      <trkpt lat="45.62108" lon="6.77257">
        <ele>837.4</ele>
        <time>2021-06-05T08:23:55Z</time>
      </trkpt>
      <trkpt lat="45.62108" lon="6.77253">
        <ele>837.6</ele>
        <time>2021-06-05T08:23:56Z</time>
      </trkpt>
      <trkpt lat="45.62107" lon="6.77249">
        <ele>837.6</ele>
        <time>2021-06-05T08:23:57Z</time>
      </trkpt>
      <trkpt lat="45.62106" lon="6.77246">
        <ele>838.2</ele>
        <time>2021-06-05T08:23:58Z</time>
      </trkpt>
      <trkpt lat="45.62105" lon="6.77242">
        <ele>838.2</ele>
        <time>2021-06-05T08:23:59Z</time>
      </trkpt>
      <trkpt lat="45.62104" lon="6.77238">
        <ele>838.6</ele>
        <time>2021-06-05T08:24:00Z</time>
      </trkpt>
      <trkpt lat="45.62102" lon="6.77234">
        <ele>838.6</ele>
        <time>2021-06-05T08:24:01Z</time>
      </trkpt>
      <trkpt lat="45.62101" lon="6.7723">
        <ele>838.4</ele>
        <time>2021-06-05T08:24:02Z</time>
      </trkpt>
      <trkpt lat="45.62099" lon="6.77226">
        <ele>839</ele>
        <time>2021-06-05T08:24:03Z</time>
      </trkpt>
      <trkpt lat="45.62098" lon="6.77222">
        <ele>839</ele>
        <time>2021-06-05T08:24:04Z</time>
      </trkpt>
      <trkpt lat="45.62096" lon="6.77219">
        <ele>838.8</ele>
        <time>2021-06-05T08:24:05Z</time>
      </trkpt>
      <trkpt lat="45.62093" lon="6.77216">
        <ele>839.4</ele>
        <time>2021-06-05T08:24:06Z</time>
      </trkpt>
      <trkpt lat="45.62092" lon="6.77212">
        <ele>839.4</ele>
        <time>2021-06-05T08:24:07Z</time>
      </trkpt>
      <trkpt lat="45.6209" lon="6.77208">
        <ele>840</ele>
        <time>2021-06-05T08:24:08Z</time>
      </trkpt>
      <trkpt lat="45.62089" lon="6.77205">
        <ele>840</ele>
        <time>2021-06-05T08:24:09Z</time>
      </trkpt>
      <trkpt lat="45.62087" lon="6.77201">
        <ele>840</ele>
        <time>2021-06-05T08:24:10Z</time>
      </trkpt>
      <trkpt lat="45.62085" lon="6.77198">
        <ele>840.4</ele>
        <time>2021-06-05T08:24:11Z</time>
      </trkpt>
      <trkpt lat="45.62083" lon="6.77194">
        <ele>840.6</ele>
        <time>2021-06-05T08:24:12Z</time>
      </trkpt>
      <trkpt lat="45.62081" lon="6.77191">
        <ele>841</ele>
        <time>2021-06-05T08:24:13Z</time>
      </trkpt>
      <trkpt lat="45.6208" lon="6.77187">
        <ele>841.2</ele>
        <time>2021-06-05T08:24:14Z</time>
      </trkpt>
      <trkpt lat="45.62077" lon="6.77184">
        <ele>841.2</ele>
        <time>2021-06-05T08:24:15Z</time>
      </trkpt>
      <trkpt lat="45.62075" lon="6.77181">
        <ele>841.6</ele>
        <time>2021-06-05T08:24:16Z</time>
      </trkpt>
      <trkpt lat="45.62074" lon="6.77177">
        <ele>841.8</ele>
        <time>2021-06-05T08:24:17Z</time>
      </trkpt>
      <trkpt lat="45.62072" lon="6.77173">
        <ele>842.4</ele>
        <time>2021-06-05T08:24:18Z</time>
      </trkpt>
      <trkpt lat="45.62072" lon="6.7717">
        <ele>842.4</ele>
        <time>2021-06-05T08:24:19Z</time>
      </trkpt>
      <trkpt lat="45.6207" lon="6.77167">
        <ele>842.4</ele>
        <time>2021-06-05T08:24:20Z</time>
      </trkpt>
      <trkpt lat="45.62068" lon="6.77164">
        <ele>843</ele>
        <time>2021-06-05T08:24:21Z</time>
      </trkpt>
      <trkpt lat="45.62065" lon="6.77162">
        <ele>843</ele>
        <time>2021-06-05T08:24:22Z</time>
      </trkpt>
      <trkpt lat="45.62062" lon="6.77159">
        <ele>843.4</ele>
        <time>2021-06-05T08:24:23Z</time>
      </trkpt>
      <trkpt lat="45.62061" lon="6.77156">
        <ele>843.6</ele>
        <time>2021-06-05T08:24:24Z</time>
      </trkpt>
      <trkpt lat="45.6206" lon="6.77152">
        <ele>843.6</ele>
        <time>2021-06-05T08:24:25Z</time>
      </trkpt>
      <trkpt lat="45.6206" lon="6.77148">
        <ele>844.2</ele>
        <time>2021-06-05T08:24:26Z</time>
      </trkpt>
      <trkpt lat="45.6206" lon="6.77144">
        <ele>844.4</ele>
        <time>2021-06-05T08:24:27Z</time>
      </trkpt>
      <trkpt lat="45.62059" lon="6.7714">
        <ele>844.8</ele>
        <time>2021-06-05T08:24:28Z</time>
      </trkpt>
      <trkpt lat="45.6206" lon="6.77136">
        <ele>845</ele>
        <time>2021-06-05T08:24:29Z</time>
      </trkpt>
      <trkpt lat="45.6206" lon="6.77133">
        <ele>845</ele>
        <time>2021-06-05T08:24:30Z</time>
      </trkpt>
      <trkpt lat="45.62061" lon="6.7713">
        <ele>845.4</ele>
        <time>2021-06-05T08:24:31Z</time>
      </trkpt>
      <trkpt lat="45.62062" lon="6.77128">
        <ele>845.6</ele>
        <time>2021-06-05T08:24:32Z</time>
      </trkpt>
      <trkpt lat="45.62064" lon="6.77124">
        <ele>846.2</ele>
        <time>2021-06-05T08:24:34Z</time>
      </trkpt>
      <trkpt lat="45.62063" lon="6.77119">
        <ele>846.8</ele>
        <time>2021-06-05T08:24:36Z</time>
      </trkpt>
      <trkpt lat="45.62062" lon="6.77117">
        <ele>846.8</ele>
        <time>2021-06-05T08:24:37Z</time>
      </trkpt>
      <trkpt lat="45.62061" lon="6.77115">
        <ele>847.2</ele>
        <time>2021-06-05T08:24:38Z</time>
      </trkpt>
      <trkpt lat="45.6206" lon="6.77113">
        <ele>847</ele>
        <time>2021-06-05T08:24:39Z</time>
      </trkpt>
      <trkpt lat="45.62058" lon="6.77111">
        <ele>846.8</ele>
        <time>2021-06-05T08:24:40Z</time>
      </trkpt>
      <trkpt lat="45.62055" lon="6.7711">
        <ele>847.2</ele>
        <time>2021-06-05T08:24:41Z</time>
      </trkpt>
      <trkpt lat="45.62053" lon="6.77108">
        <ele>847.2</ele>
        <time>2021-06-05T08:24:42Z</time>
      </trkpt>
      <trkpt lat="45.62051" lon="6.77107">
        <ele>847.6</ele>
        <time>2021-06-05T08:24:43Z</time>
      </trkpt>
      <trkpt lat="45.62048" lon="6.77105">
        <ele>847.6</ele>
        <time>2021-06-05T08:24:44Z</time>
      </trkpt>
      <trkpt lat="45.62044" lon="6.77104">
        <ele>847.6</ele>
        <time>2021-06-05T08:24:45Z</time>
      </trkpt>
      <trkpt lat="45.62042" lon="6.77103">
        <ele>848</ele>
        <time>2021-06-05T08:24:46Z</time>
      </trkpt>
      <trkpt lat="45.62038" lon="6.77102">
        <ele>847.8</ele>
        <time>2021-06-05T08:24:47Z</time>
      </trkpt>
      <trkpt lat="45.62034" lon="6.77102">
        <ele>848</ele>
        <time>2021-06-05T08:24:48Z</time>
      </trkpt>
      <trkpt lat="45.6203" lon="6.771">
        <ele>848.2</ele>
        <time>2021-06-05T08:24:49Z</time>
      </trkpt>
      <trkpt lat="45.62026" lon="6.77099">
        <ele>848.2</ele>
        <time>2021-06-05T08:24:50Z</time>
      </trkpt>
      <trkpt lat="45.62024" lon="6.77097">
        <ele>848.4</ele>
        <time>2021-06-05T08:24:51Z</time>
      </trkpt>
      <trkpt lat="45.6202" lon="6.77094">
        <ele>848.4</ele>
        <time>2021-06-05T08:24:52Z</time>
      </trkpt>
      <trkpt lat="45.62018" lon="6.77092">
        <ele>848</ele>
        <time>2021-06-05T08:24:53Z</time>
      </trkpt>
      <trkpt lat="45.62015" lon="6.7709">
        <ele>848.6</ele>
        <time>2021-06-05T08:24:54Z</time>
      </trkpt>
      <trkpt lat="45.62013" lon="6.77089">
        <ele>848.6</ele>
        <time>2021-06-05T08:24:55Z</time>
      </trkpt>
      <trkpt lat="45.62011" lon="6.77087">
        <ele>849</ele>
        <time>2021-06-05T08:24:56Z</time>
      </trkpt>
      <trkpt lat="45.62008" lon="6.77085">
        <ele>849</ele>
        <time>2021-06-05T08:24:57Z</time>
      </trkpt>
      <trkpt lat="45.62005" lon="6.77084">
        <ele>849</ele>
        <time>2021-06-05T08:24:58Z</time>
      </trkpt>
      <trkpt lat="45.62001" lon="6.77082">
        <ele>849.4</ele>
        <time>2021-06-05T08:24:59Z</time>
      </trkpt>
      <trkpt lat="45.61999" lon="6.7708">
        <ele>849.4</ele>
        <time>2021-06-05T08:25:00Z</time>
      </trkpt>
      <trkpt lat="45.61996" lon="6.77077">
        <ele>849.6</ele>
        <time>2021-06-05T08:25:01Z</time>
      </trkpt>
      <trkpt lat="45.61994" lon="6.77075">
        <ele>850</ele>
        <time>2021-06-05T08:25:02Z</time>
      </trkpt>
      <trkpt lat="45.61991" lon="6.77072">
        <ele>850</ele>
        <time>2021-06-05T08:25:03Z</time>
      </trkpt>
      <trkpt lat="45.6199" lon="6.77069">
        <ele>850.4</ele>
        <time>2021-06-05T08:25:04Z</time>
      </trkpt>
      <trkpt lat="45.6199" lon="6.77066">
        <ele>850</ele>
        <time>2021-06-05T08:25:05Z</time>
      </trkpt>
      <trkpt lat="45.61989" lon="6.77062">
        <ele>849.6</ele>
        <time>2021-06-05T08:25:06Z</time>
      </trkpt>
      <trkpt lat="45.61989" lon="6.77058">
        <ele>850.2</ele>
        <time>2021-06-05T08:25:07Z</time>
      </trkpt>
      <trkpt lat="45.61989" lon="6.77053">
        <ele>850.2</ele>
        <time>2021-06-05T08:25:08Z</time>
      </trkpt>
      <trkpt lat="45.6199" lon="6.7705">
        <ele>850.8</ele>
        <time>2021-06-05T08:25:09Z</time>
      </trkpt>
      <trkpt lat="45.61991" lon="6.77046">
        <ele>850.8</ele>
        <time>2021-06-05T08:25:11Z</time>
      </trkpt>
      <trkpt lat="45.61993" lon="6.77041">
        <ele>851.8</ele>
        <time>2021-06-05T08:25:13Z</time>
      </trkpt>
      <trkpt lat="45.61994" lon="6.77037">
        <ele>853.2</ele>
        <time>2021-06-05T08:25:15Z</time>
      </trkpt>
      <trkpt lat="45.61995" lon="6.77035">
        <ele>853.2</ele>
        <time>2021-06-05T08:25:16Z</time>
      </trkpt>
      <trkpt lat="45.61997" lon="6.77031">
        <ele>853.6</ele>
        <time>2021-06-05T08:25:18Z</time>
      </trkpt>
      <trkpt lat="45.61998" lon="6.77029">
        <ele>854.4</ele>
        <time>2021-06-05T08:25:19Z</time>
      </trkpt>
      <trkpt lat="45.61999" lon="6.77024">
        <ele>855</ele>
        <time>2021-06-05T08:25:21Z</time>
      </trkpt>
      <trkpt lat="45.62" lon="6.77022">
        <ele>855.2</ele>
        <time>2021-06-05T08:25:22Z</time>
      </trkpt>
      <trkpt lat="45.62" lon="6.77019">
        <ele>855</ele>
        <time>2021-06-05T08:25:23Z</time>
      </trkpt>
      <trkpt lat="45.62" lon="6.77016">
        <ele>855.6</ele>
        <time>2021-06-05T08:25:24Z</time>
      </trkpt>
      <trkpt lat="45.62001" lon="6.77012">
        <ele>855.8</ele>
        <time>2021-06-05T08:25:25Z</time>
      </trkpt>
      <trkpt lat="45.62001" lon="6.77009">
        <ele>856.4</ele>
        <time>2021-06-05T08:25:26Z</time>
      </trkpt>
      <trkpt lat="45.62001" lon="6.77005">
        <ele>856.4</ele>
        <time>2021-06-05T08:25:27Z</time>
      </trkpt>
      <trkpt lat="45.62002" lon="6.77001">
        <ele>857</ele>
        <time>2021-06-05T08:25:28Z</time>
      </trkpt>
      <trkpt lat="45.62002" lon="6.76996">
        <ele>857.2</ele>
        <time>2021-06-05T08:25:29Z</time>
      </trkpt>
      <trkpt lat="45.62003" lon="6.76992">
        <ele>857</ele>
        <time>2021-06-05T08:25:30Z</time>
      </trkpt>
      <trkpt lat="45.62004" lon="6.76988">
        <ele>857.8</ele>
        <time>2021-06-05T08:25:31Z</time>
      </trkpt>
      <trkpt lat="45.62005" lon="6.76986">
        <ele>858</ele>
        <time>2021-06-05T08:25:32Z</time>
      </trkpt>
      <trkpt lat="45.62006" lon="6.76982">
        <ele>858.6</ele>
        <time>2021-06-05T08:25:33Z</time>
      </trkpt>
      <trkpt lat="45.62007" lon="6.7698">
        <ele>859</ele>
        <time>2021-06-05T08:25:34Z</time>
      </trkpt>
      <trkpt lat="45.62008" lon="6.76976">
        <ele>859</ele>
        <time>2021-06-05T08:25:35Z</time>
      </trkpt>
      <trkpt lat="45.62007" lon="6.76973">
        <ele>859.8</ele>
        <time>2021-06-05T08:25:36Z</time>
      </trkpt>
      <trkpt lat="45.62008" lon="6.7697">
        <ele>860</ele>
        <time>2021-06-05T08:25:37Z</time>
      </trkpt>
      <trkpt lat="45.62008" lon="6.76966">
        <ele>860</ele>
        <time>2021-06-05T08:25:38Z</time>
      </trkpt>
      <trkpt lat="45.62009" lon="6.76964">
        <ele>860.6</ele>
        <time>2021-06-05T08:25:39Z</time>
      </trkpt>
      <trkpt lat="45.62009" lon="6.7696">
        <ele>860.8</ele>
        <time>2021-06-05T08:25:40Z</time>
      </trkpt>
      <trkpt lat="45.62009" lon="6.76956">
        <ele>861.6</ele>
        <time>2021-06-05T08:25:41Z</time>
      </trkpt>
      <trkpt lat="45.62009" lon="6.76952">
        <ele>861.8</ele>
        <time>2021-06-05T08:25:42Z</time>
      </trkpt>
      <trkpt lat="45.6201" lon="6.76948">
        <ele>861.6</ele>
        <time>2021-06-05T08:25:43Z</time>
      </trkpt>
      <trkpt lat="45.6201" lon="6.76944">
        <ele>862.4</ele>
        <time>2021-06-05T08:25:44Z</time>
      </trkpt>
      <trkpt lat="45.62009" lon="6.76942">
        <ele>862.6</ele>
        <time>2021-06-05T08:25:45Z</time>
      </trkpt>
      <trkpt lat="45.62006" lon="6.76939">
        <ele>863.4</ele>
        <time>2021-06-05T08:25:47Z</time>
      </trkpt>
      <trkpt lat="45.62004" lon="6.76937">
        <ele>863.4</ele>
        <time>2021-06-05T08:25:48Z</time>
      </trkpt>
      <trkpt lat="45.62002" lon="6.76936">
        <ele>864</ele>
        <time>2021-06-05T08:25:49Z</time>
      </trkpt>
      <trkpt lat="45.61999" lon="6.76933">
        <ele>864.2</ele>
        <time>2021-06-05T08:25:51Z</time>
      </trkpt>
      <trkpt lat="45.61998" lon="6.76931">
        <ele>864</ele>
        <time>2021-06-05T08:25:52Z</time>
      </trkpt>
      <trkpt lat="45.61996" lon="6.76928">
        <ele>864</ele>
        <time>2021-06-05T08:25:53Z</time>
      </trkpt>
      <trkpt lat="45.61995" lon="6.76925">
        <ele>864.6</ele>
        <time>2021-06-05T08:25:54Z</time>
      </trkpt>
      <trkpt lat="45.61993" lon="6.76922">
        <ele>864.2</ele>
        <time>2021-06-05T08:25:55Z</time>
      </trkpt>
      <trkpt lat="45.61992" lon="6.7692">
        <ele>864.2</ele>
        <time>2021-06-05T08:25:56Z</time>
      </trkpt>
      <trkpt lat="45.61989" lon="6.76918">
        <ele>864.4</ele>
        <time>2021-06-05T08:25:57Z</time>
      </trkpt>
      <trkpt lat="45.61987" lon="6.76916">
        <ele>864.2</ele>
        <time>2021-06-05T08:25:58Z</time>
      </trkpt>
      <trkpt lat="45.61985" lon="6.76914">
        <ele>864.2</ele>
        <time>2021-06-05T08:25:59Z</time>
      </trkpt>
      <trkpt lat="45.61983" lon="6.76913">
        <ele>864.4</ele>
        <time>2021-06-05T08:26:00Z</time>
      </trkpt>
      <trkpt lat="45.61981" lon="6.76912">
        <ele>864.2</ele>
        <time>2021-06-05T08:26:02Z</time>
      </trkpt>
      <trkpt lat="45.61978" lon="6.76912">
        <ele>864.2</ele>
        <time>2021-06-05T08:26:04Z</time>
      </trkpt>
      <trkpt lat="45.61975" lon="6.76911">
        <ele>864.2</ele>
        <time>2021-06-05T08:26:05Z</time>
      </trkpt>
      <trkpt lat="45.61973" lon="6.7691">
        <ele>864.2</ele>
        <time>2021-06-05T08:26:06Z</time>
      </trkpt>
      <trkpt lat="45.6197" lon="6.76909">
        <ele>863.8</ele>
        <time>2021-06-05T08:26:07Z</time>
      </trkpt>
      <trkpt lat="45.61967" lon="6.76909">
        <ele>864</ele>
        <time>2021-06-05T08:26:08Z</time>
      </trkpt>
      <trkpt lat="45.61965" lon="6.76908">
        <ele>864.2</ele>
        <time>2021-06-05T08:26:09Z</time>
      </trkpt>
      <trkpt lat="45.61963" lon="6.76907">
        <ele>863.8</ele>
        <time>2021-06-05T08:26:10Z</time>
      </trkpt>
      <trkpt lat="45.61959" lon="6.76906">
        <ele>864</ele>
        <time>2021-06-05T08:26:11Z</time>
      </trkpt>
      <trkpt lat="45.61957" lon="6.76905">
        <ele>863.8</ele>
        <time>2021-06-05T08:26:12Z</time>
      </trkpt>
      <trkpt lat="45.61955" lon="6.76904">
        <ele>863.8</ele>
        <time>2021-06-05T08:26:13Z</time>
      </trkpt>
      <trkpt lat="45.61952" lon="6.76904">
        <ele>864</ele>
        <time>2021-06-05T08:26:14Z</time>
      </trkpt>
      <trkpt lat="45.61949" lon="6.76903">
        <ele>863.6</ele>
        <time>2021-06-05T08:26:15Z</time>
      </trkpt>
      <trkpt lat="45.61945" lon="6.76902">
        <ele>863.6</ele>
        <time>2021-06-05T08:26:16Z</time>
      </trkpt>
      <trkpt lat="45.61943" lon="6.76901">
        <ele>863.8</ele>
        <time>2021-06-05T08:26:17Z</time>
      </trkpt>
      <trkpt lat="45.6194" lon="6.769">
        <ele>863.6</ele>
        <time>2021-06-05T08:26:18Z</time>
      </trkpt>
      <trkpt lat="45.61938" lon="6.769">
        <ele>863.2</ele>
        <time>2021-06-05T08:26:19Z</time>
      </trkpt>
      <trkpt lat="45.61936" lon="6.76898">
        <ele>863.6</ele>
        <time>2021-06-05T08:26:20Z</time>
      </trkpt>
      <trkpt lat="45.61934" lon="6.76896">
        <ele>863.6</ele>
        <time>2021-06-05T08:26:21Z</time>
      </trkpt>
      <trkpt lat="45.61932" lon="6.76895">
        <ele>863.6</ele>
        <time>2021-06-05T08:26:22Z</time>
      </trkpt>
      <trkpt lat="45.61929" lon="6.76895">
        <ele>864</ele>
        <time>2021-06-05T08:26:23Z</time>
      </trkpt>
      <trkpt lat="45.61927" lon="6.76894">
        <ele>863.8</ele>
        <time>2021-06-05T08:26:24Z</time>
      </trkpt>
      <trkpt lat="45.61924" lon="6.76893">
        <ele>863.8</ele>
        <time>2021-06-05T08:26:25Z</time>
      </trkpt>
      <trkpt lat="45.61922" lon="6.76892">
        <ele>863.8</ele>
        <time>2021-06-05T08:26:26Z</time>
      </trkpt>
      <trkpt lat="45.61919" lon="6.76891">
        <ele>863.6</ele>
        <time>2021-06-05T08:26:27Z</time>
      </trkpt>
      <trkpt lat="45.61916" lon="6.76889">
        <ele>864</ele>
        <time>2021-06-05T08:26:28Z</time>
      </trkpt>
      <trkpt lat="45.61913" lon="6.76887">
        <ele>863.8</ele>
        <time>2021-06-05T08:26:29Z</time>
      </trkpt>
      <trkpt lat="45.61911" lon="6.76884">
        <ele>863.8</ele>
        <time>2021-06-05T08:26:30Z</time>
      </trkpt>
      <trkpt lat="45.61909" lon="6.76881">
        <ele>864</ele>
        <time>2021-06-05T08:26:31Z</time>
      </trkpt>
      <trkpt lat="45.61908" lon="6.76878">
        <ele>864</ele>
        <time>2021-06-05T08:26:32Z</time>
      </trkpt>
      <trkpt lat="45.61907" lon="6.76875">
        <ele>864.6</ele>
        <time>2021-06-05T08:26:33Z</time>
      </trkpt>
      <trkpt lat="45.61906" lon="6.76872">
        <ele>864.8</ele>
        <time>2021-06-05T08:26:34Z</time>
      </trkpt>
      <trkpt lat="45.61906" lon="6.76869">
        <ele>865.4</ele>
        <time>2021-06-05T08:26:35Z</time>
      </trkpt>
      <trkpt lat="45.61905" lon="6.76865">
        <ele>865.4</ele>
        <time>2021-06-05T08:26:37Z</time>
      </trkpt>
      <trkpt lat="45.61904" lon="6.76861">
        <ele>866.4</ele>
        <time>2021-06-05T08:26:39Z</time>
      </trkpt>
      <trkpt lat="45.61904" lon="6.76858">
        <ele>867</ele>
        <time>2021-06-05T08:26:40Z</time>
      </trkpt>
      <trkpt lat="45.61905" lon="6.76853">
        <ele>867.2</ele>
        <time>2021-06-05T08:26:42Z</time>
      </trkpt>
      <trkpt lat="45.61906" lon="6.76851">
        <ele>867.6</ele>
        <time>2021-06-05T08:26:43Z</time>
      </trkpt>
      <trkpt lat="45.61906" lon="6.76847">
        <ele>868</ele>
        <time>2021-06-05T08:26:44Z</time>
      </trkpt>
      <trkpt lat="45.61906" lon="6.76843">
        <ele>868.2</ele>
        <time>2021-06-05T08:26:45Z</time>
      </trkpt>
      <trkpt lat="45.61906" lon="6.7684">
        <ele>868.4</ele>
        <time>2021-06-05T08:26:46Z</time>
      </trkpt>
      <trkpt lat="45.61907" lon="6.76838">
        <ele>868.8</ele>
        <time>2021-06-05T08:26:47Z</time>
      </trkpt>
      <trkpt lat="45.61907" lon="6.76835">
        <ele>869.4</ele>
        <time>2021-06-05T08:26:48Z</time>
      </trkpt>
      <trkpt lat="45.61908" lon="6.7683">
        <ele>870.4</ele>
        <time>2021-06-05T08:26:50Z</time>
      </trkpt>
      <trkpt lat="45.61909" lon="6.76825">
        <ele>870.6</ele>
        <time>2021-06-05T08:26:52Z</time>
      </trkpt>
      <trkpt lat="45.61911" lon="6.7682">
        <ele>871.4</ele>
        <time>2021-06-05T08:26:54Z</time>
      </trkpt>
      <trkpt lat="45.6191" lon="6.76818">
        <ele>872</ele>
        <time>2021-06-05T08:26:55Z</time>
      </trkpt>
      <trkpt lat="45.61907" lon="6.76815">
        <ele>872.4</ele>
        <time>2021-06-05T08:26:57Z</time>
      </trkpt>
      <trkpt lat="45.61906" lon="6.76814">
        <ele>872.6</ele>
        <time>2021-06-05T08:26:58Z</time>
      </trkpt>
      <trkpt lat="45.61904" lon="6.76812">
        <ele>872.8</ele>
        <time>2021-06-05T08:26:59Z</time>
      </trkpt>
      <trkpt lat="45.61902" lon="6.76809">
        <ele>873.6</ele>
        <time>2021-06-05T08:27:00Z</time>
      </trkpt>
      <trkpt lat="45.61899" lon="6.76808">
        <ele>873.8</ele>
        <time>2021-06-05T08:27:01Z</time>
      </trkpt>
      <trkpt lat="45.61897" lon="6.76806">
        <ele>874.2</ele>
        <time>2021-06-05T08:27:02Z</time>
      </trkpt>
      <trkpt lat="45.61894" lon="6.76804">
        <ele>874.4</ele>
        <time>2021-06-05T08:27:03Z</time>
      </trkpt>
      <trkpt lat="45.61891" lon="6.76801">
        <ele>874.4</ele>
        <time>2021-06-05T08:27:04Z</time>
      </trkpt>
      <trkpt lat="45.61889" lon="6.76799">
        <ele>875</ele>
        <time>2021-06-05T08:27:05Z</time>
      </trkpt>
      <trkpt lat="45.61886" lon="6.76796">
        <ele>874.8</ele>
        <time>2021-06-05T08:27:06Z</time>
      </trkpt>
      <trkpt lat="45.61885" lon="6.76794">
        <ele>874.8</ele>
        <time>2021-06-05T08:27:07Z</time>
      </trkpt>
      <trkpt lat="45.61884" lon="6.76791">
        <ele>874.8</ele>
        <time>2021-06-05T08:27:08Z</time>
      </trkpt>
      <trkpt lat="45.61883" lon="6.76789">
        <ele>874.6</ele>
        <time>2021-06-05T08:27:09Z</time>
      </trkpt>
      <trkpt lat="45.6188" lon="6.76786">
        <ele>875</ele>
        <time>2021-06-05T08:27:10Z</time>
      </trkpt>
      <trkpt lat="45.61877" lon="6.76784">
        <ele>875.2</ele>
        <time>2021-06-05T08:27:11Z</time>
      </trkpt>
      <trkpt lat="45.61874" lon="6.76783">
        <ele>875.4</ele>
        <time>2021-06-05T08:27:12Z</time>
      </trkpt>
      <trkpt lat="45.61872" lon="6.76781">
        <ele>875.6</ele>
        <time>2021-06-05T08:27:13Z</time>
      </trkpt>
      <trkpt lat="45.61869" lon="6.7678">
        <ele>875.6</ele>
        <time>2021-06-05T08:27:14Z</time>
      </trkpt>
      <trkpt lat="45.61867" lon="6.76778">
        <ele>876.2</ele>
        <time>2021-06-05T08:27:15Z</time>
      </trkpt>
      <trkpt lat="45.61864" lon="6.76776">
        <ele>876.2</ele>
        <time>2021-06-05T08:27:16Z</time>
      </trkpt>
      <trkpt lat="45.61862" lon="6.76775">
        <ele>876</ele>
        <time>2021-06-05T08:27:17Z</time>
      </trkpt>
      <trkpt lat="45.61859" lon="6.76772">
        <ele>876.4</ele>
        <time>2021-06-05T08:27:18Z</time>
      </trkpt>
      <trkpt lat="45.61856" lon="6.76769">
        <ele>876.2</ele>
        <time>2021-06-05T08:27:19Z</time>
      </trkpt>
      <trkpt lat="45.61854" lon="6.76767">
        <ele>876.8</ele>
        <time>2021-06-05T08:27:20Z</time>
      </trkpt>
      <trkpt lat="45.61852" lon="6.76765">
        <ele>876.8</ele>
        <time>2021-06-05T08:27:21Z</time>
      </trkpt>
      <trkpt lat="45.61851" lon="6.76763">
        <ele>876.6</ele>
        <time>2021-06-05T08:27:22Z</time>
      </trkpt>
      <trkpt lat="45.61849" lon="6.76761">
        <ele>877</ele>
        <time>2021-06-05T08:27:23Z</time>
      </trkpt>
      <trkpt lat="45.61848" lon="6.76758">
        <ele>877.2</ele>
        <time>2021-06-05T08:27:24Z</time>
      </trkpt>
      <trkpt lat="45.61847" lon="6.76756">
        <ele>877.4</ele>
        <time>2021-06-05T08:27:25Z</time>
      </trkpt>
      <trkpt lat="45.61845" lon="6.76754">
        <ele>877.6</ele>
        <time>2021-06-05T08:27:26Z</time>
      </trkpt>
      <trkpt lat="45.61843" lon="6.76752">
        <ele>877.6</ele>
        <time>2021-06-05T08:27:27Z</time>
      </trkpt>
      <trkpt lat="45.61841" lon="6.7675">
        <ele>878.2</ele>
        <time>2021-06-05T08:27:28Z</time>
      </trkpt>
      <trkpt lat="45.61838" lon="6.76749">
        <ele>878</ele>
        <time>2021-06-05T08:27:29Z</time>
      </trkpt>
      <trkpt lat="45.61833" lon="6.76747">
        <ele>877.6</ele>
        <time>2021-06-05T08:27:30Z</time>
      </trkpt>
      <trkpt lat="45.6183" lon="6.76746">
        <ele>878</ele>
        <time>2021-06-05T08:27:31Z</time>
      </trkpt>
      <trkpt lat="45.61828" lon="6.76744">
        <ele>878</ele>
        <time>2021-06-05T08:27:32Z</time>
      </trkpt>
      <trkpt lat="45.61826" lon="6.76739">
        <ele>878.6</ele>
        <time>2021-06-05T08:27:34Z</time>
      </trkpt>
      <trkpt lat="45.61824" lon="6.76734">
        <ele>878.6</ele>
        <time>2021-06-05T08:27:36Z</time>
      </trkpt>
      <trkpt lat="45.61823" lon="6.76731">
        <ele>878.4</ele>
        <time>2021-06-05T08:27:37Z</time>
      </trkpt>
      <trkpt lat="45.61821" lon="6.76728">
        <ele>878.8</ele>
        <time>2021-06-05T08:27:38Z</time>
      </trkpt>
      <trkpt lat="45.61818" lon="6.76726">
        <ele>879</ele>
        <time>2021-06-05T08:27:39Z</time>
      </trkpt>
      <trkpt lat="45.61815" lon="6.76724">
        <ele>879</ele>
        <time>2021-06-05T08:27:40Z</time>
      </trkpt>
      <trkpt lat="45.61811" lon="6.76722">
        <ele>879.4</ele>
        <time>2021-06-05T08:27:41Z</time>
      </trkpt>
      <trkpt lat="45.61806" lon="6.76721">
        <ele>879.2</ele>
        <time>2021-06-05T08:27:42Z</time>
      </trkpt>
      <trkpt lat="45.61801" lon="6.76719">
        <ele>879.2</ele>
        <time>2021-06-05T08:27:43Z</time>
      </trkpt>
      <trkpt lat="45.61797" lon="6.76718">
        <ele>879.4</ele>
        <time>2021-06-05T08:27:44Z</time>
      </trkpt>
      <trkpt lat="45.61792" lon="6.76716">
        <ele>879.2</ele>
        <time>2021-06-05T08:27:45Z</time>
      </trkpt>
      <trkpt lat="45.61788" lon="6.76715">
        <ele>879.6</ele>
        <time>2021-06-05T08:27:46Z</time>
      </trkpt>
      <trkpt lat="45.61785" lon="6.76714">
        <ele>879.2</ele>
        <time>2021-06-05T08:27:47Z</time>
      </trkpt>
      <trkpt lat="45.61782" lon="6.76713">
        <ele>878.6</ele>
        <time>2021-06-05T08:27:48Z</time>
      </trkpt>
      <trkpt lat="45.61778" lon="6.76712">
        <ele>879.2</ele>
        <time>2021-06-05T08:27:49Z</time>
      </trkpt>
      <trkpt lat="45.61775" lon="6.76712">
        <ele>879</ele>
        <time>2021-06-05T08:27:50Z</time>
      </trkpt>
      <trkpt lat="45.61771" lon="6.76711">
        <ele>878.6</ele>
        <time>2021-06-05T08:27:51Z</time>
      </trkpt>
      <trkpt lat="45.61767" lon="6.76711">
        <ele>878.8</ele>
        <time>2021-06-05T08:27:52Z</time>
      </trkpt>
      <trkpt lat="45.61764" lon="6.7671">
        <ele>878.8</ele>
        <time>2021-06-05T08:27:53Z</time>
      </trkpt>
      <trkpt lat="45.6176" lon="6.76709">
        <ele>879</ele>
        <time>2021-06-05T08:27:54Z</time>
      </trkpt>
      <trkpt lat="45.61757" lon="6.76708">
        <ele>879</ele>
        <time>2021-06-05T08:27:55Z</time>
      </trkpt>
      <trkpt lat="45.61754" lon="6.76706">
        <ele>878.6</ele>
        <time>2021-06-05T08:27:56Z</time>
      </trkpt>
      <trkpt lat="45.6175" lon="6.76705">
        <ele>878.8</ele>
        <time>2021-06-05T08:27:57Z</time>
      </trkpt>
      <trkpt lat="45.61746" lon="6.76703">
        <ele>878.4</ele>
        <time>2021-06-05T08:27:58Z</time>
      </trkpt>
      <trkpt lat="45.61742" lon="6.76701">
        <ele>878.2</ele>
        <time>2021-06-05T08:27:59Z</time>
      </trkpt>
      <trkpt lat="45.61739" lon="6.76699">
        <ele>878.4</ele>
        <time>2021-06-05T08:28:00Z</time>
      </trkpt>
      <trkpt lat="45.61735" lon="6.76698">
        <ele>878</ele>
        <time>2021-06-05T08:28:01Z</time>
      </trkpt>
      <trkpt lat="45.61731" lon="6.76698">
        <ele>877.6</ele>
        <time>2021-06-05T08:28:02Z</time>
      </trkpt>
      <trkpt lat="45.61729" lon="6.76697">
        <ele>877.8</ele>
        <time>2021-06-05T08:28:03Z</time>
      </trkpt>
      <trkpt lat="45.61728" lon="6.76695">
        <ele>877.6</ele>
        <time>2021-06-05T08:28:04Z</time>
      </trkpt>
      <trkpt lat="45.61726" lon="6.76692">
        <ele>877.8</ele>
        <time>2021-06-05T08:28:05Z</time>
      </trkpt>
      <trkpt lat="45.61723" lon="6.7669">
        <ele>877.4</ele>
        <time>2021-06-05T08:28:06Z</time>
      </trkpt>
      <trkpt lat="45.6172" lon="6.76688">
        <ele>877.2</ele>
        <time>2021-06-05T08:28:07Z</time>
      </trkpt>
      <trkpt lat="45.61716" lon="6.76686">
        <ele>877.6</ele>
        <time>2021-06-05T08:28:08Z</time>
      </trkpt>
      <trkpt lat="45.61714" lon="6.76684">
        <ele>877.4</ele>
        <time>2021-06-05T08:28:09Z</time>
      </trkpt>
      <trkpt lat="45.61711" lon="6.76682">
        <ele>877</ele>
        <time>2021-06-05T08:28:10Z</time>
      </trkpt>
      <trkpt lat="45.61709" lon="6.7668">
        <ele>877.4</ele>
        <time>2021-06-05T08:28:11Z</time>
      </trkpt>
      <trkpt lat="45.61706" lon="6.76678">
        <ele>877.2</ele>
        <time>2021-06-05T08:28:12Z</time>
      </trkpt>
      <trkpt lat="45.61703" lon="6.76676">
        <ele>877.4</ele>
        <time>2021-06-05T08:28:13Z</time>
      </trkpt>
      <trkpt lat="45.61701" lon="6.76673">
        <ele>877.6</ele>
        <time>2021-06-05T08:28:14Z</time>
      </trkpt>
      <trkpt lat="45.61699" lon="6.7667">
        <ele>877.6</ele>
        <time>2021-06-05T08:28:15Z</time>
      </trkpt>
      <trkpt lat="45.61697" lon="6.76666">
        <ele>878.2</ele>
        <time>2021-06-05T08:28:16Z</time>
      </trkpt>
      <trkpt lat="45.61697" lon="6.76662">
        <ele>878</ele>
        <time>2021-06-05T08:28:17Z</time>
      </trkpt>
      <trkpt lat="45.61696" lon="6.76659">
        <ele>878.4</ele>
        <time>2021-06-05T08:28:18Z</time>
      </trkpt>
      <trkpt lat="45.61697" lon="6.76656">
        <ele>878.8</ele>
        <time>2021-06-05T08:28:19Z</time>
      </trkpt>
      <trkpt lat="45.61697" lon="6.76652">
        <ele>879</ele>
        <time>2021-06-05T08:28:20Z</time>
      </trkpt>
      <trkpt lat="45.61699" lon="6.76649">
        <ele>879.4</ele>
        <time>2021-06-05T08:28:21Z</time>
      </trkpt>
      <trkpt lat="45.61699" lon="6.76647">
        <ele>879.6</ele>
        <time>2021-06-05T08:28:22Z</time>
      </trkpt>
      <trkpt lat="45.617" lon="6.76644">
        <ele>879.8</ele>
        <time>2021-06-05T08:28:23Z</time>
      </trkpt>
      <trkpt lat="45.61702" lon="6.7664">
        <ele>880</ele>
        <time>2021-06-05T08:28:25Z</time>
      </trkpt>
      <trkpt lat="45.61703" lon="6.76637">
        <ele>880.2</ele>
        <time>2021-06-05T08:28:26Z</time>
      </trkpt>
      <trkpt lat="45.61703" lon="6.76634">
        <ele>880.4</ele>
        <time>2021-06-05T08:28:27Z</time>
      </trkpt>
      <trkpt lat="45.61705" lon="6.7663">
        <ele>881</ele>
        <time>2021-06-05T08:28:28Z</time>
      </trkpt>
      <trkpt lat="45.61706" lon="6.76628">
        <ele>881</ele>
        <time>2021-06-05T08:28:29Z</time>
      </trkpt>
      <trkpt lat="45.61708" lon="6.76626">
        <ele>881.2</ele>
        <time>2021-06-05T08:28:30Z</time>
      </trkpt>
      <trkpt lat="45.6171" lon="6.76624">
        <ele>881.4</ele>
        <time>2021-06-05T08:28:31Z</time>
      </trkpt>
      <trkpt lat="45.61711" lon="6.76621">
        <ele>881.6</ele>
        <time>2021-06-05T08:28:32Z</time>
      </trkpt>
      <trkpt lat="45.61712" lon="6.76618">
        <ele>882.2</ele>
        <time>2021-06-05T08:28:33Z</time>
      </trkpt>
      <trkpt lat="45.61713" lon="6.76615">
        <ele>882.4</ele>
        <time>2021-06-05T08:28:34Z</time>
      </trkpt>
      <trkpt lat="45.61714" lon="6.76613">
        <ele>882.2</ele>
        <time>2021-06-05T08:28:35Z</time>
      </trkpt>
      <trkpt lat="45.61715" lon="6.7661">
        <ele>882.8</ele>
        <time>2021-06-05T08:28:36Z</time>
      </trkpt>
      <trkpt lat="45.61717" lon="6.76608">
        <ele>883</ele>
        <time>2021-06-05T08:28:37Z</time>
      </trkpt>
      <trkpt lat="45.61719" lon="6.76606">
        <ele>883.6</ele>
        <time>2021-06-05T08:28:38Z</time>
      </trkpt>
      <trkpt lat="45.6172" lon="6.76602">
        <ele>883.8</ele>
        <time>2021-06-05T08:28:39Z</time>
      </trkpt>
      <trkpt lat="45.61722" lon="6.766">
        <ele>884.4</ele>
        <time>2021-06-05T08:28:40Z</time>
      </trkpt>
      <trkpt lat="45.61723" lon="6.76597">
        <ele>884.8</ele>
        <time>2021-06-05T08:28:41Z</time>
      </trkpt>
      <trkpt lat="45.61724" lon="6.76594">
        <ele>884.8</ele>
        <time>2021-06-05T08:28:42Z</time>
      </trkpt>
      <trkpt lat="45.61726" lon="6.76591">
        <ele>885.4</ele>
        <time>2021-06-05T08:28:43Z</time>
      </trkpt>
      <trkpt lat="45.61728" lon="6.76587">
        <ele>885.6</ele>
        <time>2021-06-05T08:28:44Z</time>
      </trkpt>
      <trkpt lat="45.61729" lon="6.76584">
        <ele>886.4</ele>
        <time>2021-06-05T08:28:45Z</time>
      </trkpt>
      <trkpt lat="45.61731" lon="6.76582">
        <ele>886.6</ele>
        <time>2021-06-05T08:28:46Z</time>
      </trkpt>
      <trkpt lat="45.61732" lon="6.76579">
        <ele>886.8</ele>
        <time>2021-06-05T08:28:47Z</time>
      </trkpt>
      <trkpt lat="45.61734" lon="6.76577">
        <ele>887.2</ele>
        <time>2021-06-05T08:28:48Z</time>
      </trkpt>
      <trkpt lat="45.61737" lon="6.76572">
        <ele>887.8</ele>
        <time>2021-06-05T08:28:50Z</time>
      </trkpt>
      <trkpt lat="45.61738" lon="6.76568">
        <ele>888</ele>
        <time>2021-06-05T08:28:51Z</time>
      </trkpt>
      <trkpt lat="45.61739" lon="6.76564">
        <ele>888.4</ele>
        <time>2021-06-05T08:28:52Z</time>
      </trkpt>
      <trkpt lat="45.6174" lon="6.76561">
        <ele>888.4</ele>
        <time>2021-06-05T08:28:53Z</time>
      </trkpt>
      <trkpt lat="45.61742" lon="6.76558">
        <ele>888.4</ele>
        <time>2021-06-05T08:28:54Z</time>
      </trkpt>
      <trkpt lat="45.61743" lon="6.76555">
        <ele>888.8</ele>
        <time>2021-06-05T08:28:55Z</time>
      </trkpt>
      <trkpt lat="45.61744" lon="6.76552">
        <ele>889</ele>
        <time>2021-06-05T08:28:56Z</time>
      </trkpt>
      <trkpt lat="45.61746" lon="6.76549">
        <ele>889.8</ele>
        <time>2021-06-05T08:28:57Z</time>
      </trkpt>
      <trkpt lat="45.61748" lon="6.76546">
        <ele>889.8</ele>
        <time>2021-06-05T08:28:58Z</time>
      </trkpt>
      <trkpt lat="45.61749" lon="6.76542">
        <ele>890</ele>
        <time>2021-06-05T08:28:59Z</time>
      </trkpt>
      <trkpt lat="45.6175" lon="6.76539">
        <ele>890.4</ele>
        <time>2021-06-05T08:29:00Z</time>
      </trkpt>
      <trkpt lat="45.61752" lon="6.76536">
        <ele>890.6</ele>
        <time>2021-06-05T08:29:01Z</time>
      </trkpt>
      <trkpt lat="45.61753" lon="6.76532">
        <ele>891.2</ele>
        <time>2021-06-05T08:29:02Z</time>
      </trkpt>
      <trkpt lat="45.61754" lon="6.7653">
        <ele>891.4</ele>
        <time>2021-06-05T08:29:03Z</time>
      </trkpt>
      <trkpt lat="45.61755" lon="6.76526">
        <ele>892</ele>
        <time>2021-06-05T08:29:04Z</time>
      </trkpt>
      <trkpt lat="45.61756" lon="6.76524">
        <ele>892.2</ele>
        <time>2021-06-05T08:29:05Z</time>
      </trkpt>
      <trkpt lat="45.61757" lon="6.76521">
        <ele>892</ele>
        <time>2021-06-05T08:29:06Z</time>
      </trkpt>
      <trkpt lat="45.61758" lon="6.76518">
        <ele>892.6</ele>
        <time>2021-06-05T08:29:07Z</time>
      </trkpt>
      <trkpt lat="45.6176" lon="6.76515">
        <ele>893.6</ele>
        <time>2021-06-05T08:29:09Z</time>
      </trkpt>
      <trkpt lat="45.61762" lon="6.76512">
        <ele>894.6</ele>
        <time>2021-06-05T08:29:11Z</time>
      </trkpt>
      <trkpt lat="45.61764" lon="6.76508">
        <ele>894.8</ele>
        <time>2021-06-05T08:29:13Z</time>
      </trkpt>
      <trkpt lat="45.61765" lon="6.76504">
        <ele>895.8</ele>
        <time>2021-06-05T08:29:15Z</time>
      </trkpt>
      <trkpt lat="45.61767" lon="6.765">
        <ele>897</ele>
        <time>2021-06-05T08:29:17Z</time>
      </trkpt>
      <trkpt lat="45.61768" lon="6.76498">
        <ele>897.4</ele>
        <time>2021-06-05T08:29:18Z</time>
      </trkpt>
      <trkpt lat="45.6177" lon="6.76495">
        <ele>897.6</ele>
        <time>2021-06-05T08:29:19Z</time>
      </trkpt>
      <trkpt lat="45.6177" lon="6.76493">
        <ele>897.8</ele>
        <time>2021-06-05T08:29:20Z</time>
      </trkpt>
      <trkpt lat="45.61771" lon="6.76489">
        <ele>898.4</ele>
        <time>2021-06-05T08:29:21Z</time>
      </trkpt>
      <trkpt lat="45.61772" lon="6.76486">
        <ele>898.6</ele>
        <time>2021-06-05T08:29:22Z</time>
      </trkpt>
      <trkpt lat="45.61774" lon="6.76483">
        <ele>899.2</ele>
        <time>2021-06-05T08:29:23Z</time>
      </trkpt>
      <trkpt lat="45.61775" lon="6.76481">
        <ele>899.2</ele>
        <time>2021-06-05T08:29:24Z</time>
      </trkpt>
      <trkpt lat="45.61778" lon="6.76478">
        <ele>899.8</ele>
        <time>2021-06-05T08:29:26Z</time>
      </trkpt>
      <trkpt lat="45.6178" lon="6.76476">
        <ele>900.2</ele>
        <time>2021-06-05T08:29:27Z</time>
      </trkpt>
      <trkpt lat="45.61782" lon="6.76474">
        <ele>900.8</ele>
        <time>2021-06-05T08:29:28Z</time>
      </trkpt>
      <trkpt lat="45.61783" lon="6.76473">
        <ele>901.2</ele>
        <time>2021-06-05T08:29:29Z</time>
      </trkpt>
      <trkpt lat="45.61787" lon="6.76469">
        <ele>901.8</ele>
        <time>2021-06-05T08:29:31Z</time>
      </trkpt>
      <trkpt lat="45.61788" lon="6.76467">
        <ele>902</ele>
        <time>2021-06-05T08:29:32Z</time>
      </trkpt>
      <trkpt lat="45.61789" lon="6.76462">
        <ele>902.8</ele>
        <time>2021-06-05T08:29:34Z</time>
      </trkpt>
      <trkpt lat="45.61788" lon="6.7646">
        <ele>902.8</ele>
        <time>2021-06-05T08:29:35Z</time>
      </trkpt>
      <trkpt lat="45.61788" lon="6.76457">
        <ele>903.4</ele>
        <time>2021-06-05T08:29:36Z</time>
      </trkpt>
      <trkpt lat="45.61787" lon="6.76454">
        <ele>903.4</ele>
        <time>2021-06-05T08:29:37Z</time>
      </trkpt>
      <trkpt lat="45.61786" lon="6.7645">
        <ele>904.2</ele>
        <time>2021-06-05T08:29:38Z</time>
      </trkpt>
      <trkpt lat="45.61785" lon="6.76447">
        <ele>904.4</ele>
        <time>2021-06-05T08:29:39Z</time>
      </trkpt>
      <trkpt lat="45.61784" lon="6.76443">
        <ele>904</ele>
        <time>2021-06-05T08:29:40Z</time>
      </trkpt>
      <trkpt lat="45.61783" lon="6.76439">
        <ele>904.6</ele>
        <time>2021-06-05T08:29:41Z</time>
      </trkpt>
      <trkpt lat="45.61783" lon="6.76435">
        <ele>904.8</ele>
        <time>2021-06-05T08:29:42Z</time>
      </trkpt>
      <trkpt lat="45.61783" lon="6.76431">
        <ele>905.2</ele>
        <time>2021-06-05T08:29:43Z</time>
      </trkpt>
      <trkpt lat="45.61782" lon="6.76428">
        <ele>905.2</ele>
        <time>2021-06-05T08:29:44Z</time>
      </trkpt>
      <trkpt lat="45.61782" lon="6.76424">
        <ele>905</ele>
        <time>2021-06-05T08:29:45Z</time>
      </trkpt>
      <trkpt lat="45.61782" lon="6.7642">
        <ele>905.4</ele>
        <time>2021-06-05T08:29:46Z</time>
      </trkpt>
      <trkpt lat="45.61782" lon="6.76416">
        <ele>905.6</ele>
        <time>2021-06-05T08:29:47Z</time>
      </trkpt>
      <trkpt lat="45.61783" lon="6.76412">
        <ele>906</ele>
        <time>2021-06-05T08:29:48Z</time>
      </trkpt>
      <trkpt lat="45.61783" lon="6.76408">
        <ele>906</ele>
        <time>2021-06-05T08:29:49Z</time>
      </trkpt>
      <trkpt lat="45.61784" lon="6.76406">
        <ele>906</ele>
        <time>2021-06-05T08:29:50Z</time>
      </trkpt>
      <trkpt lat="45.61784" lon="6.76403">
        <ele>906.4</ele>
        <time>2021-06-05T08:29:51Z</time>
      </trkpt>
      <trkpt lat="45.61785" lon="6.764">
        <ele>906.6</ele>
        <time>2021-06-05T08:29:52Z</time>
      </trkpt>
      <trkpt lat="45.61786" lon="6.76398">
        <ele>907</ele>
        <time>2021-06-05T08:29:53Z</time>
      </trkpt>
      <trkpt lat="45.61788" lon="6.76393">
        <ele>907.2</ele>
        <time>2021-06-05T08:29:55Z</time>
      </trkpt>
      <trkpt lat="45.61789" lon="6.76389">
        <ele>908.2</ele>
        <time>2021-06-05T08:29:57Z</time>
      </trkpt>
      <trkpt lat="45.61791" lon="6.76385">
        <ele>909</ele>
        <time>2021-06-05T08:29:59Z</time>
      </trkpt>
      <trkpt lat="45.61792" lon="6.76383">
        <ele>909</ele>
        <time>2021-06-05T08:30:00Z</time>
      </trkpt>
      <trkpt lat="45.61794" lon="6.76381">
        <ele>910.2</ele>
        <time>2021-06-05T08:30:01Z</time>
      </trkpt>
      <trkpt lat="45.61796" lon="6.7638">
        <ele>910.2</ele>
        <time>2021-06-05T08:30:02Z</time>
      </trkpt>
      <trkpt lat="45.61798" lon="6.7638">
        <ele>910.6</ele>
        <time>2021-06-05T08:30:03Z</time>
      </trkpt>
      <trkpt lat="45.618" lon="6.7638">
        <ele>910.8</ele>
        <time>2021-06-05T08:30:04Z</time>
      </trkpt>
      <trkpt lat="45.61803" lon="6.7638">
        <ele>911.4</ele>
        <time>2021-06-05T08:30:06Z</time>
      </trkpt>
      <trkpt lat="45.61806" lon="6.76382">
        <ele>912</ele>
        <time>2021-06-05T08:30:08Z</time>
      </trkpt>
      <trkpt lat="45.61808" lon="6.76382">
        <ele>912.2</ele>
        <time>2021-06-05T08:30:09Z</time>
      </trkpt>
      <trkpt lat="45.61811" lon="6.76383">
        <ele>912.2</ele>
        <time>2021-06-05T08:30:10Z</time>
      </trkpt>
      <trkpt lat="45.61813" lon="6.76384">
        <ele>912.8</ele>
        <time>2021-06-05T08:30:11Z</time>
      </trkpt>
      <trkpt lat="45.61816" lon="6.76385">
        <ele>913.6</ele>
        <time>2021-06-05T08:30:13Z</time>
      </trkpt>
      <trkpt lat="45.6182" lon="6.76386">
        <ele>913.8</ele>
        <time>2021-06-05T08:30:15Z</time>
      </trkpt>
      <trkpt lat="45.61822" lon="6.76387">
        <ele>914.4</ele>
        <time>2021-06-05T08:30:16Z</time>
      </trkpt>
      <trkpt lat="45.61824" lon="6.76388">
        <ele>914.6</ele>
        <time>2021-06-05T08:30:17Z</time>
      </trkpt>
      <trkpt lat="45.61826" lon="6.76388">
        <ele>915</ele>
        <time>2021-06-05T08:30:18Z</time>
      </trkpt>
      <trkpt lat="45.61828" lon="6.7639">
        <ele>915.4</ele>
        <time>2021-06-05T08:30:19Z</time>
      </trkpt>
      <trkpt lat="45.6183" lon="6.76391">
        <ele>915.4</ele>
        <time>2021-06-05T08:30:20Z</time>
      </trkpt>
      <trkpt lat="45.61832" lon="6.76391">
        <ele>915.8</ele>
        <time>2021-06-05T08:30:21Z</time>
      </trkpt>
      <trkpt lat="45.61834" lon="6.76391">
        <ele>915.8</ele>
        <time>2021-06-05T08:30:22Z</time>
      </trkpt>
      <trkpt lat="45.61837" lon="6.7639">
        <ele>915.8</ele>
        <time>2021-06-05T08:30:23Z</time>
      </trkpt>
      <trkpt lat="45.61839" lon="6.76389">
        <ele>916</ele>
        <time>2021-06-05T08:30:24Z</time>
      </trkpt>
      <trkpt lat="45.61841" lon="6.76388">
        <ele>916.2</ele>
        <time>2021-06-05T08:30:25Z</time>
      </trkpt>
      <trkpt lat="45.61845" lon="6.76384">
        <ele>916.6</ele>
        <time>2021-06-05T08:30:27Z</time>
      </trkpt>
      <trkpt lat="45.61847" lon="6.76382">
        <ele>916.6</ele>
        <time>2021-06-05T08:30:28Z</time>
      </trkpt>
      <trkpt lat="45.61848" lon="6.7638">
        <ele>916.8</ele>
        <time>2021-06-05T08:30:29Z</time>
      </trkpt>
      <trkpt lat="45.6185" lon="6.76378">
        <ele>917.6</ele>
        <time>2021-06-05T08:30:31Z</time>
      </trkpt>
      <trkpt lat="45.61853" lon="6.76376">
        <ele>917.4</ele>
        <time>2021-06-05T08:30:33Z</time>
      </trkpt>
      <trkpt lat="45.61855" lon="6.76374">
        <ele>918.4</ele>
        <time>2021-06-05T08:30:35Z</time>
      </trkpt>
      <trkpt lat="45.61857" lon="6.76371">
        <ele>919.2</ele>
        <time>2021-06-05T08:30:37Z</time>
      </trkpt>
      <trkpt lat="45.6186" lon="6.76367">
        <ele>920.2</ele>
        <time>2021-06-05T08:30:39Z</time>
      </trkpt>
      <trkpt lat="45.61861" lon="6.76366">
        <ele>920.4</ele>
        <time>2021-06-05T08:30:40Z</time>
      </trkpt>
      <trkpt lat="45.61863" lon="6.76364">
        <ele>920.2</ele>
        <time>2021-06-05T08:30:41Z</time>
      </trkpt>
      <trkpt lat="45.61865" lon="6.76362">
        <ele>921.2</ele>
        <time>2021-06-05T08:30:43Z</time>
      </trkpt>
      <trkpt lat="45.61868" lon="6.7636">
        <ele>921.8</ele>
        <time>2021-06-05T08:30:44Z</time>
      </trkpt>
      <trkpt lat="45.6187" lon="6.76358">
        <ele>922.2</ele>
        <time>2021-06-05T08:30:45Z</time>
      </trkpt>
      <trkpt lat="45.61872" lon="6.76358">
        <ele>922</ele>
        <time>2021-06-05T08:30:46Z</time>
      </trkpt>
      <trkpt lat="45.61874" lon="6.76356">
        <ele>922.4</ele>
        <time>2021-06-05T08:30:48Z</time>
      </trkpt>
      <trkpt lat="45.61875" lon="6.76353">
        <ele>923.2</ele>
        <time>2021-06-05T08:30:50Z</time>
      </trkpt>
      <trkpt lat="45.61876" lon="6.7635">
        <ele>924</ele>
        <time>2021-06-05T08:30:52Z</time>
      </trkpt>
      <trkpt lat="45.61879" lon="6.76347">
        <ele>924.8</ele>
        <time>2021-06-05T08:30:54Z</time>
      </trkpt>
      <trkpt lat="45.61881" lon="6.76346">
        <ele>925.2</ele>
        <time>2021-06-05T08:30:55Z</time>
      </trkpt>
      <trkpt lat="45.61883" lon="6.76343">
        <ele>926</ele>
        <time>2021-06-05T08:30:57Z</time>
      </trkpt>
      <trkpt lat="45.61885" lon="6.76341">
        <ele>926</ele>
        <time>2021-06-05T08:30:58Z</time>
      </trkpt>
      <trkpt lat="45.61888" lon="6.76337">
        <ele>926.8</ele>
        <time>2021-06-05T08:31:00Z</time>
      </trkpt>
      <trkpt lat="45.61889" lon="6.76335">
        <ele>927.2</ele>
        <time>2021-06-05T08:31:01Z</time>
      </trkpt>
      <trkpt lat="45.61891" lon="6.76332">
        <ele>927.4</ele>
        <time>2021-06-05T08:31:02Z</time>
      </trkpt>
      <trkpt lat="45.61893" lon="6.7633">
        <ele>927.8</ele>
        <time>2021-06-05T08:31:03Z</time>
      </trkpt>
      <trkpt lat="45.61896" lon="6.76329">
        <ele>928.4</ele>
        <time>2021-06-05T08:31:04Z</time>
      </trkpt>
      <trkpt lat="45.61898" lon="6.76328">
        <ele>928.6</ele>
        <time>2021-06-05T08:31:05Z</time>
      </trkpt>
      <trkpt lat="45.619" lon="6.76326">
        <ele>929.2</ele>
        <time>2021-06-05T08:31:06Z</time>
      </trkpt>
      <trkpt lat="45.61902" lon="6.76323">
        <ele>929.2</ele>
        <time>2021-06-05T08:31:08Z</time>
      </trkpt>
      <trkpt lat="45.61903" lon="6.7632">
        <ele>929.6</ele>
        <time>2021-06-05T08:31:09Z</time>
      </trkpt>
      <trkpt lat="45.61905" lon="6.76316">
        <ele>930.2</ele>
        <time>2021-06-05T08:31:11Z</time>
      </trkpt>
      <trkpt lat="45.61906" lon="6.76311">
        <ele>930.4</ele>
        <time>2021-06-05T08:31:13Z</time>
      </trkpt>
      <trkpt lat="45.61907" lon="6.76308">
        <ele>931</ele>
        <time>2021-06-05T08:31:14Z</time>
      </trkpt>
      <trkpt lat="45.61906" lon="6.76304">
        <ele>931</ele>
        <time>2021-06-05T08:31:15Z</time>
      </trkpt>
      <trkpt lat="45.61905" lon="6.763">
        <ele>930.8</ele>
        <time>2021-06-05T08:31:16Z</time>
      </trkpt>
      <trkpt lat="45.61905" lon="6.76296">
        <ele>931.4</ele>
        <time>2021-06-05T08:31:17Z</time>
      </trkpt>
      <trkpt lat="45.61905" lon="6.76292">
        <ele>931.6</ele>
        <time>2021-06-05T08:31:18Z</time>
      </trkpt>
      <trkpt lat="45.61905" lon="6.76288">
        <ele>932.2</ele>
        <time>2021-06-05T08:31:19Z</time>
      </trkpt>
      <trkpt lat="45.61906" lon="6.76284">
        <ele>932.2</ele>
        <time>2021-06-05T08:31:20Z</time>
      </trkpt>
      <trkpt lat="45.61907" lon="6.7628">
        <ele>932.6</ele>
        <time>2021-06-05T08:31:21Z</time>
      </trkpt>
      <trkpt lat="45.61908" lon="6.76277">
        <ele>932.6</ele>
        <time>2021-06-05T08:31:22Z</time>
      </trkpt>
      <trkpt lat="45.61908" lon="6.76274">
        <ele>932.6</ele>
        <time>2021-06-05T08:31:23Z</time>
      </trkpt>
      <trkpt lat="45.61908" lon="6.76271">
        <ele>933.2</ele>
        <time>2021-06-05T08:31:24Z</time>
      </trkpt>
      <trkpt lat="45.61909" lon="6.76269">
        <ele>933.2</ele>
        <time>2021-06-05T08:31:25Z</time>
      </trkpt>
      <trkpt lat="45.61911" lon="6.76266">
        <ele>933.6</ele>
        <time>2021-06-05T08:31:26Z</time>
      </trkpt>
      <trkpt lat="45.61911" lon="6.7626">
        <ele>933.8</ele>
        <time>2021-06-05T08:31:28Z</time>
      </trkpt>
      <trkpt lat="45.61912" lon="6.76257">
        <ele>934.4</ele>
        <time>2021-06-05T08:31:29Z</time>
      </trkpt>
      <trkpt lat="45.61914" lon="6.76254">
        <ele>934.4</ele>
        <time>2021-06-05T08:31:30Z</time>
      </trkpt>
      <trkpt lat="45.61915" lon="6.76251">
        <ele>934.6</ele>
        <time>2021-06-05T08:31:31Z</time>
      </trkpt>
      <trkpt lat="45.61916" lon="6.76248">
        <ele>934.8</ele>
        <time>2021-06-05T08:31:32Z</time>
      </trkpt>
      <trkpt lat="45.61918" lon="6.76246">
        <ele>934.8</ele>
        <time>2021-06-05T08:31:33Z</time>
      </trkpt>
      <trkpt lat="45.61921" lon="6.76242">
        <ele>935</ele>
        <time>2021-06-05T08:31:35Z</time>
      </trkpt>
      <trkpt lat="45.61923" lon="6.76238">
        <ele>935.2</ele>
        <time>2021-06-05T08:31:37Z</time>
      </trkpt>
      <trkpt lat="45.61924" lon="6.76236">
        <ele>935.6</ele>
        <time>2021-06-05T08:31:39Z</time>
      </trkpt>
      <trkpt lat="45.61925" lon="6.76233">
        <ele>935.6</ele>
        <time>2021-06-05T08:31:41Z</time>
      </trkpt>
      <trkpt lat="45.61926" lon="6.76229">
        <ele>936.2</ele>
        <time>2021-06-05T08:31:43Z</time>
      </trkpt>
      <trkpt lat="45.61927" lon="6.76226">
        <ele>936.8</ele>
        <time>2021-06-05T08:31:45Z</time>
      </trkpt>
      <trkpt lat="45.61926" lon="6.76222">
        <ele>937.8</ele>
        <time>2021-06-05T08:31:47Z</time>
      </trkpt>
      <trkpt lat="45.61927" lon="6.76218">
        <ele>938</ele>
        <time>2021-06-05T08:31:49Z</time>
      </trkpt>
      <trkpt lat="45.61927" lon="6.76214">
        <ele>939.2</ele>
        <time>2021-06-05T08:31:51Z</time>
      </trkpt>
      <trkpt lat="45.61927" lon="6.7621">
        <ele>939.8</ele>
        <time>2021-06-05T08:31:53Z</time>
      </trkpt>
      <trkpt lat="45.61925" lon="6.76208">
        <ele>940.4</ele>
        <time>2021-06-05T08:31:54Z</time>
      </trkpt>
      <trkpt lat="45.61924" lon="6.76203">
        <ele>941.4</ele>
        <time>2021-06-05T08:31:56Z</time>
      </trkpt>
      <trkpt lat="45.61923" lon="6.76198">
        <ele>941.6</ele>
        <time>2021-06-05T08:31:58Z</time>
      </trkpt>
      <trkpt lat="45.61922" lon="6.76196">
        <ele>942</ele>
        <time>2021-06-05T08:31:59Z</time>
      </trkpt>
      <trkpt lat="45.61921" lon="6.76194">
        <ele>942</ele>
        <time>2021-06-05T08:32:00Z</time>
      </trkpt>
      <trkpt lat="45.61921" lon="6.7619">
        <ele>942.6</ele>
        <time>2021-06-05T08:32:01Z</time>
      </trkpt>
      <trkpt lat="45.61922" lon="6.76188">
        <ele>942.6</ele>
        <time>2021-06-05T08:32:02Z</time>
      </trkpt>
      <trkpt lat="45.61922" lon="6.76183">
        <ele>943.4</ele>
        <time>2021-06-05T08:32:04Z</time>
      </trkpt>
      <trkpt lat="45.61923" lon="6.76179">
        <ele>943.8</ele>
        <time>2021-06-05T08:32:06Z</time>
      </trkpt>
      <trkpt lat="45.61923" lon="6.76176">
        <ele>944.8</ele>
        <time>2021-06-05T08:32:08Z</time>
      </trkpt>
      <trkpt lat="45.61924" lon="6.76172">
        <ele>945.4</ele>
        <time>2021-06-05T08:32:10Z</time>
      </trkpt>
      <trkpt lat="45.61925" lon="6.76169">
        <ele>946.2</ele>
        <time>2021-06-05T08:32:12Z</time>
      </trkpt>
      <trkpt lat="45.61927" lon="6.76167">
        <ele>946.2</ele>
        <time>2021-06-05T08:32:13Z</time>
      </trkpt>
      <trkpt lat="45.61928" lon="6.76163">
        <ele>947.4</ele>
        <time>2021-06-05T08:32:15Z</time>
      </trkpt>
      <trkpt lat="45.61928" lon="6.76159">
        <ele>947.6</ele>
        <time>2021-06-05T08:32:17Z</time>
      </trkpt>
      <trkpt lat="45.6193" lon="6.76156">
        <ele>948.4</ele>
        <time>2021-06-05T08:32:19Z</time>
      </trkpt>
      <trkpt lat="45.61929" lon="6.76154">
        <ele>949.4</ele>
        <time>2021-06-05T08:32:21Z</time>
      </trkpt>
      <trkpt lat="45.61928" lon="6.76149">
        <ele>950.2</ele>
        <time>2021-06-05T08:32:24Z</time>
      </trkpt>
      <trkpt lat="45.61927" lon="6.76145">
        <ele>951</ele>
        <time>2021-06-05T08:32:26Z</time>
      </trkpt>
      <trkpt lat="45.61927" lon="6.76141">
        <ele>951.2</ele>
        <time>2021-06-05T08:32:28Z</time>
      </trkpt>
      <trkpt lat="45.61928" lon="6.76139">
        <ele>951.8</ele>
        <time>2021-06-05T08:32:30Z</time>
      </trkpt>
      <trkpt lat="45.6193" lon="6.76137">
        <ele>952.6</ele>
        <time>2021-06-05T08:32:32Z</time>
      </trkpt>
      <trkpt lat="45.61932" lon="6.76135">
        <ele>952.8</ele>
        <time>2021-06-05T08:32:34Z</time>
      </trkpt>
      <trkpt lat="45.61932" lon="6.76132">
        <ele>953.6</ele>
        <time>2021-06-05T08:32:36Z</time>
      </trkpt>
      <trkpt lat="45.61932" lon="6.76128">
        <ele>954.2</ele>
        <time>2021-06-05T08:32:38Z</time>
      </trkpt>
      <trkpt lat="45.61931" lon="6.76124">
        <ele>954.6</ele>
        <time>2021-06-05T08:32:40Z</time>
      </trkpt>
      <trkpt lat="45.61933" lon="6.76121">
        <ele>955.2</ele>
        <time>2021-06-05T08:32:42Z</time>
      </trkpt>
      <trkpt lat="45.61935" lon="6.7612">
        <ele>955.8</ele>
        <time>2021-06-05T08:32:44Z</time>
      </trkpt>
      <trkpt lat="45.61937" lon="6.76118">
        <ele>956.2</ele>
        <time>2021-06-05T08:32:46Z</time>
      </trkpt>
      <trkpt lat="45.61937" lon="6.76115">
        <ele>957.4</ele>
        <time>2021-06-05T08:32:48Z</time>
      </trkpt>
      <trkpt lat="45.61934" lon="6.76112">
        <ele>958.4</ele>
        <time>2021-06-05T08:32:50Z</time>
      </trkpt>
      <trkpt lat="45.61933" lon="6.76109">
        <ele>959.6</ele>
        <time>2021-06-05T08:32:52Z</time>
      </trkpt>
      <trkpt lat="45.61932" lon="6.76106">
        <ele>960.2</ele>
        <time>2021-06-05T08:32:54Z</time>
      </trkpt>
      <trkpt lat="45.61933" lon="6.76103">
        <ele>961</ele>
        <time>2021-06-05T08:32:56Z</time>
      </trkpt>
      <trkpt lat="45.61934" lon="6.761">
        <ele>961.8</ele>
        <time>2021-06-05T08:32:58Z</time>
      </trkpt>
      <trkpt lat="45.61935" lon="6.76098">
        <ele>962.2</ele>
        <time>2021-06-05T08:33:00Z</time>
      </trkpt>
      <trkpt lat="45.61937" lon="6.76096">
        <ele>963.4</ele>
        <time>2021-06-05T08:33:02Z</time>
      </trkpt>
      <trkpt lat="45.61937" lon="6.76092">
        <ele>964.2</ele>
        <time>2021-06-05T08:33:04Z</time>
      </trkpt>
      <trkpt lat="45.61935" lon="6.76088">
        <ele>965</ele>
        <time>2021-06-05T08:33:06Z</time>
      </trkpt>
      <trkpt lat="45.61933" lon="6.76085">
        <ele>965.4</ele>
        <time>2021-06-05T08:33:07Z</time>
      </trkpt>
      <trkpt lat="45.61932" lon="6.76083">
        <ele>965.4</ele>
        <time>2021-06-05T08:33:08Z</time>
      </trkpt>
      <trkpt lat="45.61932" lon="6.7608">
        <ele>966</ele>
        <time>2021-06-05T08:33:09Z</time>
      </trkpt>
      <trkpt lat="45.61931" lon="6.76078">
        <ele>965.8</ele>
        <time>2021-06-05T08:33:10Z</time>
      </trkpt>
      <trkpt lat="45.61931" lon="6.76074">
        <ele>965.6</ele>
        <time>2021-06-05T08:33:11Z</time>
      </trkpt>
      <trkpt lat="45.6193" lon="6.76072">
        <ele>966.2</ele>
        <time>2021-06-05T08:33:12Z</time>
      </trkpt>
      <trkpt lat="45.61931" lon="6.76069">
        <ele>965.8</ele>
        <time>2021-06-05T08:33:13Z</time>
      </trkpt>
      <trkpt lat="45.61929" lon="6.76065">
        <ele>966.2</ele>
        <time>2021-06-05T08:33:14Z</time>
      </trkpt>
      <trkpt lat="45.61928" lon="6.76062">
        <ele>966.2</ele>
        <time>2021-06-05T08:33:15Z</time>
      </trkpt>
      <trkpt lat="45.61927" lon="6.76057">
        <ele>965.8</ele>
        <time>2021-06-05T08:33:16Z</time>
      </trkpt>
      <trkpt lat="45.61927" lon="6.76053">
        <ele>966.4</ele>
        <time>2021-06-05T08:33:17Z</time>
      </trkpt>
      <trkpt lat="45.61928" lon="6.7605">
        <ele>966.2</ele>
        <time>2021-06-05T08:33:18Z</time>
      </trkpt>
      <trkpt lat="45.61928" lon="6.76046">
        <ele>966.4</ele>
        <time>2021-06-05T08:33:19Z</time>
      </trkpt>
      <trkpt lat="45.61928" lon="6.76042">
        <ele>966.8</ele>
        <time>2021-06-05T08:33:20Z</time>
      </trkpt>
      <trkpt lat="45.61929" lon="6.76038">
        <ele>967</ele>
        <time>2021-06-05T08:33:21Z</time>
      </trkpt>
      <trkpt lat="45.61928" lon="6.76035">
        <ele>967.6</ele>
        <time>2021-06-05T08:33:22Z</time>
      </trkpt>
      <trkpt lat="45.61929" lon="6.76031">
        <ele>967.6</ele>
        <time>2021-06-05T08:33:23Z</time>
      </trkpt>
      <trkpt lat="45.61931" lon="6.76028">
        <ele>967.4</ele>
        <time>2021-06-05T08:33:24Z</time>
      </trkpt>
      <trkpt lat="45.61931" lon="6.76024">
        <ele>968</ele>
        <time>2021-06-05T08:33:25Z</time>
      </trkpt>
      <trkpt lat="45.61932" lon="6.76021">
        <ele>968.2</ele>
        <time>2021-06-05T08:33:26Z</time>
      </trkpt>
      <trkpt lat="45.61934" lon="6.76018">
        <ele>968.8</ele>
        <time>2021-06-05T08:33:27Z</time>
      </trkpt>
      <trkpt lat="45.61934" lon="6.76014">
        <ele>969</ele>
        <time>2021-06-05T08:33:28Z</time>
      </trkpt>
      <trkpt lat="45.61935" lon="6.76011">
        <ele>969.2</ele>
        <time>2021-06-05T08:33:29Z</time>
      </trkpt>
      <trkpt lat="45.61935" lon="6.76008">
        <ele>969.8</ele>
        <time>2021-06-05T08:33:30Z</time>
      </trkpt>
      <trkpt lat="45.61936" lon="6.76006">
        <ele>970</ele>
        <time>2021-06-05T08:33:31Z</time>
      </trkpt>
      <trkpt lat="45.61937" lon="6.76003">
        <ele>970</ele>
        <time>2021-06-05T08:33:32Z</time>
      </trkpt>
      <trkpt lat="45.61939" lon="6.76">
        <ele>970.6</ele>
        <time>2021-06-05T08:33:33Z</time>
      </trkpt>
      <trkpt lat="45.61941" lon="6.75996">
        <ele>971</ele>
        <time>2021-06-05T08:33:35Z</time>
      </trkpt>
      <trkpt lat="45.61943" lon="6.75994">
        <ele>971.6</ele>
        <time>2021-06-05T08:33:36Z</time>
      </trkpt>
      <trkpt lat="45.61944" lon="6.75992">
        <ele>971.8</ele>
        <time>2021-06-05T08:33:37Z</time>
      </trkpt>
      <trkpt lat="45.61947" lon="6.75988">
        <ele>972.6</ele>
        <time>2021-06-05T08:33:39Z</time>
      </trkpt>
      <trkpt lat="45.61947" lon="6.75985">
        <ele>972.4</ele>
        <time>2021-06-05T08:33:40Z</time>
      </trkpt>
      <trkpt lat="45.61949" lon="6.75983">
        <ele>973</ele>
        <time>2021-06-05T08:33:41Z</time>
      </trkpt>
      <trkpt lat="45.61951" lon="6.75981">
        <ele>973.4</ele>
        <time>2021-06-05T08:33:42Z</time>
      </trkpt>
      <trkpt lat="45.61953" lon="6.75979">
        <ele>973.8</ele>
        <time>2021-06-05T08:33:43Z</time>
      </trkpt>
      <trkpt lat="45.61951" lon="6.7598">
        <ele>975</ele>
        <time>2021-06-05T08:33:53Z</time>
      </trkpt>
      <trkpt lat="45.61951" lon="6.75976">
        <ele>975</ele>
        <time>2021-06-05T08:33:55Z</time>
      </trkpt>
      <trkpt lat="45.61951" lon="6.75973">
        <ele>974.6</ele>
        <time>2021-06-05T08:33:56Z</time>
      </trkpt>
      <trkpt lat="45.61949" lon="6.75969">
        <ele>974.4</ele>
        <time>2021-06-05T08:33:57Z</time>
      </trkpt>
      <trkpt lat="45.61948" lon="6.75966">
        <ele>974.4</ele>
        <time>2021-06-05T08:33:58Z</time>
      </trkpt>
      <trkpt lat="45.61948" lon="6.75962">
        <ele>973.8</ele>
        <time>2021-06-05T08:33:59Z</time>
      </trkpt>
      <trkpt lat="45.61948" lon="6.75958">
        <ele>973.8</ele>
        <time>2021-06-05T08:34:00Z</time>
      </trkpt>
      <trkpt lat="45.61949" lon="6.75955">
        <ele>973.4</ele>
        <time>2021-06-05T08:34:01Z</time>
      </trkpt>
      <trkpt lat="45.61948" lon="6.7595">
        <ele>972.8</ele>
        <time>2021-06-05T08:34:02Z</time>
      </trkpt>
      <trkpt lat="45.61949" lon="6.75947">
        <ele>973</ele>
        <time>2021-06-05T08:34:03Z</time>
      </trkpt>
      <trkpt lat="45.61949" lon="6.75944">
        <ele>972.6</ele>
        <time>2021-06-05T08:34:04Z</time>
      </trkpt>
      <trkpt lat="45.6195" lon="6.75941">
        <ele>972.8</ele>
        <time>2021-06-05T08:34:05Z</time>
      </trkpt>
      <trkpt lat="45.61951" lon="6.75936">
        <ele>972.8</ele>
        <time>2021-06-05T08:34:07Z</time>
      </trkpt>
      <trkpt lat="45.61952" lon="6.75933">
        <ele>973.2</ele>
        <time>2021-06-05T08:34:08Z</time>
      </trkpt>
      <trkpt lat="45.61952" lon="6.75928">
        <ele>973.8</ele>
        <time>2021-06-05T08:34:10Z</time>
      </trkpt>
      <trkpt lat="45.61952" lon="6.75925">
        <ele>974</ele>
        <time>2021-06-05T08:34:11Z</time>
      </trkpt>
      <trkpt lat="45.61953" lon="6.75923">
        <ele>974</ele>
        <time>2021-06-05T08:34:12Z</time>
      </trkpt>
      <trkpt lat="45.61953" lon="6.75919">
        <ele>974.6</ele>
        <time>2021-06-05T08:34:13Z</time>
      </trkpt>
      <trkpt lat="45.61955" lon="6.75915">
        <ele>974.8</ele>
        <time>2021-06-05T08:34:14Z</time>
      </trkpt>
      <trkpt lat="45.61957" lon="6.75912">
        <ele>975.4</ele>
        <time>2021-06-05T08:34:15Z</time>
      </trkpt>
      <trkpt lat="45.61958" lon="6.75908">
        <ele>975.8</ele>
        <time>2021-06-05T08:34:16Z</time>
      </trkpt>
      <trkpt lat="45.61959" lon="6.75905">
        <ele>975.8</ele>
        <time>2021-06-05T08:34:17Z</time>
      </trkpt>
      <trkpt lat="45.61962" lon="6.75901">
        <ele>976.8</ele>
        <time>2021-06-05T08:34:19Z</time>
      </trkpt>
      <trkpt lat="45.61963" lon="6.75898">
        <ele>977.2</ele>
        <time>2021-06-05T08:34:20Z</time>
      </trkpt>
      <trkpt lat="45.61965" lon="6.75895">
        <ele>977.4</ele>
        <time>2021-06-05T08:34:22Z</time>
      </trkpt>
      <trkpt lat="45.61967" lon="6.75893">
        <ele>978</ele>
        <time>2021-06-05T08:34:23Z</time>
      </trkpt>
      <trkpt lat="45.61968" lon="6.75891">
        <ele>978.2</ele>
        <time>2021-06-05T08:34:24Z</time>
      </trkpt>
      <trkpt lat="45.6197" lon="6.75889">
        <ele>978.6</ele>
        <time>2021-06-05T08:34:25Z</time>
      </trkpt>
      <trkpt lat="45.61971" lon="6.75884">
        <ele>979</ele>
        <time>2021-06-05T08:34:27Z</time>
      </trkpt>
      <trkpt lat="45.61972" lon="6.75882">
        <ele>979.6</ele>
        <time>2021-06-05T08:34:28Z</time>
      </trkpt>
      <trkpt lat="45.61973" lon="6.75879">
        <ele>979.8</ele>
        <time>2021-06-05T08:34:29Z</time>
      </trkpt>
      <trkpt lat="45.61974" lon="6.75877">
        <ele>980.2</ele>
        <time>2021-06-05T08:34:30Z</time>
      </trkpt>
      <trkpt lat="45.61975" lon="6.75873">
        <ele>980.6</ele>
        <time>2021-06-05T08:34:32Z</time>
      </trkpt>
      <trkpt lat="45.61977" lon="6.75869">
        <ele>981.4</ele>
        <time>2021-06-05T08:34:34Z</time>
      </trkpt>
      <trkpt lat="45.61978" lon="6.75866">
        <ele>982</ele>
        <time>2021-06-05T08:34:35Z</time>
      </trkpt>
      <trkpt lat="45.61978" lon="6.75861">
        <ele>982.6</ele>
        <time>2021-06-05T08:34:37Z</time>
      </trkpt>
      <trkpt lat="45.6198" lon="6.75858">
        <ele>983.6</ele>
        <time>2021-06-05T08:34:39Z</time>
      </trkpt>
      <trkpt lat="45.61981" lon="6.75855">
        <ele>984.2</ele>
        <time>2021-06-05T08:34:41Z</time>
      </trkpt>
      <trkpt lat="45.61983" lon="6.75851">
        <ele>985</ele>
        <time>2021-06-05T08:34:43Z</time>
      </trkpt>
      <trkpt lat="45.61985" lon="6.75848">
        <ele>986</ele>
        <time>2021-06-05T08:34:45Z</time>
      </trkpt>
      <trkpt lat="45.61985" lon="6.75844">
        <ele>987</ele>
        <time>2021-06-05T08:34:47Z</time>
      </trkpt>
      <trkpt lat="45.61987" lon="6.75842">
        <ele>987.6</ele>
        <time>2021-06-05T08:34:48Z</time>
      </trkpt>
      <trkpt lat="45.61988" lon="6.75838">
        <ele>987.8</ele>
        <time>2021-06-05T08:34:50Z</time>
      </trkpt>
      <trkpt lat="45.61991" lon="6.75834">
        <ele>989</ele>
        <time>2021-06-05T08:34:52Z</time>
      </trkpt>
      <trkpt lat="45.61991" lon="6.75831">
        <ele>989.2</ele>
        <time>2021-06-05T08:34:53Z</time>
      </trkpt>
      <trkpt lat="45.61991" lon="6.75827">
        <ele>990.2</ele>
        <time>2021-06-05T08:34:55Z</time>
      </trkpt>
      <trkpt lat="45.61992" lon="6.75823">
        <ele>990.8</ele>
        <time>2021-06-05T08:34:57Z</time>
      </trkpt>
      <trkpt lat="45.61993" lon="6.75819">
        <ele>991.4</ele>
        <time>2021-06-05T08:34:59Z</time>
      </trkpt>
      <trkpt lat="45.61993" lon="6.75816">
        <ele>991.6</ele>
        <time>2021-06-05T08:35:00Z</time>
      </trkpt>
      <trkpt lat="45.61994" lon="6.75813">
        <ele>992.2</ele>
        <time>2021-06-05T08:35:01Z</time>
      </trkpt>
      <trkpt lat="45.61994" lon="6.75809">
        <ele>992.8</ele>
        <time>2021-06-05T08:35:02Z</time>
      </trkpt>
      <trkpt lat="45.61994" lon="6.75805">
        <ele>992.8</ele>
        <time>2021-06-05T08:35:03Z</time>
      </trkpt>
      <trkpt lat="45.61995" lon="6.758">
        <ele>993</ele>
        <time>2021-06-05T08:35:04Z</time>
      </trkpt>
      <trkpt lat="45.61997" lon="6.75793">
        <ele>993</ele>
        <time>2021-06-05T08:35:05Z</time>
      </trkpt>
      <trkpt lat="45.62" lon="6.75786">
        <ele>993</ele>
        <time>2021-06-05T08:35:06Z</time>
      </trkpt>
      <trkpt lat="45.62002" lon="6.7578">
        <ele>993.4</ele>
        <time>2021-06-05T08:35:07Z</time>
      </trkpt>
      <trkpt lat="45.62003" lon="6.75771">
        <ele>993.6</ele>
        <time>2021-06-05T08:35:08Z</time>
      </trkpt>
      <trkpt lat="45.62004" lon="6.75766">
        <ele>993.6</ele>
        <time>2021-06-05T08:35:09Z</time>
      </trkpt>
      <trkpt lat="45.62005" lon="6.75762">
        <ele>994</ele>
        <time>2021-06-05T08:35:10Z</time>
      </trkpt>
      <trkpt lat="45.62008" lon="6.75761">
        <ele>994.4</ele>
        <time>2021-06-05T08:35:11Z</time>
      </trkpt>
      <trkpt lat="45.62011" lon="6.75757">
        <ele>995</ele>
        <time>2021-06-05T08:35:12Z</time>
      </trkpt>
      <trkpt lat="45.62014" lon="6.75752">
        <ele>995</ele>
        <time>2021-06-05T08:35:13Z</time>
      </trkpt>
      <trkpt lat="45.62014" lon="6.75749">
        <ele>995</ele>
        <time>2021-06-05T08:35:14Z</time>
      </trkpt>
      <trkpt lat="45.62012" lon="6.7575">
        <ele>995.6</ele>
        <time>2021-06-05T08:35:15Z</time>
      </trkpt>
      <trkpt lat="45.62014" lon="6.75749">
        <ele>996</ele>
        <time>2021-06-05T08:35:17Z</time>
      </trkpt>
      <trkpt lat="45.62016" lon="6.75749">
        <ele>996.4</ele>
        <time>2021-06-05T08:35:18Z</time>
      </trkpt>
      <trkpt lat="45.62019" lon="6.75749">
        <ele>996.6</ele>
        <time>2021-06-05T08:35:19Z</time>
      </trkpt>
      <trkpt lat="45.62022" lon="6.7575">
        <ele>997.2</ele>
        <time>2021-06-05T08:35:20Z</time>
      </trkpt>
      <trkpt lat="45.62024" lon="6.7575">
        <ele>997.4</ele>
        <time>2021-06-05T08:35:22Z</time>
      </trkpt>
      <trkpt lat="45.62027" lon="6.75749">
        <ele>997.8</ele>
        <time>2021-06-05T08:35:24Z</time>
      </trkpt>
      <trkpt lat="45.6203" lon="6.7575">
        <ele>997.8</ele>
        <time>2021-06-05T08:35:25Z</time>
      </trkpt>
      <trkpt lat="45.62034" lon="6.7575">
        <ele>998.4</ele>
        <time>2021-06-05T08:35:26Z</time>
      </trkpt>
      <trkpt lat="45.62038" lon="6.75751">
        <ele>998.8</ele>
        <time>2021-06-05T08:35:28Z</time>
      </trkpt>
      <trkpt lat="45.6204" lon="6.75751">
        <ele>999.4</ele>
        <time>2021-06-05T08:35:29Z</time>
      </trkpt>
      <trkpt lat="45.62042" lon="6.75749">
        <ele>1000</ele>
        <time>2021-06-05T08:35:31Z</time>
      </trkpt>
      <trkpt lat="45.62043" lon="6.75746">
        <ele>1001</ele>
        <time>2021-06-05T08:35:33Z</time>
      </trkpt>
      <trkpt lat="45.62039" lon="6.75744">
        <ele>1001.6</ele>
        <time>2021-06-05T08:35:35Z</time>
      </trkpt>
      <trkpt lat="45.62043" lon="6.75744">
        <ele>1002.8</ele>
        <time>2021-06-05T08:35:38Z</time>
      </trkpt>
      <trkpt lat="45.62044" lon="6.75745">
        <ele>1005.2</ele>
        <time>2021-06-05T08:35:44Z</time>
      </trkpt>
      <trkpt lat="45.62047" lon="6.75748">
        <ele>1006</ele>
        <time>2021-06-05T08:35:46Z</time>
      </trkpt>
      <trkpt lat="45.62048" lon="6.7575">
        <ele>1006.4</ele>
        <time>2021-06-05T08:35:48Z</time>
      </trkpt>
      <trkpt lat="45.62052" lon="6.75753">
        <ele>1007.4</ele>
        <time>2021-06-05T08:35:51Z</time>
      </trkpt>
      <trkpt lat="45.62054" lon="6.75754">
        <ele>1007.8</ele>
        <time>2021-06-05T08:35:53Z</time>
      </trkpt>
      <trkpt lat="45.62056" lon="6.75754">
        <ele>1008.6</ele>
        <time>2021-06-05T08:35:55Z</time>
      </trkpt>
      <trkpt lat="45.62058" lon="6.75755">
        <ele>1010.8</ele>
        <time>2021-06-05T08:36:00Z</time>
      </trkpt>
      <trkpt lat="45.62059" lon="6.7576">
        <ele>1011.6</ele>
        <time>2021-06-05T08:36:02Z</time>
      </trkpt>
      <trkpt lat="45.6206" lon="6.75762">
        <ele>1011.6</ele>
        <time>2021-06-05T08:36:03Z</time>
      </trkpt>
      <trkpt lat="45.6206" lon="6.75765">
        <ele>1012.2</ele>
        <time>2021-06-05T08:36:06Z</time>
      </trkpt>
      <trkpt lat="45.62062" lon="6.75767">
        <ele>1012.8</ele>
        <time>2021-06-05T08:36:07Z</time>
      </trkpt>
      <trkpt lat="45.62064" lon="6.75769">
        <ele>1013</ele>
        <time>2021-06-05T08:36:08Z</time>
      </trkpt>
      <trkpt lat="45.62065" lon="6.75772">
        <ele>1013.6</ele>
        <time>2021-06-05T08:36:10Z</time>
      </trkpt>
      <trkpt lat="45.62068" lon="6.75773">
        <ele>1013.6</ele>
        <time>2021-06-05T08:36:11Z</time>
      </trkpt>
      <trkpt lat="45.62069" lon="6.75774">
        <ele>1013.6</ele>
        <time>2021-06-05T08:36:12Z</time>
      </trkpt>
      <trkpt lat="45.62072" lon="6.75776">
        <ele>1014.2</ele>
        <time>2021-06-05T08:36:15Z</time>
      </trkpt>
      <trkpt lat="45.62074" lon="6.75776">
        <ele>1014.8</ele>
        <time>2021-06-05T08:36:16Z</time>
      </trkpt>
      <trkpt lat="45.62077" lon="6.75776">
        <ele>1015</ele>
        <time>2021-06-05T08:36:18Z</time>
      </trkpt>
      <trkpt lat="45.62078" lon="6.75772">
        <ele>1016.4</ele>
        <time>2021-06-05T08:36:22Z</time>
      </trkpt>
      <trkpt lat="45.6208" lon="6.75772">
        <ele>1017</ele>
        <time>2021-06-05T08:36:24Z</time>
      </trkpt>
      <trkpt lat="45.62082" lon="6.75772">
        <ele>1017.6</ele>
        <time>2021-06-05T08:36:26Z</time>
      </trkpt>
      <trkpt lat="45.62085" lon="6.75772">
        <ele>1018.4</ele>
        <time>2021-06-05T08:36:29Z</time>
      </trkpt>
      <trkpt lat="45.62088" lon="6.75773">
        <ele>1019.6</ele>
        <time>2021-06-05T08:36:33Z</time>
      </trkpt>
      <trkpt lat="45.62089" lon="6.75777">
        <ele>1020.2</ele>
        <time>2021-06-05T08:36:35Z</time>
      </trkpt>
      <trkpt lat="45.62091" lon="6.75779">
        <ele>1020.4</ele>
        <time>2021-06-05T08:36:36Z</time>
      </trkpt>
      <trkpt lat="45.62091" lon="6.75782">
        <ele>1021</ele>
        <time>2021-06-05T08:36:39Z</time>
      </trkpt>
      <trkpt lat="45.62093" lon="6.75783">
        <ele>1021.2</ele>
        <time>2021-06-05T08:36:40Z</time>
      </trkpt>
      <trkpt lat="45.62095" lon="6.75784">
        <ele>1021.8</ele>
        <time>2021-06-05T08:36:41Z</time>
      </trkpt>
      <trkpt lat="45.62097" lon="6.75786">
        <ele>1022</ele>
        <time>2021-06-05T08:36:43Z</time>
      </trkpt>
      <trkpt lat="45.62097" lon="6.75789">
        <ele>1023</ele>
        <time>2021-06-05T08:36:46Z</time>
      </trkpt>
      <trkpt lat="45.621" lon="6.75791">
        <ele>1023.6</ele>
        <time>2021-06-05T08:36:48Z</time>
      </trkpt>
      <trkpt lat="45.62101" lon="6.75792">
        <ele>1023.8</ele>
        <time>2021-06-05T08:36:49Z</time>
      </trkpt>
      <trkpt lat="45.62103" lon="6.75794">
        <ele>1023.8</ele>
        <time>2021-06-05T08:36:50Z</time>
      </trkpt>
      <trkpt lat="45.62105" lon="6.75796">
        <ele>1024.2</ele>
        <time>2021-06-05T08:36:51Z</time>
      </trkpt>
      <trkpt lat="45.62106" lon="6.75799">
        <ele>1024.8</ele>
        <time>2021-06-05T08:36:53Z</time>
      </trkpt>
      <trkpt lat="45.62106" lon="6.75803">
        <ele>1025.6</ele>
        <time>2021-06-05T08:36:55Z</time>
      </trkpt>
      <trkpt lat="45.62106" lon="6.75806">
        <ele>1025.8</ele>
        <time>2021-06-05T08:36:57Z</time>
      </trkpt>
      <trkpt lat="45.62107" lon="6.7581">
        <ele>1026.2</ele>
        <time>2021-06-05T08:36:59Z</time>
      </trkpt>
      <trkpt lat="45.62109" lon="6.75812">
        <ele>1026.6</ele>
        <time>2021-06-05T08:37:00Z</time>
      </trkpt>
      <trkpt lat="45.6211" lon="6.75815">
        <ele>1027.2</ele>
        <time>2021-06-05T08:37:01Z</time>
      </trkpt>
      <trkpt lat="45.6211" lon="6.75819">
        <ele>1027.6</ele>
        <time>2021-06-05T08:37:03Z</time>
      </trkpt>
      <trkpt lat="45.62112" lon="6.75824">
        <ele>1028.2</ele>
        <time>2021-06-05T08:37:05Z</time>
      </trkpt>
      <trkpt lat="45.62111" lon="6.75828">
        <ele>1028.6</ele>
        <time>2021-06-05T08:37:07Z</time>
      </trkpt>
      <trkpt lat="45.62112" lon="6.75831">
        <ele>1028.8</ele>
        <time>2021-06-05T08:37:08Z</time>
      </trkpt>
      <trkpt lat="45.62112" lon="6.75836">
        <ele>1029.2</ele>
        <time>2021-06-05T08:37:10Z</time>
      </trkpt>
      <trkpt lat="45.62112" lon="6.75842">
        <ele>1029</ele>
        <time>2021-06-05T08:37:12Z</time>
      </trkpt>
      <trkpt lat="45.6211" lon="6.75846">
        <ele>1029.8</ele>
        <time>2021-06-05T08:37:14Z</time>
      </trkpt>
      <trkpt lat="45.62111" lon="6.75851">
        <ele>1030</ele>
        <time>2021-06-05T08:37:16Z</time>
      </trkpt>
      <trkpt lat="45.62111" lon="6.75854">
        <ele>1030.2</ele>
        <time>2021-06-05T08:37:17Z</time>
      </trkpt>
      <trkpt lat="45.62111" lon="6.75857">
        <ele>1030.2</ele>
        <time>2021-06-05T08:37:18Z</time>
      </trkpt>
      <trkpt lat="45.62111" lon="6.7586">
        <ele>1030.8</ele>
        <time>2021-06-05T08:37:19Z</time>
      </trkpt>
      <trkpt lat="45.62112" lon="6.75863">
        <ele>1030.8</ele>
        <time>2021-06-05T08:37:20Z</time>
      </trkpt>
      <trkpt lat="45.62112" lon="6.75866">
        <ele>1030.6</ele>
        <time>2021-06-05T08:37:21Z</time>
      </trkpt>
      <trkpt lat="45.62113" lon="6.75869">
        <ele>1031.2</ele>
        <time>2021-06-05T08:37:22Z</time>
      </trkpt>
      <trkpt lat="45.62113" lon="6.75872">
        <ele>1031.6</ele>
        <time>2021-06-05T08:37:23Z</time>
      </trkpt>
      <trkpt lat="45.62114" lon="6.75876">
        <ele>1031.4</ele>
        <time>2021-06-05T08:37:24Z</time>
      </trkpt>
      <trkpt lat="45.62114" lon="6.75881">
        <ele>1032.4</ele>
        <time>2021-06-05T08:37:26Z</time>
      </trkpt>
      <trkpt lat="45.62113" lon="6.75883">
        <ele>1032.6</ele>
        <time>2021-06-05T08:37:27Z</time>
      </trkpt>
      <trkpt lat="45.62112" lon="6.75886">
        <ele>1033.2</ele>
        <time>2021-06-05T08:37:28Z</time>
      </trkpt>
      <trkpt lat="45.62112" lon="6.75889">
        <ele>1033.6</ele>
        <time>2021-06-05T08:37:29Z</time>
      </trkpt>
      <trkpt lat="45.6211" lon="6.75894">
        <ele>1034.6</ele>
        <time>2021-06-05T08:37:31Z</time>
      </trkpt>
      <trkpt lat="45.6211" lon="6.75898">
        <ele>1035.6</ele>
        <time>2021-06-05T08:37:33Z</time>
      </trkpt>
      <trkpt lat="45.6211" lon="6.75904">
        <ele>1036.4</ele>
        <time>2021-06-05T08:37:35Z</time>
      </trkpt>
      <trkpt lat="45.6211" lon="6.75907">
        <ele>1036.4</ele>
        <time>2021-06-05T08:37:36Z</time>
      </trkpt>
      <trkpt lat="45.62112" lon="6.7591">
        <ele>1037</ele>
        <time>2021-06-05T08:37:37Z</time>
      </trkpt>
      <trkpt lat="45.62114" lon="6.75914">
        <ele>1037.6</ele>
        <time>2021-06-05T08:37:39Z</time>
      </trkpt>
      <trkpt lat="45.62116" lon="6.75916">
        <ele>1038.4</ele>
        <time>2021-06-05T08:37:40Z</time>
      </trkpt>
      <trkpt lat="45.62117" lon="6.75918">
        <ele>1038.8</ele>
        <time>2021-06-05T08:37:41Z</time>
      </trkpt>
      <trkpt lat="45.6212" lon="6.7592">
        <ele>1039</ele>
        <time>2021-06-05T08:37:42Z</time>
      </trkpt>
      <trkpt lat="45.62123" lon="6.7592">
        <ele>1039.8</ele>
        <time>2021-06-05T08:37:43Z</time>
      </trkpt>
      <trkpt lat="45.62124" lon="6.75918">
        <ele>1041.2</ele>
        <time>2021-06-05T08:37:46Z</time>
      </trkpt>
      <trkpt lat="45.62126" lon="6.75917">
        <ele>1042.2</ele>
        <time>2021-06-05T08:37:48Z</time>
      </trkpt>
      <trkpt lat="45.62127" lon="6.75914">
        <ele>1043.2</ele>
        <time>2021-06-05T08:37:50Z</time>
      </trkpt>
      <trkpt lat="45.62129" lon="6.75912">
        <ele>1043.8</ele>
        <time>2021-06-05T08:37:52Z</time>
      </trkpt>
      <trkpt lat="45.62132" lon="6.7591">
        <ele>1045</ele>
        <time>2021-06-05T08:37:54Z</time>
      </trkpt>
      <trkpt lat="45.62132" lon="6.75907">
        <ele>1045.8</ele>
        <time>2021-06-05T08:37:56Z</time>
      </trkpt>
      <trkpt lat="45.62134" lon="6.75904">
        <ele>1046</ele>
        <time>2021-06-05T08:37:58Z</time>
      </trkpt>
      <trkpt lat="45.62136" lon="6.759">
        <ele>1047.2</ele>
        <time>2021-06-05T08:38:00Z</time>
      </trkpt>
      <trkpt lat="45.62138" lon="6.75897">
        <ele>1048.2</ele>
        <time>2021-06-05T08:38:02Z</time>
      </trkpt>
      <trkpt lat="45.62139" lon="6.75894">
        <ele>1048.4</ele>
        <time>2021-06-05T08:38:04Z</time>
      </trkpt>
      <trkpt lat="45.6214" lon="6.75891">
        <ele>1049.4</ele>
        <time>2021-06-05T08:38:07Z</time>
      </trkpt>
      <trkpt lat="45.62141" lon="6.75888">
        <ele>1050.2</ele>
        <time>2021-06-05T08:38:09Z</time>
      </trkpt>
      <trkpt lat="45.62142" lon="6.75885">
        <ele>1050.6</ele>
        <time>2021-06-05T08:38:10Z</time>
      </trkpt>
      <trkpt lat="45.62143" lon="6.75882">
        <ele>1051.4</ele>
        <time>2021-06-05T08:38:12Z</time>
      </trkpt>
      <trkpt lat="45.62143" lon="6.75879">
        <ele>1052.4</ele>
        <time>2021-06-05T08:38:14Z</time>
      </trkpt>
      <trkpt lat="45.62144" lon="6.75876">
        <ele>1052.6</ele>
        <time>2021-06-05T08:38:16Z</time>
      </trkpt>
      <trkpt lat="45.62146" lon="6.75873">
        <ele>1053</ele>
        <time>2021-06-05T08:38:18Z</time>
      </trkpt>
      <trkpt lat="45.62147" lon="6.75871">
        <ele>1053</ele>
        <time>2021-06-05T08:38:19Z</time>
      </trkpt>
      <trkpt lat="45.62149" lon="6.75867">
        <ele>1053.8</ele>
        <time>2021-06-05T08:38:21Z</time>
      </trkpt>
      <trkpt lat="45.62149" lon="6.75864">
        <ele>1054.2</ele>
        <time>2021-06-05T08:38:23Z</time>
      </trkpt>
      <trkpt lat="45.62151" lon="6.7586">
        <ele>1054.4</ele>
        <time>2021-06-05T08:38:25Z</time>
      </trkpt>
      <trkpt lat="45.62151" lon="6.75855">
        <ele>1055</ele>
        <time>2021-06-05T08:38:27Z</time>
      </trkpt>
      <trkpt lat="45.62152" lon="6.75853">
        <ele>1055</ele>
        <time>2021-06-05T08:38:28Z</time>
      </trkpt>
      <trkpt lat="45.62153" lon="6.7585">
        <ele>1055.6</ele>
        <time>2021-06-05T08:38:29Z</time>
      </trkpt>
      <trkpt lat="45.62154" lon="6.75846">
        <ele>1055.8</ele>
        <time>2021-06-05T08:38:31Z</time>
      </trkpt>
      <trkpt lat="45.62156" lon="6.75844">
        <ele>1056.6</ele>
        <time>2021-06-05T08:38:33Z</time>
      </trkpt>
      <trkpt lat="45.62159" lon="6.75842">
        <ele>1057.2</ele>
        <time>2021-06-05T08:38:35Z</time>
      </trkpt>
      <trkpt lat="45.62161" lon="6.75841">
        <ele>1057.8</ele>
        <time>2021-06-05T08:38:38Z</time>
      </trkpt>
      <trkpt lat="45.62162" lon="6.75838">
        <ele>1058.6</ele>
        <time>2021-06-05T08:38:40Z</time>
      </trkpt>
      <trkpt lat="45.62163" lon="6.75835">
        <ele>1058.4</ele>
        <time>2021-06-05T08:38:42Z</time>
      </trkpt>
      <trkpt lat="45.62164" lon="6.7583">
        <ele>1059</ele>
        <time>2021-06-05T08:38:44Z</time>
      </trkpt>
      <trkpt lat="45.62164" lon="6.75827">
        <ele>1059.2</ele>
        <time>2021-06-05T08:38:45Z</time>
      </trkpt>
      <trkpt lat="45.62165" lon="6.75824">
        <ele>1059.6</ele>
        <time>2021-06-05T08:38:46Z</time>
      </trkpt>
      <trkpt lat="45.62165" lon="6.75821">
        <ele>1059.6</ele>
        <time>2021-06-05T08:38:47Z</time>
      </trkpt>
      <trkpt lat="45.62165" lon="6.75818">
        <ele>1060.2</ele>
        <time>2021-06-05T08:38:48Z</time>
      </trkpt>
      <trkpt lat="45.62164" lon="6.75815">
        <ele>1060.2</ele>
        <time>2021-06-05T08:38:49Z</time>
      </trkpt>
      <trkpt lat="45.62164" lon="6.75812">
        <ele>1060</ele>
        <time>2021-06-05T08:38:50Z</time>
      </trkpt>
      <trkpt lat="45.62163" lon="6.75808">
        <ele>1060.4</ele>
        <time>2021-06-05T08:38:51Z</time>
      </trkpt>
      <trkpt lat="45.62163" lon="6.75805">
        <ele>1060.6</ele>
        <time>2021-06-05T08:38:52Z</time>
      </trkpt>
      <trkpt lat="45.62162" lon="6.75802">
        <ele>1060.8</ele>
        <time>2021-06-05T08:38:53Z</time>
      </trkpt>
      <trkpt lat="45.62161" lon="6.75799">
        <ele>1061.2</ele>
        <time>2021-06-05T08:38:54Z</time>
      </trkpt>
      <trkpt lat="45.62161" lon="6.75795">
        <ele>1061.2</ele>
        <time>2021-06-05T08:38:55Z</time>
      </trkpt>
      <trkpt lat="45.62162" lon="6.75791">
        <ele>1061.8</ele>
        <time>2021-06-05T08:38:56Z</time>
      </trkpt>
      <trkpt lat="45.62163" lon="6.75788">
        <ele>1061.8</ele>
        <time>2021-06-05T08:38:57Z</time>
      </trkpt>
      <trkpt lat="45.62164" lon="6.75784">
        <ele>1061.6</ele>
        <time>2021-06-05T08:38:58Z</time>
      </trkpt>
      <trkpt lat="45.62166" lon="6.75781">
        <ele>1062.2</ele>
        <time>2021-06-05T08:38:59Z</time>
      </trkpt>
      <trkpt lat="45.62167" lon="6.75778">
        <ele>1063</ele>
        <time>2021-06-05T08:39:01Z</time>
      </trkpt>
      <trkpt lat="45.62166" lon="6.75774">
        <ele>1064</ele>
        <time>2021-06-05T08:39:04Z</time>
      </trkpt>
      <trkpt lat="45.62165" lon="6.7577">
        <ele>1064</ele>
        <time>2021-06-05T08:39:06Z</time>
      </trkpt>
      <trkpt lat="45.62164" lon="6.75766">
        <ele>1065</ele>
        <time>2021-06-05T08:39:08Z</time>
      </trkpt>
      <trkpt lat="45.62164" lon="6.75763">
        <ele>1065</ele>
        <time>2021-06-05T08:39:09Z</time>
      </trkpt>
      <trkpt lat="45.62163" lon="6.75758">
        <ele>1065.8</ele>
        <time>2021-06-05T08:39:11Z</time>
      </trkpt>
      <trkpt lat="45.62164" lon="6.75754">
        <ele>1067</ele>
        <time>2021-06-05T08:39:13Z</time>
      </trkpt>
      <trkpt lat="45.62165" lon="6.75757">
        <ele>1070</ele>
        <time>2021-06-05T08:39:20Z</time>
      </trkpt>
      <trkpt lat="45.62167" lon="6.7576">
        <ele>1072</ele>
        <time>2021-06-05T08:39:24Z</time>
      </trkpt>
      <trkpt lat="45.62168" lon="6.75763">
        <ele>1073.6</ele>
        <time>2021-06-05T08:39:28Z</time>
      </trkpt>
      <trkpt lat="45.62169" lon="6.75764">
        <ele>1074.4</ele>
        <time>2021-06-05T08:39:31Z</time>
      </trkpt>
      <trkpt lat="45.6217" lon="6.75768">
        <ele>1074.8</ele>
        <time>2021-06-05T08:39:34Z</time>
      </trkpt>
      <trkpt lat="45.62172" lon="6.7577">
        <ele>1075.6</ele>
        <time>2021-06-05T08:39:37Z</time>
      </trkpt>
      <trkpt lat="45.62172" lon="6.75773">
        <ele>1076</ele>
        <time>2021-06-05T08:39:39Z</time>
      </trkpt>
      <trkpt lat="45.62172" lon="6.75776">
        <ele>1076.8</ele>
        <time>2021-06-05T08:39:41Z</time>
      </trkpt>
      <trkpt lat="45.62173" lon="6.75778">
        <ele>1077.2</ele>
        <time>2021-06-05T08:39:44Z</time>
      </trkpt>
      <trkpt lat="45.62176" lon="6.75779">
        <ele>1077.8</ele>
        <time>2021-06-05T08:39:46Z</time>
      </trkpt>
      <trkpt lat="45.62178" lon="6.7578">
        <ele>1078</ele>
        <time>2021-06-05T08:39:47Z</time>
      </trkpt>
      <trkpt lat="45.6218" lon="6.75782">
        <ele>1079.2</ele>
        <time>2021-06-05T08:39:52Z</time>
      </trkpt>
      <trkpt lat="45.62182" lon="6.75783">
        <ele>1079.2</ele>
        <time>2021-06-05T08:39:53Z</time>
      </trkpt>
      <trkpt lat="45.62184" lon="6.75784">
        <ele>1080</ele>
        <time>2021-06-05T08:39:55Z</time>
      </trkpt>
      <trkpt lat="45.62185" lon="6.75785">
        <ele>1080.4</ele>
        <time>2021-06-05T08:39:57Z</time>
      </trkpt>
      <trkpt lat="45.62187" lon="6.75787">
        <ele>1080.4</ele>
        <time>2021-06-05T08:40:00Z</time>
      </trkpt>
      <trkpt lat="45.62189" lon="6.75788">
        <ele>1081.6</ele>
        <time>2021-06-05T08:40:01Z</time>
      </trkpt>
      <trkpt lat="45.6219" lon="6.7579">
        <ele>1082</ele>
        <time>2021-06-05T08:40:03Z</time>
      </trkpt>
      <trkpt lat="45.62192" lon="6.75792">
        <ele>1082.4</ele>
        <time>2021-06-05T08:40:05Z</time>
      </trkpt>
      <trkpt lat="45.62195" lon="6.75794">
        <ele>1083.2</ele>
        <time>2021-06-05T08:40:07Z</time>
      </trkpt>
      <trkpt lat="45.62197" lon="6.75796">
        <ele>1083.8</ele>
        <time>2021-06-05T08:40:09Z</time>
      </trkpt>
      <trkpt lat="45.62199" lon="6.75796">
        <ele>1084</ele>
        <time>2021-06-05T08:40:10Z</time>
      </trkpt>
      <trkpt lat="45.62201" lon="6.75798">
        <ele>1085.2</ele>
        <time>2021-06-05T08:40:12Z</time>
      </trkpt>
      <trkpt lat="45.62203" lon="6.758">
        <ele>1086.2</ele>
        <time>2021-06-05T08:40:15Z</time>
      </trkpt>
      <trkpt lat="45.62205" lon="6.75803">
        <ele>1086.8</ele>
        <time>2021-06-05T08:40:17Z</time>
      </trkpt>
      <trkpt lat="45.62206" lon="6.75805">
        <ele>1087.6</ele>
        <time>2021-06-05T08:40:19Z</time>
      </trkpt>
      <trkpt lat="45.62207" lon="6.75809">
        <ele>1087.8</ele>
        <time>2021-06-05T08:40:21Z</time>
      </trkpt>
      <trkpt lat="45.62209" lon="6.75811">
        <ele>1088.6</ele>
        <time>2021-06-05T08:40:23Z</time>
      </trkpt>
      <trkpt lat="45.62209" lon="6.75815">
        <ele>1089.2</ele>
        <time>2021-06-05T08:40:25Z</time>
      </trkpt>
      <trkpt lat="45.62211" lon="6.75819">
        <ele>1089.6</ele>
        <time>2021-06-05T08:40:27Z</time>
      </trkpt>
      <trkpt lat="45.62212" lon="6.75822">
        <ele>1090.2</ele>
        <time>2021-06-05T08:40:29Z</time>
      </trkpt>
      <trkpt lat="45.62213" lon="6.75825">
        <ele>1091.2</ele>
        <time>2021-06-05T08:40:31Z</time>
      </trkpt>
      <trkpt lat="45.62213" lon="6.75829">
        <ele>1092</ele>
        <time>2021-06-05T08:40:34Z</time>
      </trkpt>
      <trkpt lat="45.62212" lon="6.75831">
        <ele>1092.6</ele>
        <time>2021-06-05T08:40:36Z</time>
      </trkpt>
      <trkpt lat="45.62212" lon="6.75835">
        <ele>1093.2</ele>
        <time>2021-06-05T08:40:38Z</time>
      </trkpt>
      <trkpt lat="45.62214" lon="6.75835">
        <ele>1094.2</ele>
        <time>2021-06-05T08:40:43Z</time>
      </trkpt>
      <trkpt lat="45.62216" lon="6.75833">
        <ele>1094.6</ele>
        <time>2021-06-05T08:40:45Z</time>
      </trkpt>
      <trkpt lat="45.62218" lon="6.75829">
        <ele>1095.4</ele>
        <time>2021-06-05T08:40:48Z</time>
      </trkpt>
      <trkpt lat="45.6222" lon="6.75826">
        <ele>1096.2</ele>
        <time>2021-06-05T08:40:50Z</time>
      </trkpt>
      <trkpt lat="45.62221" lon="6.75824">
        <ele>1097.2</ele>
        <time>2021-06-05T08:40:53Z</time>
      </trkpt>
      <trkpt lat="45.62223" lon="6.75821">
        <ele>1098.6</ele>
        <time>2021-06-05T08:40:57Z</time>
      </trkpt>
      <trkpt lat="45.62223" lon="6.75817">
        <ele>1099.4</ele>
        <time>2021-06-05T08:40:59Z</time>
      </trkpt>
      <trkpt lat="45.62223" lon="6.75814">
        <ele>1099.6</ele>
        <time>2021-06-05T08:41:01Z</time>
      </trkpt>
      <trkpt lat="45.62224" lon="6.75811">
        <ele>1100.2</ele>
        <time>2021-06-05T08:41:02Z</time>
      </trkpt>
      <trkpt lat="45.62224" lon="6.75808">
        <ele>1100.4</ele>
        <time>2021-06-05T08:41:04Z</time>
      </trkpt>
      <trkpt lat="45.62224" lon="6.75803">
        <ele>1101.2</ele>
        <time>2021-06-05T08:41:06Z</time>
      </trkpt>
      <trkpt lat="45.62225" lon="6.758">
        <ele>1102</ele>
        <time>2021-06-05T08:41:08Z</time>
      </trkpt>
      <trkpt lat="45.62225" lon="6.75797">
        <ele>1102.2</ele>
        <time>2021-06-05T08:41:10Z</time>
      </trkpt>
      <trkpt lat="45.62227" lon="6.75793">
        <ele>1103</ele>
        <time>2021-06-05T08:41:12Z</time>
      </trkpt>
      <trkpt lat="45.62229" lon="6.7579">
        <ele>1103.4</ele>
        <time>2021-06-05T08:41:14Z</time>
      </trkpt>
      <trkpt lat="45.6223" lon="6.75787">
        <ele>1104</ele>
        <time>2021-06-05T08:41:16Z</time>
      </trkpt>
      <trkpt lat="45.62231" lon="6.75784">
        <ele>1104.8</ele>
        <time>2021-06-05T08:41:18Z</time>
      </trkpt>
      <trkpt lat="45.62233" lon="6.75781">
        <ele>1105.4</ele>
        <time>2021-06-05T08:41:20Z</time>
      </trkpt>
      <trkpt lat="45.62235" lon="6.75778">
        <ele>1106.6</ele>
        <time>2021-06-05T08:41:23Z</time>
      </trkpt>
      <trkpt lat="45.62236" lon="6.75775">
        <ele>1106.8</ele>
        <time>2021-06-05T08:41:25Z</time>
      </trkpt>
      <trkpt lat="45.62238" lon="6.75771">
        <ele>1107.6</ele>
        <time>2021-06-05T08:41:27Z</time>
      </trkpt>
      <trkpt lat="45.62239" lon="6.75768">
        <ele>1107.8</ele>
        <time>2021-06-05T08:41:28Z</time>
      </trkpt>
      <trkpt lat="45.6224" lon="6.75765">
        <ele>1108.6</ele>
        <time>2021-06-05T08:41:29Z</time>
      </trkpt>
      <trkpt lat="45.6224" lon="6.75762">
        <ele>1108.8</ele>
        <time>2021-06-05T08:41:30Z</time>
      </trkpt>
      <trkpt lat="45.62241" lon="6.75759">
        <ele>1109.2</ele>
        <time>2021-06-05T08:41:31Z</time>
      </trkpt>
      <trkpt lat="45.62242" lon="6.75755">
        <ele>1110.2</ele>
        <time>2021-06-05T08:41:33Z</time>
      </trkpt>
      <trkpt lat="45.62241" lon="6.75758">
        <ele>1111.8</ele>
        <time>2021-06-05T08:41:36Z</time>
      </trkpt>
      <trkpt lat="45.6224" lon="6.7576">
        <ele>1112</ele>
        <time>2021-06-05T08:41:37Z</time>
      </trkpt>
      <trkpt lat="45.6224" lon="6.75763">
        <ele>1112.8</ele>
        <time>2021-06-05T08:41:39Z</time>
      </trkpt>
      <trkpt lat="45.6224" lon="6.75766">
        <ele>1113.2</ele>
        <time>2021-06-05T08:41:41Z</time>
      </trkpt>
      <trkpt lat="45.6224" lon="6.7577">
        <ele>1114</ele>
        <time>2021-06-05T08:41:44Z</time>
      </trkpt>
      <trkpt lat="45.62241" lon="6.75772">
        <ele>1114.6</ele>
        <time>2021-06-05T08:41:46Z</time>
      </trkpt>
      <trkpt lat="45.62242" lon="6.75775">
        <ele>1115.2</ele>
        <time>2021-06-05T08:41:49Z</time>
      </trkpt>
      <trkpt lat="45.62243" lon="6.75778">
        <ele>1116.4</ele>
        <time>2021-06-05T08:41:52Z</time>
      </trkpt>
      <trkpt lat="45.62243" lon="6.75781">
        <ele>1117.2</ele>
        <time>2021-06-05T08:41:56Z</time>
      </trkpt>
      <trkpt lat="45.62244" lon="6.75783">
        <ele>1117.8</ele>
        <time>2021-06-05T08:41:58Z</time>
      </trkpt>
      <trkpt lat="45.62246" lon="6.75785">
        <ele>1117.8</ele>
        <time>2021-06-05T08:41:59Z</time>
      </trkpt>
      <trkpt lat="45.62247" lon="6.75787">
        <ele>1118.2</ele>
        <time>2021-06-05T08:42:00Z</time>
      </trkpt>
      <trkpt lat="45.6225" lon="6.7579">
        <ele>1118.4</ele>
        <time>2021-06-05T08:42:02Z</time>
      </trkpt>
      <trkpt lat="45.62252" lon="6.75792">
        <ele>1119.2</ele>
        <time>2021-06-05T08:42:04Z</time>
      </trkpt>
      <trkpt lat="45.62254" lon="6.75794">
        <ele>1120</ele>
        <time>2021-06-05T08:42:06Z</time>
      </trkpt>
      <trkpt lat="45.62256" lon="6.75795">
        <ele>1120.2</ele>
        <time>2021-06-05T08:42:07Z</time>
      </trkpt>
      <trkpt lat="45.62258" lon="6.75797">
        <ele>1120.8</ele>
        <time>2021-06-05T08:42:08Z</time>
      </trkpt>
      <trkpt lat="45.6226" lon="6.75799">
        <ele>1121</ele>
        <time>2021-06-05T08:42:09Z</time>
      </trkpt>
      <trkpt lat="45.62262" lon="6.758">
        <ele>1121</ele>
        <time>2021-06-05T08:42:10Z</time>
      </trkpt>
      <trkpt lat="45.62265" lon="6.75801">
        <ele>1121.6</ele>
        <time>2021-06-05T08:42:11Z</time>
      </trkpt>
      <trkpt lat="45.62267" lon="6.75802">
        <ele>1121.8</ele>
        <time>2021-06-05T08:42:12Z</time>
      </trkpt>
      <trkpt lat="45.62269" lon="6.75803">
        <ele>1121.6</ele>
        <time>2021-06-05T08:42:13Z</time>
      </trkpt>
      <trkpt lat="45.62271" lon="6.75803">
        <ele>1122</ele>
        <time>2021-06-05T08:42:14Z</time>
      </trkpt>
      <trkpt lat="45.62273" lon="6.75803">
        <ele>1122.2</ele>
        <time>2021-06-05T08:42:15Z</time>
      </trkpt>
      <trkpt lat="45.62276" lon="6.75803">
        <ele>1122</ele>
        <time>2021-06-05T08:42:16Z</time>
      </trkpt>
      <trkpt lat="45.62279" lon="6.75804">
        <ele>1122.4</ele>
        <time>2021-06-05T08:42:17Z</time>
      </trkpt>
      <trkpt lat="45.62282" lon="6.75804">
        <ele>1122.4</ele>
        <time>2021-06-05T08:42:18Z</time>
      </trkpt>
      <trkpt lat="45.62284" lon="6.75805">
        <ele>1122.6</ele>
        <time>2021-06-05T08:42:19Z</time>
      </trkpt>
      <trkpt lat="45.62286" lon="6.75806">
        <ele>1122.8</ele>
        <time>2021-06-05T08:42:20Z</time>
      </trkpt>
      <trkpt lat="45.62289" lon="6.75807">
        <ele>1123</ele>
        <time>2021-06-05T08:42:22Z</time>
      </trkpt>
      <trkpt lat="45.6229" lon="6.75808">
        <ele>1122.8</ele>
        <time>2021-06-05T08:42:23Z</time>
      </trkpt>
      <trkpt lat="45.62292" lon="6.75809">
        <ele>1123.2</ele>
        <time>2021-06-05T08:42:25Z</time>
      </trkpt>
      <trkpt lat="45.62296" lon="6.75809">
        <ele>1123.8</ele>
        <time>2021-06-05T08:42:27Z</time>
      </trkpt>
      <trkpt lat="45.62299" lon="6.7581">
        <ele>1124.4</ele>
        <time>2021-06-05T08:42:29Z</time>
      </trkpt>
      <trkpt lat="45.623" lon="6.75811">
        <ele>1124.8</ele>
        <time>2021-06-05T08:42:30Z</time>
      </trkpt>
      <trkpt lat="45.62303" lon="6.75812">
        <ele>1124.8</ele>
        <time>2021-06-05T08:42:31Z</time>
      </trkpt>
      <trkpt lat="45.62306" lon="6.75811">
        <ele>1125.2</ele>
        <time>2021-06-05T08:42:32Z</time>
      </trkpt>
      <trkpt lat="45.62307" lon="6.75809">
        <ele>1125.8</ele>
        <time>2021-06-05T08:42:34Z</time>
      </trkpt>
      <trkpt lat="45.62308" lon="6.75807">
        <ele>1127.2</ele>
        <time>2021-06-05T08:42:37Z</time>
      </trkpt>
      <trkpt lat="45.6231" lon="6.75803">
        <ele>1128.8</ele>
        <time>2021-06-05T08:42:40Z</time>
      </trkpt>
      <trkpt lat="45.62313" lon="6.75802">
        <ele>1129.8</ele>
        <time>2021-06-05T08:42:42Z</time>
      </trkpt>
      <trkpt lat="45.62315" lon="6.75802">
        <ele>1130.2</ele>
        <time>2021-06-05T08:42:43Z</time>
      </trkpt>
      <trkpt lat="45.62316" lon="6.75803">
        <ele>1131.8</ele>
        <time>2021-06-05T08:42:47Z</time>
      </trkpt>
      <trkpt lat="45.62319" lon="6.75805">
        <ele>1133.2</ele>
        <time>2021-06-05T08:42:50Z</time>
      </trkpt>
      <trkpt lat="45.62322" lon="6.75805">
        <ele>1134.6</ele>
        <time>2021-06-05T08:42:53Z</time>
      </trkpt>
      <trkpt lat="45.62324" lon="6.75806">
        <ele>1135.6</ele>
        <time>2021-06-05T08:42:55Z</time>
      </trkpt>
      <trkpt lat="45.62327" lon="6.75809">
        <ele>1136.4</ele>
        <time>2021-06-05T08:42:57Z</time>
      </trkpt>
      <trkpt lat="45.6233" lon="6.7581">
        <ele>1137</ele>
        <time>2021-06-05T08:42:58Z</time>
      </trkpt>
      <trkpt lat="45.62332" lon="6.75811">
        <ele>1137.6</ele>
        <time>2021-06-05T08:43:00Z</time>
      </trkpt>
      <trkpt lat="45.62334" lon="6.75808">
        <ele>1138.8</ele>
        <time>2021-06-05T08:43:03Z</time>
      </trkpt>
      <trkpt lat="45.62336" lon="6.75807">
        <ele>1140</ele>
        <time>2021-06-05T08:43:05Z</time>
      </trkpt>
      <trkpt lat="45.62338" lon="6.75807">
        <ele>1141.6</ele>
        <time>2021-06-05T08:43:09Z</time>
      </trkpt>
      <trkpt lat="45.6234" lon="6.75809">
        <ele>1142.4</ele>
        <time>2021-06-05T08:43:11Z</time>
      </trkpt>
      <trkpt lat="45.62341" lon="6.75814">
        <ele>1143.6</ele>
        <time>2021-06-05T08:43:14Z</time>
      </trkpt>
      <trkpt lat="45.62344" lon="6.75818">
        <ele>1144</ele>
        <time>2021-06-05T08:43:16Z</time>
      </trkpt>
      <trkpt lat="45.62346" lon="6.7582">
        <ele>1144.4</ele>
        <time>2021-06-05T08:43:17Z</time>
      </trkpt>
      <trkpt lat="45.62347" lon="6.75823">
        <ele>1144.6</ele>
        <time>2021-06-05T08:43:18Z</time>
      </trkpt>
      <trkpt lat="45.62348" lon="6.75824">
        <ele>1144.6</ele>
        <time>2021-06-05T08:43:19Z</time>
      </trkpt>
      <trkpt lat="45.6235" lon="6.75826">
        <ele>1145.2</ele>
        <time>2021-06-05T08:43:20Z</time>
      </trkpt>
      <trkpt lat="45.62352" lon="6.75828">
        <ele>1145.4</ele>
        <time>2021-06-05T08:43:21Z</time>
      </trkpt>
      <trkpt lat="45.62355" lon="6.7583">
        <ele>1145.8</ele>
        <time>2021-06-05T08:43:23Z</time>
      </trkpt>
      <trkpt lat="45.62356" lon="6.75832">
        <ele>1146.2</ele>
        <time>2021-06-05T08:43:24Z</time>
      </trkpt>
      <trkpt lat="45.62357" lon="6.75836">
        <ele>1147</ele>
        <time>2021-06-05T08:43:26Z</time>
      </trkpt>
      <trkpt lat="45.62359" lon="6.7584">
        <ele>1147.4</ele>
        <time>2021-06-05T08:43:28Z</time>
      </trkpt>
      <trkpt lat="45.6236" lon="6.75842">
        <ele>1148.2</ele>
        <time>2021-06-05T08:43:31Z</time>
      </trkpt>
      <trkpt lat="45.62362" lon="6.75845">
        <ele>1148.6</ele>
        <time>2021-06-05T08:43:33Z</time>
      </trkpt>
      <trkpt lat="45.62364" lon="6.75848">
        <ele>1149.2</ele>
        <time>2021-06-05T08:43:35Z</time>
      </trkpt>
      <trkpt lat="45.62366" lon="6.7585">
        <ele>1149.2</ele>
        <time>2021-06-05T08:43:36Z</time>
      </trkpt>
      <trkpt lat="45.62368" lon="6.75851">
        <ele>1149.2</ele>
        <time>2021-06-05T08:43:37Z</time>
      </trkpt>
      <trkpt lat="45.6237" lon="6.75853">
        <ele>1149.6</ele>
        <time>2021-06-05T08:43:38Z</time>
      </trkpt>
      <trkpt lat="45.62372" lon="6.75855">
        <ele>1149.6</ele>
        <time>2021-06-05T08:43:39Z</time>
      </trkpt>
      <trkpt lat="45.62374" lon="6.75857">
        <ele>1149.8</ele>
        <time>2021-06-05T08:43:40Z</time>
      </trkpt>
      <trkpt lat="45.62376" lon="6.75859">
        <ele>1150</ele>
        <time>2021-06-05T08:43:41Z</time>
      </trkpt>
      <trkpt lat="45.62379" lon="6.7586">
        <ele>1150</ele>
        <time>2021-06-05T08:43:42Z</time>
      </trkpt>
      <trkpt lat="45.62381" lon="6.7586">
        <ele>1150.4</ele>
        <time>2021-06-05T08:43:43Z</time>
      </trkpt>
      <trkpt lat="45.62384" lon="6.75859">
        <ele>1151</ele>
        <time>2021-06-05T08:43:46Z</time>
      </trkpt>
      <trkpt lat="45.62386" lon="6.75858">
        <ele>1151</ele>
        <time>2021-06-05T08:43:48Z</time>
      </trkpt>
      <trkpt lat="45.62388" lon="6.75858">
        <ele>1151.4</ele>
        <time>2021-06-05T08:43:50Z</time>
      </trkpt>
      <trkpt lat="45.62391" lon="6.75857">
        <ele>1152.2</ele>
        <time>2021-06-05T08:43:52Z</time>
      </trkpt>
      <trkpt lat="45.62394" lon="6.75856">
        <ele>1153.6</ele>
        <time>2021-06-05T08:43:56Z</time>
      </trkpt>
      <trkpt lat="45.62396" lon="6.75855">
        <ele>1154</ele>
        <time>2021-06-05T08:43:58Z</time>
      </trkpt>
      <trkpt lat="45.62397" lon="6.75859">
        <ele>1157.4</ele>
        <time>2021-06-05T08:44:08Z</time>
      </trkpt>
      <trkpt lat="45.624" lon="6.75861">
        <ele>1157.8</ele>
        <time>2021-06-05T08:44:10Z</time>
      </trkpt>
      <trkpt lat="45.62402" lon="6.75863">
        <ele>1158.8</ele>
        <time>2021-06-05T08:44:12Z</time>
      </trkpt>
      <trkpt lat="45.62403" lon="6.75865">
        <ele>1160</ele>
        <time>2021-06-05T08:44:15Z</time>
      </trkpt>
      <trkpt lat="45.62404" lon="6.75867">
        <ele>1160.8</ele>
        <time>2021-06-05T08:44:17Z</time>
      </trkpt>
      <trkpt lat="45.62406" lon="6.75868">
        <ele>1161.2</ele>
        <time>2021-06-05T08:44:18Z</time>
      </trkpt>
      <trkpt lat="45.62408" lon="6.75869">
        <ele>1161.2</ele>
        <time>2021-06-05T08:44:19Z</time>
      </trkpt>
      <trkpt lat="45.6241" lon="6.7587">
        <ele>1161.8</ele>
        <time>2021-06-05T08:44:20Z</time>
      </trkpt>
      <trkpt lat="45.62413" lon="6.75871">
        <ele>1162.6</ele>
        <time>2021-06-05T08:44:23Z</time>
      </trkpt>
      <trkpt lat="45.62415" lon="6.75873">
        <ele>1163.4</ele>
        <time>2021-06-05T08:44:27Z</time>
      </trkpt>
      <trkpt lat="45.62417" lon="6.75873">
        <ele>1164.6</ele>
        <time>2021-06-05T08:44:31Z</time>
      </trkpt>
      <trkpt lat="45.62418" lon="6.75875">
        <ele>1166.8</ele>
        <time>2021-06-05T08:44:37Z</time>
      </trkpt>
      <trkpt lat="45.6242" lon="6.75877">
        <ele>1168.2</ele>
        <time>2021-06-05T08:44:42Z</time>
      </trkpt>
      <trkpt lat="45.62421" lon="6.75879">
        <ele>1169</ele>
        <time>2021-06-05T08:44:45Z</time>
      </trkpt>
      <trkpt lat="45.62422" lon="6.75883">
        <ele>1169.2</ele>
        <time>2021-06-05T08:44:47Z</time>
      </trkpt>
      <trkpt lat="45.62423" lon="6.75886">
        <ele>1169.8</ele>
        <time>2021-06-05T08:44:48Z</time>
      </trkpt>
      <trkpt lat="45.62424" lon="6.75888">
        <ele>1170</ele>
        <time>2021-06-05T08:44:49Z</time>
      </trkpt>
      <trkpt lat="45.62425" lon="6.75892">
        <ele>1170.6</ele>
        <time>2021-06-05T08:44:50Z</time>
      </trkpt>
      <trkpt lat="45.62424" lon="6.75896">
        <ele>1171</ele>
        <time>2021-06-05T08:44:52Z</time>
      </trkpt>
      <trkpt lat="45.62423" lon="6.75899">
        <ele>1171.4</ele>
        <time>2021-06-05T08:44:53Z</time>
      </trkpt>
      <trkpt lat="45.62421" lon="6.75901">
        <ele>1171.4</ele>
        <time>2021-06-05T08:44:54Z</time>
      </trkpt>
      <trkpt lat="45.6242" lon="6.75904">
        <ele>1171.4</ele>
        <time>2021-06-05T08:44:55Z</time>
      </trkpt>
      <trkpt lat="45.6242" lon="6.75907">
        <ele>1171.8</ele>
        <time>2021-06-05T08:44:56Z</time>
      </trkpt>
      <trkpt lat="45.62421" lon="6.7591">
        <ele>1172</ele>
        <time>2021-06-05T08:44:57Z</time>
      </trkpt>
      <trkpt lat="45.62422" lon="6.75912">
        <ele>1171.8</ele>
        <time>2021-06-05T08:44:58Z</time>
      </trkpt>
      <trkpt lat="45.62424" lon="6.75915">
        <ele>1172.2</ele>
        <time>2021-06-05T08:44:59Z</time>
      </trkpt>
      <trkpt lat="45.62426" lon="6.75919">
        <ele>1172.8</ele>
        <time>2021-06-05T08:45:01Z</time>
      </trkpt>
      <trkpt lat="45.62428" lon="6.75921">
        <ele>1173.2</ele>
        <time>2021-06-05T08:45:02Z</time>
      </trkpt>
      <trkpt lat="45.6243" lon="6.75923">
        <ele>1173.4</ele>
        <time>2021-06-05T08:45:03Z</time>
      </trkpt>
      <trkpt lat="45.62432" lon="6.75923">
        <ele>1174</ele>
        <time>2021-06-05T08:45:05Z</time>
      </trkpt>
      <trkpt lat="45.62434" lon="6.75922">
        <ele>1174.8</ele>
        <time>2021-06-05T08:45:07Z</time>
      </trkpt>
      <trkpt lat="45.62435" lon="6.75919">
        <ele>1175.2</ele>
        <time>2021-06-05T08:45:09Z</time>
      </trkpt>
      <trkpt lat="45.62437" lon="6.75915">
        <ele>1175.8</ele>
        <time>2021-06-05T08:45:11Z</time>
      </trkpt>
      <trkpt lat="45.62439" lon="6.75915">
        <ele>1176</ele>
        <time>2021-06-05T08:45:12Z</time>
      </trkpt>
      <trkpt lat="45.62442" lon="6.75916">
        <ele>1176.6</ele>
        <time>2021-06-05T08:45:13Z</time>
      </trkpt>
      <trkpt lat="45.62445" lon="6.75917">
        <ele>1176.8</ele>
        <time>2021-06-05T08:45:14Z</time>
      </trkpt>
      <trkpt lat="45.62447" lon="6.75918">
        <ele>1176.6</ele>
        <time>2021-06-05T08:45:15Z</time>
      </trkpt>
      <trkpt lat="45.62449" lon="6.75919">
        <ele>1177.2</ele>
        <time>2021-06-05T08:45:16Z</time>
      </trkpt>
      <trkpt lat="45.62451" lon="6.75918">
        <ele>1177.4</ele>
        <time>2021-06-05T08:45:18Z</time>
      </trkpt>
      <trkpt lat="45.62452" lon="6.75915">
        <ele>1178.4</ele>
        <time>2021-06-05T08:45:20Z</time>
      </trkpt>
      <trkpt lat="45.62452" lon="6.75912">
        <ele>1179</ele>
        <time>2021-06-05T08:45:22Z</time>
      </trkpt>
      <trkpt lat="45.62455" lon="6.7591">
        <ele>1179.4</ele>
        <time>2021-06-05T08:45:24Z</time>
      </trkpt>
      <trkpt lat="45.62457" lon="6.75913">
        <ele>1180.4</ele>
        <time>2021-06-05T08:45:27Z</time>
      </trkpt>
      <trkpt lat="45.62459" lon="6.75914">
        <ele>1181.4</ele>
        <time>2021-06-05T08:45:29Z</time>
      </trkpt>
      <trkpt lat="45.62461" lon="6.75913">
        <ele>1182</ele>
        <time>2021-06-05T08:45:31Z</time>
      </trkpt>
      <trkpt lat="45.62462" lon="6.7591">
        <ele>1182.8</ele>
        <time>2021-06-05T08:45:33Z</time>
      </trkpt>
      <trkpt lat="45.62462" lon="6.75907">
        <ele>1183.4</ele>
        <time>2021-06-05T08:45:35Z</time>
      </trkpt>
      <trkpt lat="45.62463" lon="6.75904">
        <ele>1184</ele>
        <time>2021-06-05T08:45:37Z</time>
      </trkpt>
      <trkpt lat="45.62465" lon="6.75901">
        <ele>1185</ele>
        <time>2021-06-05T08:45:39Z</time>
      </trkpt>
      <trkpt lat="45.62465" lon="6.75898">
        <ele>1185.4</ele>
        <time>2021-06-05T08:45:41Z</time>
      </trkpt>
      <trkpt lat="45.62467" lon="6.75895">
        <ele>1186</ele>
        <time>2021-06-05T08:45:43Z</time>
      </trkpt>
      <trkpt lat="45.62469" lon="6.75893">
        <ele>1186.4</ele>
        <time>2021-06-05T08:45:45Z</time>
      </trkpt>
      <trkpt lat="45.62471" lon="6.75892">
        <ele>1187</ele>
        <time>2021-06-05T08:45:47Z</time>
      </trkpt>
      <trkpt lat="45.62473" lon="6.75889">
        <ele>1187.6</ele>
        <time>2021-06-05T08:45:49Z</time>
      </trkpt>
      <trkpt lat="45.62473" lon="6.75886">
        <ele>1188.4</ele>
        <time>2021-06-05T08:45:51Z</time>
      </trkpt>
      <trkpt lat="45.62476" lon="6.75888">
        <ele>1189.4</ele>
        <time>2021-06-05T08:45:54Z</time>
      </trkpt>
      <trkpt lat="45.62477" lon="6.75891">
        <ele>1191</ele>
        <time>2021-06-05T08:45:58Z</time>
      </trkpt>
      <trkpt lat="45.62476" lon="6.75894">
        <ele>1191.4</ele>
        <time>2021-06-05T08:46:00Z</time>
      </trkpt>
      <trkpt lat="45.62477" lon="6.75898">
        <ele>1192.2</ele>
        <time>2021-06-05T08:46:02Z</time>
      </trkpt>
      <trkpt lat="45.62479" lon="6.75901">
        <ele>1192.8</ele>
        <time>2021-06-05T08:46:04Z</time>
      </trkpt>
      <trkpt lat="45.6248" lon="6.75905">
        <ele>1193.4</ele>
        <time>2021-06-05T08:46:06Z</time>
      </trkpt>
      <trkpt lat="45.62482" lon="6.75908">
        <ele>1193.8</ele>
        <time>2021-06-05T08:46:08Z</time>
      </trkpt>
      <trkpt lat="45.62484" lon="6.75908">
        <ele>1194.2</ele>
        <time>2021-06-05T08:46:10Z</time>
      </trkpt>
      <trkpt lat="45.62484" lon="6.75904">
        <ele>1194.6</ele>
        <time>2021-06-05T08:46:12Z</time>
      </trkpt>
      <trkpt lat="45.62484" lon="6.759">
        <ele>1194.6</ele>
        <time>2021-06-05T08:46:14Z</time>
      </trkpt>
      <trkpt lat="45.62484" lon="6.75897">
        <ele>1195.6</ele>
        <time>2021-06-05T08:46:16Z</time>
      </trkpt>
      <trkpt lat="45.62485" lon="6.75894">
        <ele>1196.2</ele>
        <time>2021-06-05T08:46:18Z</time>
      </trkpt>
      <trkpt lat="45.62488" lon="6.75894">
        <ele>1197.2</ele>
        <time>2021-06-05T08:46:20Z</time>
      </trkpt>
      <trkpt lat="45.62489" lon="6.75897">
        <ele>1198</ele>
        <time>2021-06-05T08:46:22Z</time>
      </trkpt>
      <trkpt lat="45.62491" lon="6.75899">
        <ele>1197.8</ele>
        <time>2021-06-05T08:46:23Z</time>
      </trkpt>
      <trkpt lat="45.62493" lon="6.75903">
        <ele>1198.8</ele>
        <time>2021-06-05T08:46:25Z</time>
      </trkpt>
      <trkpt lat="45.62495" lon="6.75902">
        <ele>1199.4</ele>
        <time>2021-06-05T08:46:27Z</time>
      </trkpt>
      <trkpt lat="45.62495" lon="6.75897">
        <ele>1199.8</ele>
        <time>2021-06-05T08:46:29Z</time>
      </trkpt>
      <trkpt lat="45.62495" lon="6.75893">
        <ele>1200.8</ele>
        <time>2021-06-05T08:46:31Z</time>
      </trkpt>
      <trkpt lat="45.62495" lon="6.75888">
        <ele>1201.6</ele>
        <time>2021-06-05T08:46:33Z</time>
      </trkpt>
      <trkpt lat="45.62497" lon="6.75885">
        <ele>1202.8</ele>
        <time>2021-06-05T08:46:35Z</time>
      </trkpt>
      <trkpt lat="45.62499" lon="6.75885">
        <ele>1204.4</ele>
        <time>2021-06-05T08:46:38Z</time>
      </trkpt>
      <trkpt lat="45.625" lon="6.75888">
        <ele>1206</ele>
        <time>2021-06-05T08:46:41Z</time>
      </trkpt>
      <trkpt lat="45.62502" lon="6.75889">
        <ele>1206.6</ele>
        <time>2021-06-05T08:46:43Z</time>
      </trkpt>
      <trkpt lat="45.62504" lon="6.75888">
        <ele>1207.2</ele>
        <time>2021-06-05T08:46:45Z</time>
      </trkpt>
      <trkpt lat="45.62503" lon="6.75885">
        <ele>1207.8</ele>
        <time>2021-06-05T08:46:47Z</time>
      </trkpt>
      <trkpt lat="45.62502" lon="6.75882">
        <ele>1208.4</ele>
        <time>2021-06-05T08:46:49Z</time>
      </trkpt>
      <trkpt lat="45.62502" lon="6.75879">
        <ele>1209.2</ele>
        <time>2021-06-05T08:46:51Z</time>
      </trkpt>
      <trkpt lat="45.62502" lon="6.75876">
        <ele>1210</ele>
        <time>2021-06-05T08:46:53Z</time>
      </trkpt>
      <trkpt lat="45.62504" lon="6.75873">
        <ele>1210.4</ele>
        <time>2021-06-05T08:46:55Z</time>
      </trkpt>
      <trkpt lat="45.62505" lon="6.75871">
        <ele>1211.6</ele>
        <time>2021-06-05T08:46:58Z</time>
      </trkpt>
      <trkpt lat="45.62508" lon="6.7587">
        <ele>1212.6</ele>
        <time>2021-06-05T08:47:00Z</time>
      </trkpt>
      <trkpt lat="45.6251" lon="6.75874">
        <ele>1213.4</ele>
        <time>2021-06-05T08:47:03Z</time>
      </trkpt>
      <trkpt lat="45.62513" lon="6.75874">
        <ele>1214.4</ele>
        <time>2021-06-05T08:47:07Z</time>
      </trkpt>
      <trkpt lat="45.62515" lon="6.75872">
        <ele>1214.8</ele>
        <time>2021-06-05T08:47:09Z</time>
      </trkpt>
      <trkpt lat="45.62516" lon="6.75868">
        <ele>1215.8</ele>
        <time>2021-06-05T08:47:12Z</time>
      </trkpt>
      <trkpt lat="45.62517" lon="6.75866">
        <ele>1216.2</ele>
        <time>2021-06-05T08:47:14Z</time>
      </trkpt>
      <trkpt lat="45.62518" lon="6.75862">
        <ele>1216.8</ele>
        <time>2021-06-05T08:47:16Z</time>
      </trkpt>
      <trkpt lat="45.62519" lon="6.7586">
        <ele>1217.6</ele>
        <time>2021-06-05T08:47:18Z</time>
      </trkpt>
      <trkpt lat="45.62521" lon="6.75856">
        <ele>1218.2</ele>
        <time>2021-06-05T08:47:20Z</time>
      </trkpt>
      <trkpt lat="45.62522" lon="6.75853">
        <ele>1219</ele>
        <time>2021-06-05T08:47:22Z</time>
      </trkpt>
      <trkpt lat="45.62523" lon="6.7585">
        <ele>1220</ele>
        <time>2021-06-05T08:47:24Z</time>
      </trkpt>
      <trkpt lat="45.62522" lon="6.75847">
        <ele>1220.4</ele>
        <time>2021-06-05T08:47:26Z</time>
      </trkpt>
      <trkpt lat="45.62522" lon="6.75844">
        <ele>1221.4</ele>
        <time>2021-06-05T08:47:28Z</time>
      </trkpt>
      <trkpt lat="45.62524" lon="6.75842">
        <ele>1222</ele>
        <time>2021-06-05T08:47:30Z</time>
      </trkpt>
      <trkpt lat="45.62525" lon="6.7584">
        <ele>1222.6</ele>
        <time>2021-06-05T08:47:32Z</time>
      </trkpt>
      <trkpt lat="45.62525" lon="6.75836">
        <ele>1223.2</ele>
        <time>2021-06-05T08:47:34Z</time>
      </trkpt>
      <trkpt lat="45.62525" lon="6.75832">
        <ele>1224.2</ele>
        <time>2021-06-05T08:47:36Z</time>
      </trkpt>
      <trkpt lat="45.62528" lon="6.75832">
        <ele>1225.2</ele>
        <time>2021-06-05T08:47:39Z</time>
      </trkpt>
      <trkpt lat="45.62531" lon="6.75834">
        <ele>1225.6</ele>
        <time>2021-06-05T08:47:41Z</time>
      </trkpt>
      <trkpt lat="45.62532" lon="6.75836">
        <ele>1226.6</ele>
        <time>2021-06-05T08:47:43Z</time>
      </trkpt>
      <trkpt lat="45.62534" lon="6.75838">
        <ele>1227.2</ele>
        <time>2021-06-05T08:47:45Z</time>
      </trkpt>
      <trkpt lat="45.62536" lon="6.75839">
        <ele>1227.8</ele>
        <time>2021-06-05T08:47:47Z</time>
      </trkpt>
      <trkpt lat="45.62538" lon="6.75837">
        <ele>1228</ele>
        <time>2021-06-05T08:47:48Z</time>
      </trkpt>
      <trkpt lat="45.62537" lon="6.75834">
        <ele>1228.6</ele>
        <time>2021-06-05T08:47:50Z</time>
      </trkpt>
      <trkpt lat="45.62537" lon="6.7583">
        <ele>1229.2</ele>
        <time>2021-06-05T08:47:52Z</time>
      </trkpt>
      <trkpt lat="45.62537" lon="6.75826">
        <ele>1229.8</ele>
        <time>2021-06-05T08:47:54Z</time>
      </trkpt>
      <trkpt lat="45.62539" lon="6.75823">
        <ele>1230.2</ele>
        <time>2021-06-05T08:47:56Z</time>
      </trkpt>
      <trkpt lat="45.6254" lon="6.75821">
        <ele>1231</ele>
        <time>2021-06-05T08:47:57Z</time>
      </trkpt>
      <trkpt lat="45.62542" lon="6.75818">
        <ele>1231.2</ele>
        <time>2021-06-05T08:47:59Z</time>
      </trkpt>
      <trkpt lat="45.62543" lon="6.75815">
        <ele>1232.2</ele>
        <time>2021-06-05T08:48:02Z</time>
      </trkpt>
      <trkpt lat="45.62545" lon="6.75812">
        <ele>1233.4</ele>
        <time>2021-06-05T08:48:05Z</time>
      </trkpt>
      <trkpt lat="45.62547" lon="6.75811">
        <ele>1234.6</ele>
        <time>2021-06-05T08:48:07Z</time>
      </trkpt>
      <trkpt lat="45.6255" lon="6.75809">
        <ele>1235.6</ele>
        <time>2021-06-05T08:48:09Z</time>
      </trkpt>
      <trkpt lat="45.62553" lon="6.75807">
        <ele>1237</ele>
        <time>2021-06-05T08:48:12Z</time>
      </trkpt>
      <trkpt lat="45.62555" lon="6.75807">
        <ele>1237.4</ele>
        <time>2021-06-05T08:48:13Z</time>
      </trkpt>
      <trkpt lat="45.62557" lon="6.75805">
        <ele>1239</ele>
        <time>2021-06-05T08:48:15Z</time>
      </trkpt>
      <trkpt lat="45.62558" lon="6.75804">
        <ele>1239.4</ele>
        <time>2021-06-05T08:48:16Z</time>
      </trkpt>
      <trkpt lat="45.62559" lon="6.75801">
        <ele>1240.6</ele>
        <time>2021-06-05T08:48:18Z</time>
      </trkpt>
      <trkpt lat="45.62562" lon="6.75801">
        <ele>1240.8</ele>
        <time>2021-06-05T08:48:19Z</time>
      </trkpt>
      <trkpt lat="45.62562" lon="6.75798">
        <ele>1242.8</ele>
        <time>2021-06-05T08:48:23Z</time>
      </trkpt>
      <trkpt lat="45.62558" lon="6.75796">
        <ele>1243.4</ele>
        <time>2021-06-05T08:48:24Z</time>
      </trkpt>
      <trkpt lat="45.62559" lon="6.75793">
        <ele>1246</ele>
        <time>2021-06-05T08:48:28Z</time>
      </trkpt>
      <trkpt lat="45.62557" lon="6.7579">
        <ele>1247.2</ele>
        <time>2021-06-05T08:48:30Z</time>
      </trkpt>
      <trkpt lat="45.62558" lon="6.75788">
        <ele>1248.8</ele>
        <time>2021-06-05T08:48:33Z</time>
      </trkpt>
      <trkpt lat="45.6256" lon="6.75787">
        <ele>1250.2</ele>
        <time>2021-06-05T08:48:35Z</time>
      </trkpt>
      <trkpt lat="45.62562" lon="6.75786">
        <ele>1251.6</ele>
        <time>2021-06-05T08:48:37Z</time>
      </trkpt>
      <trkpt lat="45.62564" lon="6.75785">
        <ele>1252.2</ele>
        <time>2021-06-05T08:48:38Z</time>
      </trkpt>
      <trkpt lat="45.62567" lon="6.75783">
        <ele>1253.4</ele>
        <time>2021-06-05T08:48:40Z</time>
      </trkpt>
      <trkpt lat="45.62571" lon="6.75782">
        <ele>1254</ele>
        <time>2021-06-05T08:48:41Z</time>
      </trkpt>
      <trkpt lat="45.62572" lon="6.75775">
        <ele>1256.6</ele>
        <time>2021-06-05T08:48:45Z</time>
      </trkpt>
      <trkpt lat="45.62608" lon="6.75712">
        <ele>1293.8</ele>
        <time>2021-06-05T08:50:27Z</time>
      </trkpt>
      <trkpt lat="45.62611" lon="6.75714">
        <ele>1294.4</ele>
        <time>2021-06-05T08:50:28Z</time>
      </trkpt>
      <trkpt lat="45.62609" lon="6.75714">
        <ele>1294.6</ele>
        <time>2021-06-05T08:50:29Z</time>
      </trkpt>
      <trkpt lat="45.62611" lon="6.75716">
        <ele>1294.8</ele>
        <time>2021-06-05T08:50:30Z</time>
      </trkpt>
      <trkpt lat="45.62616" lon="6.75719">
        <ele>1295.6</ele>
        <time>2021-06-05T08:50:32Z</time>
      </trkpt>
      <trkpt lat="45.62619" lon="6.7572">
        <ele>1296.4</ele>
        <time>2021-06-05T08:50:34Z</time>
      </trkpt>
      <trkpt lat="45.62654" lon="6.7576">
        <ele>1309.8</ele>
        <time>2021-06-05T08:51:22Z</time>
      </trkpt>
      <trkpt lat="45.62652" lon="6.75758">
        <ele>1311.6</ele>
        <time>2021-06-05T08:51:29Z</time>
      </trkpt>
      <trkpt lat="45.62649" lon="6.7576">
        <ele>1311.8</ele>
        <time>2021-06-05T08:51:30Z</time>
      </trkpt>
      <trkpt lat="45.62647" lon="6.75762">
        <ele>1312.2</ele>
        <time>2021-06-05T08:51:32Z</time>
      </trkpt>
      <trkpt lat="45.62648" lon="6.75764">
        <ele>1312.6</ele>
        <time>2021-06-05T08:51:34Z</time>
      </trkpt>
      <trkpt lat="45.6265" lon="6.75766">
        <ele>1313.2</ele>
        <time>2021-06-05T08:51:36Z</time>
      </trkpt>
      <trkpt lat="45.62649" lon="6.75769">
        <ele>1314.4</ele>
        <time>2021-06-05T08:51:40Z</time>
      </trkpt>
      <trkpt lat="45.62648" lon="6.75771">
        <ele>1314.4</ele>
        <time>2021-06-05T08:51:42Z</time>
      </trkpt>
      <trkpt lat="45.62646" lon="6.75775">
        <ele>1315</ele>
        <time>2021-06-05T08:51:44Z</time>
      </trkpt>
      <trkpt lat="45.62645" lon="6.75779">
        <ele>1315.2</ele>
        <time>2021-06-05T08:51:46Z</time>
      </trkpt>
      <trkpt lat="45.62644" lon="6.75782">
        <ele>1315.4</ele>
        <time>2021-06-05T08:51:48Z</time>
      </trkpt>
      <trkpt lat="45.62644" lon="6.75786">
        <ele>1315.4</ele>
        <time>2021-06-05T08:51:50Z</time>
      </trkpt>
      <trkpt lat="45.62642" lon="6.75788">
        <ele>1315.6</ele>
        <time>2021-06-05T08:51:51Z</time>
      </trkpt>
      <trkpt lat="45.62642" lon="6.75791">
        <ele>1315.6</ele>
        <time>2021-06-05T08:51:53Z</time>
      </trkpt>
      <trkpt lat="45.62641" lon="6.75794">
        <ele>1316.2</ele>
        <time>2021-06-05T08:51:59Z</time>
      </trkpt>
      <trkpt lat="45.62642" lon="6.75792">
        <ele>1317.4</ele>
        <time>2021-06-05T08:52:04Z</time>
      </trkpt>
      <trkpt lat="45.62644" lon="6.75791">
        <ele>1317.8</ele>
        <time>2021-06-05T08:52:06Z</time>
      </trkpt>
      <trkpt lat="45.62646" lon="6.7579">
        <ele>1318.6</ele>
        <time>2021-06-05T08:52:08Z</time>
      </trkpt>
      <trkpt lat="45.62648" lon="6.75788">
        <ele>1319.6</ele>
        <time>2021-06-05T08:52:11Z</time>
      </trkpt>
      <trkpt lat="45.6265" lon="6.75784">
        <ele>1321</ele>
        <time>2021-06-05T08:52:14Z</time>
      </trkpt>
      <trkpt lat="45.62652" lon="6.75783">
        <ele>1321.6</ele>
        <time>2021-06-05T08:52:15Z</time>
      </trkpt>
      <trkpt lat="45.62654" lon="6.75782">
        <ele>1322</ele>
        <time>2021-06-05T08:52:16Z</time>
      </trkpt>
      <trkpt lat="45.62656" lon="6.75782">
        <ele>1322.8</ele>
        <time>2021-06-05T08:52:18Z</time>
      </trkpt>
      <trkpt lat="45.62658" lon="6.75782">
        <ele>1323</ele>
        <time>2021-06-05T08:52:19Z</time>
      </trkpt>
      <trkpt lat="45.62662" lon="6.75786">
        <ele>1325</ele>
        <time>2021-06-05T08:52:24Z</time>
      </trkpt>
      <trkpt lat="45.62661" lon="6.75788">
        <ele>1325.2</ele>
        <time>2021-06-05T08:52:26Z</time>
      </trkpt>
      <trkpt lat="45.6266" lon="6.75791">
        <ele>1325.8</ele>
        <time>2021-06-05T08:52:28Z</time>
      </trkpt>
      <trkpt lat="45.62663" lon="6.75794">
        <ele>1329.6</ele>
        <time>2021-06-05T08:52:41Z</time>
      </trkpt>
      <trkpt lat="45.62665" lon="6.75792">
        <ele>1331.4</ele>
        <time>2021-06-05T08:52:44Z</time>
      </trkpt>
      <trkpt lat="45.62666" lon="6.7579">
        <ele>1333.8</ele>
        <time>2021-06-05T08:52:48Z</time>
      </trkpt>
      <trkpt lat="45.62667" lon="6.75786">
        <ele>1335.6</ele>
        <time>2021-06-05T08:52:51Z</time>
      </trkpt>
      <trkpt lat="45.62668" lon="6.75784">
        <ele>1336.6</ele>
        <time>2021-06-05T08:52:53Z</time>
      </trkpt>
      <trkpt lat="45.62668" lon="6.7578">
        <ele>1337.4</ele>
        <time>2021-06-05T08:52:55Z</time>
      </trkpt>
      <trkpt lat="45.62668" lon="6.75777">
        <ele>1337.8</ele>
        <time>2021-06-05T08:52:57Z</time>
      </trkpt>
      <trkpt lat="45.6267" lon="6.75778">
        <ele>1340.2</ele>
        <time>2021-06-05T08:53:02Z</time>
      </trkpt>
      <trkpt lat="45.62688" lon="6.75787">
        <ele>1343.8</ele>
        <time>2021-06-05T08:53:12Z</time>
      </trkpt>
      <trkpt lat="45.62695" lon="6.75789">
        <ele>1345.2</ele>
        <time>2021-06-05T08:53:17Z</time>
      </trkpt>
      <trkpt lat="45.62697" lon="6.75787">
        <ele>1345.4</ele>
        <time>2021-06-05T08:53:19Z</time>
      </trkpt>
      <trkpt lat="45.62698" lon="6.75785">
        <ele>1346.2</ele>
        <time>2021-06-05T08:53:21Z</time>
      </trkpt>
      <trkpt lat="45.62701" lon="6.75784">
        <ele>1347.4</ele>
        <time>2021-06-05T08:53:23Z</time>
      </trkpt>
      <trkpt lat="45.62703" lon="6.75782">
        <ele>1348.2</ele>
        <time>2021-06-05T08:53:25Z</time>
      </trkpt>
      <trkpt lat="45.62705" lon="6.75784">
        <ele>1350</ele>
        <time>2021-06-05T08:53:29Z</time>
      </trkpt>
      <trkpt lat="45.62703" lon="6.75784">
        <ele>1351</ele>
        <time>2021-06-05T08:53:32Z</time>
      </trkpt>
      <trkpt lat="45.62701" lon="6.75786">
        <ele>1352</ele>
        <time>2021-06-05T08:53:37Z</time>
      </trkpt>
      <trkpt lat="45.62703" lon="6.75784">
        <ele>1352.8</ele>
        <time>2021-06-05T08:53:39Z</time>
      </trkpt>
      <trkpt lat="45.62722" lon="6.75804">
        <ele>1356</ele>
        <time>2021-06-05T08:53:53Z</time>
      </trkpt>
      <trkpt lat="45.62723" lon="6.75806">
        <ele>1356.2</ele>
        <time>2021-06-05T08:53:56Z</time>
      </trkpt>
      <trkpt lat="45.62725" lon="6.75806">
        <ele>1356.4</ele>
        <time>2021-06-05T08:53:58Z</time>
      </trkpt>
      <trkpt lat="45.62727" lon="6.75803">
        <ele>1356.8</ele>
        <time>2021-06-05T08:54:01Z</time>
      </trkpt>
      <trkpt lat="45.62727" lon="6.758">
        <ele>1357.4</ele>
        <time>2021-06-05T08:54:04Z</time>
      </trkpt>
      <trkpt lat="45.62726" lon="6.75799">
        <ele>1357.8</ele>
        <time>2021-06-05T08:54:06Z</time>
      </trkpt>
      <trkpt lat="45.62726" lon="6.75802">
        <ele>1358.2</ele>
        <time>2021-06-05T08:54:09Z</time>
      </trkpt>
      <trkpt lat="45.62726" lon="6.75806">
        <ele>1358.8</ele>
        <time>2021-06-05T08:54:13Z</time>
      </trkpt>
      <trkpt lat="45.62726" lon="6.75809">
        <ele>1359.2</ele>
        <time>2021-06-05T08:54:16Z</time>
      </trkpt>
      <trkpt lat="45.62728" lon="6.75811">
        <ele>1359.8</ele>
        <time>2021-06-05T08:54:18Z</time>
      </trkpt>
      <trkpt lat="45.62731" lon="6.75813">
        <ele>1360.4</ele>
        <time>2021-06-05T08:54:20Z</time>
      </trkpt>
      <trkpt lat="45.62733" lon="6.75814">
        <ele>1360.2</ele>
        <time>2021-06-05T08:54:21Z</time>
      </trkpt>
      <trkpt lat="45.62732" lon="6.75812">
        <ele>1363.2</ele>
        <time>2021-06-05T08:54:29Z</time>
      </trkpt>
      <trkpt lat="45.62733" lon="6.7581">
        <ele>1364.8</ele>
        <time>2021-06-05T08:54:35Z</time>
      </trkpt>
      <trkpt lat="45.62735" lon="6.75812">
        <ele>1365.4</ele>
        <time>2021-06-05T08:54:37Z</time>
      </trkpt>
      <trkpt lat="45.62737" lon="6.75813">
        <ele>1366.8</ele>
        <time>2021-06-05T08:54:40Z</time>
      </trkpt>
      <trkpt lat="45.62739" lon="6.75811">
        <ele>1367.6</ele>
        <time>2021-06-05T08:54:43Z</time>
      </trkpt>
      <trkpt lat="45.62741" lon="6.7581">
        <ele>1370.8</ele>
        <time>2021-06-05T08:54:53Z</time>
      </trkpt>
      <trkpt lat="45.62743" lon="6.75809">
        <ele>1371.4</ele>
        <time>2021-06-05T08:54:55Z</time>
      </trkpt>
      <trkpt lat="45.62743" lon="6.75806">
        <ele>1372.2</ele>
        <time>2021-06-05T08:54:58Z</time>
      </trkpt>
      <trkpt lat="45.62745" lon="6.75806">
        <ele>1373</ele>
        <time>2021-06-05T08:55:00Z</time>
      </trkpt>
      <trkpt lat="45.62747" lon="6.75807">
        <ele>1373.4</ele>
        <time>2021-06-05T08:55:02Z</time>
      </trkpt>
      <trkpt lat="45.62749" lon="6.75808">
        <ele>1374.2</ele>
        <time>2021-06-05T08:55:04Z</time>
      </trkpt>
      <trkpt lat="45.62753" lon="6.75809">
        <ele>1374.8</ele>
        <time>2021-06-05T08:55:06Z</time>
      </trkpt>
      <trkpt lat="45.62754" lon="6.75805">
        <ele>1376</ele>
        <time>2021-06-05T08:55:11Z</time>
      </trkpt>
      <trkpt lat="45.62756" lon="6.75804">
        <ele>1376.8</ele>
        <time>2021-06-05T08:55:13Z</time>
      </trkpt>
      <trkpt lat="45.62757" lon="6.75805">
        <ele>1377</ele>
        <time>2021-06-05T08:55:14Z</time>
      </trkpt>
      <trkpt lat="45.6276" lon="6.75805">
        <ele>1378.2</ele>
        <time>2021-06-05T08:55:17Z</time>
      </trkpt>
      <trkpt lat="45.62763" lon="6.75804">
        <ele>1379</ele>
        <time>2021-06-05T08:55:20Z</time>
      </trkpt>
      <trkpt lat="45.62764" lon="6.75803">
        <ele>1379.6</ele>
        <time>2021-06-05T08:55:22Z</time>
      </trkpt>
      <trkpt lat="45.62767" lon="6.75803">
        <ele>1382.4</ele>
        <time>2021-06-05T08:55:29Z</time>
      </trkpt>
      <trkpt lat="45.62769" lon="6.75801">
        <ele>1386.8</ele>
        <time>2021-06-05T08:55:39Z</time>
      </trkpt>
      <trkpt lat="45.62771" lon="6.758">
        <ele>1388.2</ele>
        <time>2021-06-05T08:55:42Z</time>
      </trkpt>
      <trkpt lat="45.62772" lon="6.75797">
        <ele>1389.4</ele>
        <time>2021-06-05T08:55:45Z</time>
      </trkpt>
      <trkpt lat="45.62773" lon="6.75797">
        <ele>1390</ele>
        <time>2021-06-05T08:55:47Z</time>
      </trkpt>
      <trkpt lat="45.62775" lon="6.75796">
        <ele>1391.4</ele>
        <time>2021-06-05T08:55:51Z</time>
      </trkpt>
      <trkpt lat="45.62779" lon="6.75796">
        <ele>1392</ele>
        <time>2021-06-05T08:55:53Z</time>
      </trkpt>
      <trkpt lat="45.62781" lon="6.75796">
        <ele>1392.2</ele>
        <time>2021-06-05T08:55:54Z</time>
      </trkpt>
      <trkpt lat="45.62784" lon="6.75796">
        <ele>1392.6</ele>
        <time>2021-06-05T08:55:55Z</time>
      </trkpt>
      <trkpt lat="45.62787" lon="6.75797">
        <ele>1392.8</ele>
        <time>2021-06-05T08:55:56Z</time>
      </trkpt>
      <trkpt lat="45.6279" lon="6.75799">
        <ele>1393</ele>
        <time>2021-06-05T08:55:57Z</time>
      </trkpt>
      <trkpt lat="45.62793" lon="6.758">
        <ele>1393.4</ele>
        <time>2021-06-05T08:55:58Z</time>
      </trkpt>
      <trkpt lat="45.62795" lon="6.758">
        <ele>1393.8</ele>
        <time>2021-06-05T08:55:59Z</time>
      </trkpt>
      <trkpt lat="45.62797" lon="6.758">
        <ele>1395</ele>
        <time>2021-06-05T08:56:05Z</time>
      </trkpt>
      <trkpt lat="45.628" lon="6.75802">
        <ele>1395.8</ele>
        <time>2021-06-05T08:56:07Z</time>
      </trkpt>
      <trkpt lat="45.62803" lon="6.75802">
        <ele>1396.2</ele>
        <time>2021-06-05T08:56:09Z</time>
      </trkpt>
      <trkpt lat="45.62805" lon="6.75801">
        <ele>1396.2</ele>
        <time>2021-06-05T08:56:10Z</time>
      </trkpt>
      <trkpt lat="45.62807" lon="6.75801">
        <ele>1396.4</ele>
        <time>2021-06-05T08:56:11Z</time>
      </trkpt>
      <trkpt lat="45.6281" lon="6.75801">
        <ele>1396.8</ele>
        <time>2021-06-05T08:56:12Z</time>
      </trkpt>
      <trkpt lat="45.62812" lon="6.75801">
        <ele>1397.6</ele>
        <time>2021-06-05T08:56:15Z</time>
      </trkpt>
      <trkpt lat="45.62814" lon="6.758">
        <ele>1398.6</ele>
        <time>2021-06-05T08:56:18Z</time>
      </trkpt>
      <trkpt lat="45.62816" lon="6.75801">
        <ele>1399.4</ele>
        <time>2021-06-05T08:56:20Z</time>
      </trkpt>
      <trkpt lat="45.62818" lon="6.75798">
        <ele>1402.8</ele>
        <time>2021-06-05T08:56:28Z</time>
      </trkpt>
      <trkpt lat="45.62816" lon="6.75796">
        <ele>1405.2</ele>
        <time>2021-06-05T08:56:35Z</time>
      </trkpt>
      <trkpt lat="45.62818" lon="6.75795">
        <ele>1406.8</ele>
        <time>2021-06-05T08:56:39Z</time>
      </trkpt>
      <trkpt lat="45.62821" lon="6.75795">
        <ele>1409.4</ele>
        <time>2021-06-05T08:56:44Z</time>
      </trkpt>
      <trkpt lat="45.62823" lon="6.75796">
        <ele>1412.2</ele>
        <time>2021-06-05T08:56:53Z</time>
      </trkpt>
      <trkpt lat="45.62825" lon="6.75798">
        <ele>1414.4</ele>
        <time>2021-06-05T08:56:59Z</time>
      </trkpt>
      <trkpt lat="45.62828" lon="6.75798">
        <ele>1414.8</ele>
        <time>2021-06-05T08:57:01Z</time>
      </trkpt>
      <trkpt lat="45.6283" lon="6.758">
        <ele>1415.4</ele>
        <time>2021-06-05T08:57:05Z</time>
      </trkpt>
      <trkpt lat="45.62832" lon="6.758">
        <ele>1416</ele>
        <time>2021-06-05T08:57:07Z</time>
      </trkpt>
      <trkpt lat="45.62834" lon="6.75801">
        <ele>1416.4</ele>
        <time>2021-06-05T08:57:10Z</time>
      </trkpt>
      <trkpt lat="45.62838" lon="6.75802">
        <ele>1416.2</ele>
        <time>2021-06-05T08:57:12Z</time>
      </trkpt>
      <trkpt lat="45.62842" lon="6.75804">
        <ele>1416.6</ele>
        <time>2021-06-05T08:57:13Z</time>
      </trkpt>
      <trkpt lat="45.62852" lon="6.75804">
        <ele>1416.8</ele>
        <time>2021-06-05T08:57:14Z</time>
      </trkpt>
      <trkpt lat="45.62859" lon="6.75805">
        <ele>1416.6</ele>
        <time>2021-06-05T08:57:15Z</time>
      </trkpt>
      <trkpt lat="45.62864" lon="6.75807">
        <ele>1417.2</ele>
        <time>2021-06-05T08:57:16Z</time>
      </trkpt>
      <trkpt lat="45.62867" lon="6.75808">
        <ele>1417.4</ele>
        <time>2021-06-05T08:57:17Z</time>
      </trkpt>
      <trkpt lat="45.62869" lon="6.75807">
        <ele>1418</ele>
        <time>2021-06-05T08:57:18Z</time>
      </trkpt>
      <trkpt lat="45.62872" lon="6.75805">
        <ele>1419</ele>
        <time>2021-06-05T08:57:22Z</time>
      </trkpt>
      <trkpt lat="45.62874" lon="6.75805">
        <ele>1419.2</ele>
        <time>2021-06-05T08:57:23Z</time>
      </trkpt>
      <trkpt lat="45.62876" lon="6.75803">
        <ele>1420.2</ele>
        <time>2021-06-05T08:57:25Z</time>
      </trkpt>
      <trkpt lat="45.62878" lon="6.75802">
        <ele>1421.8</ele>
        <time>2021-06-05T08:57:28Z</time>
      </trkpt>
      <trkpt lat="45.62881" lon="6.758">
        <ele>1422.6</ele>
        <time>2021-06-05T08:57:30Z</time>
      </trkpt>
      <trkpt lat="45.62882" lon="6.75798">
        <ele>1422.8</ele>
        <time>2021-06-05T08:57:31Z</time>
      </trkpt>
      <trkpt lat="45.62884" lon="6.75797">
        <ele>1423.4</ele>
        <time>2021-06-05T08:57:32Z</time>
      </trkpt>
      <trkpt lat="45.62885" lon="6.75795">
        <ele>1424</ele>
        <time>2021-06-05T08:57:33Z</time>
      </trkpt>
      <trkpt lat="45.62889" lon="6.75794">
        <ele>1425.2</ele>
        <time>2021-06-05T08:57:36Z</time>
      </trkpt>
      <trkpt lat="45.62891" lon="6.75794">
        <ele>1429.2</ele>
        <time>2021-06-05T08:57:47Z</time>
      </trkpt>
      <trkpt lat="45.62892" lon="6.75794">
        <ele>1431.8</ele>
        <time>2021-06-05T08:57:51Z</time>
      </trkpt>
      <trkpt lat="45.62895" lon="6.75794">
        <ele>1433</ele>
        <time>2021-06-05T08:57:53Z</time>
      </trkpt>
      <trkpt lat="45.62898" lon="6.75793">
        <ele>1433.6</ele>
        <time>2021-06-05T08:57:54Z</time>
      </trkpt>
      <trkpt lat="45.629" lon="6.75792">
        <ele>1433.8</ele>
        <time>2021-06-05T08:57:55Z</time>
      </trkpt>
      <trkpt lat="45.62902" lon="6.75792">
        <ele>1434.4</ele>
        <time>2021-06-05T08:57:56Z</time>
      </trkpt>
      <trkpt lat="45.62905" lon="6.75791">
        <ele>1437.2</ele>
        <time>2021-06-05T08:58:01Z</time>
      </trkpt>
      <trkpt lat="45.62908" lon="6.75792">
        <ele>1438.8</ele>
        <time>2021-06-05T08:58:06Z</time>
      </trkpt>
      <trkpt lat="45.62911" lon="6.75793">
        <ele>1439.4</ele>
        <time>2021-06-05T08:58:09Z</time>
      </trkpt>
      <trkpt lat="45.62913" lon="6.75794">
        <ele>1440.6</ele>
        <time>2021-06-05T08:58:13Z</time>
      </trkpt>
      <trkpt lat="45.62915" lon="6.75795">
        <ele>1440.8</ele>
        <time>2021-06-05T08:58:15Z</time>
      </trkpt>
      <trkpt lat="45.62916" lon="6.75796">
        <ele>1441</ele>
        <time>2021-06-05T08:58:16Z</time>
      </trkpt>
      <trkpt lat="45.62918" lon="6.75797">
        <ele>1441.4</ele>
        <time>2021-06-05T08:58:17Z</time>
      </trkpt>
      <trkpt lat="45.6292" lon="6.75798">
        <ele>1441.8</ele>
        <time>2021-06-05T08:58:18Z</time>
      </trkpt>
      <trkpt lat="45.62922" lon="6.75799">
        <ele>1442.2</ele>
        <time>2021-06-05T08:58:19Z</time>
      </trkpt>
      <trkpt lat="45.62924" lon="6.758">
        <ele>1442.2</ele>
        <time>2021-06-05T08:58:20Z</time>
      </trkpt>
      <trkpt lat="45.62925" lon="6.75801">
        <ele>1442.4</ele>
        <time>2021-06-05T08:58:21Z</time>
      </trkpt>
      <trkpt lat="45.62927" lon="6.75803">
        <ele>1443</ele>
        <time>2021-06-05T08:58:22Z</time>
      </trkpt>
      <trkpt lat="45.62929" lon="6.75804">
        <ele>1443</ele>
        <time>2021-06-05T08:58:23Z</time>
      </trkpt>
      <trkpt lat="45.62932" lon="6.75806">
        <ele>1443</ele>
        <time>2021-06-05T08:58:24Z</time>
      </trkpt>
      <trkpt lat="45.62934" lon="6.75807">
        <ele>1443.8</ele>
        <time>2021-06-05T08:58:25Z</time>
      </trkpt>
      <trkpt lat="45.62938" lon="6.75808">
        <ele>1444</ele>
        <time>2021-06-05T08:58:26Z</time>
      </trkpt>
      <trkpt lat="45.62941" lon="6.75809">
        <ele>1444</ele>
        <time>2021-06-05T08:58:27Z</time>
      </trkpt>
      <trkpt lat="45.62946" lon="6.7581">
        <ele>1444.6</ele>
        <time>2021-06-05T08:58:28Z</time>
      </trkpt>
      <trkpt lat="45.62952" lon="6.75813">
        <ele>1445</ele>
        <time>2021-06-05T08:58:29Z</time>
      </trkpt>
      <trkpt lat="45.62959" lon="6.75815">
        <ele>1445.2</ele>
        <time>2021-06-05T08:58:30Z</time>
      </trkpt>
      <trkpt lat="45.62966" lon="6.75815">
        <ele>1445.8</ele>
        <time>2021-06-05T08:58:31Z</time>
      </trkpt>
      <trkpt lat="45.62971" lon="6.75816">
        <ele>1446.2</ele>
        <time>2021-06-05T08:58:32Z</time>
      </trkpt>
      <trkpt lat="45.62973" lon="6.75816">
        <ele>1446.6</ele>
        <time>2021-06-05T08:58:33Z</time>
      </trkpt>
      <trkpt lat="45.62976" lon="6.75816">
        <ele>1447.8</ele>
        <time>2021-06-05T08:58:37Z</time>
      </trkpt>
      <trkpt lat="45.6298" lon="6.75817">
        <ele>1448.4</ele>
        <time>2021-06-05T08:58:39Z</time>
      </trkpt>
      <trkpt lat="45.62982" lon="6.75818">
        <ele>1448.8</ele>
        <time>2021-06-05T08:58:41Z</time>
      </trkpt>
      <trkpt lat="45.62986" lon="6.75818">
        <ele>1449.4</ele>
        <time>2021-06-05T08:58:43Z</time>
      </trkpt>
      <trkpt lat="45.62989" lon="6.75818">
        <ele>1449.6</ele>
        <time>2021-06-05T08:58:44Z</time>
      </trkpt>
      <trkpt lat="45.62993" lon="6.75819">
        <ele>1449.6</ele>
        <time>2021-06-05T08:58:45Z</time>
      </trkpt>
      <trkpt lat="45.62996" lon="6.7582">
        <ele>1449.6</ele>
        <time>2021-06-05T08:58:46Z</time>
      </trkpt>
      <trkpt lat="45.62998" lon="6.7582">
        <ele>1449.6</ele>
        <time>2021-06-05T08:58:47Z</time>
      </trkpt>
      <trkpt lat="45.63001" lon="6.75822">
        <ele>1450</ele>
        <time>2021-06-05T08:58:48Z</time>
      </trkpt>
      <trkpt lat="45.63004" lon="6.75824">
        <ele>1450</ele>
        <time>2021-06-05T08:58:50Z</time>
      </trkpt>
      <trkpt lat="45.63006" lon="6.75824">
        <ele>1450.4</ele>
        <time>2021-06-05T08:58:51Z</time>
      </trkpt>
      <trkpt lat="45.63008" lon="6.75823">
        <ele>1450.8</ele>
        <time>2021-06-05T08:58:53Z</time>
      </trkpt>
      <trkpt lat="45.6301" lon="6.7582">
        <ele>1451.4</ele>
        <time>2021-06-05T08:58:55Z</time>
      </trkpt>
      <trkpt lat="45.63011" lon="6.75817">
        <ele>1452.6</ele>
        <time>2021-06-05T08:58:58Z</time>
      </trkpt>
      <trkpt lat="45.63012" lon="6.75815">
        <ele>1453</ele>
        <time>2021-06-05T08:59:00Z</time>
      </trkpt>
      <trkpt lat="45.63015" lon="6.75816">
        <ele>1453.4</ele>
        <time>2021-06-05T08:59:01Z</time>
      </trkpt>
      <trkpt lat="45.63018" lon="6.75817">
        <ele>1454</ele>
        <time>2021-06-05T08:59:03Z</time>
      </trkpt>
      <trkpt lat="45.6302" lon="6.75817">
        <ele>1454.6</ele>
        <time>2021-06-05T08:59:06Z</time>
      </trkpt>
      <trkpt lat="45.63023" lon="6.75818">
        <ele>1455.2</ele>
        <time>2021-06-05T08:59:09Z</time>
      </trkpt>
      <trkpt lat="45.63026" lon="6.75819">
        <ele>1455.6</ele>
        <time>2021-06-05T08:59:11Z</time>
      </trkpt>
      <trkpt lat="45.63028" lon="6.7582">
        <ele>1456.2</ele>
        <time>2021-06-05T08:59:12Z</time>
      </trkpt>
      <trkpt lat="45.63031" lon="6.75822">
        <ele>1456.4</ele>
        <time>2021-06-05T08:59:14Z</time>
      </trkpt>
      <trkpt lat="45.63034" lon="6.75823">
        <ele>1456.8</ele>
        <time>2021-06-05T08:59:15Z</time>
      </trkpt>
      <trkpt lat="45.63036" lon="6.75824">
        <ele>1457</ele>
        <time>2021-06-05T08:59:16Z</time>
      </trkpt>
      <trkpt lat="45.63038" lon="6.75826">
        <ele>1457.2</ele>
        <time>2021-06-05T08:59:17Z</time>
      </trkpt>
      <trkpt lat="45.6304" lon="6.75828">
        <ele>1458</ele>
        <time>2021-06-05T08:59:18Z</time>
      </trkpt>
      <trkpt lat="45.63041" lon="6.75829">
        <ele>1458.2</ele>
        <time>2021-06-05T08:59:19Z</time>
      </trkpt>
      <trkpt lat="45.63043" lon="6.7583">
        <ele>1458.6</ele>
        <time>2021-06-05T08:59:20Z</time>
      </trkpt>
      <trkpt lat="45.63045" lon="6.75831">
        <ele>1459.6</ele>
        <time>2021-06-05T08:59:22Z</time>
      </trkpt>
      <trkpt lat="45.63049" lon="6.75832">
        <ele>1460.6</ele>
        <time>2021-06-05T08:59:24Z</time>
      </trkpt>
      <trkpt lat="45.63051" lon="6.75832">
        <ele>1461.2</ele>
        <time>2021-06-05T08:59:26Z</time>
      </trkpt>
      <trkpt lat="45.63053" lon="6.75834">
        <ele>1463</ele>
        <time>2021-06-05T08:59:28Z</time>
      </trkpt>
      <trkpt lat="45.63057" lon="6.75836">
        <ele>1464.4</ele>
        <time>2021-06-05T08:59:30Z</time>
      </trkpt>
      <trkpt lat="45.63061" lon="6.75837">
        <ele>1465.6</ele>
        <time>2021-06-05T08:59:32Z</time>
      </trkpt>
      <trkpt lat="45.63063" lon="6.75839">
        <ele>1466.4</ele>
        <time>2021-06-05T08:59:33Z</time>
      </trkpt>
      <trkpt lat="45.63064" lon="6.75841">
        <ele>1467</ele>
        <time>2021-06-05T08:59:34Z</time>
      </trkpt>
      <trkpt lat="45.63067" lon="6.7584">
        <ele>1468.2</ele>
        <time>2021-06-05T08:59:36Z</time>
      </trkpt>
      <trkpt lat="45.63068" lon="6.75838">
        <ele>1468.4</ele>
        <time>2021-06-05T08:59:37Z</time>
      </trkpt>
      <trkpt lat="45.63069" lon="6.75835">
        <ele>1469.2</ele>
        <time>2021-06-05T08:59:39Z</time>
      </trkpt>
      <trkpt lat="45.63071" lon="6.75832">
        <ele>1469.6</ele>
        <time>2021-06-05T08:59:41Z</time>
      </trkpt>
      <trkpt lat="45.63072" lon="6.75829">
        <ele>1470.2</ele>
        <time>2021-06-05T08:59:43Z</time>
      </trkpt>
      <trkpt lat="45.6307" lon="6.75828">
        <ele>1471</ele>
        <time>2021-06-05T08:59:46Z</time>
      </trkpt>
      <trkpt lat="45.63069" lon="6.75826">
        <ele>1471.2</ele>
        <time>2021-06-05T08:59:47Z</time>
      </trkpt>
      <trkpt lat="45.63068" lon="6.75822">
        <ele>1471.8</ele>
        <time>2021-06-05T08:59:49Z</time>
      </trkpt>
      <trkpt lat="45.63069" lon="6.75819">
        <ele>1472.4</ele>
        <time>2021-06-05T08:59:52Z</time>
      </trkpt>
      <trkpt lat="45.6307" lon="6.75816">
        <ele>1473.2</ele>
        <time>2021-06-05T08:59:54Z</time>
      </trkpt>
      <trkpt lat="45.63072" lon="6.75813">
        <ele>1473.4</ele>
        <time>2021-06-05T08:59:56Z</time>
      </trkpt>
      <trkpt lat="45.63072" lon="6.75809">
        <ele>1473.6</ele>
        <time>2021-06-05T08:59:58Z</time>
      </trkpt>
      <trkpt lat="45.63071" lon="6.75805">
        <ele>1473.6</ele>
        <time>2021-06-05T09:00:00Z</time>
      </trkpt>
      <trkpt lat="45.63071" lon="6.75802">
        <ele>1474.2</ele>
        <time>2021-06-05T09:00:02Z</time>
      </trkpt>
      <trkpt lat="45.63072" lon="6.758">
        <ele>1474.4</ele>
        <time>2021-06-05T09:00:04Z</time>
      </trkpt>
      <trkpt lat="45.63073" lon="6.75796">
        <ele>1475.2</ele>
        <time>2021-06-05T09:00:06Z</time>
      </trkpt>
      <trkpt lat="45.63074" lon="6.75794">
        <ele>1476</ele>
        <time>2021-06-05T09:00:09Z</time>
      </trkpt>
      <trkpt lat="45.63076" lon="6.75793">
        <ele>1477.2</ele>
        <time>2021-06-05T09:00:14Z</time>
      </trkpt>
      <trkpt lat="45.63077" lon="6.75792">
        <ele>1478.2</ele>
        <time>2021-06-05T09:00:18Z</time>
      </trkpt>
      <trkpt lat="45.6308" lon="6.75791">
        <ele>1478.4</ele>
        <time>2021-06-05T09:00:20Z</time>
      </trkpt>
      <trkpt lat="45.63079" lon="6.75788">
        <ele>1478.8</ele>
        <time>2021-06-05T09:00:23Z</time>
      </trkpt>
      <trkpt lat="45.63077" lon="6.75784">
        <ele>1479.4</ele>
        <time>2021-06-05T09:00:25Z</time>
      </trkpt>
      <trkpt lat="45.63076" lon="6.75782">
        <ele>1479.8</ele>
        <time>2021-06-05T09:00:27Z</time>
      </trkpt>
      <trkpt lat="45.63073" lon="6.7578">
        <ele>1480</ele>
        <time>2021-06-05T09:00:28Z</time>
      </trkpt>
      <trkpt lat="45.63071" lon="6.75778">
        <ele>1480.4</ele>
        <time>2021-06-05T09:00:30Z</time>
      </trkpt>
      <trkpt lat="45.63069" lon="6.75774">
        <ele>1481.4</ele>
        <time>2021-06-05T09:00:32Z</time>
      </trkpt>
      <trkpt lat="45.63068" lon="6.75771">
        <ele>1482</ele>
        <time>2021-06-05T09:00:34Z</time>
      </trkpt>
      <trkpt lat="45.63068" lon="6.75768">
        <ele>1482.4</ele>
        <time>2021-06-05T09:00:36Z</time>
      </trkpt>
      <trkpt lat="45.63069" lon="6.75765">
        <ele>1482.8</ele>
        <time>2021-06-05T09:00:38Z</time>
      </trkpt>
      <trkpt lat="45.63069" lon="6.75762">
        <ele>1483.4</ele>
        <time>2021-06-05T09:00:41Z</time>
      </trkpt>
      <trkpt lat="45.63067" lon="6.75759">
        <ele>1483.4</ele>
        <time>2021-06-05T09:00:43Z</time>
      </trkpt>
      <trkpt lat="45.63066" lon="6.75756">
        <ele>1483.8</ele>
        <time>2021-06-05T09:00:44Z</time>
      </trkpt>
      <trkpt lat="45.63065" lon="6.75752">
        <ele>1484.6</ele>
        <time>2021-06-05T09:00:47Z</time>
      </trkpt>
      <trkpt lat="45.63065" lon="6.7575">
        <ele>1485</ele>
        <time>2021-06-05T09:00:49Z</time>
      </trkpt>
      <trkpt lat="45.63064" lon="6.75748">
        <ele>1485.4</ele>
        <time>2021-06-05T09:00:51Z</time>
      </trkpt>
      <trkpt lat="45.63063" lon="6.75745">
        <ele>1485.8</ele>
        <time>2021-06-05T09:00:53Z</time>
      </trkpt>
      <trkpt lat="45.63061" lon="6.75743">
        <ele>1486.6</ele>
        <time>2021-06-05T09:00:57Z</time>
      </trkpt>
      <trkpt lat="45.63059" lon="6.75742">
        <ele>1487.4</ele>
        <time>2021-06-05T09:00:59Z</time>
      </trkpt>
      <trkpt lat="45.63057" lon="6.75739">
        <ele>1487.6</ele>
        <time>2021-06-05T09:01:01Z</time>
      </trkpt>
      <trkpt lat="45.63055" lon="6.75737">
        <ele>1488</ele>
        <time>2021-06-05T09:01:03Z</time>
      </trkpt>
      <trkpt lat="45.63053" lon="6.75734">
        <ele>1488.4</ele>
        <time>2021-06-05T09:01:05Z</time>
      </trkpt>
      <trkpt lat="45.63051" lon="6.75732">
        <ele>1488.8</ele>
        <time>2021-06-05T09:01:07Z</time>
      </trkpt>
      <trkpt lat="45.63051" lon="6.75729">
        <ele>1488.8</ele>
        <time>2021-06-05T09:01:11Z</time>
      </trkpt>
      <trkpt lat="45.63053" lon="6.75728">
        <ele>1489.6</ele>
        <time>2021-06-05T09:01:13Z</time>
      </trkpt>
      <trkpt lat="45.63056" lon="6.75727">
        <ele>1490</ele>
        <time>2021-06-05T09:01:16Z</time>
      </trkpt>
      <trkpt lat="45.63059" lon="6.75728">
        <ele>1491</ele>
        <time>2021-06-05T09:01:20Z</time>
      </trkpt>
      <trkpt lat="45.63061" lon="6.75728">
        <ele>1491.8</ele>
        <time>2021-06-05T09:01:22Z</time>
      </trkpt>
      <trkpt lat="45.63063" lon="6.75729">
        <ele>1492.4</ele>
        <time>2021-06-05T09:01:24Z</time>
      </trkpt>
      <trkpt lat="45.63066" lon="6.75729">
        <ele>1493.6</ele>
        <time>2021-06-05T09:01:27Z</time>
      </trkpt>
      <trkpt lat="45.63068" lon="6.7573">
        <ele>1494.2</ele>
        <time>2021-06-05T09:01:29Z</time>
      </trkpt>
      <trkpt lat="45.63071" lon="6.75729">
        <ele>1495.8</ele>
        <time>2021-06-05T09:01:32Z</time>
      </trkpt>
      <trkpt lat="45.63073" lon="6.75729">
        <ele>1496.8</ele>
        <time>2021-06-05T09:01:35Z</time>
      </trkpt>
      <trkpt lat="45.63075" lon="6.7573">
        <ele>1498.6</ele>
        <time>2021-06-05T09:01:40Z</time>
      </trkpt>
      <trkpt lat="45.63078" lon="6.75732">
        <ele>1500.2</ele>
        <time>2021-06-05T09:01:46Z</time>
      </trkpt>
      <trkpt lat="45.63081" lon="6.75732">
        <ele>1502.4</ele>
        <time>2021-06-05T09:01:51Z</time>
      </trkpt>
      <trkpt lat="45.63083" lon="6.75732">
        <ele>1504.4</ele>
        <time>2021-06-05T09:01:55Z</time>
      </trkpt>
      <trkpt lat="45.63085" lon="6.75731">
        <ele>1505.4</ele>
        <time>2021-06-05T09:01:58Z</time>
      </trkpt>
      <trkpt lat="45.63087" lon="6.75732">
        <ele>1506.2</ele>
        <time>2021-06-05T09:02:00Z</time>
      </trkpt>
      <trkpt lat="45.6309" lon="6.75733">
        <ele>1507.2</ele>
        <time>2021-06-05T09:02:02Z</time>
      </trkpt>
      <trkpt lat="45.63093" lon="6.75732">
        <ele>1507.8</ele>
        <time>2021-06-05T09:02:04Z</time>
      </trkpt>
      <trkpt lat="45.63096" lon="6.75732">
        <ele>1508.4</ele>
        <time>2021-06-05T09:02:06Z</time>
      </trkpt>
      <trkpt lat="45.63098" lon="6.75732">
        <ele>1509.4</ele>
        <time>2021-06-05T09:02:10Z</time>
      </trkpt>
      <trkpt lat="45.631" lon="6.75731">
        <ele>1510.6</ele>
        <time>2021-06-05T09:02:13Z</time>
      </trkpt>
      <trkpt lat="45.63103" lon="6.7573">
        <ele>1512.4</ele>
        <time>2021-06-05T09:02:17Z</time>
      </trkpt>
      <trkpt lat="45.63106" lon="6.75729">
        <ele>1513</ele>
        <time>2021-06-05T09:02:19Z</time>
      </trkpt>
      <trkpt lat="45.63108" lon="6.75728">
        <ele>1514</ele>
        <time>2021-06-05T09:02:21Z</time>
      </trkpt>
      <trkpt lat="45.63109" lon="6.75726">
        <ele>1515</ele>
        <time>2021-06-05T09:02:24Z</time>
      </trkpt>
      <trkpt lat="45.63112" lon="6.75727">
        <ele>1515.6</ele>
        <time>2021-06-05T09:02:26Z</time>
      </trkpt>
      <trkpt lat="45.63115" lon="6.75726">
        <ele>1517.2</ele>
        <time>2021-06-05T09:02:32Z</time>
      </trkpt>
      <trkpt lat="45.63117" lon="6.75725">
        <ele>1518</ele>
        <time>2021-06-05T09:02:34Z</time>
      </trkpt>
      <trkpt lat="45.63119" lon="6.75724">
        <ele>1518.4</ele>
        <time>2021-06-05T09:02:36Z</time>
      </trkpt>
      <trkpt lat="45.63121" lon="6.75723">
        <ele>1519.4</ele>
        <time>2021-06-05T09:02:38Z</time>
      </trkpt>
      <trkpt lat="45.63123" lon="6.75722">
        <ele>1519.8</ele>
        <time>2021-06-05T09:02:40Z</time>
      </trkpt>
      <trkpt lat="45.63124" lon="6.7572">
        <ele>1520.6</ele>
        <time>2021-06-05T09:02:43Z</time>
      </trkpt>
      <trkpt lat="45.63127" lon="6.75719">
        <ele>1521.2</ele>
        <time>2021-06-05T09:02:45Z</time>
      </trkpt>
      <trkpt lat="45.63129" lon="6.75718">
        <ele>1521.8</ele>
        <time>2021-06-05T09:02:47Z</time>
      </trkpt>
      <trkpt lat="45.63133" lon="6.75718">
        <ele>1523</ele>
        <time>2021-06-05T09:02:49Z</time>
      </trkpt>
      <trkpt lat="45.63135" lon="6.75717">
        <ele>1523.2</ele>
        <time>2021-06-05T09:02:50Z</time>
      </trkpt>
      <trkpt lat="45.63137" lon="6.75717">
        <ele>1523.4</ele>
        <time>2021-06-05T09:02:51Z</time>
      </trkpt>
      <trkpt lat="45.63139" lon="6.75716">
        <ele>1523.8</ele>
        <time>2021-06-05T09:02:52Z</time>
      </trkpt>
      <trkpt lat="45.63143" lon="6.75716">
        <ele>1524</ele>
        <time>2021-06-05T09:02:54Z</time>
      </trkpt>
      <trkpt lat="45.63145" lon="6.75714">
        <ele>1524.8</ele>
        <time>2021-06-05T09:02:56Z</time>
      </trkpt>
      <trkpt lat="45.63147" lon="6.75714">
        <ele>1524.8</ele>
        <time>2021-06-05T09:02:57Z</time>
      </trkpt>
      <trkpt lat="45.63149" lon="6.75712">
        <ele>1525.8</ele>
        <time>2021-06-05T09:02:59Z</time>
      </trkpt>
      <trkpt lat="45.63152" lon="6.7571">
        <ele>1526.4</ele>
        <time>2021-06-05T09:03:01Z</time>
      </trkpt>
      <trkpt lat="45.63154" lon="6.75708">
        <ele>1527.2</ele>
        <time>2021-06-05T09:03:03Z</time>
      </trkpt>
      <trkpt lat="45.63156" lon="6.75706">
        <ele>1528</ele>
        <time>2021-06-05T09:03:05Z</time>
      </trkpt>
      <trkpt lat="45.63158" lon="6.75704">
        <ele>1529</ele>
        <time>2021-06-05T09:03:07Z</time>
      </trkpt>
      <trkpt lat="45.63159" lon="6.75701">
        <ele>1530.6</ele>
        <time>2021-06-05T09:03:09Z</time>
      </trkpt>
      <trkpt lat="45.63161" lon="6.75698">
        <ele>1532.8</ele>
        <time>2021-06-05T09:03:12Z</time>
      </trkpt>
      <trkpt lat="45.63163" lon="6.75697">
        <ele>1533.8</ele>
        <time>2021-06-05T09:03:14Z</time>
      </trkpt>
      <trkpt lat="45.63164" lon="6.75696">
        <ele>1535</ele>
        <time>2021-06-05T09:03:16Z</time>
      </trkpt>
      <trkpt lat="45.63167" lon="6.75696">
        <ele>1535.8</ele>
        <time>2021-06-05T09:03:18Z</time>
      </trkpt>
      <trkpt lat="45.6317" lon="6.75694">
        <ele>1536.6</ele>
        <time>2021-06-05T09:03:20Z</time>
      </trkpt>
      <trkpt lat="45.63172" lon="6.75692">
        <ele>1537.6</ele>
        <time>2021-06-05T09:03:23Z</time>
      </trkpt>
      <trkpt lat="45.63173" lon="6.7569">
        <ele>1538</ele>
        <time>2021-06-05T09:03:25Z</time>
      </trkpt>
      <trkpt lat="45.63175" lon="6.75689">
        <ele>1538.6</ele>
        <time>2021-06-05T09:03:27Z</time>
      </trkpt>
      <trkpt lat="45.63178" lon="6.75687">
        <ele>1539</ele>
        <time>2021-06-05T09:03:29Z</time>
      </trkpt>
      <trkpt lat="45.6318" lon="6.75684">
        <ele>1539.6</ele>
        <time>2021-06-05T09:03:32Z</time>
      </trkpt>
      <trkpt lat="45.63184" lon="6.75682">
        <ele>1540.2</ele>
        <time>2021-06-05T09:03:35Z</time>
      </trkpt>
      <trkpt lat="45.63186" lon="6.7568">
        <ele>1540.2</ele>
        <time>2021-06-05T09:03:37Z</time>
      </trkpt>
      <trkpt lat="45.63188" lon="6.75679">
        <ele>1540.8</ele>
        <time>2021-06-05T09:03:39Z</time>
      </trkpt>
      <trkpt lat="45.63191" lon="6.7568">
        <ele>1541</ele>
        <time>2021-06-05T09:03:40Z</time>
      </trkpt>
      <trkpt lat="45.63193" lon="6.75679">
        <ele>1541.8</ele>
        <time>2021-06-05T09:03:42Z</time>
      </trkpt>
      <trkpt lat="45.63196" lon="6.75677">
        <ele>1542.6</ele>
        <time>2021-06-05T09:03:45Z</time>
      </trkpt>
      <trkpt lat="45.63197" lon="6.75676">
        <ele>1543.4</ele>
        <time>2021-06-05T09:03:48Z</time>
      </trkpt>
      <trkpt lat="45.63198" lon="6.75673">
        <ele>1544.2</ele>
        <time>2021-06-05T09:03:52Z</time>
      </trkpt>
      <trkpt lat="45.632" lon="6.7567">
        <ele>1545</ele>
        <time>2021-06-05T09:03:54Z</time>
      </trkpt>
      <trkpt lat="45.63201" lon="6.75669">
        <ele>1545.8</ele>
        <time>2021-06-05T09:03:56Z</time>
      </trkpt>
      <trkpt lat="45.63202" lon="6.75666">
        <ele>1546.8</ele>
        <time>2021-06-05T09:03:59Z</time>
      </trkpt>
      <trkpt lat="45.632" lon="6.75667">
        <ele>1548.6</ele>
        <time>2021-06-05T09:04:05Z</time>
      </trkpt>
      <trkpt lat="45.63198" lon="6.75665">
        <ele>1550</ele>
        <time>2021-06-05T09:04:07Z</time>
      </trkpt>
      <trkpt lat="45.63196" lon="6.75661">
        <ele>1551.4</ele>
        <time>2021-06-05T09:04:09Z</time>
      </trkpt>
      <trkpt lat="45.632" lon="6.7566">
        <ele>1552.2</ele>
        <time>2021-06-05T09:04:11Z</time>
      </trkpt>
      <trkpt lat="45.632" lon="6.75656">
        <ele>1553.2</ele>
        <time>2021-06-05T09:04:14Z</time>
      </trkpt>
      <trkpt lat="45.63199" lon="6.75653">
        <ele>1554</ele>
        <time>2021-06-05T09:04:16Z</time>
      </trkpt>
      <trkpt lat="45.632" lon="6.75651">
        <ele>1554.2</ele>
        <time>2021-06-05T09:04:18Z</time>
      </trkpt>
      <trkpt lat="45.63202" lon="6.7565">
        <ele>1554.6</ele>
        <time>2021-06-05T09:04:20Z</time>
      </trkpt>
      <trkpt lat="45.63204" lon="6.75647">
        <ele>1556.2</ele>
        <time>2021-06-05T09:04:24Z</time>
      </trkpt>
      <trkpt lat="45.63205" lon="6.75645">
        <ele>1556.6</ele>
        <time>2021-06-05T09:04:26Z</time>
      </trkpt>
      <trkpt lat="45.63206" lon="6.75642">
        <ele>1557.4</ele>
        <time>2021-06-05T09:04:28Z</time>
      </trkpt>
      <trkpt lat="45.63209" lon="6.7564">
        <ele>1557.8</ele>
        <time>2021-06-05T09:04:30Z</time>
      </trkpt>
      <trkpt lat="45.6321" lon="6.75636">
        <ele>1558.8</ele>
        <time>2021-06-05T09:04:32Z</time>
      </trkpt>
      <trkpt lat="45.6321" lon="6.75633">
        <ele>1558.8</ele>
        <time>2021-06-05T09:04:33Z</time>
      </trkpt>
      <trkpt lat="45.6321" lon="6.75629">
        <ele>1559.6</ele>
        <time>2021-06-05T09:04:35Z</time>
      </trkpt>
      <trkpt lat="45.6321" lon="6.75626">
        <ele>1559.8</ele>
        <time>2021-06-05T09:04:36Z</time>
      </trkpt>
      <trkpt lat="45.63211" lon="6.75621">
        <ele>1560.6</ele>
        <time>2021-06-05T09:04:38Z</time>
      </trkpt>
      <trkpt lat="45.63213" lon="6.75619">
        <ele>1560.4</ele>
        <time>2021-06-05T09:04:39Z</time>
      </trkpt>
      <trkpt lat="45.63215" lon="6.75618">
        <ele>1560.2</ele>
        <time>2021-06-05T09:04:40Z</time>
      </trkpt>
      <trkpt lat="45.63217" lon="6.75615">
        <ele>1560.6</ele>
        <time>2021-06-05T09:04:42Z</time>
      </trkpt>
      <trkpt lat="45.63218" lon="6.75612">
        <ele>1561.6</ele>
        <time>2021-06-05T09:04:45Z</time>
      </trkpt>
      <trkpt lat="45.6322" lon="6.7561">
        <ele>1562</ele>
        <time>2021-06-05T09:04:46Z</time>
      </trkpt>
      <trkpt lat="45.63222" lon="6.75609">
        <ele>1562.8</ele>
        <time>2021-06-05T09:04:48Z</time>
      </trkpt>
      <trkpt lat="45.63225" lon="6.75608">
        <ele>1563.6</ele>
        <time>2021-06-05T09:04:50Z</time>
      </trkpt>
      <trkpt lat="45.63228" lon="6.75607">
        <ele>1563.6</ele>
        <time>2021-06-05T09:04:51Z</time>
      </trkpt>
      <trkpt lat="45.6323" lon="6.75606">
        <ele>1564.4</ele>
        <time>2021-06-05T09:04:53Z</time>
      </trkpt>
      <trkpt lat="45.63234" lon="6.75605">
        <ele>1566</ele>
        <time>2021-06-05T09:04:55Z</time>
      </trkpt>
      <trkpt lat="45.63236" lon="6.75604">
        <ele>1566.4</ele>
        <time>2021-06-05T09:04:56Z</time>
      </trkpt>
      <trkpt lat="45.63237" lon="6.75602">
        <ele>1567.4</ele>
        <time>2021-06-05T09:04:57Z</time>
      </trkpt>
      <trkpt lat="45.6324" lon="6.756">
        <ele>1568.4</ele>
        <time>2021-06-05T09:04:59Z</time>
      </trkpt>
      <trkpt lat="45.63242" lon="6.75599">
        <ele>1569.6</ele>
        <time>2021-06-05T09:05:01Z</time>
      </trkpt>
      <trkpt lat="45.63244" lon="6.75598">
        <ele>1570.8</ele>
        <time>2021-06-05T09:05:03Z</time>
      </trkpt>
      <trkpt lat="45.63246" lon="6.75597">
        <ele>1571.2</ele>
        <time>2021-06-05T09:05:04Z</time>
      </trkpt>
      <trkpt lat="45.63248" lon="6.75596">
        <ele>1572</ele>
        <time>2021-06-05T09:05:06Z</time>
      </trkpt>
      <trkpt lat="45.6325" lon="6.75593">
        <ele>1573.4</ele>
        <time>2021-06-05T09:05:09Z</time>
      </trkpt>
      <trkpt lat="45.63252" lon="6.75592">
        <ele>1574</ele>
        <time>2021-06-05T09:05:11Z</time>
      </trkpt>
      <trkpt lat="45.63254" lon="6.7559">
        <ele>1574.6</ele>
        <time>2021-06-05T09:05:13Z</time>
      </trkpt>
      <trkpt lat="45.63256" lon="6.75588">
        <ele>1574.8</ele>
        <time>2021-06-05T09:05:15Z</time>
      </trkpt>
      <trkpt lat="45.63259" lon="6.75586">
        <ele>1575.2</ele>
        <time>2021-06-05T09:05:17Z</time>
      </trkpt>
      <trkpt lat="45.63262" lon="6.75585">
        <ele>1576</ele>
        <time>2021-06-05T09:05:19Z</time>
      </trkpt>
      <trkpt lat="45.63265" lon="6.75583">
        <ele>1576</ele>
        <time>2021-06-05T09:05:21Z</time>
      </trkpt>
      <trkpt lat="45.63268" lon="6.75582">
        <ele>1576.6</ele>
        <time>2021-06-05T09:05:23Z</time>
      </trkpt>
      <trkpt lat="45.6327" lon="6.7558">
        <ele>1577</ele>
        <time>2021-06-05T09:05:25Z</time>
      </trkpt>
      <trkpt lat="45.63271" lon="6.75578">
        <ele>1577.2</ele>
        <time>2021-06-05T09:05:26Z</time>
      </trkpt>
      <trkpt lat="45.63273" lon="6.75575">
        <ele>1577.8</ele>
        <time>2021-06-05T09:05:28Z</time>
      </trkpt>
      <trkpt lat="45.63275" lon="6.75573">
        <ele>1578.4</ele>
        <time>2021-06-05T09:05:30Z</time>
      </trkpt>
      <trkpt lat="45.63276" lon="6.7557">
        <ele>1579</ele>
        <time>2021-06-05T09:05:31Z</time>
      </trkpt>
      <trkpt lat="45.63277" lon="6.75567">
        <ele>1579.4</ele>
        <time>2021-06-05T09:05:33Z</time>
      </trkpt>
      <trkpt lat="45.63278" lon="6.75565">
        <ele>1580.6</ele>
        <time>2021-06-05T09:05:36Z</time>
      </trkpt>
      <trkpt lat="45.63279" lon="6.75562">
        <ele>1581.8</ele>
        <time>2021-06-05T09:05:39Z</time>
      </trkpt>
      <trkpt lat="45.63282" lon="6.7556">
        <ele>1582.6</ele>
        <time>2021-06-05T09:05:41Z</time>
      </trkpt>
      <trkpt lat="45.63284" lon="6.75559">
        <ele>1583</ele>
        <time>2021-06-05T09:05:43Z</time>
      </trkpt>
      <trkpt lat="45.63285" lon="6.75556">
        <ele>1584</ele>
        <time>2021-06-05T09:05:45Z</time>
      </trkpt>
      <trkpt lat="45.63287" lon="6.75553">
        <ele>1584.8</ele>
        <time>2021-06-05T09:05:48Z</time>
      </trkpt>
      <trkpt lat="45.63285" lon="6.75551">
        <ele>1586</ele>
        <time>2021-06-05T09:05:52Z</time>
      </trkpt>
      <trkpt lat="45.63282" lon="6.7555">
        <ele>1586.8</ele>
        <time>2021-06-05T09:05:54Z</time>
      </trkpt>
      <trkpt lat="45.63279" lon="6.7555">
        <ele>1587.6</ele>
        <time>2021-06-05T09:05:56Z</time>
      </trkpt>
      <trkpt lat="45.63278" lon="6.75549">
        <ele>1587.8</ele>
        <time>2021-06-05T09:05:57Z</time>
      </trkpt>
      <trkpt lat="45.63275" lon="6.75547">
        <ele>1588.4</ele>
        <time>2021-06-05T09:05:59Z</time>
      </trkpt>
      <trkpt lat="45.63273" lon="6.75546">
        <ele>1589</ele>
        <time>2021-06-05T09:06:01Z</time>
      </trkpt>
      <trkpt lat="45.63271" lon="6.75547">
        <ele>1589.6</ele>
        <time>2021-06-05T09:06:03Z</time>
      </trkpt>
      <trkpt lat="45.63269" lon="6.75546">
        <ele>1590.2</ele>
        <time>2021-06-05T09:06:05Z</time>
      </trkpt>
      <trkpt lat="45.63266" lon="6.75546">
        <ele>1591.2</ele>
        <time>2021-06-05T09:06:08Z</time>
      </trkpt>
      <trkpt lat="45.63264" lon="6.75545">
        <ele>1592.2</ele>
        <time>2021-06-05T09:06:10Z</time>
      </trkpt>
      <trkpt lat="45.63262" lon="6.75544">
        <ele>1593.4</ele>
        <time>2021-06-05T09:06:13Z</time>
      </trkpt>
      <trkpt lat="45.6326" lon="6.75542">
        <ele>1594.2</ele>
        <time>2021-06-05T09:06:15Z</time>
      </trkpt>
      <trkpt lat="45.63258" lon="6.75541">
        <ele>1594.8</ele>
        <time>2021-06-05T09:06:17Z</time>
      </trkpt>
      <trkpt lat="45.63256" lon="6.75539">
        <ele>1595.6</ele>
        <time>2021-06-05T09:06:19Z</time>
      </trkpt>
      <trkpt lat="45.63254" lon="6.75537">
        <ele>1597</ele>
        <time>2021-06-05T09:06:22Z</time>
      </trkpt>
      <trkpt lat="45.63252" lon="6.75538">
        <ele>1598.2</ele>
        <time>2021-06-05T09:06:24Z</time>
      </trkpt>
      <trkpt lat="45.6325" lon="6.75537">
        <ele>1599.4</ele>
        <time>2021-06-05T09:06:26Z</time>
      </trkpt>
      <trkpt lat="45.63248" lon="6.75537">
        <ele>1600.4</ele>
        <time>2021-06-05T09:06:29Z</time>
      </trkpt>
      <trkpt lat="45.63246" lon="6.75536">
        <ele>1600.8</ele>
        <time>2021-06-05T09:06:32Z</time>
      </trkpt>
      <trkpt lat="45.63244" lon="6.75534">
        <ele>1601.8</ele>
        <time>2021-06-05T09:06:35Z</time>
      </trkpt>
      <trkpt lat="45.63242" lon="6.75532">
        <ele>1602.6</ele>
        <time>2021-06-05T09:06:37Z</time>
      </trkpt>
      <trkpt lat="45.6324" lon="6.75528">
        <ele>1603.2</ele>
        <time>2021-06-05T09:06:40Z</time>
      </trkpt>
      <trkpt lat="45.63239" lon="6.75527">
        <ele>1603.4</ele>
        <time>2021-06-05T09:06:41Z</time>
      </trkpt>
      <trkpt lat="45.63237" lon="6.75525">
        <ele>1604.2</ele>
        <time>2021-06-05T09:06:43Z</time>
      </trkpt>
      <trkpt lat="45.63236" lon="6.75522">
        <ele>1605.4</ele>
        <time>2021-06-05T09:06:45Z</time>
      </trkpt>
      <trkpt lat="45.63233" lon="6.7552">
        <ele>1606.2</ele>
        <time>2021-06-05T09:06:47Z</time>
      </trkpt>
      <trkpt lat="45.63231" lon="6.75518">
        <ele>1607.2</ele>
        <time>2021-06-05T09:06:49Z</time>
      </trkpt>
      <trkpt lat="45.63229" lon="6.75515">
        <ele>1608.4</ele>
        <time>2021-06-05T09:06:51Z</time>
      </trkpt>
      <trkpt lat="45.63228" lon="6.75512">
        <ele>1608.8</ele>
        <time>2021-06-05T09:06:53Z</time>
      </trkpt>
      <trkpt lat="45.63226" lon="6.75509">
        <ele>1609.6</ele>
        <time>2021-06-05T09:06:55Z</time>
      </trkpt>
      <trkpt lat="45.63223" lon="6.75507">
        <ele>1610.6</ele>
        <time>2021-06-05T09:06:57Z</time>
      </trkpt>
      <trkpt lat="45.63221" lon="6.75505">
        <ele>1611</ele>
        <time>2021-06-05T09:06:59Z</time>
      </trkpt>
      <trkpt lat="45.63219" lon="6.75503">
        <ele>1611.8</ele>
        <time>2021-06-05T09:07:01Z</time>
      </trkpt>
      <trkpt lat="45.63216" lon="6.75503">
        <ele>1612.4</ele>
        <time>2021-06-05T09:07:03Z</time>
      </trkpt>
      <trkpt lat="45.63214" lon="6.75502">
        <ele>1613.2</ele>
        <time>2021-06-05T09:07:05Z</time>
      </trkpt>
      <trkpt lat="45.63212" lon="6.755">
        <ele>1613.6</ele>
        <time>2021-06-05T09:07:07Z</time>
      </trkpt>
      <trkpt lat="45.6321" lon="6.75499">
        <ele>1614</ele>
        <time>2021-06-05T09:07:09Z</time>
      </trkpt>
      <trkpt lat="45.63208" lon="6.75498">
        <ele>1614.8</ele>
        <time>2021-06-05T09:07:11Z</time>
      </trkpt>
      <trkpt lat="45.63206" lon="6.75497">
        <ele>1615.2</ele>
        <time>2021-06-05T09:07:13Z</time>
      </trkpt>
      <trkpt lat="45.63204" lon="6.75495">
        <ele>1615.6</ele>
        <time>2021-06-05T09:07:15Z</time>
      </trkpt>
      <trkpt lat="45.63202" lon="6.75494">
        <ele>1615.8</ele>
        <time>2021-06-05T09:07:17Z</time>
      </trkpt>
      <trkpt lat="45.632" lon="6.75492">
        <ele>1616.8</ele>
        <time>2021-06-05T09:07:19Z</time>
      </trkpt>
      <trkpt lat="45.63199" lon="6.7549">
        <ele>1617.2</ele>
        <time>2021-06-05T09:07:21Z</time>
      </trkpt>
      <trkpt lat="45.63196" lon="6.75487">
        <ele>1618.6</ele>
        <time>2021-06-05T09:07:24Z</time>
      </trkpt>
      <trkpt lat="45.63195" lon="6.75486">
        <ele>1619.2</ele>
        <time>2021-06-05T09:07:26Z</time>
      </trkpt>
      <trkpt lat="45.63192" lon="6.75485">
        <ele>1619.8</ele>
        <time>2021-06-05T09:07:28Z</time>
      </trkpt>
      <trkpt lat="45.6319" lon="6.75484">
        <ele>1620.2</ele>
        <time>2021-06-05T09:07:30Z</time>
      </trkpt>
      <trkpt lat="45.63188" lon="6.75482">
        <ele>1620.6</ele>
        <time>2021-06-05T09:07:32Z</time>
      </trkpt>
      <trkpt lat="45.63186" lon="6.7548">
        <ele>1620.8</ele>
        <time>2021-06-05T09:07:33Z</time>
      </trkpt>
      <trkpt lat="45.63184" lon="6.75477">
        <ele>1621.2</ele>
        <time>2021-06-05T09:07:35Z</time>
      </trkpt>
      <trkpt lat="45.63182" lon="6.75474">
        <ele>1621.6</ele>
        <time>2021-06-05T09:07:37Z</time>
      </trkpt>
      <trkpt lat="45.63182" lon="6.75471">
        <ele>1622.2</ele>
        <time>2021-06-05T09:07:39Z</time>
      </trkpt>
      <trkpt lat="45.63184" lon="6.7547">
        <ele>1622.6</ele>
        <time>2021-06-05T09:07:41Z</time>
      </trkpt>
      <trkpt lat="45.63186" lon="6.75468">
        <ele>1623.2</ele>
        <time>2021-06-05T09:07:43Z</time>
      </trkpt>
      <trkpt lat="45.63188" lon="6.75466">
        <ele>1623.8</ele>
        <time>2021-06-05T09:07:46Z</time>
      </trkpt>
      <trkpt lat="45.6319" lon="6.75465">
        <ele>1624.4</ele>
        <time>2021-06-05T09:07:48Z</time>
      </trkpt>
      <trkpt lat="45.63192" lon="6.75465">
        <ele>1624.8</ele>
        <time>2021-06-05T09:07:50Z</time>
      </trkpt>
      <trkpt lat="45.63194" lon="6.75464">
        <ele>1625.4</ele>
        <time>2021-06-05T09:07:52Z</time>
      </trkpt>
      <trkpt lat="45.63196" lon="6.75463">
        <ele>1626.2</ele>
        <time>2021-06-05T09:07:54Z</time>
      </trkpt>
      <trkpt lat="45.63198" lon="6.75463">
        <ele>1626.6</ele>
        <time>2021-06-05T09:07:56Z</time>
      </trkpt>
      <trkpt lat="45.632" lon="6.75462">
        <ele>1627.4</ele>
        <time>2021-06-05T09:07:58Z</time>
      </trkpt>
      <trkpt lat="45.63203" lon="6.75461">
        <ele>1628.2</ele>
        <time>2021-06-05T09:08:00Z</time>
      </trkpt>
      <trkpt lat="45.63205" lon="6.7546">
        <ele>1629.2</ele>
        <time>2021-06-05T09:08:03Z</time>
      </trkpt>
      <trkpt lat="45.63209" lon="6.75459">
        <ele>1629.8</ele>
        <time>2021-06-05T09:08:05Z</time>
      </trkpt>
      <trkpt lat="45.63212" lon="6.75457">
        <ele>1630.2</ele>
        <time>2021-06-05T09:08:07Z</time>
      </trkpt>
      <trkpt lat="45.63214" lon="6.75456">
        <ele>1630.8</ele>
        <time>2021-06-05T09:08:09Z</time>
      </trkpt>
      <trkpt lat="45.63216" lon="6.75455">
        <ele>1631</ele>
        <time>2021-06-05T09:08:11Z</time>
      </trkpt>
      <trkpt lat="45.63218" lon="6.75455">
        <ele>1631.6</ele>
        <time>2021-06-05T09:08:13Z</time>
      </trkpt>
      <trkpt lat="45.63221" lon="6.75453">
        <ele>1632.2</ele>
        <time>2021-06-05T09:08:15Z</time>
      </trkpt>
      <trkpt lat="45.63223" lon="6.75452">
        <ele>1632.6</ele>
        <time>2021-06-05T09:08:17Z</time>
      </trkpt>
      <trkpt lat="45.63226" lon="6.75451">
        <ele>1633</ele>
        <time>2021-06-05T09:08:19Z</time>
      </trkpt>
      <trkpt lat="45.63228" lon="6.7545">
        <ele>1633.6</ele>
        <time>2021-06-05T09:08:21Z</time>
      </trkpt>
      <trkpt lat="45.6323" lon="6.75449">
        <ele>1634</ele>
        <time>2021-06-05T09:08:23Z</time>
      </trkpt>
      <trkpt lat="45.63232" lon="6.75448">
        <ele>1634.6</ele>
        <time>2021-06-05T09:08:25Z</time>
      </trkpt>
      <trkpt lat="45.63234" lon="6.75446">
        <ele>1635.6</ele>
        <time>2021-06-05T09:08:28Z</time>
      </trkpt>
      <trkpt lat="45.63237" lon="6.75446">
        <ele>1636.2</ele>
        <time>2021-06-05T09:08:30Z</time>
      </trkpt>
      <trkpt lat="45.6324" lon="6.75445">
        <ele>1637</ele>
        <time>2021-06-05T09:08:32Z</time>
      </trkpt>
      <trkpt lat="45.63242" lon="6.75445">
        <ele>1637.6</ele>
        <time>2021-06-05T09:08:34Z</time>
      </trkpt>
      <trkpt lat="45.63244" lon="6.75444">
        <ele>1638</ele>
        <time>2021-06-05T09:08:36Z</time>
      </trkpt>
      <trkpt lat="45.63246" lon="6.75442">
        <ele>1638.8</ele>
        <time>2021-06-05T09:08:38Z</time>
      </trkpt>
      <trkpt lat="45.63248" lon="6.75441">
        <ele>1639</ele>
        <time>2021-06-05T09:08:40Z</time>
      </trkpt>
      <trkpt lat="45.6325" lon="6.75439">
        <ele>1639.6</ele>
        <time>2021-06-05T09:08:42Z</time>
      </trkpt>
      <trkpt lat="45.63252" lon="6.75438">
        <ele>1640.8</ele>
        <time>2021-06-05T09:08:44Z</time>
      </trkpt>
      <trkpt lat="45.63253" lon="6.75437">
        <ele>1641.6</ele>
        <time>2021-06-05T09:08:46Z</time>
      </trkpt>
      <trkpt lat="45.63255" lon="6.75435">
        <ele>1642.2</ele>
        <time>2021-06-05T09:08:48Z</time>
      </trkpt>
      <trkpt lat="45.63257" lon="6.75433">
        <ele>1643.6</ele>
        <time>2021-06-05T09:08:51Z</time>
      </trkpt>
      <trkpt lat="45.63259" lon="6.75432">
        <ele>1644.4</ele>
        <time>2021-06-05T09:08:54Z</time>
      </trkpt>
      <trkpt lat="45.63261" lon="6.75431">
        <ele>1645.2</ele>
        <time>2021-06-05T09:08:56Z</time>
      </trkpt>
      <trkpt lat="45.63264" lon="6.75431">
        <ele>1645.8</ele>
        <time>2021-06-05T09:08:58Z</time>
      </trkpt>
      <trkpt lat="45.63266" lon="6.7543">
        <ele>1646.4</ele>
        <time>2021-06-05T09:09:00Z</time>
      </trkpt>
      <trkpt lat="45.63268" lon="6.75429">
        <ele>1647.4</ele>
        <time>2021-06-05T09:09:02Z</time>
      </trkpt>
      <trkpt lat="45.63269" lon="6.75428">
        <ele>1648.6</ele>
        <time>2021-06-05T09:09:04Z</time>
      </trkpt>
      <trkpt lat="45.63271" lon="6.75426">
        <ele>1649.6</ele>
        <time>2021-06-05T09:09:06Z</time>
      </trkpt>
      <trkpt lat="45.63272" lon="6.75424">
        <ele>1651</ele>
        <time>2021-06-05T09:09:08Z</time>
      </trkpt>
      <trkpt lat="45.63275" lon="6.75423">
        <ele>1652.2</ele>
        <time>2021-06-05T09:09:11Z</time>
      </trkpt>
      <trkpt lat="45.63277" lon="6.75421">
        <ele>1653.2</ele>
        <time>2021-06-05T09:09:13Z</time>
      </trkpt>
      <trkpt lat="45.63278" lon="6.75419">
        <ele>1654.4</ele>
        <time>2021-06-05T09:09:15Z</time>
      </trkpt>
      <trkpt lat="45.6328" lon="6.75417">
        <ele>1655</ele>
        <time>2021-06-05T09:09:17Z</time>
      </trkpt>
      <trkpt lat="45.63281" lon="6.75416">
        <ele>1656</ele>
        <time>2021-06-05T09:09:19Z</time>
      </trkpt>
      <trkpt lat="45.63283" lon="6.75414">
        <ele>1656.4</ele>
        <time>2021-06-05T09:09:21Z</time>
      </trkpt>
      <trkpt lat="45.63284" lon="6.75412">
        <ele>1657.2</ele>
        <time>2021-06-05T09:09:23Z</time>
      </trkpt>
      <trkpt lat="45.63287" lon="6.7541">
        <ele>1657.8</ele>
        <time>2021-06-05T09:09:25Z</time>
      </trkpt>
      <trkpt lat="45.63289" lon="6.75408">
        <ele>1658.8</ele>
        <time>2021-06-05T09:09:27Z</time>
      </trkpt>
      <trkpt lat="45.63291" lon="6.75404">
        <ele>1659.8</ele>
        <time>2021-06-05T09:09:30Z</time>
      </trkpt>
      <trkpt lat="45.63292" lon="6.75402">
        <ele>1661</ele>
        <time>2021-06-05T09:09:32Z</time>
      </trkpt>
      <trkpt lat="45.63293" lon="6.75398">
        <ele>1661.8</ele>
        <time>2021-06-05T09:09:34Z</time>
      </trkpt>
      <trkpt lat="45.63295" lon="6.75396">
        <ele>1662.6</ele>
        <time>2021-06-05T09:09:36Z</time>
      </trkpt>
      <trkpt lat="45.63297" lon="6.75394">
        <ele>1663.4</ele>
        <time>2021-06-05T09:09:37Z</time>
      </trkpt>
      <trkpt lat="45.63299" lon="6.7539">
        <ele>1663.2</ele>
        <time>2021-06-05T09:09:39Z</time>
      </trkpt>
      <trkpt lat="45.63299" lon="6.75385">
        <ele>1664.4</ele>
        <time>2021-06-05T09:09:41Z</time>
      </trkpt>
      <trkpt lat="45.63299" lon="6.75381">
        <ele>1665.4</ele>
        <time>2021-06-05T09:09:43Z</time>
      </trkpt>
      <trkpt lat="45.63299" lon="6.75378">
        <ele>1666.2</ele>
        <time>2021-06-05T09:09:45Z</time>
      </trkpt>
      <trkpt lat="45.63298" lon="6.75374">
        <ele>1667.2</ele>
        <time>2021-06-05T09:09:47Z</time>
      </trkpt>
      <trkpt lat="45.63297" lon="6.75369">
        <ele>1668</ele>
        <time>2021-06-05T09:09:49Z</time>
      </trkpt>
      <trkpt lat="45.63297" lon="6.75364">
        <ele>1668.8</ele>
        <time>2021-06-05T09:09:51Z</time>
      </trkpt>
      <trkpt lat="45.63297" lon="6.75361">
        <ele>1669.2</ele>
        <time>2021-06-05T09:09:52Z</time>
      </trkpt>
      <trkpt lat="45.63297" lon="6.75356">
        <ele>1669.8</ele>
        <time>2021-06-05T09:09:54Z</time>
      </trkpt>
      <trkpt lat="45.63299" lon="6.75353">
        <ele>1670</ele>
        <time>2021-06-05T09:09:56Z</time>
      </trkpt>
      <trkpt lat="45.633" lon="6.7535">
        <ele>1670.8</ele>
        <time>2021-06-05T09:09:58Z</time>
      </trkpt>
      <trkpt lat="45.63301" lon="6.75347">
        <ele>1670.8</ele>
        <time>2021-06-05T09:10:00Z</time>
      </trkpt>
      <trkpt lat="45.63303" lon="6.75344">
        <ele>1671.8</ele>
        <time>2021-06-05T09:10:02Z</time>
      </trkpt>
      <trkpt lat="45.63305" lon="6.75342">
        <ele>1672.8</ele>
        <time>2021-06-05T09:10:04Z</time>
      </trkpt>
      <trkpt lat="45.63305" lon="6.75339">
        <ele>1673.6</ele>
        <time>2021-06-05T09:10:06Z</time>
      </trkpt>
      <trkpt lat="45.63306" lon="6.75336">
        <ele>1674</ele>
        <time>2021-06-05T09:10:08Z</time>
      </trkpt>
      <trkpt lat="45.63307" lon="6.75333">
        <ele>1674.8</ele>
        <time>2021-06-05T09:10:10Z</time>
      </trkpt>
      <trkpt lat="45.63306" lon="6.75328">
        <ele>1675.6</ele>
        <time>2021-06-05T09:10:12Z</time>
      </trkpt>
      <trkpt lat="45.63305" lon="6.75325">
        <ele>1675.8</ele>
        <time>2021-06-05T09:10:13Z</time>
      </trkpt>
      <trkpt lat="45.63305" lon="6.75321">
        <ele>1676.6</ele>
        <time>2021-06-05T09:10:15Z</time>
      </trkpt>
      <trkpt lat="45.63305" lon="6.75317">
        <ele>1676.4</ele>
        <time>2021-06-05T09:10:17Z</time>
      </trkpt>
      <trkpt lat="45.63306" lon="6.75313">
        <ele>1677</ele>
        <time>2021-06-05T09:10:19Z</time>
      </trkpt>
      <trkpt lat="45.63306" lon="6.7531">
        <ele>1677.2</ele>
        <time>2021-06-05T09:10:21Z</time>
      </trkpt>
      <trkpt lat="45.63306" lon="6.75306">
        <ele>1677.2</ele>
        <time>2021-06-05T09:10:23Z</time>
      </trkpt>
      <trkpt lat="45.63305" lon="6.75302">
        <ele>1677.8</ele>
        <time>2021-06-05T09:10:25Z</time>
      </trkpt>
      <trkpt lat="45.63304" lon="6.75298">
        <ele>1678</ele>
        <time>2021-06-05T09:10:27Z</time>
      </trkpt>
      <trkpt lat="45.63302" lon="6.75294">
        <ele>1678</ele>
        <time>2021-06-05T09:10:29Z</time>
      </trkpt>
      <trkpt lat="45.63301" lon="6.75291">
        <ele>1678.2</ele>
        <time>2021-06-05T09:10:31Z</time>
      </trkpt>
      <trkpt lat="45.633" lon="6.75288">
        <ele>1678.6</ele>
        <time>2021-06-05T09:10:33Z</time>
      </trkpt>
      <trkpt lat="45.63299" lon="6.75284">
        <ele>1679.4</ele>
        <time>2021-06-05T09:10:35Z</time>
      </trkpt>
      <trkpt lat="45.63298" lon="6.75281">
        <ele>1680</ele>
        <time>2021-06-05T09:10:37Z</time>
      </trkpt>
      <trkpt lat="45.63298" lon="6.75278">
        <ele>1680.4</ele>
        <time>2021-06-05T09:10:39Z</time>
      </trkpt>
      <trkpt lat="45.63298" lon="6.75275">
        <ele>1681.6</ele>
        <time>2021-06-05T09:10:41Z</time>
      </trkpt>
      <trkpt lat="45.63298" lon="6.75272">
        <ele>1682.8</ele>
        <time>2021-06-05T09:10:44Z</time>
      </trkpt>
      <trkpt lat="45.63298" lon="6.75269">
        <ele>1683.8</ele>
        <time>2021-06-05T09:10:46Z</time>
      </trkpt>
      <trkpt lat="45.63299" lon="6.75266">
        <ele>1683.6</ele>
        <time>2021-06-05T09:10:48Z</time>
      </trkpt>
      <trkpt lat="45.63299" lon="6.75262">
        <ele>1684.2</ele>
        <time>2021-06-05T09:10:50Z</time>
      </trkpt>
      <trkpt lat="45.633" lon="6.7526">
        <ele>1684.8</ele>
        <time>2021-06-05T09:10:52Z</time>
      </trkpt>
      <trkpt lat="45.633" lon="6.75257">
        <ele>1684.8</ele>
        <time>2021-06-05T09:10:54Z</time>
      </trkpt>
      <trkpt lat="45.63301" lon="6.75254">
        <ele>1685.8</ele>
        <time>2021-06-05T09:10:57Z</time>
      </trkpt>
      <trkpt lat="45.63303" lon="6.75253">
        <ele>1686.4</ele>
        <time>2021-06-05T09:10:59Z</time>
      </trkpt>
      <trkpt lat="45.63303" lon="6.7525">
        <ele>1687.4</ele>
        <time>2021-06-05T09:11:01Z</time>
      </trkpt>
      <trkpt lat="45.63303" lon="6.75247">
        <ele>1688.2</ele>
        <time>2021-06-05T09:11:04Z</time>
      </trkpt>
      <trkpt lat="45.63303" lon="6.75245">
        <ele>1688.4</ele>
        <time>2021-06-05T09:11:06Z</time>
      </trkpt>
      <trkpt lat="45.63303" lon="6.75242">
        <ele>1689.4</ele>
        <time>2021-06-05T09:11:08Z</time>
      </trkpt>
      <trkpt lat="45.63303" lon="6.75239">
        <ele>1690.4</ele>
        <time>2021-06-05T09:11:10Z</time>
      </trkpt>
      <trkpt lat="45.63303" lon="6.75236">
        <ele>1691</ele>
        <time>2021-06-05T09:11:12Z</time>
      </trkpt>
      <trkpt lat="45.63304" lon="6.75233">
        <ele>1692.6</ele>
        <time>2021-06-05T09:11:15Z</time>
      </trkpt>
      <trkpt lat="45.63304" lon="6.75229">
        <ele>1693.8</ele>
        <time>2021-06-05T09:11:18Z</time>
      </trkpt>
      <trkpt lat="45.63304" lon="6.75226">
        <ele>1694.8</ele>
        <time>2021-06-05T09:11:20Z</time>
      </trkpt>
      <trkpt lat="45.63303" lon="6.75223">
        <ele>1695.4</ele>
        <time>2021-06-05T09:11:23Z</time>
      </trkpt>
      <trkpt lat="45.63303" lon="6.7522">
        <ele>1695.8</ele>
        <time>2021-06-05T09:11:25Z</time>
      </trkpt>
      <trkpt lat="45.63302" lon="6.75216">
        <ele>1696.4</ele>
        <time>2021-06-05T09:11:28Z</time>
      </trkpt>
      <trkpt lat="45.63301" lon="6.75213">
        <ele>1697.2</ele>
        <time>2021-06-05T09:11:31Z</time>
      </trkpt>
      <trkpt lat="45.63301" lon="6.7521">
        <ele>1698</ele>
        <time>2021-06-05T09:11:33Z</time>
      </trkpt>
      <trkpt lat="45.63302" lon="6.75208">
        <ele>1698.4</ele>
        <time>2021-06-05T09:11:35Z</time>
      </trkpt>
      <trkpt lat="45.63303" lon="6.75204">
        <ele>1699</ele>
        <time>2021-06-05T09:11:38Z</time>
      </trkpt>
      <trkpt lat="45.63303" lon="6.75201">
        <ele>1699.8</ele>
        <time>2021-06-05T09:11:41Z</time>
      </trkpt>
      <trkpt lat="45.63304" lon="6.75198">
        <ele>1700.4</ele>
        <time>2021-06-05T09:11:44Z</time>
      </trkpt>
      <trkpt lat="45.63305" lon="6.75195">
        <ele>1701</ele>
        <time>2021-06-05T09:11:46Z</time>
      </trkpt>
      <trkpt lat="45.63306" lon="6.75191">
        <ele>1701.2</ele>
        <time>2021-06-05T09:11:49Z</time>
      </trkpt>
      <trkpt lat="45.63307" lon="6.75189">
        <ele>1702</ele>
        <time>2021-06-05T09:11:51Z</time>
      </trkpt>
      <trkpt lat="45.63308" lon="6.75188">
        <ele>1702.6</ele>
        <time>2021-06-05T09:11:53Z</time>
      </trkpt>
      <trkpt lat="45.63309" lon="6.75191">
        <ele>1703</ele>
        <time>2021-06-05T09:11:55Z</time>
      </trkpt>
      <trkpt lat="45.63311" lon="6.75194">
        <ele>1704.2</ele>
        <time>2021-06-05T09:11:57Z</time>
      </trkpt>
      <trkpt lat="45.63313" lon="6.75196">
        <ele>1705.2</ele>
        <time>2021-06-05T09:11:59Z</time>
      </trkpt>
      <trkpt lat="45.63315" lon="6.75196">
        <ele>1706.8</ele>
        <time>2021-06-05T09:12:02Z</time>
      </trkpt>
      <trkpt lat="45.63317" lon="6.75196">
        <ele>1707.6</ele>
        <time>2021-06-05T09:12:04Z</time>
      </trkpt>
      <trkpt lat="45.63319" lon="6.75195">
        <ele>1708.6</ele>
        <time>2021-06-05T09:12:06Z</time>
      </trkpt>
      <trkpt lat="45.63322" lon="6.75195">
        <ele>1709.8</ele>
        <time>2021-06-05T09:12:08Z</time>
      </trkpt>
      <trkpt lat="45.63325" lon="6.75196">
        <ele>1711</ele>
        <time>2021-06-05T09:12:10Z</time>
      </trkpt>
      <trkpt lat="45.63327" lon="6.75196">
        <ele>1711.6</ele>
        <time>2021-06-05T09:12:11Z</time>
      </trkpt>
      <trkpt lat="45.63329" lon="6.75196">
        <ele>1712.4</ele>
        <time>2021-06-05T09:12:13Z</time>
      </trkpt>
      <trkpt lat="45.63331" lon="6.75196">
        <ele>1713</ele>
        <time>2021-06-05T09:12:15Z</time>
      </trkpt>
      <trkpt lat="45.63334" lon="6.75196">
        <ele>1713.8</ele>
        <time>2021-06-05T09:12:17Z</time>
      </trkpt>
      <trkpt lat="45.63336" lon="6.75195">
        <ele>1714.6</ele>
        <time>2021-06-05T09:12:19Z</time>
      </trkpt>
      <trkpt lat="45.63339" lon="6.75195">
        <ele>1715.2</ele>
        <time>2021-06-05T09:12:21Z</time>
      </trkpt>
      <trkpt lat="45.63342" lon="6.75195">
        <ele>1715.8</ele>
        <time>2021-06-05T09:12:23Z</time>
      </trkpt>
      <trkpt lat="45.63344" lon="6.75195">
        <ele>1716.2</ele>
        <time>2021-06-05T09:12:24Z</time>
      </trkpt>
      <trkpt lat="45.63348" lon="6.75196">
        <ele>1717</ele>
        <time>2021-06-05T09:12:26Z</time>
      </trkpt>
      <trkpt lat="45.63349" lon="6.75196">
        <ele>1717.2</ele>
        <time>2021-06-05T09:12:27Z</time>
      </trkpt>
      <trkpt lat="45.63352" lon="6.75197">
        <ele>1717.4</ele>
        <time>2021-06-05T09:12:28Z</time>
      </trkpt>
      <trkpt lat="45.63354" lon="6.75197">
        <ele>1718</ele>
        <time>2021-06-05T09:12:29Z</time>
      </trkpt>
      <trkpt lat="45.63356" lon="6.75197">
        <ele>1718.4</ele>
        <time>2021-06-05T09:12:30Z</time>
      </trkpt>
      <trkpt lat="45.63358" lon="6.75198">
        <ele>1718.8</ele>
        <time>2021-06-05T09:12:31Z</time>
      </trkpt>
      <trkpt lat="45.63361" lon="6.75198">
        <ele>1719.4</ele>
        <time>2021-06-05T09:12:33Z</time>
      </trkpt>
      <trkpt lat="45.63364" lon="6.752">
        <ele>1720.4</ele>
        <time>2021-06-05T09:12:35Z</time>
      </trkpt>
      <trkpt lat="45.63366" lon="6.752">
        <ele>1720.6</ele>
        <time>2021-06-05T09:12:36Z</time>
      </trkpt>
      <trkpt lat="45.63369" lon="6.752">
        <ele>1721.2</ele>
        <time>2021-06-05T09:12:38Z</time>
      </trkpt>
      <trkpt lat="45.63372" lon="6.752">
        <ele>1722</ele>
        <time>2021-06-05T09:12:40Z</time>
      </trkpt>
      <trkpt lat="45.63375" lon="6.75199">
        <ele>1722.2</ele>
        <time>2021-06-05T09:12:42Z</time>
      </trkpt>
      <trkpt lat="45.63377" lon="6.75199">
        <ele>1722.6</ele>
        <time>2021-06-05T09:12:44Z</time>
      </trkpt>
      <trkpt lat="45.6338" lon="6.75198">
        <ele>1723.2</ele>
        <time>2021-06-05T09:12:46Z</time>
      </trkpt>
      <trkpt lat="45.63382" lon="6.75196">
        <ele>1723.2</ele>
        <time>2021-06-05T09:12:48Z</time>
      </trkpt>
      <trkpt lat="45.63384" lon="6.75194">
        <ele>1723.8</ele>
        <time>2021-06-05T09:12:50Z</time>
      </trkpt>
      <trkpt lat="45.63387" lon="6.75193">
        <ele>1724.2</ele>
        <time>2021-06-05T09:12:52Z</time>
      </trkpt>
      <trkpt lat="45.63389" lon="6.75191">
        <ele>1724.4</ele>
        <time>2021-06-05T09:12:54Z</time>
      </trkpt>
      <trkpt lat="45.63391" lon="6.7519">
        <ele>1725.4</ele>
        <time>2021-06-05T09:12:56Z</time>
      </trkpt>
      <trkpt lat="45.63393" lon="6.75188">
        <ele>1726.2</ele>
        <time>2021-06-05T09:12:58Z</time>
      </trkpt>
      <trkpt lat="45.63395" lon="6.75186">
        <ele>1726.4</ele>
        <time>2021-06-05T09:13:00Z</time>
      </trkpt>
      <trkpt lat="45.63396" lon="6.75183">
        <ele>1727.6</ele>
        <time>2021-06-05T09:13:02Z</time>
      </trkpt>
      <trkpt lat="45.63397" lon="6.7518">
        <ele>1728.6</ele>
        <time>2021-06-05T09:13:05Z</time>
      </trkpt>
      <trkpt lat="45.63399" lon="6.75179">
        <ele>1729.4</ele>
        <time>2021-06-05T09:13:07Z</time>
      </trkpt>
      <trkpt lat="45.63401" lon="6.75177">
        <ele>1729.8</ele>
        <time>2021-06-05T09:13:09Z</time>
      </trkpt>
      <trkpt lat="45.63402" lon="6.75174">
        <ele>1730.4</ele>
        <time>2021-06-05T09:13:11Z</time>
      </trkpt>
      <trkpt lat="45.63404" lon="6.75171">
        <ele>1731.2</ele>
        <time>2021-06-05T09:13:14Z</time>
      </trkpt>
      <trkpt lat="45.63405" lon="6.75169">
        <ele>1731.8</ele>
        <time>2021-06-05T09:13:16Z</time>
      </trkpt>
      <trkpt lat="45.63406" lon="6.75166">
        <ele>1732.2</ele>
        <time>2021-06-05T09:13:18Z</time>
      </trkpt>
      <trkpt lat="45.63407" lon="6.75164">
        <ele>1732.4</ele>
        <time>2021-06-05T09:13:20Z</time>
      </trkpt>
      <trkpt lat="45.63408" lon="6.75161">
        <ele>1733.2</ele>
        <time>2021-06-05T09:13:22Z</time>
      </trkpt>
      <trkpt lat="45.63409" lon="6.75158">
        <ele>1733.8</ele>
        <time>2021-06-05T09:13:25Z</time>
      </trkpt>
      <trkpt lat="45.6341" lon="6.75155">
        <ele>1734.2</ele>
        <time>2021-06-05T09:13:27Z</time>
      </trkpt>
      <trkpt lat="45.63412" lon="6.75152">
        <ele>1734.8</ele>
        <time>2021-06-05T09:13:30Z</time>
      </trkpt>
      <trkpt lat="45.63414" lon="6.7515">
        <ele>1735.2</ele>
        <time>2021-06-05T09:13:32Z</time>
      </trkpt>
      <trkpt lat="45.63416" lon="6.75148">
        <ele>1735.6</ele>
        <time>2021-06-05T09:13:34Z</time>
      </trkpt>
      <trkpt lat="45.63417" lon="6.75145">
        <ele>1736.4</ele>
        <time>2021-06-05T09:13:36Z</time>
      </trkpt>
      <trkpt lat="45.63419" lon="6.75143">
        <ele>1737.2</ele>
        <time>2021-06-05T09:13:38Z</time>
      </trkpt>
      <trkpt lat="45.63417" lon="6.7514">
        <ele>1738.8</ele>
        <time>2021-06-05T09:13:42Z</time>
      </trkpt>
      <trkpt lat="45.63415" lon="6.75137">
        <ele>1739.8</ele>
        <time>2021-06-05T09:13:44Z</time>
      </trkpt>
      <trkpt lat="45.63412" lon="6.75134">
        <ele>1741.4</ele>
        <time>2021-06-05T09:13:46Z</time>
      </trkpt>
      <trkpt lat="45.6341" lon="6.75134">
        <ele>1742.2</ele>
        <time>2021-06-05T09:13:47Z</time>
      </trkpt>
      <trkpt lat="45.63407" lon="6.75133">
        <ele>1743.2</ele>
        <time>2021-06-05T09:13:49Z</time>
      </trkpt>
      <trkpt lat="45.63405" lon="6.7513">
        <ele>1745.2</ele>
        <time>2021-06-05T09:13:52Z</time>
      </trkpt>
      <trkpt lat="45.63404" lon="6.75127">
        <ele>1746.4</ele>
        <time>2021-06-05T09:13:54Z</time>
      </trkpt>
      <trkpt lat="45.63404" lon="6.75123">
        <ele>1747.8</ele>
        <time>2021-06-05T09:13:56Z</time>
      </trkpt>
      <trkpt lat="45.63406" lon="6.7512">
        <ele>1748.6</ele>
        <time>2021-06-05T09:13:58Z</time>
      </trkpt>
      <trkpt lat="45.63407" lon="6.75117">
        <ele>1749.4</ele>
        <time>2021-06-05T09:14:00Z</time>
      </trkpt>
      <trkpt lat="45.63408" lon="6.75113">
        <ele>1750.2</ele>
        <time>2021-06-05T09:14:02Z</time>
      </trkpt>
      <trkpt lat="45.63409" lon="6.75108">
        <ele>1750.4</ele>
        <time>2021-06-05T09:14:04Z</time>
      </trkpt>
      <trkpt lat="45.63411" lon="6.75105">
        <ele>1751</ele>
        <time>2021-06-05T09:14:06Z</time>
      </trkpt>
      <trkpt lat="45.63412" lon="6.75102">
        <ele>1751.6</ele>
        <time>2021-06-05T09:14:08Z</time>
      </trkpt>
      <trkpt lat="45.63414" lon="6.751">
        <ele>1751.8</ele>
        <time>2021-06-05T09:14:10Z</time>
      </trkpt>
      <trkpt lat="45.63414" lon="6.75096">
        <ele>1752.4</ele>
        <time>2021-06-05T09:14:13Z</time>
      </trkpt>
      <trkpt lat="45.63413" lon="6.75094">
        <ele>1753.2</ele>
        <time>2021-06-05T09:14:15Z</time>
      </trkpt>
      <trkpt lat="45.63411" lon="6.75091">
        <ele>1754</ele>
        <time>2021-06-05T09:14:17Z</time>
      </trkpt>
      <trkpt lat="45.6341" lon="6.75088">
        <ele>1754.6</ele>
        <time>2021-06-05T09:14:19Z</time>
      </trkpt>
      <trkpt lat="45.63408" lon="6.75085">
        <ele>1755.8</ele>
        <time>2021-06-05T09:14:21Z</time>
      </trkpt>
      <trkpt lat="45.63406" lon="6.75083">
        <ele>1756.6</ele>
        <time>2021-06-05T09:14:23Z</time>
      </trkpt>
      <trkpt lat="45.63405" lon="6.75081">
        <ele>1757.2</ele>
        <time>2021-06-05T09:14:25Z</time>
      </trkpt>
      <trkpt lat="45.63403" lon="6.7508">
        <ele>1758.6</ele>
        <time>2021-06-05T09:14:27Z</time>
      </trkpt>
      <trkpt lat="45.63402" lon="6.75076">
        <ele>1760.4</ele>
        <time>2021-06-05T09:14:30Z</time>
      </trkpt>
      <trkpt lat="45.63402" lon="6.75074">
        <ele>1761.2</ele>
        <time>2021-06-05T09:14:32Z</time>
      </trkpt>
      <trkpt lat="45.63404" lon="6.75071">
        <ele>1761.8</ele>
        <time>2021-06-05T09:14:34Z</time>
      </trkpt>
      <trkpt lat="45.63406" lon="6.75068">
        <ele>1762.4</ele>
        <time>2021-06-05T09:14:36Z</time>
      </trkpt>
      <trkpt lat="45.63407" lon="6.75065">
        <ele>1762.8</ele>
        <time>2021-06-05T09:14:38Z</time>
      </trkpt>
      <trkpt lat="45.6341" lon="6.75063">
        <ele>1763</ele>
        <time>2021-06-05T09:14:40Z</time>
      </trkpt>
      <trkpt lat="45.63411" lon="6.7506">
        <ele>1763.8</ele>
        <time>2021-06-05T09:14:42Z</time>
      </trkpt>
      <trkpt lat="45.63413" lon="6.75058">
        <ele>1764</ele>
        <time>2021-06-05T09:14:44Z</time>
      </trkpt>
      <trkpt lat="45.63414" lon="6.75055">
        <ele>1764.2</ele>
        <time>2021-06-05T09:14:46Z</time>
      </trkpt>
      <trkpt lat="45.63415" lon="6.75053">
        <ele>1764.8</ele>
        <time>2021-06-05T09:14:48Z</time>
      </trkpt>
      <trkpt lat="45.63417" lon="6.75051">
        <ele>1765.2</ele>
        <time>2021-06-05T09:14:50Z</time>
      </trkpt>
      <trkpt lat="45.63418" lon="6.75048">
        <ele>1765.2</ele>
        <time>2021-06-05T09:14:52Z</time>
      </trkpt>
      <trkpt lat="45.63419" lon="6.75045">
        <ele>1765.8</ele>
        <time>2021-06-05T09:14:54Z</time>
      </trkpt>
      <trkpt lat="45.6342" lon="6.75042">
        <ele>1766.4</ele>
        <time>2021-06-05T09:14:56Z</time>
      </trkpt>
      <trkpt lat="45.63422" lon="6.75039">
        <ele>1766.8</ele>
        <time>2021-06-05T09:14:59Z</time>
      </trkpt>
      <trkpt lat="45.63424" lon="6.75036">
        <ele>1767.4</ele>
        <time>2021-06-05T09:15:02Z</time>
      </trkpt>
      <trkpt lat="45.63426" lon="6.75033">
        <ele>1767.6</ele>
        <time>2021-06-05T09:15:04Z</time>
      </trkpt>
      <trkpt lat="45.63428" lon="6.75032">
        <ele>1768.4</ele>
        <time>2021-06-05T09:15:06Z</time>
      </trkpt>
      <trkpt lat="45.6343" lon="6.7503">
        <ele>1768.8</ele>
        <time>2021-06-05T09:15:08Z</time>
      </trkpt>
      <trkpt lat="45.63432" lon="6.75029">
        <ele>1769</ele>
        <time>2021-06-05T09:15:09Z</time>
      </trkpt>
      <trkpt lat="45.63434" lon="6.75028">
        <ele>1769.4</ele>
        <time>2021-06-05T09:15:10Z</time>
      </trkpt>
      <trkpt lat="45.63436" lon="6.75027">
        <ele>1769.2</ele>
        <time>2021-06-05T09:15:11Z</time>
      </trkpt>
      <trkpt lat="45.63438" lon="6.75026">
        <ele>1769.2</ele>
        <time>2021-06-05T09:15:12Z</time>
      </trkpt>
      <trkpt lat="45.6344" lon="6.75026">
        <ele>1769.8</ele>
        <time>2021-06-05T09:15:13Z</time>
      </trkpt>
      <trkpt lat="45.63443" lon="6.75026">
        <ele>1769.8</ele>
        <time>2021-06-05T09:15:15Z</time>
      </trkpt>
      <trkpt lat="45.63445" lon="6.75026">
        <ele>1770.8</ele>
        <time>2021-06-05T09:15:17Z</time>
      </trkpt>
      <trkpt lat="45.63449" lon="6.75024">
        <ele>1772.2</ele>
        <time>2021-06-05T09:15:20Z</time>
      </trkpt>
      <trkpt lat="45.63451" lon="6.75023">
        <ele>1772.8</ele>
        <time>2021-06-05T09:15:22Z</time>
      </trkpt>
      <trkpt lat="45.63454" lon="6.75021">
        <ele>1773.8</ele>
        <time>2021-06-05T09:15:24Z</time>
      </trkpt>
      <trkpt lat="45.63456" lon="6.7502">
        <ele>1773.8</ele>
        <time>2021-06-05T09:15:26Z</time>
      </trkpt>
      <trkpt lat="45.63458" lon="6.75018">
        <ele>1774.4</ele>
        <time>2021-06-05T09:15:28Z</time>
      </trkpt>
      <trkpt lat="45.6346" lon="6.75016">
        <ele>1774.6</ele>
        <time>2021-06-05T09:15:30Z</time>
      </trkpt>
      <trkpt lat="45.63462" lon="6.75014">
        <ele>1774.8</ele>
        <time>2021-06-05T09:15:32Z</time>
      </trkpt>
      <trkpt lat="45.63465" lon="6.75013">
        <ele>1775.4</ele>
        <time>2021-06-05T09:15:34Z</time>
      </trkpt>
      <trkpt lat="45.63467" lon="6.75012">
        <ele>1775.8</ele>
        <time>2021-06-05T09:15:36Z</time>
      </trkpt>
      <trkpt lat="45.63468" lon="6.75009">
        <ele>1776</ele>
        <time>2021-06-05T09:15:38Z</time>
      </trkpt>
      <trkpt lat="45.63469" lon="6.75006">
        <ele>1776.8</ele>
        <time>2021-06-05T09:15:41Z</time>
      </trkpt>
      <trkpt lat="45.63471" lon="6.75003">
        <ele>1777.8</ele>
        <time>2021-06-05T09:15:44Z</time>
      </trkpt>
      <trkpt lat="45.63472" lon="6.75">
        <ele>1779.2</ele>
        <time>2021-06-05T09:15:47Z</time>
      </trkpt>
      <trkpt lat="45.63474" lon="6.74998">
        <ele>1780.2</ele>
        <time>2021-06-05T09:15:49Z</time>
      </trkpt>
      <trkpt lat="45.63476" lon="6.74997">
        <ele>1780.8</ele>
        <time>2021-06-05T09:15:51Z</time>
      </trkpt>
      <trkpt lat="45.63477" lon="6.74994">
        <ele>1782.2</ele>
        <time>2021-06-05T09:15:54Z</time>
      </trkpt>
      <trkpt lat="45.63479" lon="6.74992">
        <ele>1783.2</ele>
        <time>2021-06-05T09:15:56Z</time>
      </trkpt>
      <trkpt lat="45.6348" lon="6.74989">
        <ele>1784.2</ele>
        <time>2021-06-05T09:15:58Z</time>
      </trkpt>
      <trkpt lat="45.63483" lon="6.74987">
        <ele>1784.8</ele>
        <time>2021-06-05T09:16:00Z</time>
      </trkpt>
      <trkpt lat="45.63484" lon="6.74984">
        <ele>1785.4</ele>
        <time>2021-06-05T09:16:02Z</time>
      </trkpt>
      <trkpt lat="45.63484" lon="6.74981">
        <ele>1786.2</ele>
        <time>2021-06-05T09:16:04Z</time>
      </trkpt>
      <trkpt lat="45.63485" lon="6.74978">
        <ele>1787</ele>
        <time>2021-06-05T09:16:06Z</time>
      </trkpt>
      <trkpt lat="45.63486" lon="6.74975">
        <ele>1788</ele>
        <time>2021-06-05T09:16:09Z</time>
      </trkpt>
      <trkpt lat="45.63487" lon="6.74972">
        <ele>1788.6</ele>
        <time>2021-06-05T09:16:11Z</time>
      </trkpt>
      <trkpt lat="45.63488" lon="6.74969">
        <ele>1789.6</ele>
        <time>2021-06-05T09:16:13Z</time>
      </trkpt>
      <trkpt lat="45.63489" lon="6.74967">
        <ele>1789.6</ele>
        <time>2021-06-05T09:16:15Z</time>
      </trkpt>
      <trkpt lat="45.63491" lon="6.74965">
        <ele>1790.2</ele>
        <time>2021-06-05T09:16:17Z</time>
      </trkpt>
      <trkpt lat="45.63492" lon="6.74961">
        <ele>1790.4</ele>
        <time>2021-06-05T09:16:19Z</time>
      </trkpt>
      <trkpt lat="45.63491" lon="6.74958">
        <ele>1790.8</ele>
        <time>2021-06-05T09:16:21Z</time>
      </trkpt>
      <trkpt lat="45.6349" lon="6.74954">
        <ele>1791.4</ele>
        <time>2021-06-05T09:16:23Z</time>
      </trkpt>
      <trkpt lat="45.63487" lon="6.7495">
        <ele>1792.2</ele>
        <time>2021-06-05T09:16:25Z</time>
      </trkpt>
      <trkpt lat="45.63486" lon="6.74948">
        <ele>1792.4</ele>
        <time>2021-06-05T09:16:26Z</time>
      </trkpt>
      <trkpt lat="45.63484" lon="6.74945">
        <ele>1792.4</ele>
        <time>2021-06-05T09:16:27Z</time>
      </trkpt>
      <trkpt lat="45.63484" lon="6.74943">
        <ele>1793</ele>
        <time>2021-06-05T09:16:28Z</time>
      </trkpt>
      <trkpt lat="45.63482" lon="6.74941">
        <ele>1793.4</ele>
        <time>2021-06-05T09:16:29Z</time>
      </trkpt>
      <trkpt lat="45.63481" lon="6.74938">
        <ele>1794</ele>
        <time>2021-06-05T09:16:30Z</time>
      </trkpt>
      <trkpt lat="45.6348" lon="6.74935">
        <ele>1794.6</ele>
        <time>2021-06-05T09:16:32Z</time>
      </trkpt>
      <trkpt lat="45.63478" lon="6.74931">
        <ele>1795.4</ele>
        <time>2021-06-05T09:16:34Z</time>
      </trkpt>
      <trkpt lat="45.63477" lon="6.74928">
        <ele>1796.2</ele>
        <time>2021-06-05T09:16:36Z</time>
      </trkpt>
      <trkpt lat="45.63476" lon="6.74924">
        <ele>1796.8</ele>
        <time>2021-06-05T09:16:38Z</time>
      </trkpt>
      <trkpt lat="45.63475" lon="6.74921">
        <ele>1797.8</ele>
        <time>2021-06-05T09:16:40Z</time>
      </trkpt>
      <trkpt lat="45.63474" lon="6.74919">
        <ele>1798.6</ele>
        <time>2021-06-05T09:16:42Z</time>
      </trkpt>
      <trkpt lat="45.63474" lon="6.74916">
        <ele>1799</ele>
        <time>2021-06-05T09:16:44Z</time>
      </trkpt>
      <trkpt lat="45.63473" lon="6.74912">
        <ele>1799.8</ele>
        <time>2021-06-05T09:16:46Z</time>
      </trkpt>
      <trkpt lat="45.63472" lon="6.7491">
        <ele>1800.6</ele>
        <time>2021-06-05T09:16:48Z</time>
      </trkpt>
      <trkpt lat="45.63472" lon="6.74907">
        <ele>1801</ele>
        <time>2021-06-05T09:16:50Z</time>
      </trkpt>
      <trkpt lat="45.63471" lon="6.74904">
        <ele>1801.6</ele>
        <time>2021-06-05T09:16:52Z</time>
      </trkpt>
      <trkpt lat="45.6347" lon="6.74901">
        <ele>1801.4</ele>
        <time>2021-06-05T09:16:54Z</time>
      </trkpt>
      <trkpt lat="45.63469" lon="6.74897">
        <ele>1801.6</ele>
        <time>2021-06-05T09:16:57Z</time>
      </trkpt>
      <trkpt lat="45.63468" lon="6.74895">
        <ele>1802.2</ele>
        <time>2021-06-05T09:16:59Z</time>
      </trkpt>
      <trkpt lat="45.63468" lon="6.74892">
        <ele>1803</ele>
        <time>2021-06-05T09:17:01Z</time>
      </trkpt>
      <trkpt lat="45.63468" lon="6.74889">
        <ele>1803.6</ele>
        <time>2021-06-05T09:17:03Z</time>
      </trkpt>
      <trkpt lat="45.63468" lon="6.74886">
        <ele>1803.6</ele>
        <time>2021-06-05T09:17:05Z</time>
      </trkpt>
      <trkpt lat="45.63468" lon="6.74883">
        <ele>1804.2</ele>
        <time>2021-06-05T09:17:07Z</time>
      </trkpt>
      <trkpt lat="45.63469" lon="6.7488">
        <ele>1804.4</ele>
        <time>2021-06-05T09:17:09Z</time>
      </trkpt>
      <trkpt lat="45.63472" lon="6.7488">
        <ele>1805</ele>
        <time>2021-06-05T09:17:11Z</time>
      </trkpt>
      <trkpt lat="45.63476" lon="6.74882">
        <ele>1805.2</ele>
        <time>2021-06-05T09:17:13Z</time>
      </trkpt>
      <trkpt lat="45.63478" lon="6.74882">
        <ele>1805.8</ele>
        <time>2021-06-05T09:17:14Z</time>
      </trkpt>
      <trkpt lat="45.6348" lon="6.74882">
        <ele>1805.6</ele>
        <time>2021-06-05T09:17:15Z</time>
      </trkpt>
      <trkpt lat="45.63484" lon="6.74882">
        <ele>1806.2</ele>
        <time>2021-06-05T09:17:17Z</time>
      </trkpt>
      <trkpt lat="45.63486" lon="6.7488">
        <ele>1806.2</ele>
        <time>2021-06-05T09:17:19Z</time>
      </trkpt>
      <trkpt lat="45.63488" lon="6.74878">
        <ele>1807.2</ele>
        <time>2021-06-05T09:17:21Z</time>
      </trkpt>
      <trkpt lat="45.6349" lon="6.74876">
        <ele>1807.8</ele>
        <time>2021-06-05T09:17:23Z</time>
      </trkpt>
      <trkpt lat="45.63491" lon="6.74872">
        <ele>1808.4</ele>
        <time>2021-06-05T09:17:25Z</time>
      </trkpt>
      <trkpt lat="45.63492" lon="6.74869">
        <ele>1809.4</ele>
        <time>2021-06-05T09:17:27Z</time>
      </trkpt>
      <trkpt lat="45.63493" lon="6.74865">
        <ele>1810.4</ele>
        <time>2021-06-05T09:17:29Z</time>
      </trkpt>
      <trkpt lat="45.63494" lon="6.74861">
        <ele>1811</ele>
        <time>2021-06-05T09:17:31Z</time>
      </trkpt>
      <trkpt lat="45.63493" lon="6.74858">
        <ele>1811.8</ele>
        <time>2021-06-05T09:17:33Z</time>
      </trkpt>
      <trkpt lat="45.63492" lon="6.74855">
        <ele>1812.4</ele>
        <time>2021-06-05T09:17:35Z</time>
      </trkpt>
      <trkpt lat="45.63492" lon="6.74852">
        <ele>1813</ele>
        <time>2021-06-05T09:17:37Z</time>
      </trkpt>
      <trkpt lat="45.6349" lon="6.74849">
        <ele>1813.8</ele>
        <time>2021-06-05T09:17:40Z</time>
      </trkpt>
      <trkpt lat="45.63489" lon="6.74846">
        <ele>1814.6</ele>
        <time>2021-06-05T09:17:43Z</time>
      </trkpt>
      <trkpt lat="45.63488" lon="6.74844">
        <ele>1815.4</ele>
        <time>2021-06-05T09:17:45Z</time>
      </trkpt>
      <trkpt lat="45.63487" lon="6.74841">
        <ele>1815.6</ele>
        <time>2021-06-05T09:17:47Z</time>
      </trkpt>
      <trkpt lat="45.63485" lon="6.74838">
        <ele>1816.2</ele>
        <time>2021-06-05T09:17:50Z</time>
      </trkpt>
      <trkpt lat="45.63484" lon="6.74837">
        <ele>1816.4</ele>
        <time>2021-06-05T09:17:52Z</time>
      </trkpt>
      <trkpt lat="45.63481" lon="6.74836">
        <ele>1817.2</ele>
        <time>2021-06-05T09:17:54Z</time>
      </trkpt>
      <trkpt lat="45.63478" lon="6.74836">
        <ele>1817.8</ele>
        <time>2021-06-05T09:17:56Z</time>
      </trkpt>
      <trkpt lat="45.63474" lon="6.74835">
        <ele>1818.8</ele>
        <time>2021-06-05T09:17:58Z</time>
      </trkpt>
      <trkpt lat="45.63471" lon="6.74834">
        <ele>1819.2</ele>
        <time>2021-06-05T09:18:00Z</time>
      </trkpt>
      <trkpt lat="45.63469" lon="6.74833">
        <ele>1819.6</ele>
        <time>2021-06-05T09:18:02Z</time>
      </trkpt>
      <trkpt lat="45.63467" lon="6.7483">
        <ele>1820.2</ele>
        <time>2021-06-05T09:18:04Z</time>
      </trkpt>
      <trkpt lat="45.63466" lon="6.74828">
        <ele>1820.4</ele>
        <time>2021-06-05T09:18:06Z</time>
      </trkpt>
      <trkpt lat="45.63464" lon="6.74826">
        <ele>1820.4</ele>
        <time>2021-06-05T09:18:08Z</time>
      </trkpt>
      <trkpt lat="45.63463" lon="6.74824">
        <ele>1820.4</ele>
        <time>2021-06-05T09:18:10Z</time>
      </trkpt>
      <trkpt lat="45.63462" lon="6.74821">
        <ele>1820.4</ele>
        <time>2021-06-05T09:18:12Z</time>
      </trkpt>
      <trkpt lat="45.6346" lon="6.74818">
        <ele>1819.8</ele>
        <time>2021-06-05T09:18:14Z</time>
      </trkpt>
      <trkpt lat="45.6346" lon="6.74815">
        <ele>1819.8</ele>
        <time>2021-06-05T09:18:16Z</time>
      </trkpt>
      <trkpt lat="45.63459" lon="6.74812">
        <ele>1819.8</ele>
        <time>2021-06-05T09:18:18Z</time>
      </trkpt>
      <trkpt lat="45.6346" lon="6.7481">
        <ele>1819.4</ele>
        <time>2021-06-05T09:18:20Z</time>
      </trkpt>
      <trkpt lat="45.63461" lon="6.74806">
        <ele>1819.6</ele>
        <time>2021-06-05T09:18:22Z</time>
      </trkpt>
      <trkpt lat="45.63463" lon="6.74805">
        <ele>1820</ele>
        <time>2021-06-05T09:18:24Z</time>
      </trkpt>
      <trkpt lat="45.63464" lon="6.74803">
        <ele>1820.4</ele>
        <time>2021-06-05T09:18:26Z</time>
      </trkpt>
      <trkpt lat="45.63466" lon="6.748">
        <ele>1821.8</ele>
        <time>2021-06-05T09:18:29Z</time>
      </trkpt>
      <trkpt lat="45.63467" lon="6.74798">
        <ele>1822.8</ele>
        <time>2021-06-05T09:18:32Z</time>
      </trkpt>
      <trkpt lat="45.63468" lon="6.74795">
        <ele>1823.6</ele>
        <time>2021-06-05T09:18:35Z</time>
      </trkpt>
      <trkpt lat="45.6347" lon="6.74792">
        <ele>1824.6</ele>
        <time>2021-06-05T09:18:38Z</time>
      </trkpt>
      <trkpt lat="45.63471" lon="6.74789">
        <ele>1826</ele>
        <time>2021-06-05T09:18:41Z</time>
      </trkpt>
      <trkpt lat="45.63472" lon="6.74787">
        <ele>1826.8</ele>
        <time>2021-06-05T09:18:43Z</time>
      </trkpt>
      <trkpt lat="45.63475" lon="6.74786">
        <ele>1828.6</ele>
        <time>2021-06-05T09:18:46Z</time>
      </trkpt>
      <trkpt lat="45.63476" lon="6.74784">
        <ele>1829.4</ele>
        <time>2021-06-05T09:18:48Z</time>
      </trkpt>
      <trkpt lat="45.63478" lon="6.74783">
        <ele>1830.6</ele>
        <time>2021-06-05T09:18:50Z</time>
      </trkpt>
      <trkpt lat="45.6348" lon="6.7478">
        <ele>1832.2</ele>
        <time>2021-06-05T09:18:53Z</time>
      </trkpt>
      <trkpt lat="45.63481" lon="6.74779">
        <ele>1833</ele>
        <time>2021-06-05T09:18:55Z</time>
      </trkpt>
      <trkpt lat="45.63484" lon="6.74777">
        <ele>1834.6</ele>
        <time>2021-06-05T09:18:58Z</time>
      </trkpt>
      <trkpt lat="45.63486" lon="6.74776">
        <ele>1835.6</ele>
        <time>2021-06-05T09:19:01Z</time>
      </trkpt>
      <trkpt lat="45.63488" lon="6.74774">
        <ele>1836.8</ele>
        <time>2021-06-05T09:19:04Z</time>
      </trkpt>
      <trkpt lat="45.6349" lon="6.74773">
        <ele>1837.6</ele>
        <time>2021-06-05T09:19:06Z</time>
      </trkpt>
      <trkpt lat="45.63492" lon="6.74771">
        <ele>1838.8</ele>
        <time>2021-06-05T09:19:09Z</time>
      </trkpt>
      <trkpt lat="45.63494" lon="6.7477">
        <ele>1840</ele>
        <time>2021-06-05T09:19:11Z</time>
      </trkpt>
      <trkpt lat="45.63495" lon="6.74767">
        <ele>1841</ele>
        <time>2021-06-05T09:19:14Z</time>
      </trkpt>
      <trkpt lat="45.63496" lon="6.74764">
        <ele>1842.4</ele>
        <time>2021-06-05T09:19:17Z</time>
      </trkpt>
      <trkpt lat="45.63497" lon="6.74762">
        <ele>1843.2</ele>
        <time>2021-06-05T09:19:19Z</time>
      </trkpt>
      <trkpt lat="45.63498" lon="6.74759">
        <ele>1844.4</ele>
        <time>2021-06-05T09:19:21Z</time>
      </trkpt>
      <trkpt lat="45.635" lon="6.74757">
        <ele>1845</ele>
        <time>2021-06-05T09:19:23Z</time>
      </trkpt>
      <trkpt lat="45.635" lon="6.74754">
        <ele>1845.6</ele>
        <time>2021-06-05T09:19:25Z</time>
      </trkpt>
      <trkpt lat="45.63501" lon="6.74751">
        <ele>1846.4</ele>
        <time>2021-06-05T09:19:27Z</time>
      </trkpt>
      <trkpt lat="45.63503" lon="6.74748">
        <ele>1847.6</ele>
        <time>2021-06-05T09:19:30Z</time>
      </trkpt>
      <trkpt lat="45.63505" lon="6.74746">
        <ele>1848.6</ele>
        <time>2021-06-05T09:19:33Z</time>
      </trkpt>
      <trkpt lat="45.63506" lon="6.74743">
        <ele>1849</ele>
        <time>2021-06-05T09:19:35Z</time>
      </trkpt>
      <trkpt lat="45.63506" lon="6.7474">
        <ele>1849.6</ele>
        <time>2021-06-05T09:19:37Z</time>
      </trkpt>
      <trkpt lat="45.63508" lon="6.74738">
        <ele>1850.2</ele>
        <time>2021-06-05T09:19:39Z</time>
      </trkpt>
      <trkpt lat="45.63509" lon="6.74736">
        <ele>1850.6</ele>
        <time>2021-06-05T09:19:41Z</time>
      </trkpt>
      <trkpt lat="45.63511" lon="6.74734">
        <ele>1851.6</ele>
        <time>2021-06-05T09:19:44Z</time>
      </trkpt>
      <trkpt lat="45.63513" lon="6.74732">
        <ele>1851.8</ele>
        <time>2021-06-05T09:19:46Z</time>
      </trkpt>
      <trkpt lat="45.63515" lon="6.7473">
        <ele>1852.6</ele>
        <time>2021-06-05T09:19:50Z</time>
      </trkpt>
      <trkpt lat="45.63516" lon="6.74728">
        <ele>1852.8</ele>
        <time>2021-06-05T09:19:52Z</time>
      </trkpt>
      <trkpt lat="45.63517" lon="6.74726">
        <ele>1853.2</ele>
        <time>2021-06-05T09:19:54Z</time>
      </trkpt>
      <trkpt lat="45.63518" lon="6.74723">
        <ele>1853.2</ele>
        <time>2021-06-05T09:19:57Z</time>
      </trkpt>
      <trkpt lat="45.63519" lon="6.7472">
        <ele>1853.2</ele>
        <time>2021-06-05T09:20:00Z</time>
      </trkpt>
      <trkpt lat="45.6352" lon="6.74717">
        <ele>1854.6</ele>
        <time>2021-06-05T09:20:02Z</time>
      </trkpt>
      <trkpt lat="45.63522" lon="6.74715">
        <ele>1855.6</ele>
        <time>2021-06-05T09:20:04Z</time>
      </trkpt>
      <trkpt lat="45.63522" lon="6.74712">
        <ele>1856</ele>
        <time>2021-06-05T09:20:06Z</time>
      </trkpt>
      <trkpt lat="45.63523" lon="6.74707">
        <ele>1856.6</ele>
        <time>2021-06-05T09:20:08Z</time>
      </trkpt>
      <trkpt lat="45.63524" lon="6.74704">
        <ele>1857.6</ele>
        <time>2021-06-05T09:20:10Z</time>
      </trkpt>
      <trkpt lat="45.63526" lon="6.74702">
        <ele>1858.4</ele>
        <time>2021-06-05T09:20:12Z</time>
      </trkpt>
      <trkpt lat="45.63528" lon="6.74699">
        <ele>1859</ele>
        <time>2021-06-05T09:20:14Z</time>
      </trkpt>
      <trkpt lat="45.63529" lon="6.74697">
        <ele>1859.8</ele>
        <time>2021-06-05T09:20:16Z</time>
      </trkpt>
      <trkpt lat="45.6353" lon="6.74694">
        <ele>1861</ele>
        <time>2021-06-05T09:20:18Z</time>
      </trkpt>
      <trkpt lat="45.63531" lon="6.74691">
        <ele>1862.4</ele>
        <time>2021-06-05T09:20:21Z</time>
      </trkpt>
      <trkpt lat="45.63532" lon="6.74689">
        <ele>1863</ele>
        <time>2021-06-05T09:20:23Z</time>
      </trkpt>
      <trkpt lat="45.63532" lon="6.74686">
        <ele>1863.8</ele>
        <time>2021-06-05T09:20:26Z</time>
      </trkpt>
      <trkpt lat="45.63534" lon="6.74683">
        <ele>1864.8</ele>
        <time>2021-06-05T09:20:29Z</time>
      </trkpt>
      <trkpt lat="45.63534" lon="6.7468">
        <ele>1865</ele>
        <time>2021-06-05T09:20:32Z</time>
      </trkpt>
      <trkpt lat="45.63535" lon="6.74677">
        <ele>1865.4</ele>
        <time>2021-06-05T09:20:34Z</time>
      </trkpt>
      <trkpt lat="45.63537" lon="6.74674">
        <ele>1865.6</ele>
        <time>2021-06-05T09:20:37Z</time>
      </trkpt>
      <trkpt lat="45.63538" lon="6.74672">
        <ele>1866.4</ele>
        <time>2021-06-05T09:20:40Z</time>
      </trkpt>
      <trkpt lat="45.63539" lon="6.74669">
        <ele>1867.6</ele>
        <time>2021-06-05T09:20:43Z</time>
      </trkpt>
      <trkpt lat="45.6354" lon="6.74666">
        <ele>1869.4</ele>
        <time>2021-06-05T09:20:46Z</time>
      </trkpt>
      <trkpt lat="45.63541" lon="6.74664">
        <ele>1869.6</ele>
        <time>2021-06-05T09:20:48Z</time>
      </trkpt>
      <trkpt lat="45.63541" lon="6.74661">
        <ele>1870.4</ele>
        <time>2021-06-05T09:20:50Z</time>
      </trkpt>
      <trkpt lat="45.63542" lon="6.74658">
        <ele>1871.6</ele>
        <time>2021-06-05T09:20:53Z</time>
      </trkpt>
      <trkpt lat="45.63544" lon="6.74657">
        <ele>1872.4</ele>
        <time>2021-06-05T09:20:55Z</time>
      </trkpt>
      <trkpt lat="45.63544" lon="6.74654">
        <ele>1872.8</ele>
        <time>2021-06-05T09:20:57Z</time>
      </trkpt>
      <trkpt lat="45.63545" lon="6.74651">
        <ele>1873.2</ele>
        <time>2021-06-05T09:20:59Z</time>
      </trkpt>
      <trkpt lat="45.63546" lon="6.74649">
        <ele>1873.4</ele>
        <time>2021-06-05T09:21:01Z</time>
      </trkpt>
      <trkpt lat="45.63548" lon="6.74647">
        <ele>1874.2</ele>
        <time>2021-06-05T09:21:04Z</time>
      </trkpt>
      <trkpt lat="45.63549" lon="6.74644">
        <ele>1874.6</ele>
        <time>2021-06-05T09:21:07Z</time>
      </trkpt>
      <trkpt lat="45.63551" lon="6.74641">
        <ele>1875.4</ele>
        <time>2021-06-05T09:21:10Z</time>
      </trkpt>
      <trkpt lat="45.63552" lon="6.74637">
        <ele>1876</ele>
        <time>2021-06-05T09:21:13Z</time>
      </trkpt>
      <trkpt lat="45.63553" lon="6.74634">
        <ele>1876.8</ele>
        <time>2021-06-05T09:21:16Z</time>
      </trkpt>
      <trkpt lat="45.63553" lon="6.74631">
        <ele>1877.6</ele>
        <time>2021-06-05T09:21:19Z</time>
      </trkpt>
      <trkpt lat="45.63553" lon="6.74628">
        <ele>1878.4</ele>
        <time>2021-06-05T09:21:22Z</time>
      </trkpt>
      <trkpt lat="45.63555" lon="6.74625">
        <ele>1879</ele>
        <time>2021-06-05T09:21:25Z</time>
      </trkpt>
      <trkpt lat="45.63556" lon="6.74621">
        <ele>1879.6</ele>
        <time>2021-06-05T09:21:28Z</time>
      </trkpt>
      <trkpt lat="45.63557" lon="6.74618">
        <ele>1880</ele>
        <time>2021-06-05T09:21:30Z</time>
      </trkpt>
      <trkpt lat="45.63557" lon="6.74615">
        <ele>1880.6</ele>
        <time>2021-06-05T09:21:32Z</time>
      </trkpt>
      <trkpt lat="45.63558" lon="6.74612">
        <ele>1880.8</ele>
        <time>2021-06-05T09:21:34Z</time>
      </trkpt>
      <trkpt lat="45.63559" lon="6.7461">
        <ele>1881.2</ele>
        <time>2021-06-05T09:21:36Z</time>
      </trkpt>
      <trkpt lat="45.63561" lon="6.74607">
        <ele>1881.8</ele>
        <time>2021-06-05T09:21:38Z</time>
      </trkpt>
      <trkpt lat="45.63562" lon="6.74605">
        <ele>1882.6</ele>
        <time>2021-06-05T09:21:41Z</time>
      </trkpt>
      <trkpt lat="45.63565" lon="6.74604">
        <ele>1883.4</ele>
        <time>2021-06-05T09:21:44Z</time>
      </trkpt>
      <trkpt lat="45.63567" lon="6.74602">
        <ele>1884.6</ele>
        <time>2021-06-05T09:21:47Z</time>
      </trkpt>
      <trkpt lat="45.63569" lon="6.74602">
        <ele>1885.6</ele>
        <time>2021-06-05T09:21:50Z</time>
      </trkpt>
      <trkpt lat="45.63571" lon="6.746">
        <ele>1886.4</ele>
        <time>2021-06-05T09:21:53Z</time>
      </trkpt>
      <trkpt lat="45.63572" lon="6.74596">
        <ele>1887.4</ele>
        <time>2021-06-05T09:21:56Z</time>
      </trkpt>
      <trkpt lat="45.63574" lon="6.74596">
        <ele>1888.2</ele>
        <time>2021-06-05T09:21:59Z</time>
      </trkpt>
      <trkpt lat="45.63576" lon="6.74596">
        <ele>1888.8</ele>
        <time>2021-06-05T09:22:01Z</time>
      </trkpt>
      <trkpt lat="45.63579" lon="6.74596">
        <ele>1889.6</ele>
        <time>2021-06-05T09:22:03Z</time>
      </trkpt>
      <trkpt lat="45.63581" lon="6.74596">
        <ele>1890</ele>
        <time>2021-06-05T09:22:05Z</time>
      </trkpt>
      <trkpt lat="45.63583" lon="6.74595">
        <ele>1890.6</ele>
        <time>2021-06-05T09:22:07Z</time>
      </trkpt>
      <trkpt lat="45.63585" lon="6.74594">
        <ele>1891.6</ele>
        <time>2021-06-05T09:22:09Z</time>
      </trkpt>
      <trkpt lat="45.63587" lon="6.74593">
        <ele>1892.6</ele>
        <time>2021-06-05T09:22:12Z</time>
      </trkpt>
      <trkpt lat="45.63589" lon="6.74592">
        <ele>1893.4</ele>
        <time>2021-06-05T09:22:15Z</time>
      </trkpt>
      <trkpt lat="45.63592" lon="6.74591">
        <ele>1894.2</ele>
        <time>2021-06-05T09:22:18Z</time>
      </trkpt>
      <trkpt lat="45.63594" lon="6.74589">
        <ele>1894.8</ele>
        <time>2021-06-05T09:22:21Z</time>
      </trkpt>
      <trkpt lat="45.63595" lon="6.74587">
        <ele>1895</ele>
        <time>2021-06-05T09:22:23Z</time>
      </trkpt>
      <trkpt lat="45.63596" lon="6.74584">
        <ele>1895.6</ele>
        <time>2021-06-05T09:22:26Z</time>
      </trkpt>
      <trkpt lat="45.63598" lon="6.74582">
        <ele>1895.8</ele>
        <time>2021-06-05T09:22:29Z</time>
      </trkpt>
      <trkpt lat="45.636" lon="6.74581">
        <ele>1896.6</ele>
        <time>2021-06-05T09:22:32Z</time>
      </trkpt>
      <trkpt lat="45.63602" lon="6.74581">
        <ele>1896.8</ele>
        <time>2021-06-05T09:22:35Z</time>
      </trkpt>
      <trkpt lat="45.63604" lon="6.74582">
        <ele>1897.2</ele>
        <time>2021-06-05T09:22:37Z</time>
      </trkpt>
      <trkpt lat="45.63606" lon="6.74583">
        <ele>1897.8</ele>
        <time>2021-06-05T09:22:39Z</time>
      </trkpt>
      <trkpt lat="45.63608" lon="6.74583">
        <ele>1898.2</ele>
        <time>2021-06-05T09:22:41Z</time>
      </trkpt>
      <trkpt lat="45.63611" lon="6.74584">
        <ele>1899.2</ele>
        <time>2021-06-05T09:22:43Z</time>
      </trkpt>
      <trkpt lat="45.63613" lon="6.74585">
        <ele>1900.4</ele>
        <time>2021-06-05T09:22:45Z</time>
      </trkpt>
      <trkpt lat="45.63615" lon="6.74586">
        <ele>1901</ele>
        <time>2021-06-05T09:22:47Z</time>
      </trkpt>
      <trkpt lat="45.63617" lon="6.74586">
        <ele>1902</ele>
        <time>2021-06-05T09:22:49Z</time>
      </trkpt>
      <trkpt lat="45.6362" lon="6.74586">
        <ele>1903.2</ele>
        <time>2021-06-05T09:22:51Z</time>
      </trkpt>
      <trkpt lat="45.63623" lon="6.74586">
        <ele>1903.6</ele>
        <time>2021-06-05T09:22:53Z</time>
      </trkpt>
      <trkpt lat="45.63625" lon="6.74584">
        <ele>1905</ele>
        <time>2021-06-05T09:22:56Z</time>
      </trkpt>
      <trkpt lat="45.63626" lon="6.74581">
        <ele>1905.8</ele>
        <time>2021-06-05T09:22:58Z</time>
      </trkpt>
      <trkpt lat="45.63627" lon="6.74578">
        <ele>1906.2</ele>
        <time>2021-06-05T09:23:01Z</time>
      </trkpt>
      <trkpt lat="45.63628" lon="6.74576">
        <ele>1906.4</ele>
        <time>2021-06-05T09:23:03Z</time>
      </trkpt>
      <trkpt lat="45.63628" lon="6.74573">
        <ele>1907</ele>
        <time>2021-06-05T09:23:05Z</time>
      </trkpt>
      <trkpt lat="45.63629" lon="6.7457">
        <ele>1907.4</ele>
        <time>2021-06-05T09:23:07Z</time>
      </trkpt>
      <trkpt lat="45.6363" lon="6.74568">
        <ele>1907.8</ele>
        <time>2021-06-05T09:23:09Z</time>
      </trkpt>
      <trkpt lat="45.63631" lon="6.74564">
        <ele>1908.4</ele>
        <time>2021-06-05T09:23:12Z</time>
      </trkpt>
      <trkpt lat="45.63631" lon="6.74561">
        <ele>1909.2</ele>
        <time>2021-06-05T09:23:14Z</time>
      </trkpt>
      <trkpt lat="45.6363" lon="6.74557">
        <ele>1910.2</ele>
        <time>2021-06-05T09:23:16Z</time>
      </trkpt>
      <trkpt lat="45.63629" lon="6.74554">
        <ele>1911.4</ele>
        <time>2021-06-05T09:23:18Z</time>
      </trkpt>
      <trkpt lat="45.63629" lon="6.7455">
        <ele>1913.2</ele>
        <time>2021-06-05T09:23:20Z</time>
      </trkpt>
      <trkpt lat="45.63628" lon="6.74547">
        <ele>1915</ele>
        <time>2021-06-05T09:23:22Z</time>
      </trkpt>
      <trkpt lat="45.63628" lon="6.74542">
        <ele>1916.6</ele>
        <time>2021-06-05T09:23:24Z</time>
      </trkpt>
      <trkpt lat="45.63627" lon="6.74538">
        <ele>1918.4</ele>
        <time>2021-06-05T09:23:26Z</time>
      </trkpt>
      <trkpt lat="45.63628" lon="6.74534">
        <ele>1920.4</ele>
        <time>2021-06-05T09:23:28Z</time>
      </trkpt>
      <trkpt lat="45.63629" lon="6.74532">
        <ele>1922.6</ele>
        <time>2021-06-05T09:23:30Z</time>
      </trkpt>
      <trkpt lat="45.63629" lon="6.74529">
        <ele>1924</ele>
        <time>2021-06-05T09:23:32Z</time>
      </trkpt>
      <trkpt lat="45.63629" lon="6.74526">
        <ele>1925.6</ele>
        <time>2021-06-05T09:23:34Z</time>
      </trkpt>
      <trkpt lat="45.63629" lon="6.74523">
        <ele>1927</ele>
        <time>2021-06-05T09:23:36Z</time>
      </trkpt>
      <trkpt lat="45.63629" lon="6.74519">
        <ele>1927.6</ele>
        <time>2021-06-05T09:23:39Z</time>
      </trkpt>
      <trkpt lat="45.6363" lon="6.74516">
        <ele>1927.8</ele>
        <time>2021-06-05T09:23:42Z</time>
      </trkpt>
      <trkpt lat="45.63631" lon="6.74513">
        <ele>1928.6</ele>
        <time>2021-06-05T09:23:45Z</time>
      </trkpt>
      <trkpt lat="45.63631" lon="6.7451">
        <ele>1929.6</ele>
        <time>2021-06-05T09:23:47Z</time>
      </trkpt>
      <trkpt lat="45.63631" lon="6.74506">
        <ele>1931.4</ele>
        <time>2021-06-05T09:23:49Z</time>
      </trkpt>
      <trkpt lat="45.63632" lon="6.74503">
        <ele>1933.2</ele>
        <time>2021-06-05T09:23:52Z</time>
      </trkpt>
      <trkpt lat="45.63632" lon="6.745">
        <ele>1934.6</ele>
        <time>2021-06-05T09:23:54Z</time>
      </trkpt>
      <trkpt lat="45.63633" lon="6.74497">
        <ele>1936.2</ele>
        <time>2021-06-05T09:23:57Z</time>
      </trkpt>
      <trkpt lat="45.63632" lon="6.74494">
        <ele>1937.6</ele>
        <time>2021-06-05T09:24:00Z</time>
      </trkpt>
      <trkpt lat="45.63631" lon="6.7449">
        <ele>1938.8</ele>
        <time>2021-06-05T09:24:02Z</time>
      </trkpt>
      <trkpt lat="45.63632" lon="6.74488">
        <ele>1939.8</ele>
        <time>2021-06-05T09:24:05Z</time>
      </trkpt>
      <trkpt lat="45.63633" lon="6.74485">
        <ele>1940.6</ele>
        <time>2021-06-05T09:24:07Z</time>
      </trkpt>
      <trkpt lat="45.63634" lon="6.74482">
        <ele>1940.6</ele>
        <time>2021-06-05T09:24:10Z</time>
      </trkpt>
      <trkpt lat="45.63634" lon="6.74479">
        <ele>1940.6</ele>
        <time>2021-06-05T09:24:13Z</time>
      </trkpt>
      <trkpt lat="45.63634" lon="6.74476">
        <ele>1940.2</ele>
        <time>2021-06-05T09:24:15Z</time>
      </trkpt>
      <trkpt lat="45.63633" lon="6.74473">
        <ele>1940</ele>
        <time>2021-06-05T09:24:17Z</time>
      </trkpt>
      <trkpt lat="45.63633" lon="6.74471">
        <ele>1940.2</ele>
        <time>2021-06-05T09:24:19Z</time>
      </trkpt>
      <trkpt lat="45.63633" lon="6.74468">
        <ele>1939.8</ele>
        <time>2021-06-05T09:24:21Z</time>
      </trkpt>
      <trkpt lat="45.63632" lon="6.74465">
        <ele>1939.8</ele>
        <time>2021-06-05T09:24:23Z</time>
      </trkpt>
      <trkpt lat="45.63632" lon="6.74462">
        <ele>1939.6</ele>
        <time>2021-06-05T09:24:26Z</time>
      </trkpt>
      <trkpt lat="45.63632" lon="6.74459">
        <ele>1940.2</ele>
        <time>2021-06-05T09:24:30Z</time>
      </trkpt>
      <trkpt lat="45.63632" lon="6.74456">
        <ele>1940.4</ele>
        <time>2021-06-05T09:24:32Z</time>
      </trkpt>
      <trkpt lat="45.63633" lon="6.74453">
        <ele>1940.8</ele>
        <time>2021-06-05T09:24:36Z</time>
      </trkpt>
      <trkpt lat="45.63632" lon="6.7445">
        <ele>1940.8</ele>
        <time>2021-06-05T09:24:39Z</time>
      </trkpt>
      <trkpt lat="45.63631" lon="6.74448">
        <ele>1941.2</ele>
        <time>2021-06-05T09:24:42Z</time>
      </trkpt>
      <trkpt lat="45.6363" lon="6.74445">
        <ele>1941.6</ele>
        <time>2021-06-05T09:24:44Z</time>
      </trkpt>
      <trkpt lat="45.63631" lon="6.74443">
        <ele>1942</ele>
        <time>2021-06-05T09:24:46Z</time>
      </trkpt>
      <trkpt lat="45.63633" lon="6.7444">
        <ele>1942.6</ele>
        <time>2021-06-05T09:24:49Z</time>
      </trkpt>
      <trkpt lat="45.63634" lon="6.74437">
        <ele>1944.2</ele>
        <time>2021-06-05T09:24:52Z</time>
      </trkpt>
      <trkpt lat="45.63636" lon="6.74435">
        <ele>1946</ele>
        <time>2021-06-05T09:24:55Z</time>
      </trkpt>
      <trkpt lat="45.63637" lon="6.74433">
        <ele>1947</ele>
        <time>2021-06-05T09:24:57Z</time>
      </trkpt>
      <trkpt lat="45.63638" lon="6.74432">
        <ele>1948.4</ele>
        <time>2021-06-05T09:24:59Z</time>
      </trkpt>
      <trkpt lat="45.6364" lon="6.7443">
        <ele>1949.4</ele>
        <time>2021-06-05T09:25:01Z</time>
      </trkpt>
      <trkpt lat="45.63641" lon="6.74428">
        <ele>1950.6</ele>
        <time>2021-06-05T09:25:03Z</time>
      </trkpt>
      <trkpt lat="45.63644" lon="6.74427">
        <ele>1951.4</ele>
        <time>2021-06-05T09:25:05Z</time>
      </trkpt>
      <trkpt lat="45.63645" lon="6.74425">
        <ele>1952.4</ele>
        <time>2021-06-05T09:25:07Z</time>
      </trkpt>
      <trkpt lat="45.63647" lon="6.74423">
        <ele>1953.2</ele>
        <time>2021-06-05T09:25:09Z</time>
      </trkpt>
      <trkpt lat="45.63648" lon="6.74421">
        <ele>1954</ele>
        <time>2021-06-05T09:25:11Z</time>
      </trkpt>
      <trkpt lat="45.63649" lon="6.74418">
        <ele>1955.2</ele>
        <time>2021-06-05T09:25:13Z</time>
      </trkpt>
      <trkpt lat="45.63651" lon="6.74416">
        <ele>1956.4</ele>
        <time>2021-06-05T09:25:15Z</time>
      </trkpt>
      <trkpt lat="45.63653" lon="6.74414">
        <ele>1957.4</ele>
        <time>2021-06-05T09:25:17Z</time>
      </trkpt>
      <trkpt lat="45.63655" lon="6.74414">
        <ele>1958.4</ele>
        <time>2021-06-05T09:25:18Z</time>
      </trkpt>
      <trkpt lat="45.63657" lon="6.74412">
        <ele>1959.2</ele>
        <time>2021-06-05T09:25:19Z</time>
      </trkpt>
      <trkpt lat="45.63659" lon="6.7441">
        <ele>1960.4</ele>
        <time>2021-06-05T09:25:21Z</time>
      </trkpt>
      <trkpt lat="45.63661" lon="6.74408">
        <ele>1961.6</ele>
        <time>2021-06-05T09:25:23Z</time>
      </trkpt>
      <trkpt lat="45.63663" lon="6.74405">
        <ele>1962.8</ele>
        <time>2021-06-05T09:25:25Z</time>
      </trkpt>
      <trkpt lat="45.63666" lon="6.74403">
        <ele>1963.6</ele>
        <time>2021-06-05T09:25:27Z</time>
      </trkpt>
      <trkpt lat="45.63668" lon="6.74401">
        <ele>1964.6</ele>
        <time>2021-06-05T09:25:29Z</time>
      </trkpt>
      <trkpt lat="45.63671" lon="6.74398">
        <ele>1964.8</ele>
        <time>2021-06-05T09:25:31Z</time>
      </trkpt>
      <trkpt lat="45.63673" lon="6.74398">
        <ele>1965.4</ele>
        <time>2021-06-05T09:25:32Z</time>
      </trkpt>
      <trkpt lat="45.63676" lon="6.74396">
        <ele>1966.4</ele>
        <time>2021-06-05T09:25:34Z</time>
      </trkpt>
      <trkpt lat="45.63679" lon="6.74395">
        <ele>1967</ele>
        <time>2021-06-05T09:25:36Z</time>
      </trkpt>
      <trkpt lat="45.63681" lon="6.74395">
        <ele>1967.4</ele>
        <time>2021-06-05T09:25:38Z</time>
      </trkpt>
      <trkpt lat="45.63683" lon="6.74393">
        <ele>1968.2</ele>
        <time>2021-06-05T09:25:41Z</time>
      </trkpt>
      <trkpt lat="45.63685" lon="6.74392">
        <ele>1969</ele>
        <time>2021-06-05T09:25:44Z</time>
      </trkpt>
      <trkpt lat="45.63686" lon="6.7439">
        <ele>1969.4</ele>
        <time>2021-06-05T09:25:46Z</time>
      </trkpt>
      <trkpt lat="45.63688" lon="6.74388">
        <ele>1969.4</ele>
        <time>2021-06-05T09:25:48Z</time>
      </trkpt>
      <trkpt lat="45.6369" lon="6.74385">
        <ele>1970.4</ele>
        <time>2021-06-05T09:25:51Z</time>
      </trkpt>
      <trkpt lat="45.63692" lon="6.74383">
        <ele>1971.6</ele>
        <time>2021-06-05T09:25:54Z</time>
      </trkpt>
      <trkpt lat="45.63694" lon="6.74382">
        <ele>1972.2</ele>
        <time>2021-06-05T09:25:56Z</time>
      </trkpt>
      <trkpt lat="45.63695" lon="6.74379">
        <ele>1973.2</ele>
        <time>2021-06-05T09:25:59Z</time>
      </trkpt>
      <trkpt lat="45.63697" lon="6.74376">
        <ele>1974.6</ele>
        <time>2021-06-05T09:26:02Z</time>
      </trkpt>
      <trkpt lat="45.63699" lon="6.74375">
        <ele>1975.4</ele>
        <time>2021-06-05T09:26:05Z</time>
      </trkpt>
      <trkpt lat="45.637" lon="6.74373">
        <ele>1976.2</ele>
        <time>2021-06-05T09:26:08Z</time>
      </trkpt>
      <trkpt lat="45.63702" lon="6.74371">
        <ele>1976.6</ele>
        <time>2021-06-05T09:26:10Z</time>
      </trkpt>
      <trkpt lat="45.63703" lon="6.74368">
        <ele>1977.2</ele>
        <time>2021-06-05T09:26:13Z</time>
      </trkpt>
      <trkpt lat="45.63705" lon="6.74366">
        <ele>1977.6</ele>
        <time>2021-06-05T09:26:15Z</time>
      </trkpt>
      <trkpt lat="45.63706" lon="6.74364">
        <ele>1978</ele>
        <time>2021-06-05T09:26:18Z</time>
      </trkpt>
      <trkpt lat="45.63708" lon="6.74363">
        <ele>1978.6</ele>
        <time>2021-06-05T09:26:21Z</time>
      </trkpt>
      <trkpt lat="45.6371" lon="6.74362">
        <ele>1978.6</ele>
        <time>2021-06-05T09:26:23Z</time>
      </trkpt>
      <trkpt lat="45.63712" lon="6.74361">
        <ele>1978.8</ele>
        <time>2021-06-05T09:26:26Z</time>
      </trkpt>
      <trkpt lat="45.63714" lon="6.74359">
        <ele>1979.4</ele>
        <time>2021-06-05T09:26:29Z</time>
      </trkpt>
      <trkpt lat="45.63716" lon="6.74357">
        <ele>1980.4</ele>
        <time>2021-06-05T09:26:32Z</time>
      </trkpt>
      <trkpt lat="45.63718" lon="6.74355">
        <ele>1981.4</ele>
        <time>2021-06-05T09:26:35Z</time>
      </trkpt>
      <trkpt lat="45.63721" lon="6.74354">
        <ele>1982</ele>
        <time>2021-06-05T09:26:38Z</time>
      </trkpt>
      <trkpt lat="45.63723" lon="6.74353">
        <ele>1982.2</ele>
        <time>2021-06-05T09:26:41Z</time>
      </trkpt>
      <trkpt lat="45.63725" lon="6.74352">
        <ele>1983</ele>
        <time>2021-06-05T09:26:43Z</time>
      </trkpt>
      <trkpt lat="45.63727" lon="6.74352">
        <ele>1983.6</ele>
        <time>2021-06-05T09:26:45Z</time>
      </trkpt>
      <trkpt lat="45.63728" lon="6.74351">
        <ele>1984.4</ele>
        <time>2021-06-05T09:26:47Z</time>
      </trkpt>
      <trkpt lat="45.6373" lon="6.74349">
        <ele>1985.2</ele>
        <time>2021-06-05T09:26:49Z</time>
      </trkpt>
      <trkpt lat="45.63732" lon="6.74347">
        <ele>1985.8</ele>
        <time>2021-06-05T09:26:51Z</time>
      </trkpt>
      <trkpt lat="45.63733" lon="6.74345">
        <ele>1986.8</ele>
        <time>2021-06-05T09:26:53Z</time>
      </trkpt>
      <trkpt lat="45.63735" lon="6.74344">
        <ele>1987.6</ele>
        <time>2021-06-05T09:26:55Z</time>
      </trkpt>
      <trkpt lat="45.63737" lon="6.74342">
        <ele>1988.6</ele>
        <time>2021-06-05T09:26:57Z</time>
      </trkpt>
      <trkpt lat="45.6374" lon="6.7434">
        <ele>1989.6</ele>
        <time>2021-06-05T09:27:00Z</time>
      </trkpt>
      <trkpt lat="45.63742" lon="6.74337">
        <ele>1990.4</ele>
        <time>2021-06-05T09:27:02Z</time>
      </trkpt>
      <trkpt lat="45.63743" lon="6.74335">
        <ele>1991</ele>
        <time>2021-06-05T09:27:03Z</time>
      </trkpt>
      <trkpt lat="45.63745" lon="6.74333">
        <ele>1991.4</ele>
        <time>2021-06-05T09:27:04Z</time>
      </trkpt>
      <trkpt lat="45.63747" lon="6.74332">
        <ele>1991.6</ele>
        <time>2021-06-05T09:27:05Z</time>
      </trkpt>
      <trkpt lat="45.63748" lon="6.7433">
        <ele>1991.8</ele>
        <time>2021-06-05T09:27:06Z</time>
      </trkpt>
      <trkpt lat="45.6375" lon="6.74328">
        <ele>1991.8</ele>
        <time>2021-06-05T09:27:07Z</time>
      </trkpt>
      <trkpt lat="45.63752" lon="6.74326">
        <ele>1992.2</ele>
        <time>2021-06-05T09:27:08Z</time>
      </trkpt>
      <trkpt lat="45.63754" lon="6.74324">
        <ele>1992.2</ele>
        <time>2021-06-05T09:27:09Z</time>
      </trkpt>
      <trkpt lat="45.63756" lon="6.74323">
        <ele>1992.2</ele>
        <time>2021-06-05T09:27:10Z</time>
      </trkpt>
      <trkpt lat="45.63758" lon="6.7432">
        <ele>1993</ele>
        <time>2021-06-05T09:27:12Z</time>
      </trkpt>
      <trkpt lat="45.6376" lon="6.74318">
        <ele>1993.4</ele>
        <time>2021-06-05T09:27:13Z</time>
      </trkpt>
      <trkpt lat="45.63762" lon="6.74316">
        <ele>1994.2</ele>
        <time>2021-06-05T09:27:14Z</time>
      </trkpt>
      <trkpt lat="45.63764" lon="6.74313">
        <ele>1995.4</ele>
        <time>2021-06-05T09:27:16Z</time>
      </trkpt>
      <trkpt lat="45.63766" lon="6.74309">
        <ele>1996.2</ele>
        <time>2021-06-05T09:27:18Z</time>
      </trkpt>
      <trkpt lat="45.63769" lon="6.74306">
        <ele>1997.2</ele>
        <time>2021-06-05T09:27:20Z</time>
      </trkpt>
      <trkpt lat="45.63771" lon="6.74304">
        <ele>1997.8</ele>
        <time>2021-06-05T09:27:21Z</time>
      </trkpt>
      <trkpt lat="45.63772" lon="6.74302">
        <ele>1997.8</ele>
        <time>2021-06-05T09:27:22Z</time>
      </trkpt>
      <trkpt lat="45.63774" lon="6.743">
        <ele>1997.8</ele>
        <time>2021-06-05T09:27:23Z</time>
      </trkpt>
      <trkpt lat="45.63776" lon="6.74298">
        <ele>1998.6</ele>
        <time>2021-06-05T09:27:24Z</time>
      </trkpt>
      <trkpt lat="45.63778" lon="6.74296">
        <ele>1998.8</ele>
        <time>2021-06-05T09:27:25Z</time>
      </trkpt>
      <trkpt lat="45.6378" lon="6.74294">
        <ele>1998.8</ele>
        <time>2021-06-05T09:27:26Z</time>
      </trkpt>
      <trkpt lat="45.63781" lon="6.74293">
        <ele>1999.4</ele>
        <time>2021-06-05T09:27:27Z</time>
      </trkpt>
      <trkpt lat="45.63783" lon="6.74292">
        <ele>1999.6</ele>
        <time>2021-06-05T09:27:28Z</time>
      </trkpt>
      <trkpt lat="45.63787" lon="6.74288">
        <ele>2000.4</ele>
        <time>2021-06-05T09:27:30Z</time>
      </trkpt>
      <trkpt lat="45.63788" lon="6.74286">
        <ele>2000.8</ele>
        <time>2021-06-05T09:27:31Z</time>
      </trkpt>
      <trkpt lat="45.6379" lon="6.74283">
        <ele>2001.2</ele>
        <time>2021-06-05T09:27:32Z</time>
      </trkpt>
      <trkpt lat="45.63791" lon="6.7428">
        <ele>2000.8</ele>
        <time>2021-06-05T09:27:33Z</time>
      </trkpt>
      <trkpt lat="45.63792" lon="6.74277">
        <ele>2001</ele>
        <time>2021-06-05T09:27:34Z</time>
      </trkpt>
      <trkpt lat="45.63794" lon="6.74275">
        <ele>2001.4</ele>
        <time>2021-06-05T09:27:35Z</time>
      </trkpt>
      <trkpt lat="45.63795" lon="6.74272">
        <ele>2001.4</ele>
        <time>2021-06-05T09:27:36Z</time>
      </trkpt>
      <trkpt lat="45.63796" lon="6.7427">
        <ele>2001.2</ele>
        <time>2021-06-05T09:27:37Z</time>
      </trkpt>
      <trkpt lat="45.63798" lon="6.74267">
        <ele>2001.4</ele>
        <time>2021-06-05T09:27:39Z</time>
      </trkpt>
      <trkpt lat="45.63799" lon="6.74264">
        <ele>2001.6</ele>
        <time>2021-06-05T09:27:41Z</time>
      </trkpt>
      <trkpt lat="45.638" lon="6.74261">
        <ele>2001.8</ele>
        <time>2021-06-05T09:27:43Z</time>
      </trkpt>
      <trkpt lat="45.638" lon="6.74258">
        <ele>2001.8</ele>
        <time>2021-06-05T09:27:45Z</time>
      </trkpt>
      <trkpt lat="45.63802" lon="6.74257">
        <ele>2002.6</ele>
        <time>2021-06-05T09:27:47Z</time>
      </trkpt>
      <trkpt lat="45.63804" lon="6.74257">
        <ele>2003.8</ele>
        <time>2021-06-05T09:27:58Z</time>
      </trkpt>
      <trkpt lat="45.638" lon="6.74254">
        <ele>1978</ele>
        <time>2021-06-05T09:30:47Z</time>
      </trkpt>
      <trkpt lat="45.638" lon="6.74257">
        <ele>1978.2</ele>
        <time>2021-06-05T09:30:48Z</time>
      </trkpt>
      <trkpt lat="45.63798" lon="6.7426">
        <ele>1978</ele>
        <time>2021-06-05T09:30:49Z</time>
      </trkpt>
      <trkpt lat="45.63797" lon="6.74264">
        <ele>1977.4</ele>
        <time>2021-06-05T09:30:50Z</time>
      </trkpt>
      <trkpt lat="45.63796" lon="6.74267">
        <ele>1977.2</ele>
        <time>2021-06-05T09:30:51Z</time>
      </trkpt>
      <trkpt lat="45.63795" lon="6.74272">
        <ele>1977</ele>
        <time>2021-06-05T09:30:52Z</time>
      </trkpt>
      <trkpt lat="45.63795" lon="6.74276">
        <ele>1977.2</ele>
        <time>2021-06-05T09:30:53Z</time>
      </trkpt>
      <trkpt lat="45.63794" lon="6.7428">
        <ele>1977</ele>
        <time>2021-06-05T09:30:54Z</time>
      </trkpt>
      <trkpt lat="45.63793" lon="6.74284">
        <ele>1977</ele>
        <time>2021-06-05T09:30:55Z</time>
      </trkpt>
      <trkpt lat="45.63792" lon="6.74288">
        <ele>1977.6</ele>
        <time>2021-06-05T09:30:56Z</time>
      </trkpt>
      <trkpt lat="45.6379" lon="6.7429">
        <ele>1978.2</ele>
        <time>2021-06-05T09:30:57Z</time>
      </trkpt>
      <trkpt lat="45.63789" lon="6.74293">
        <ele>1979</ele>
        <time>2021-06-05T09:30:58Z</time>
      </trkpt>
      <trkpt lat="45.63787" lon="6.74295">
        <ele>1979.6</ele>
        <time>2021-06-05T09:30:59Z</time>
      </trkpt>
      <trkpt lat="45.63784" lon="6.74297">
        <ele>1980.2</ele>
        <time>2021-06-05T09:31:00Z</time>
      </trkpt>
      <trkpt lat="45.63782" lon="6.74299">
        <ele>1981.4</ele>
        <time>2021-06-05T09:31:01Z</time>
      </trkpt>
      <trkpt lat="45.6378" lon="6.743">
        <ele>1981.8</ele>
        <time>2021-06-05T09:31:02Z</time>
      </trkpt>
      <trkpt lat="45.63778" lon="6.74302">
        <ele>1982.2</ele>
        <time>2021-06-05T09:31:03Z</time>
      </trkpt>
      <trkpt lat="45.63776" lon="6.74304">
        <ele>1983.2</ele>
        <time>2021-06-05T09:31:04Z</time>
      </trkpt>
      <trkpt lat="45.63774" lon="6.74306">
        <ele>1983.8</ele>
        <time>2021-06-05T09:31:05Z</time>
      </trkpt>
      <trkpt lat="45.63772" lon="6.74308">
        <ele>1984.4</ele>
        <time>2021-06-05T09:31:06Z</time>
      </trkpt>
      <trkpt lat="45.6377" lon="6.7431">
        <ele>1985.2</ele>
        <time>2021-06-05T09:31:07Z</time>
      </trkpt>
      <trkpt lat="45.63768" lon="6.74312">
        <ele>1985.6</ele>
        <time>2021-06-05T09:31:08Z</time>
      </trkpt>
      <trkpt lat="45.63766" lon="6.74314">
        <ele>1986</ele>
        <time>2021-06-05T09:31:09Z</time>
      </trkpt>
      <trkpt lat="45.63764" lon="6.74316">
        <ele>1986.6</ele>
        <time>2021-06-05T09:31:10Z</time>
      </trkpt>
      <trkpt lat="45.63762" lon="6.74318">
        <ele>1987</ele>
        <time>2021-06-05T09:31:11Z</time>
      </trkpt>
      <trkpt lat="45.6376" lon="6.7432">
        <ele>1987.2</ele>
        <time>2021-06-05T09:31:12Z</time>
      </trkpt>
      <trkpt lat="45.63758" lon="6.74322">
        <ele>1987.2</ele>
        <time>2021-06-05T09:31:13Z</time>
      </trkpt>
      <trkpt lat="45.63756" lon="6.74324">
        <ele>1987</ele>
        <time>2021-06-05T09:31:14Z</time>
      </trkpt>
      <trkpt lat="45.63755" lon="6.74326">
        <ele>1987.2</ele>
        <time>2021-06-05T09:31:15Z</time>
      </trkpt>
      <trkpt lat="45.63752" lon="6.74329">
        <ele>1987.4</ele>
        <time>2021-06-05T09:31:16Z</time>
      </trkpt>
      <trkpt lat="45.6375" lon="6.7433">
        <ele>1987.2</ele>
        <time>2021-06-05T09:31:17Z</time>
      </trkpt>
      <trkpt lat="45.63748" lon="6.7433">
        <ele>1987.6</ele>
        <time>2021-06-05T09:31:18Z</time>
      </trkpt>
      <trkpt lat="45.63744" lon="6.74333">
        <ele>1988.2</ele>
        <time>2021-06-05T09:31:20Z</time>
      </trkpt>
      <trkpt lat="45.63743" lon="6.74335">
        <ele>1988.4</ele>
        <time>2021-06-05T09:31:21Z</time>
      </trkpt>
      <trkpt lat="45.63741" lon="6.74338">
        <ele>1988.6</ele>
        <time>2021-06-05T09:31:22Z</time>
      </trkpt>
      <trkpt lat="45.6374" lon="6.7434">
        <ele>1989.2</ele>
        <time>2021-06-05T09:31:23Z</time>
      </trkpt>
      <trkpt lat="45.63738" lon="6.74342">
        <ele>1989.6</ele>
        <time>2021-06-05T09:31:24Z</time>
      </trkpt>
      <trkpt lat="45.63736" lon="6.74344">
        <ele>1989.6</ele>
        <time>2021-06-05T09:31:25Z</time>
      </trkpt>
      <trkpt lat="45.63734" lon="6.74346">
        <ele>1989.8</ele>
        <time>2021-06-05T09:31:26Z</time>
      </trkpt>
      <trkpt lat="45.63732" lon="6.7435">
        <ele>1989.4</ele>
        <time>2021-06-05T09:31:28Z</time>
      </trkpt>
      <trkpt lat="45.63731" lon="6.74352">
        <ele>1989.2</ele>
        <time>2021-06-05T09:31:29Z</time>
      </trkpt>
      <trkpt lat="45.63729" lon="6.74353">
        <ele>1989.2</ele>
        <time>2021-06-05T09:31:30Z</time>
      </trkpt>
      <trkpt lat="45.63727" lon="6.74354">
        <ele>1989</ele>
        <time>2021-06-05T09:31:31Z</time>
      </trkpt>
      <trkpt lat="45.63725" lon="6.74356">
        <ele>1988.6</ele>
        <time>2021-06-05T09:31:32Z</time>
      </trkpt>
      <trkpt lat="45.63724" lon="6.74357">
        <ele>1988.6</ele>
        <time>2021-06-05T09:31:33Z</time>
      </trkpt>
      <trkpt lat="45.63722" lon="6.74358">
        <ele>1988.8</ele>
        <time>2021-06-05T09:31:34Z</time>
      </trkpt>
      <trkpt lat="45.6372" lon="6.74359">
        <ele>1988.8</ele>
        <time>2021-06-05T09:31:35Z</time>
      </trkpt>
      <trkpt lat="45.63718" lon="6.7436">
        <ele>1988.4</ele>
        <time>2021-06-05T09:31:36Z</time>
      </trkpt>
      <trkpt lat="45.63717" lon="6.74362">
        <ele>1988.4</ele>
        <time>2021-06-05T09:31:37Z</time>
      </trkpt>
      <trkpt lat="45.63715" lon="6.74363">
        <ele>1987.6</ele>
        <time>2021-06-05T09:31:38Z</time>
      </trkpt>
      <trkpt lat="45.63712" lon="6.74366">
        <ele>1987.8</ele>
        <time>2021-06-05T09:31:40Z</time>
      </trkpt>
      <trkpt lat="45.63709" lon="6.74368">
        <ele>1987.8</ele>
        <time>2021-06-05T09:31:42Z</time>
      </trkpt>
      <trkpt lat="45.63707" lon="6.74372">
        <ele>1987.6</ele>
        <time>2021-06-05T09:31:44Z</time>
      </trkpt>
      <trkpt lat="45.63703" lon="6.74378">
        <ele>1987.4</ele>
        <time>2021-06-05T09:31:47Z</time>
      </trkpt>
      <trkpt lat="45.637" lon="6.74381">
        <ele>1987.6</ele>
        <time>2021-06-05T09:31:49Z</time>
      </trkpt>
      <trkpt lat="45.63697" lon="6.74384">
        <ele>1987.4</ele>
        <time>2021-06-05T09:31:51Z</time>
      </trkpt>
      <trkpt lat="45.63695" lon="6.74386">
        <ele>1987.2</ele>
        <time>2021-06-05T09:31:53Z</time>
      </trkpt>
      <trkpt lat="45.63692" lon="6.74389">
        <ele>1986.6</ele>
        <time>2021-06-05T09:31:55Z</time>
      </trkpt>
      <trkpt lat="45.6369" lon="6.74391">
        <ele>1986.6</ele>
        <time>2021-06-05T09:31:57Z</time>
      </trkpt>
      <trkpt lat="45.63687" lon="6.74393">
        <ele>1985.8</ele>
        <time>2021-06-05T09:31:59Z</time>
      </trkpt>
      <trkpt lat="45.63684" lon="6.74393">
        <ele>1984.6</ele>
        <time>2021-06-05T09:32:01Z</time>
      </trkpt>
      <trkpt lat="45.63682" lon="6.74395">
        <ele>1984</ele>
        <time>2021-06-05T09:32:03Z</time>
      </trkpt>
      <trkpt lat="45.63677" lon="6.744">
        <ele>1983.8</ele>
        <time>2021-06-05T09:32:06Z</time>
      </trkpt>
      <trkpt lat="45.63676" lon="6.74402">
        <ele>1983</ele>
        <time>2021-06-05T09:32:07Z</time>
      </trkpt>
      <trkpt lat="45.63674" lon="6.74403">
        <ele>1982.6</ele>
        <time>2021-06-05T09:32:08Z</time>
      </trkpt>
      <trkpt lat="45.63672" lon="6.74405">
        <ele>1981.8</ele>
        <time>2021-06-05T09:32:09Z</time>
      </trkpt>
      <trkpt lat="45.6367" lon="6.74406">
        <ele>1981.6</ele>
        <time>2021-06-05T09:32:10Z</time>
      </trkpt>
      <trkpt lat="45.63668" lon="6.74408">
        <ele>1981.8</ele>
        <time>2021-06-05T09:32:11Z</time>
      </trkpt>
      <trkpt lat="45.63665" lon="6.74411">
        <ele>1981.2</ele>
        <time>2021-06-05T09:32:13Z</time>
      </trkpt>
      <trkpt lat="45.63663" lon="6.74412">
        <ele>1980.8</ele>
        <time>2021-06-05T09:32:14Z</time>
      </trkpt>
      <trkpt lat="45.63661" lon="6.74414">
        <ele>1980.4</ele>
        <time>2021-06-05T09:32:15Z</time>
      </trkpt>
      <trkpt lat="45.6366" lon="6.74415">
        <ele>1980</ele>
        <time>2021-06-05T09:32:16Z</time>
      </trkpt>
      <trkpt lat="45.63658" lon="6.74417">
        <ele>1980</ele>
        <time>2021-06-05T09:32:17Z</time>
      </trkpt>
      <trkpt lat="45.63656" lon="6.74418">
        <ele>1979.6</ele>
        <time>2021-06-05T09:32:18Z</time>
      </trkpt>
      <trkpt lat="45.63654" lon="6.7442">
        <ele>1979.4</ele>
        <time>2021-06-05T09:32:19Z</time>
      </trkpt>
      <trkpt lat="45.63652" lon="6.74423">
        <ele>1978.4</ele>
        <time>2021-06-05T09:32:21Z</time>
      </trkpt>
      <trkpt lat="45.63649" lon="6.74426">
        <ele>1977.6</ele>
        <time>2021-06-05T09:32:23Z</time>
      </trkpt>
      <trkpt lat="45.63647" lon="6.74428">
        <ele>1977.2</ele>
        <time>2021-06-05T09:32:24Z</time>
      </trkpt>
      <trkpt lat="45.63645" lon="6.74431">
        <ele>1976.6</ele>
        <time>2021-06-05T09:32:26Z</time>
      </trkpt>
      <trkpt lat="45.63643" lon="6.74432">
        <ele>1975.4</ele>
        <time>2021-06-05T09:32:27Z</time>
      </trkpt>
      <trkpt lat="45.63641" lon="6.74435">
        <ele>1974.6</ele>
        <time>2021-06-05T09:32:29Z</time>
      </trkpt>
      <trkpt lat="45.63639" lon="6.74437">
        <ele>1974.2</ele>
        <time>2021-06-05T09:32:30Z</time>
      </trkpt>
      <trkpt lat="45.63637" lon="6.7444">
        <ele>1973.8</ele>
        <time>2021-06-05T09:32:32Z</time>
      </trkpt>
      <trkpt lat="45.63635" lon="6.74444">
        <ele>1972.6</ele>
        <time>2021-06-05T09:32:34Z</time>
      </trkpt>
      <trkpt lat="45.63634" lon="6.74447">
        <ele>1971.6</ele>
        <time>2021-06-05T09:32:36Z</time>
      </trkpt>
      <trkpt lat="45.63633" lon="6.7445">
        <ele>1970.8</ele>
        <time>2021-06-05T09:32:38Z</time>
      </trkpt>
      <trkpt lat="45.63633" lon="6.74454">
        <ele>1969.2</ele>
        <time>2021-06-05T09:32:40Z</time>
      </trkpt>
      <trkpt lat="45.63633" lon="6.74458">
        <ele>1967.2</ele>
        <time>2021-06-05T09:32:42Z</time>
      </trkpt>
      <trkpt lat="45.63635" lon="6.74462">
        <ele>1965.6</ele>
        <time>2021-06-05T09:32:44Z</time>
      </trkpt>
      <trkpt lat="45.63635" lon="6.74466">
        <ele>1963.4</ele>
        <time>2021-06-05T09:32:46Z</time>
      </trkpt>
      <trkpt lat="45.63635" lon="6.7447">
        <ele>1961.4</ele>
        <time>2021-06-05T09:32:48Z</time>
      </trkpt>
      <trkpt lat="45.63635" lon="6.74475">
        <ele>1959</ele>
        <time>2021-06-05T09:32:50Z</time>
      </trkpt>
      <trkpt lat="45.63636" lon="6.74478">
        <ele>1958</ele>
        <time>2021-06-05T09:32:51Z</time>
      </trkpt>
      <trkpt lat="45.63636" lon="6.74482">
        <ele>1955.6</ele>
        <time>2021-06-05T09:32:53Z</time>
      </trkpt>
      <trkpt lat="45.63636" lon="6.74486">
        <ele>1953.8</ele>
        <time>2021-06-05T09:32:55Z</time>
      </trkpt>
      <trkpt lat="45.63635" lon="6.7449">
        <ele>1952.6</ele>
        <time>2021-06-05T09:32:57Z</time>
      </trkpt>
      <trkpt lat="45.63635" lon="6.74494">
        <ele>1951.2</ele>
        <time>2021-06-05T09:32:59Z</time>
      </trkpt>
      <trkpt lat="45.63635" lon="6.74498">
        <ele>1949.4</ele>
        <time>2021-06-05T09:33:01Z</time>
      </trkpt>
      <trkpt lat="45.63635" lon="6.74503">
        <ele>1948</ele>
        <time>2021-06-05T09:33:03Z</time>
      </trkpt>
      <trkpt lat="45.63634" lon="6.74507">
        <ele>1946.6</ele>
        <time>2021-06-05T09:33:05Z</time>
      </trkpt>
      <trkpt lat="45.63633" lon="6.7451">
        <ele>1946</ele>
        <time>2021-06-05T09:33:06Z</time>
      </trkpt>
      <trkpt lat="45.63633" lon="6.74514">
        <ele>1945</ele>
        <time>2021-06-05T09:33:08Z</time>
      </trkpt>
      <trkpt lat="45.63633" lon="6.74518">
        <ele>1944.2</ele>
        <time>2021-06-05T09:33:10Z</time>
      </trkpt>
      <trkpt lat="45.63633" lon="6.74522">
        <ele>1942.8</ele>
        <time>2021-06-05T09:33:12Z</time>
      </trkpt>
      <trkpt lat="45.63632" lon="6.74526">
        <ele>1941.6</ele>
        <time>2021-06-05T09:33:14Z</time>
      </trkpt>
      <trkpt lat="45.63631" lon="6.74529">
        <ele>1941.4</ele>
        <time>2021-06-05T09:33:15Z</time>
      </trkpt>
      <trkpt lat="45.63632" lon="6.74534">
        <ele>1940.6</ele>
        <time>2021-06-05T09:33:17Z</time>
      </trkpt>
      <trkpt lat="45.63631" lon="6.74539">
        <ele>1939.8</ele>
        <time>2021-06-05T09:33:19Z</time>
      </trkpt>
      <trkpt lat="45.63631" lon="6.74544">
        <ele>1939.2</ele>
        <time>2021-06-05T09:33:21Z</time>
      </trkpt>
      <trkpt lat="45.63631" lon="6.74549">
        <ele>1938.4</ele>
        <time>2021-06-05T09:33:23Z</time>
      </trkpt>
      <trkpt lat="45.63632" lon="6.74554">
        <ele>1937</ele>
        <time>2021-06-05T09:33:25Z</time>
      </trkpt>
      <trkpt lat="45.63632" lon="6.74556">
        <ele>1937</ele>
        <time>2021-06-05T09:33:26Z</time>
      </trkpt>
      <trkpt lat="45.63633" lon="6.74561">
        <ele>1936.4</ele>
        <time>2021-06-05T09:33:28Z</time>
      </trkpt>
      <trkpt lat="45.63633" lon="6.74566">
        <ele>1936</ele>
        <time>2021-06-05T09:33:30Z</time>
      </trkpt>
      <trkpt lat="45.63632" lon="6.7457">
        <ele>1935.6</ele>
        <time>2021-06-05T09:33:32Z</time>
      </trkpt>
      <trkpt lat="45.63632" lon="6.74575">
        <ele>1934.4</ele>
        <time>2021-06-05T09:33:34Z</time>
      </trkpt>
      <trkpt lat="45.63631" lon="6.74579">
        <ele>1933.4</ele>
        <time>2021-06-05T09:33:36Z</time>
      </trkpt>
      <trkpt lat="45.63629" lon="6.74583">
        <ele>1932.8</ele>
        <time>2021-06-05T09:33:38Z</time>
      </trkpt>
      <trkpt lat="45.63628" lon="6.74587">
        <ele>1932</ele>
        <time>2021-06-05T09:33:40Z</time>
      </trkpt>
      <trkpt lat="45.63625" lon="6.74589">
        <ele>1931.2</ele>
        <time>2021-06-05T09:33:42Z</time>
      </trkpt>
      <trkpt lat="45.63623" lon="6.74589">
        <ele>1930.6</ele>
        <time>2021-06-05T09:33:43Z</time>
      </trkpt>
      <trkpt lat="45.63621" lon="6.74589">
        <ele>1930.2</ele>
        <time>2021-06-05T09:33:44Z</time>
      </trkpt>
      <trkpt lat="45.63619" lon="6.74589">
        <ele>1929.4</ele>
        <time>2021-06-05T09:33:45Z</time>
      </trkpt>
      <trkpt lat="45.63617" lon="6.74588">
        <ele>1928.6</ele>
        <time>2021-06-05T09:33:46Z</time>
      </trkpt>
      <trkpt lat="45.63615" lon="6.74588">
        <ele>1927.6</ele>
        <time>2021-06-05T09:33:47Z</time>
      </trkpt>
      <trkpt lat="45.63613" lon="6.74588">
        <ele>1927.4</ele>
        <time>2021-06-05T09:33:48Z</time>
      </trkpt>
      <trkpt lat="45.63611" lon="6.74588">
        <ele>1926.8</ele>
        <time>2021-06-05T09:33:49Z</time>
      </trkpt>
      <trkpt lat="45.63609" lon="6.74587">
        <ele>1926.6</ele>
        <time>2021-06-05T09:33:50Z</time>
      </trkpt>
      <trkpt lat="45.63607" lon="6.74587">
        <ele>1926.2</ele>
        <time>2021-06-05T09:33:51Z</time>
      </trkpt>
      <trkpt lat="45.63603" lon="6.74586">
        <ele>1925</ele>
        <time>2021-06-05T09:33:53Z</time>
      </trkpt>
      <trkpt lat="45.636" lon="6.74587">
        <ele>1923.8</ele>
        <time>2021-06-05T09:33:55Z</time>
      </trkpt>
      <trkpt lat="45.63598" lon="6.74589">
        <ele>1922.4</ele>
        <time>2021-06-05T09:33:57Z</time>
      </trkpt>
      <trkpt lat="45.63596" lon="6.74593">
        <ele>1921.8</ele>
        <time>2021-06-05T09:33:59Z</time>
      </trkpt>
      <trkpt lat="45.63595" lon="6.74594">
        <ele>1921.2</ele>
        <time>2021-06-05T09:34:00Z</time>
      </trkpt>
      <trkpt lat="45.63592" lon="6.74596">
        <ele>1920</ele>
        <time>2021-06-05T09:34:02Z</time>
      </trkpt>
      <trkpt lat="45.63589" lon="6.74598">
        <ele>1918.8</ele>
        <time>2021-06-05T09:34:04Z</time>
      </trkpt>
      <trkpt lat="45.63586" lon="6.74598">
        <ele>1917.8</ele>
        <time>2021-06-05T09:34:06Z</time>
      </trkpt>
      <trkpt lat="45.63583" lon="6.74598">
        <ele>1916.8</ele>
        <time>2021-06-05T09:34:08Z</time>
      </trkpt>
      <trkpt lat="45.63581" lon="6.74599">
        <ele>1916</ele>
        <time>2021-06-05T09:34:09Z</time>
      </trkpt>
      <trkpt lat="45.63579" lon="6.74598">
        <ele>1915.6</ele>
        <time>2021-06-05T09:34:10Z</time>
      </trkpt>
      <trkpt lat="45.63577" lon="6.74598">
        <ele>1915.2</ele>
        <time>2021-06-05T09:34:11Z</time>
      </trkpt>
      <trkpt lat="45.63575" lon="6.74598">
        <ele>1914.8</ele>
        <time>2021-06-05T09:34:12Z</time>
      </trkpt>
      <trkpt lat="45.63572" lon="6.74599">
        <ele>1913.6</ele>
        <time>2021-06-05T09:34:14Z</time>
      </trkpt>
      <trkpt lat="45.6357" lon="6.74602">
        <ele>1912.6</ele>
        <time>2021-06-05T09:34:16Z</time>
      </trkpt>
      <trkpt lat="45.63568" lon="6.74605">
        <ele>1911.8</ele>
        <time>2021-06-05T09:34:18Z</time>
      </trkpt>
      <trkpt lat="45.63565" lon="6.74607">
        <ele>1910</ele>
        <time>2021-06-05T09:34:20Z</time>
      </trkpt>
      <trkpt lat="45.63564" lon="6.74608">
        <ele>1909.2</ele>
        <time>2021-06-05T09:34:21Z</time>
      </trkpt>
      <trkpt lat="45.63562" lon="6.74609">
        <ele>1908.4</ele>
        <time>2021-06-05T09:34:22Z</time>
      </trkpt>
      <trkpt lat="45.63561" lon="6.74611">
        <ele>1907.8</ele>
        <time>2021-06-05T09:34:23Z</time>
      </trkpt>
      <trkpt lat="45.63559" lon="6.74613">
        <ele>1906.4</ele>
        <time>2021-06-05T09:34:24Z</time>
      </trkpt>
      <trkpt lat="45.63559" lon="6.74616">
        <ele>1905.6</ele>
        <time>2021-06-05T09:34:25Z</time>
      </trkpt>
      <trkpt lat="45.63558" lon="6.74619">
        <ele>1905</ele>
        <time>2021-06-05T09:34:26Z</time>
      </trkpt>
      <trkpt lat="45.63557" lon="6.74621">
        <ele>1904.6</ele>
        <time>2021-06-05T09:34:27Z</time>
      </trkpt>
      <trkpt lat="45.63556" lon="6.74626">
        <ele>1903.8</ele>
        <time>2021-06-05T09:34:29Z</time>
      </trkpt>
      <trkpt lat="45.63555" lon="6.74631">
        <ele>1902.2</ele>
        <time>2021-06-05T09:34:31Z</time>
      </trkpt>
      <trkpt lat="45.63555" lon="6.74636">
        <ele>1900.6</ele>
        <time>2021-06-05T09:34:33Z</time>
      </trkpt>
      <trkpt lat="45.63554" lon="6.74638">
        <ele>1900</ele>
        <time>2021-06-05T09:34:34Z</time>
      </trkpt>
      <trkpt lat="45.63554" lon="6.74641">
        <ele>1899</ele>
        <time>2021-06-05T09:34:35Z</time>
      </trkpt>
      <trkpt lat="45.63552" lon="6.74646">
        <ele>1898</ele>
        <time>2021-06-05T09:34:37Z</time>
      </trkpt>
      <trkpt lat="45.63551" lon="6.74648">
        <ele>1897.8</ele>
        <time>2021-06-05T09:34:38Z</time>
      </trkpt>
      <trkpt lat="45.63549" lon="6.74652">
        <ele>1897</ele>
        <time>2021-06-05T09:34:40Z</time>
      </trkpt>
      <trkpt lat="45.63548" lon="6.74656">
        <ele>1895.8</ele>
        <time>2021-06-05T09:34:42Z</time>
      </trkpt>
      <trkpt lat="45.63547" lon="6.74659">
        <ele>1895.8</ele>
        <time>2021-06-05T09:34:43Z</time>
      </trkpt>
      <trkpt lat="45.63546" lon="6.74662">
        <ele>1895.2</ele>
        <time>2021-06-05T09:34:44Z</time>
      </trkpt>
      <trkpt lat="45.63544" lon="6.74664">
        <ele>1894.4</ele>
        <time>2021-06-05T09:34:45Z</time>
      </trkpt>
      <trkpt lat="45.63543" lon="6.74667">
        <ele>1893.6</ele>
        <time>2021-06-05T09:34:46Z</time>
      </trkpt>
      <trkpt lat="45.63542" lon="6.7467">
        <ele>1892.8</ele>
        <time>2021-06-05T09:34:47Z</time>
      </trkpt>
      <trkpt lat="45.63541" lon="6.74673">
        <ele>1891.8</ele>
        <time>2021-06-05T09:34:49Z</time>
      </trkpt>
      <trkpt lat="45.6354" lon="6.74676">
        <ele>1890.4</ele>
        <time>2021-06-05T09:34:51Z</time>
      </trkpt>
      <trkpt lat="45.63538" lon="6.7468">
        <ele>1888.8</ele>
        <time>2021-06-05T09:34:53Z</time>
      </trkpt>
      <trkpt lat="45.63537" lon="6.74683">
        <ele>1887</ele>
        <time>2021-06-05T09:34:55Z</time>
      </trkpt>
      <trkpt lat="45.63536" lon="6.74687">
        <ele>1885.2</ele>
        <time>2021-06-05T09:34:57Z</time>
      </trkpt>
      <trkpt lat="45.63535" lon="6.74692">
        <ele>1883.4</ele>
        <time>2021-06-05T09:34:59Z</time>
      </trkpt>
      <trkpt lat="45.63533" lon="6.74696">
        <ele>1881.4</ele>
        <time>2021-06-05T09:35:01Z</time>
      </trkpt>
      <trkpt lat="45.63532" lon="6.74701">
        <ele>1880</ele>
        <time>2021-06-05T09:35:03Z</time>
      </trkpt>
      <trkpt lat="45.63531" lon="6.74705">
        <ele>1877.8</ele>
        <time>2021-06-05T09:35:05Z</time>
      </trkpt>
      <trkpt lat="45.6353" lon="6.74708">
        <ele>1877</ele>
        <time>2021-06-05T09:35:06Z</time>
      </trkpt>
      <trkpt lat="45.63529" lon="6.7471">
        <ele>1876.6</ele>
        <time>2021-06-05T09:35:07Z</time>
      </trkpt>
      <trkpt lat="45.63528" lon="6.74713">
        <ele>1876.2</ele>
        <time>2021-06-05T09:35:08Z</time>
      </trkpt>
      <trkpt lat="45.63527" lon="6.74715">
        <ele>1875.8</ele>
        <time>2021-06-05T09:35:09Z</time>
      </trkpt>
      <trkpt lat="45.63526" lon="6.74718">
        <ele>1875.2</ele>
        <time>2021-06-05T09:35:10Z</time>
      </trkpt>
      <trkpt lat="45.63524" lon="6.74722">
        <ele>1874.2</ele>
        <time>2021-06-05T09:35:12Z</time>
      </trkpt>
      <trkpt lat="45.63523" lon="6.74726">
        <ele>1873.4</ele>
        <time>2021-06-05T09:35:14Z</time>
      </trkpt>
      <trkpt lat="45.63522" lon="6.74731">
        <ele>1872.4</ele>
        <time>2021-06-05T09:35:16Z</time>
      </trkpt>
      <trkpt lat="45.6352" lon="6.74734">
        <ele>1871.2</ele>
        <time>2021-06-05T09:35:18Z</time>
      </trkpt>
      <trkpt lat="45.63518" lon="6.74738">
        <ele>1869.8</ele>
        <time>2021-06-05T09:35:20Z</time>
      </trkpt>
      <trkpt lat="45.63516" lon="6.74741">
        <ele>1868.6</ele>
        <time>2021-06-05T09:35:22Z</time>
      </trkpt>
      <trkpt lat="45.63513" lon="6.74744">
        <ele>1867.2</ele>
        <time>2021-06-05T09:35:24Z</time>
      </trkpt>
      <trkpt lat="45.63511" lon="6.74747">
        <ele>1866.2</ele>
        <time>2021-06-05T09:35:26Z</time>
      </trkpt>
      <trkpt lat="45.63509" lon="6.74751">
        <ele>1865</ele>
        <time>2021-06-05T09:35:28Z</time>
      </trkpt>
      <trkpt lat="45.63507" lon="6.74754">
        <ele>1863.8</ele>
        <time>2021-06-05T09:35:30Z</time>
      </trkpt>
      <trkpt lat="45.63505" lon="6.74758">
        <ele>1862.4</ele>
        <time>2021-06-05T09:35:32Z</time>
      </trkpt>
      <trkpt lat="45.63504" lon="6.7476">
        <ele>1861.8</ele>
        <time>2021-06-05T09:35:33Z</time>
      </trkpt>
      <trkpt lat="45.63502" lon="6.74762">
        <ele>1861.2</ele>
        <time>2021-06-05T09:35:34Z</time>
      </trkpt>
      <trkpt lat="45.635" lon="6.74764">
        <ele>1850.2</ele>
        <time>2021-06-05T09:35:56Z</time>
      </trkpt>
      <trkpt lat="45.63499" lon="6.74768">
        <ele>1849.2</ele>
        <time>2021-06-05T09:35:58Z</time>
      </trkpt>
      <trkpt lat="45.63496" lon="6.74771">
        <ele>1848.4</ele>
        <time>2021-06-05T09:36:00Z</time>
      </trkpt>
      <trkpt lat="45.63494" lon="6.74774">
        <ele>1847.6</ele>
        <time>2021-06-05T09:36:02Z</time>
      </trkpt>
      <trkpt lat="45.63491" lon="6.74778">
        <ele>1847</ele>
        <time>2021-06-05T09:36:04Z</time>
      </trkpt>
      <trkpt lat="45.63489" lon="6.7478">
        <ele>1846.4</ele>
        <time>2021-06-05T09:36:06Z</time>
      </trkpt>
      <trkpt lat="45.63488" lon="6.74781">
        <ele>1846</ele>
        <time>2021-06-05T09:36:07Z</time>
      </trkpt>
      <trkpt lat="45.63484" lon="6.74784">
        <ele>1845.4</ele>
        <time>2021-06-05T09:36:09Z</time>
      </trkpt>
      <trkpt lat="45.63482" lon="6.74786">
        <ele>1844.2</ele>
        <time>2021-06-05T09:36:11Z</time>
      </trkpt>
      <trkpt lat="45.6348" lon="6.74788">
        <ele>1843.8</ele>
        <time>2021-06-05T09:36:12Z</time>
      </trkpt>
      <trkpt lat="45.63478" lon="6.74789">
        <ele>1843.4</ele>
        <time>2021-06-05T09:36:13Z</time>
      </trkpt>
      <trkpt lat="45.63477" lon="6.7479">
        <ele>1842.8</ele>
        <time>2021-06-05T09:36:14Z</time>
      </trkpt>
      <trkpt lat="45.63474" lon="6.74793">
        <ele>1841.8</ele>
        <time>2021-06-05T09:36:16Z</time>
      </trkpt>
      <trkpt lat="45.63472" lon="6.74796">
        <ele>1840.4</ele>
        <time>2021-06-05T09:36:18Z</time>
      </trkpt>
      <trkpt lat="45.6347" lon="6.74799">
        <ele>1839</ele>
        <time>2021-06-05T09:36:20Z</time>
      </trkpt>
      <trkpt lat="45.63468" lon="6.74802">
        <ele>1837.6</ele>
        <time>2021-06-05T09:36:22Z</time>
      </trkpt>
      <trkpt lat="45.63467" lon="6.74804">
        <ele>1836.6</ele>
        <time>2021-06-05T09:36:23Z</time>
      </trkpt>
      <trkpt lat="45.63465" lon="6.74808">
        <ele>1835.4</ele>
        <time>2021-06-05T09:36:25Z</time>
      </trkpt>
      <trkpt lat="45.63464" lon="6.74812">
        <ele>1834</ele>
        <time>2021-06-05T09:36:27Z</time>
      </trkpt>
      <trkpt lat="45.63464" lon="6.74815">
        <ele>1833.6</ele>
        <time>2021-06-05T09:36:28Z</time>
      </trkpt>
      <trkpt lat="45.63464" lon="6.74818">
        <ele>1832.8</ele>
        <time>2021-06-05T09:36:29Z</time>
      </trkpt>
      <trkpt lat="45.63464" lon="6.7482">
        <ele>1832.4</ele>
        <time>2021-06-05T09:36:30Z</time>
      </trkpt>
      <trkpt lat="45.63466" lon="6.74823">
        <ele>1831.4</ele>
        <time>2021-06-05T09:36:31Z</time>
      </trkpt>
      <trkpt lat="45.63467" lon="6.74825">
        <ele>1830.8</ele>
        <time>2021-06-05T09:36:32Z</time>
      </trkpt>
      <trkpt lat="45.63468" lon="6.74828">
        <ele>1829.8</ele>
        <time>2021-06-05T09:36:33Z</time>
      </trkpt>
      <trkpt lat="45.6347" lon="6.7483">
        <ele>1829.4</ele>
        <time>2021-06-05T09:36:34Z</time>
      </trkpt>
      <trkpt lat="45.63472" lon="6.74834">
        <ele>1828.2</ele>
        <time>2021-06-05T09:36:36Z</time>
      </trkpt>
      <trkpt lat="45.63474" lon="6.74836">
        <ele>1827.6</ele>
        <time>2021-06-05T09:36:37Z</time>
      </trkpt>
      <trkpt lat="45.63476" lon="6.74836">
        <ele>1827</ele>
        <time>2021-06-05T09:36:38Z</time>
      </trkpt>
      <trkpt lat="45.63478" lon="6.74837">
        <ele>1826.6</ele>
        <time>2021-06-05T09:36:39Z</time>
      </trkpt>
      <trkpt lat="45.6348" lon="6.74838">
        <ele>1826.4</ele>
        <time>2021-06-05T09:36:40Z</time>
      </trkpt>
      <trkpt lat="45.63482" lon="6.74839">
        <ele>1825.8</ele>
        <time>2021-06-05T09:36:41Z</time>
      </trkpt>
      <trkpt lat="45.63484" lon="6.7484">
        <ele>1825.6</ele>
        <time>2021-06-05T09:36:42Z</time>
      </trkpt>
      <trkpt lat="45.63486" lon="6.7484">
        <ele>1825.8</ele>
        <time>2021-06-05T09:36:43Z</time>
      </trkpt>
      <trkpt lat="45.6349" lon="6.74842">
        <ele>1825.2</ele>
        <time>2021-06-05T09:36:45Z</time>
      </trkpt>
      <trkpt lat="45.63491" lon="6.74844">
        <ele>1824.8</ele>
        <time>2021-06-05T09:36:46Z</time>
      </trkpt>
      <trkpt lat="45.63492" lon="6.74847">
        <ele>1824.6</ele>
        <time>2021-06-05T09:36:47Z</time>
      </trkpt>
      <trkpt lat="45.63494" lon="6.74849">
        <ele>1823.8</ele>
        <time>2021-06-05T09:36:48Z</time>
      </trkpt>
      <trkpt lat="45.63496" lon="6.74854">
        <ele>1823.6</ele>
        <time>2021-06-05T09:36:50Z</time>
      </trkpt>
      <trkpt lat="45.63497" lon="6.74856">
        <ele>1823.2</ele>
        <time>2021-06-05T09:36:51Z</time>
      </trkpt>
      <trkpt lat="45.63497" lon="6.74859">
        <ele>1822.8</ele>
        <time>2021-06-05T09:36:52Z</time>
      </trkpt>
      <trkpt lat="45.63497" lon="6.74862">
        <ele>1822.4</ele>
        <time>2021-06-05T09:36:53Z</time>
      </trkpt>
      <trkpt lat="45.63498" lon="6.74865">
        <ele>1822</ele>
        <time>2021-06-05T09:36:54Z</time>
      </trkpt>
      <trkpt lat="45.63497" lon="6.74868">
        <ele>1821.6</ele>
        <time>2021-06-05T09:36:55Z</time>
      </trkpt>
      <trkpt lat="45.63496" lon="6.7487">
        <ele>1821</ele>
        <time>2021-06-05T09:36:56Z</time>
      </trkpt>
      <trkpt lat="45.63496" lon="6.74873">
        <ele>1820.8</ele>
        <time>2021-06-05T09:36:57Z</time>
      </trkpt>
      <trkpt lat="45.63495" lon="6.74876">
        <ele>1820.2</ele>
        <time>2021-06-05T09:36:58Z</time>
      </trkpt>
      <trkpt lat="45.63494" lon="6.74878">
        <ele>1819.8</ele>
        <time>2021-06-05T09:36:59Z</time>
      </trkpt>
      <trkpt lat="45.63493" lon="6.74881">
        <ele>1819</ele>
        <time>2021-06-05T09:37:00Z</time>
      </trkpt>
      <trkpt lat="45.63492" lon="6.74883">
        <ele>1818.4</ele>
        <time>2021-06-05T09:37:01Z</time>
      </trkpt>
      <trkpt lat="45.63489" lon="6.74885">
        <ele>1817.8</ele>
        <time>2021-06-05T09:37:02Z</time>
      </trkpt>
      <trkpt lat="45.63487" lon="6.74886">
        <ele>1817.8</ele>
        <time>2021-06-05T09:37:03Z</time>
      </trkpt>
      <trkpt lat="45.63484" lon="6.74886">
        <ele>1817.6</ele>
        <time>2021-06-05T09:37:04Z</time>
      </trkpt>
      <trkpt lat="45.63482" lon="6.74886">
        <ele>1817.2</ele>
        <time>2021-06-05T09:37:05Z</time>
      </trkpt>
      <trkpt lat="45.6348" lon="6.74886">
        <ele>1817.2</ele>
        <time>2021-06-05T09:37:06Z</time>
      </trkpt>
      <trkpt lat="45.63478" lon="6.74885">
        <ele>1817</ele>
        <time>2021-06-05T09:37:07Z</time>
      </trkpt>
      <trkpt lat="45.63476" lon="6.74884">
        <ele>1817.2</ele>
        <time>2021-06-05T09:37:08Z</time>
      </trkpt>
      <trkpt lat="45.63474" lon="6.74884">
        <ele>1816.8</ele>
        <time>2021-06-05T09:37:09Z</time>
      </trkpt>
      <trkpt lat="45.63472" lon="6.74885">
        <ele>1816.6</ele>
        <time>2021-06-05T09:37:10Z</time>
      </trkpt>
      <trkpt lat="45.63472" lon="6.74889">
        <ele>1816.8</ele>
        <time>2021-06-05T09:37:12Z</time>
      </trkpt>
      <trkpt lat="45.63472" lon="6.74894">
        <ele>1816.2</ele>
        <time>2021-06-05T09:37:14Z</time>
      </trkpt>
      <trkpt lat="45.63473" lon="6.74897">
        <ele>1815.6</ele>
        <time>2021-06-05T09:37:15Z</time>
      </trkpt>
      <trkpt lat="45.63474" lon="6.74899">
        <ele>1815.4</ele>
        <time>2021-06-05T09:37:16Z</time>
      </trkpt>
      <trkpt lat="45.63474" lon="6.74902">
        <ele>1814.4</ele>
        <time>2021-06-05T09:37:17Z</time>
      </trkpt>
      <trkpt lat="45.63474" lon="6.74904">
        <ele>1814</ele>
        <time>2021-06-05T09:37:18Z</time>
      </trkpt>
      <trkpt lat="45.63475" lon="6.74907">
        <ele>1813.8</ele>
        <time>2021-06-05T09:37:19Z</time>
      </trkpt>
      <trkpt lat="45.63475" lon="6.7491">
        <ele>1813.4</ele>
        <time>2021-06-05T09:37:20Z</time>
      </trkpt>
      <trkpt lat="45.63476" lon="6.74912">
        <ele>1813.2</ele>
        <time>2021-06-05T09:37:21Z</time>
      </trkpt>
      <trkpt lat="45.63476" lon="6.74917">
        <ele>1812</ele>
        <time>2021-06-05T09:37:23Z</time>
      </trkpt>
      <trkpt lat="45.63477" lon="6.7492">
        <ele>1811.4</ele>
        <time>2021-06-05T09:37:24Z</time>
      </trkpt>
      <trkpt lat="45.63478" lon="6.74925">
        <ele>1810.4</ele>
        <time>2021-06-05T09:37:26Z</time>
      </trkpt>
      <trkpt lat="45.63479" lon="6.74927">
        <ele>1809.8</ele>
        <time>2021-06-05T09:37:27Z</time>
      </trkpt>
      <trkpt lat="45.6348" lon="6.7493">
        <ele>1808.2</ele>
        <time>2021-06-05T09:37:28Z</time>
      </trkpt>
      <trkpt lat="45.63481" lon="6.74932">
        <ele>1807.6</ele>
        <time>2021-06-05T09:37:29Z</time>
      </trkpt>
      <trkpt lat="45.63483" lon="6.74935">
        <ele>1807.4</ele>
        <time>2021-06-05T09:37:30Z</time>
      </trkpt>
      <trkpt lat="45.63484" lon="6.74938">
        <ele>1806.8</ele>
        <time>2021-06-05T09:37:31Z</time>
      </trkpt>
      <trkpt lat="45.63484" lon="6.7494">
        <ele>1806</ele>
        <time>2021-06-05T09:37:32Z</time>
      </trkpt>
      <trkpt lat="45.63486" lon="6.74942">
        <ele>1805.8</ele>
        <time>2021-06-05T09:37:33Z</time>
      </trkpt>
      <trkpt lat="45.63487" lon="6.74945">
        <ele>1805.2</ele>
        <time>2021-06-05T09:37:34Z</time>
      </trkpt>
      <trkpt lat="45.63488" lon="6.74948">
        <ele>1804.6</ele>
        <time>2021-06-05T09:37:35Z</time>
      </trkpt>
      <trkpt lat="45.6349" lon="6.7495">
        <ele>1804.4</ele>
        <time>2021-06-05T09:37:36Z</time>
      </trkpt>
      <trkpt lat="45.63491" lon="6.74952">
        <ele>1804.2</ele>
        <time>2021-06-05T09:37:37Z</time>
      </trkpt>
      <trkpt lat="45.63492" lon="6.74955">
        <ele>1803.6</ele>
        <time>2021-06-05T09:37:38Z</time>
      </trkpt>
      <trkpt lat="45.63493" lon="6.74958">
        <ele>1803.8</ele>
        <time>2021-06-05T09:37:39Z</time>
      </trkpt>
      <trkpt lat="45.63494" lon="6.7496">
        <ele>1803</ele>
        <time>2021-06-05T09:37:40Z</time>
      </trkpt>
      <trkpt lat="45.63494" lon="6.74963">
        <ele>1802.6</ele>
        <time>2021-06-05T09:37:41Z</time>
      </trkpt>
      <trkpt lat="45.63494" lon="6.74966">
        <ele>1802.6</ele>
        <time>2021-06-05T09:37:42Z</time>
      </trkpt>
      <trkpt lat="45.63493" lon="6.74968">
        <ele>1802.2</ele>
        <time>2021-06-05T09:37:43Z</time>
      </trkpt>
      <trkpt lat="45.63492" lon="6.74971">
        <ele>1801.6</ele>
        <time>2021-06-05T09:37:44Z</time>
      </trkpt>
      <trkpt lat="45.63491" lon="6.74975">
        <ele>1801.4</ele>
        <time>2021-06-05T09:37:46Z</time>
      </trkpt>
      <trkpt lat="45.6349" lon="6.7498">
        <ele>1800.4</ele>
        <time>2021-06-05T09:37:48Z</time>
      </trkpt>
      <trkpt lat="45.63489" lon="6.74982">
        <ele>1800</ele>
        <time>2021-06-05T09:37:49Z</time>
      </trkpt>
      <trkpt lat="45.63488" lon="6.74985">
        <ele>1799.8</ele>
        <time>2021-06-05T09:37:50Z</time>
      </trkpt>
      <trkpt lat="45.63486" lon="6.74987">
        <ele>1799.4</ele>
        <time>2021-06-05T09:37:51Z</time>
      </trkpt>
      <trkpt lat="45.63485" lon="6.7499">
        <ele>1799.4</ele>
        <time>2021-06-05T09:37:52Z</time>
      </trkpt>
      <trkpt lat="45.63484" lon="6.74992">
        <ele>1798.8</ele>
        <time>2021-06-05T09:37:53Z</time>
      </trkpt>
      <trkpt lat="45.63483" lon="6.74994">
        <ele>1799</ele>
        <time>2021-06-05T09:37:54Z</time>
      </trkpt>
      <trkpt lat="45.6348" lon="6.74997">
        <ele>1798.2</ele>
        <time>2021-06-05T09:37:56Z</time>
      </trkpt>
      <trkpt lat="45.63478" lon="6.75">
        <ele>1796.8</ele>
        <time>2021-06-05T09:37:58Z</time>
      </trkpt>
      <trkpt lat="45.63476" lon="6.75004">
        <ele>1795.8</ele>
        <time>2021-06-05T09:38:00Z</time>
      </trkpt>
      <trkpt lat="45.63474" lon="6.75007">
        <ele>1794.8</ele>
        <time>2021-06-05T09:38:02Z</time>
      </trkpt>
      <trkpt lat="45.63473" lon="6.7501">
        <ele>1793.4</ele>
        <time>2021-06-05T09:38:04Z</time>
      </trkpt>
      <trkpt lat="45.63471" lon="6.75014">
        <ele>1792</ele>
        <time>2021-06-05T09:38:06Z</time>
      </trkpt>
      <trkpt lat="45.63468" lon="6.75017">
        <ele>1790.4</ele>
        <time>2021-06-05T09:38:08Z</time>
      </trkpt>
      <trkpt lat="45.63466" lon="6.75018">
        <ele>1789.4</ele>
        <time>2021-06-05T09:38:09Z</time>
      </trkpt>
      <trkpt lat="45.63464" lon="6.7502">
        <ele>1788.8</ele>
        <time>2021-06-05T09:38:10Z</time>
      </trkpt>
      <trkpt lat="45.6346" lon="6.75022">
        <ele>1788.4</ele>
        <time>2021-06-05T09:38:12Z</time>
      </trkpt>
      <trkpt lat="45.63457" lon="6.75024">
        <ele>1786.6</ele>
        <time>2021-06-05T09:38:14Z</time>
      </trkpt>
      <trkpt lat="45.63455" lon="6.75025">
        <ele>1786.6</ele>
        <time>2021-06-05T09:38:15Z</time>
      </trkpt>
      <trkpt lat="45.63453" lon="6.75026">
        <ele>1786.4</ele>
        <time>2021-06-05T09:38:16Z</time>
      </trkpt>
      <trkpt lat="45.63451" lon="6.75028">
        <ele>1785.8</ele>
        <time>2021-06-05T09:38:17Z</time>
      </trkpt>
      <trkpt lat="45.63449" lon="6.75028">
        <ele>1786</ele>
        <time>2021-06-05T09:38:18Z</time>
      </trkpt>
      <trkpt lat="45.63447" lon="6.75029">
        <ele>1785.4</ele>
        <time>2021-06-05T09:38:19Z</time>
      </trkpt>
      <trkpt lat="45.63444" lon="6.75029">
        <ele>1785.2</ele>
        <time>2021-06-05T09:38:20Z</time>
      </trkpt>
      <trkpt lat="45.63442" lon="6.75029">
        <ele>1784.8</ele>
        <time>2021-06-05T09:38:21Z</time>
      </trkpt>
      <trkpt lat="45.6344" lon="6.75029">
        <ele>1784.6</ele>
        <time>2021-06-05T09:38:22Z</time>
      </trkpt>
      <trkpt lat="45.63438" lon="6.75029">
        <ele>1784.2</ele>
        <time>2021-06-05T09:38:23Z</time>
      </trkpt>
      <trkpt lat="45.63436" lon="6.7503">
        <ele>1784</ele>
        <time>2021-06-05T09:38:24Z</time>
      </trkpt>
      <trkpt lat="45.63434" lon="6.75031">
        <ele>1783.6</ele>
        <time>2021-06-05T09:38:25Z</time>
      </trkpt>
      <trkpt lat="45.63432" lon="6.75033">
        <ele>1783.2</ele>
        <time>2021-06-05T09:38:26Z</time>
      </trkpt>
      <trkpt lat="45.6343" lon="6.75034">
        <ele>1783.2</ele>
        <time>2021-06-05T09:38:27Z</time>
      </trkpt>
      <trkpt lat="45.63427" lon="6.75036">
        <ele>1782.8</ele>
        <time>2021-06-05T09:38:29Z</time>
      </trkpt>
      <trkpt lat="45.63425" lon="6.75037">
        <ele>1782.4</ele>
        <time>2021-06-05T09:38:30Z</time>
      </trkpt>
      <trkpt lat="45.63423" lon="6.75038">
        <ele>1782.2</ele>
        <time>2021-06-05T09:38:31Z</time>
      </trkpt>
      <trkpt lat="45.6342" lon="6.7504">
        <ele>1781.6</ele>
        <time>2021-06-05T09:38:33Z</time>
      </trkpt>
      <trkpt lat="45.63418" lon="6.75044">
        <ele>1781.4</ele>
        <time>2021-06-05T09:38:35Z</time>
      </trkpt>
      <trkpt lat="45.63418" lon="6.75047">
        <ele>1780.8</ele>
        <time>2021-06-05T09:38:36Z</time>
      </trkpt>
      <trkpt lat="45.63417" lon="6.75049">
        <ele>1780</ele>
        <time>2021-06-05T09:38:37Z</time>
      </trkpt>
      <trkpt lat="45.63415" lon="6.75054">
        <ele>1778.8</ele>
        <time>2021-06-05T09:38:39Z</time>
      </trkpt>
      <trkpt lat="45.63414" lon="6.75056">
        <ele>1778</ele>
        <time>2021-06-05T09:38:40Z</time>
      </trkpt>
      <trkpt lat="45.63413" lon="6.75058">
        <ele>1777.4</ele>
        <time>2021-06-05T09:38:41Z</time>
      </trkpt>
      <trkpt lat="45.63412" lon="6.75061">
        <ele>1776.8</ele>
        <time>2021-06-05T09:38:42Z</time>
      </trkpt>
      <trkpt lat="45.63411" lon="6.75063">
        <ele>1776.6</ele>
        <time>2021-06-05T09:38:43Z</time>
      </trkpt>
      <trkpt lat="45.63409" lon="6.75066">
        <ele>1776.2</ele>
        <time>2021-06-05T09:38:44Z</time>
      </trkpt>
      <trkpt lat="45.63407" lon="6.7507">
        <ele>1775</ele>
        <time>2021-06-05T09:38:46Z</time>
      </trkpt>
      <trkpt lat="45.63406" lon="6.75072">
        <ele>1774.4</ele>
        <time>2021-06-05T09:38:47Z</time>
      </trkpt>
      <trkpt lat="45.63405" lon="6.75074">
        <ele>1774.2</ele>
        <time>2021-06-05T09:38:48Z</time>
      </trkpt>
      <trkpt lat="45.63403" lon="6.75076">
        <ele>1773.6</ele>
        <time>2021-06-05T09:38:49Z</time>
      </trkpt>
      <trkpt lat="45.63403" lon="6.75081">
        <ele>1773.2</ele>
        <time>2021-06-05T09:38:51Z</time>
      </trkpt>
      <trkpt lat="45.63405" lon="6.75084">
        <ele>1772</ele>
        <time>2021-06-05T09:38:53Z</time>
      </trkpt>
      <trkpt lat="45.63407" lon="6.75086">
        <ele>1771</ele>
        <time>2021-06-05T09:38:54Z</time>
      </trkpt>
      <trkpt lat="45.63409" lon="6.7509">
        <ele>1769.8</ele>
        <time>2021-06-05T09:38:56Z</time>
      </trkpt>
      <trkpt lat="45.63412" lon="6.75094">
        <ele>1768.4</ele>
        <time>2021-06-05T09:38:58Z</time>
      </trkpt>
      <trkpt lat="45.63415" lon="6.75098">
        <ele>1766.6</ele>
        <time>2021-06-05T09:39:00Z</time>
      </trkpt>
      <trkpt lat="45.63416" lon="6.751">
        <ele>1765.8</ele>
        <time>2021-06-05T09:39:01Z</time>
      </trkpt>
      <trkpt lat="45.63416" lon="6.75103">
        <ele>1765</ele>
        <time>2021-06-05T09:39:02Z</time>
      </trkpt>
      <trkpt lat="45.63415" lon="6.75108">
        <ele>1763.4</ele>
        <time>2021-06-05T09:39:04Z</time>
      </trkpt>
      <trkpt lat="45.63414" lon="6.7511">
        <ele>1762.8</ele>
        <time>2021-06-05T09:39:05Z</time>
      </trkpt>
      <trkpt lat="45.63413" lon="6.75112">
        <ele>1762.4</ele>
        <time>2021-06-05T09:39:06Z</time>
      </trkpt>
      <trkpt lat="45.63411" lon="6.75115">
        <ele>1762</ele>
        <time>2021-06-05T09:39:07Z</time>
      </trkpt>
      <trkpt lat="45.63409" lon="6.7512">
        <ele>1761.4</ele>
        <time>2021-06-05T09:39:09Z</time>
      </trkpt>
      <trkpt lat="45.63409" lon="6.75122">
        <ele>1761</ele>
        <time>2021-06-05T09:39:10Z</time>
      </trkpt>
      <trkpt lat="45.63407" lon="6.75125">
        <ele>1761</ele>
        <time>2021-06-05T09:39:11Z</time>
      </trkpt>
      <trkpt lat="45.63406" lon="6.75129">
        <ele>1760</ele>
        <time>2021-06-05T09:39:13Z</time>
      </trkpt>
      <trkpt lat="45.63406" lon="6.75134">
        <ele>1759.4</ele>
        <time>2021-06-05T09:39:15Z</time>
      </trkpt>
      <trkpt lat="45.63408" lon="6.75138">
        <ele>1758.2</ele>
        <time>2021-06-05T09:39:17Z</time>
      </trkpt>
      <trkpt lat="45.6341" lon="6.75138">
        <ele>1758</ele>
        <time>2021-06-05T09:39:18Z</time>
      </trkpt>
      <trkpt lat="45.63414" lon="6.75139">
        <ele>1756.6</ele>
        <time>2021-06-05T09:39:20Z</time>
      </trkpt>
      <trkpt lat="45.63417" lon="6.75141">
        <ele>1755.2</ele>
        <time>2021-06-05T09:39:22Z</time>
      </trkpt>
      <trkpt lat="45.63419" lon="6.75145">
        <ele>1754.2</ele>
        <time>2021-06-05T09:39:24Z</time>
      </trkpt>
      <trkpt lat="45.63418" lon="6.75148">
        <ele>1753.2</ele>
        <time>2021-06-05T09:39:26Z</time>
      </trkpt>
      <trkpt lat="45.63416" lon="6.75152">
        <ele>1751.6</ele>
        <time>2021-06-05T09:39:28Z</time>
      </trkpt>
      <trkpt lat="45.63413" lon="6.75155">
        <ele>1750.8</ele>
        <time>2021-06-05T09:39:30Z</time>
      </trkpt>
      <trkpt lat="45.63411" lon="6.7516">
        <ele>1750.4</ele>
        <time>2021-06-05T09:39:32Z</time>
      </trkpt>
      <trkpt lat="45.63411" lon="6.75162">
        <ele>1749.8</ele>
        <time>2021-06-05T09:39:33Z</time>
      </trkpt>
      <trkpt lat="45.63409" lon="6.75167">
        <ele>1749</ele>
        <time>2021-06-05T09:39:35Z</time>
      </trkpt>
      <trkpt lat="45.63408" lon="6.75169">
        <ele>1748.4</ele>
        <time>2021-06-05T09:39:36Z</time>
      </trkpt>
      <trkpt lat="45.63406" lon="6.75173">
        <ele>1747.8</ele>
        <time>2021-06-05T09:39:38Z</time>
      </trkpt>
      <trkpt lat="45.63403" lon="6.75177">
        <ele>1747.2</ele>
        <time>2021-06-05T09:39:40Z</time>
      </trkpt>
      <trkpt lat="45.63401" lon="6.75179">
        <ele>1745.8</ele>
        <time>2021-06-05T09:39:42Z</time>
      </trkpt>
      <trkpt lat="45.63399" lon="6.75183">
        <ele>1745.2</ele>
        <time>2021-06-05T09:39:44Z</time>
      </trkpt>
      <trkpt lat="45.63397" lon="6.75187">
        <ele>1744.2</ele>
        <time>2021-06-05T09:39:46Z</time>
      </trkpt>
      <trkpt lat="45.63394" lon="6.7519">
        <ele>1743.8</ele>
        <time>2021-06-05T09:39:48Z</time>
      </trkpt>
      <trkpt lat="45.63392" lon="6.75192">
        <ele>1743.4</ele>
        <time>2021-06-05T09:39:49Z</time>
      </trkpt>
      <trkpt lat="45.6339" lon="6.75194">
        <ele>1742.8</ele>
        <time>2021-06-05T09:39:50Z</time>
      </trkpt>
      <trkpt lat="45.63389" lon="6.75195">
        <ele>1742.4</ele>
        <time>2021-06-05T09:39:51Z</time>
      </trkpt>
      <trkpt lat="45.63386" lon="6.75197">
        <ele>1741</ele>
        <time>2021-06-05T09:39:53Z</time>
      </trkpt>
      <trkpt lat="45.63383" lon="6.75199">
        <ele>1740</ele>
        <time>2021-06-05T09:39:55Z</time>
      </trkpt>
      <trkpt lat="45.6338" lon="6.752">
        <ele>1738.8</ele>
        <time>2021-06-05T09:39:57Z</time>
      </trkpt>
      <trkpt lat="45.63378" lon="6.752">
        <ele>1738.8</ele>
        <time>2021-06-05T09:39:58Z</time>
      </trkpt>
      <trkpt lat="45.63376" lon="6.75201">
        <ele>1738.4</ele>
        <time>2021-06-05T09:39:59Z</time>
      </trkpt>
      <trkpt lat="45.63374" lon="6.75202">
        <ele>1738.4</ele>
        <time>2021-06-05T09:40:00Z</time>
      </trkpt>
      <trkpt lat="45.63372" lon="6.75203">
        <ele>1737</ele>
        <time>2021-06-05T09:40:01Z</time>
      </trkpt>
      <trkpt lat="45.63371" lon="6.75203">
        <ele>1736.8</ele>
        <time>2021-06-05T09:40:02Z</time>
      </trkpt>
      <trkpt lat="45.63369" lon="6.75203">
        <ele>1736.6</ele>
        <time>2021-06-05T09:40:03Z</time>
      </trkpt>
      <trkpt lat="45.63366" lon="6.75203">
        <ele>1736.4</ele>
        <time>2021-06-05T09:40:04Z</time>
      </trkpt>
      <trkpt lat="45.63364" lon="6.75202">
        <ele>1735.8</ele>
        <time>2021-06-05T09:40:05Z</time>
      </trkpt>
      <trkpt lat="45.63363" lon="6.75201">
        <ele>1735.8</ele>
        <time>2021-06-05T09:40:06Z</time>
      </trkpt>
      <trkpt lat="45.6336" lon="6.75201">
        <ele>1735.2</ele>
        <time>2021-06-05T09:40:07Z</time>
      </trkpt>
      <trkpt lat="45.63358" lon="6.752">
        <ele>1734.6</ele>
        <time>2021-06-05T09:40:08Z</time>
      </trkpt>
      <trkpt lat="45.63356" lon="6.752">
        <ele>1734.4</ele>
        <time>2021-06-05T09:40:09Z</time>
      </trkpt>
      <trkpt lat="45.63353" lon="6.75199">
        <ele>1733.8</ele>
        <time>2021-06-05T09:40:10Z</time>
      </trkpt>
      <trkpt lat="45.63351" lon="6.75199">
        <ele>1733</ele>
        <time>2021-06-05T09:40:11Z</time>
      </trkpt>
      <trkpt lat="45.63348" lon="6.75198">
        <ele>1733.2</ele>
        <time>2021-06-05T09:40:12Z</time>
      </trkpt>
      <trkpt lat="45.63346" lon="6.75198">
        <ele>1732.8</ele>
        <time>2021-06-05T09:40:13Z</time>
      </trkpt>
      <trkpt lat="45.63344" lon="6.75198">
        <ele>1731.6</ele>
        <time>2021-06-05T09:40:14Z</time>
      </trkpt>
      <trkpt lat="45.63341" lon="6.75198">
        <ele>1732</ele>
        <time>2021-06-05T09:40:15Z</time>
      </trkpt>
      <trkpt lat="45.63339" lon="6.75198">
        <ele>1731.6</ele>
        <time>2021-06-05T09:40:16Z</time>
      </trkpt>
      <trkpt lat="45.63337" lon="6.75198">
        <ele>1731.2</ele>
        <time>2021-06-05T09:40:17Z</time>
      </trkpt>
      <trkpt lat="45.63335" lon="6.75198">
        <ele>1730.6</ele>
        <time>2021-06-05T09:40:18Z</time>
      </trkpt>
      <trkpt lat="45.63333" lon="6.75197">
        <ele>1730.2</ele>
        <time>2021-06-05T09:40:19Z</time>
      </trkpt>
      <trkpt lat="45.63331" lon="6.75197">
        <ele>1730.4</ele>
        <time>2021-06-05T09:40:20Z</time>
      </trkpt>
      <trkpt lat="45.63329" lon="6.75197">
        <ele>1730</ele>
        <time>2021-06-05T09:40:21Z</time>
      </trkpt>
      <trkpt lat="45.63327" lon="6.75197">
        <ele>1729</ele>
        <time>2021-06-05T09:40:22Z</time>
      </trkpt>
      <trkpt lat="45.63324" lon="6.75197">
        <ele>1728.8</ele>
        <time>2021-06-05T09:40:23Z</time>
      </trkpt>
      <trkpt lat="45.63323" lon="6.75196">
        <ele>1728.6</ele>
        <time>2021-06-05T09:40:24Z</time>
      </trkpt>
      <trkpt lat="45.63321" lon="6.75196">
        <ele>1727.8</ele>
        <time>2021-06-05T09:40:25Z</time>
      </trkpt>
      <trkpt lat="45.63319" lon="6.75195">
        <ele>1727.8</ele>
        <time>2021-06-05T09:40:26Z</time>
      </trkpt>
      <trkpt lat="45.63316" lon="6.75194">
        <ele>1727.2</ele>
        <time>2021-06-05T09:40:28Z</time>
      </trkpt>
      <trkpt lat="45.63314" lon="6.75194">
        <ele>1726.8</ele>
        <time>2021-06-05T09:40:29Z</time>
      </trkpt>
      <trkpt lat="45.63311" lon="6.75191">
        <ele>1726.4</ele>
        <time>2021-06-05T09:40:31Z</time>
      </trkpt>
      <trkpt lat="45.63309" lon="6.7519">
        <ele>1726.2</ele>
        <time>2021-06-05T09:40:32Z</time>
      </trkpt>
      <trkpt lat="45.63307" lon="6.75186">
        <ele>1724.2</ele>
        <time>2021-06-05T09:40:34Z</time>
      </trkpt>
      <trkpt lat="45.63305" lon="6.75189">
        <ele>1723.4</ele>
        <time>2021-06-05T09:40:36Z</time>
      </trkpt>
      <trkpt lat="45.63303" lon="6.75191">
        <ele>1723.2</ele>
        <time>2021-06-05T09:40:37Z</time>
      </trkpt>
      <trkpt lat="45.63303" lon="6.75194">
        <ele>1722.8</ele>
        <time>2021-06-05T09:40:38Z</time>
      </trkpt>
      <trkpt lat="45.63302" lon="6.75196">
        <ele>1722.2</ele>
        <time>2021-06-05T09:40:39Z</time>
      </trkpt>
      <trkpt lat="45.63301" lon="6.75201">
        <ele>1721.4</ele>
        <time>2021-06-05T09:40:41Z</time>
      </trkpt>
      <trkpt lat="45.63301" lon="6.75206">
        <ele>1720.4</ele>
        <time>2021-06-05T09:40:43Z</time>
      </trkpt>
      <trkpt lat="45.63301" lon="6.75211">
        <ele>1719.2</ele>
        <time>2021-06-05T09:40:45Z</time>
      </trkpt>
      <trkpt lat="45.63302" lon="6.75216">
        <ele>1717</ele>
        <time>2021-06-05T09:40:47Z</time>
      </trkpt>
      <trkpt lat="45.63304" lon="6.7522">
        <ele>1716.2</ele>
        <time>2021-06-05T09:40:49Z</time>
      </trkpt>
      <trkpt lat="45.63304" lon="6.75223">
        <ele>1715.2</ele>
        <time>2021-06-05T09:40:50Z</time>
      </trkpt>
      <trkpt lat="45.63305" lon="6.75228">
        <ele>1714.2</ele>
        <time>2021-06-05T09:40:52Z</time>
      </trkpt>
      <trkpt lat="45.63305" lon="6.75232">
        <ele>1712.8</ele>
        <time>2021-06-05T09:40:54Z</time>
      </trkpt>
      <trkpt lat="45.63305" lon="6.75237">
        <ele>1712</ele>
        <time>2021-06-05T09:40:56Z</time>
      </trkpt>
      <trkpt lat="45.63305" lon="6.7524">
        <ele>1711.2</ele>
        <time>2021-06-05T09:40:57Z</time>
      </trkpt>
      <trkpt lat="45.63304" lon="6.75242">
        <ele>1710.4</ele>
        <time>2021-06-05T09:40:58Z</time>
      </trkpt>
      <trkpt lat="45.63304" lon="6.75247">
        <ele>1709.2</ele>
        <time>2021-06-05T09:41:00Z</time>
      </trkpt>
      <trkpt lat="45.63303" lon="6.75251">
        <ele>1707.4</ele>
        <time>2021-06-05T09:41:02Z</time>
      </trkpt>
      <trkpt lat="45.63302" lon="6.75255">
        <ele>1706.2</ele>
        <time>2021-06-05T09:41:04Z</time>
      </trkpt>
      <trkpt lat="45.63302" lon="6.75259">
        <ele>1705.2</ele>
        <time>2021-06-05T09:41:06Z</time>
      </trkpt>
      <trkpt lat="45.63301" lon="6.75263">
        <ele>1703.2</ele>
        <time>2021-06-05T09:41:08Z</time>
      </trkpt>
      <trkpt lat="45.63301" lon="6.75268">
        <ele>1701.2</ele>
        <time>2021-06-05T09:41:10Z</time>
      </trkpt>
      <trkpt lat="45.63301" lon="6.75272">
        <ele>1700</ele>
        <time>2021-06-05T09:41:12Z</time>
      </trkpt>
      <trkpt lat="45.63301" lon="6.75276">
        <ele>1698.8</ele>
        <time>2021-06-05T09:41:14Z</time>
      </trkpt>
      <trkpt lat="45.63301" lon="6.75282">
        <ele>1697.8</ele>
        <time>2021-06-05T09:41:16Z</time>
      </trkpt>
      <trkpt lat="45.63302" lon="6.75286">
        <ele>1696.4</ele>
        <time>2021-06-05T09:41:18Z</time>
      </trkpt>
      <trkpt lat="45.63303" lon="6.75289">
        <ele>1695.6</ele>
        <time>2021-06-05T09:41:19Z</time>
      </trkpt>
      <trkpt lat="45.63302" lon="6.75292">
        <ele>1694.4</ele>
        <time>2021-06-05T09:41:20Z</time>
      </trkpt>
      <trkpt lat="45.63303" lon="6.75294">
        <ele>1693.8</ele>
        <time>2021-06-05T09:41:21Z</time>
      </trkpt>
      <trkpt lat="45.63305" lon="6.75296">
        <ele>1693.2</ele>
        <time>2021-06-05T09:41:22Z</time>
      </trkpt>
      <trkpt lat="45.63306" lon="6.75299">
        <ele>1692.6</ele>
        <time>2021-06-05T09:41:23Z</time>
      </trkpt>
      <trkpt lat="45.63307" lon="6.75301">
        <ele>1691.6</ele>
        <time>2021-06-05T09:41:24Z</time>
      </trkpt>
      <trkpt lat="45.63308" lon="6.75304">
        <ele>1690.8</ele>
        <time>2021-06-05T09:41:25Z</time>
      </trkpt>
      <trkpt lat="45.63308" lon="6.75307">
        <ele>1690.2</ele>
        <time>2021-06-05T09:41:26Z</time>
      </trkpt>
      <trkpt lat="45.63309" lon="6.7531">
        <ele>1689.6</ele>
        <time>2021-06-05T09:41:27Z</time>
      </trkpt>
      <trkpt lat="45.63308" lon="6.75312">
        <ele>1689</ele>
        <time>2021-06-05T09:41:28Z</time>
      </trkpt>
      <trkpt lat="45.63308" lon="6.75317">
        <ele>1688</ele>
        <time>2021-06-05T09:41:30Z</time>
      </trkpt>
      <trkpt lat="45.63308" lon="6.7532">
        <ele>1687.2</ele>
        <time>2021-06-05T09:41:31Z</time>
      </trkpt>
      <trkpt lat="45.63307" lon="6.75323">
        <ele>1687.2</ele>
        <time>2021-06-05T09:41:32Z</time>
      </trkpt>
      <trkpt lat="45.63308" lon="6.75326">
        <ele>1686.6</ele>
        <time>2021-06-05T09:41:33Z</time>
      </trkpt>
      <trkpt lat="45.63308" lon="6.75329">
        <ele>1686.2</ele>
        <time>2021-06-05T09:41:34Z</time>
      </trkpt>
      <trkpt lat="45.63308" lon="6.75332">
        <ele>1685.8</ele>
        <time>2021-06-05T09:41:35Z</time>
      </trkpt>
      <trkpt lat="45.63308" lon="6.75335">
        <ele>1685.6</ele>
        <time>2021-06-05T09:41:36Z</time>
      </trkpt>
      <trkpt lat="45.63307" lon="6.75338">
        <ele>1685</ele>
        <time>2021-06-05T09:41:37Z</time>
      </trkpt>
      <trkpt lat="45.63306" lon="6.75343">
        <ele>1684.2</ele>
        <time>2021-06-05T09:41:39Z</time>
      </trkpt>
      <trkpt lat="45.63304" lon="6.75347">
        <ele>1683</ele>
        <time>2021-06-05T09:41:41Z</time>
      </trkpt>
      <trkpt lat="45.63303" lon="6.7535">
        <ele>1682.4</ele>
        <time>2021-06-05T09:41:42Z</time>
      </trkpt>
      <trkpt lat="45.63303" lon="6.75353">
        <ele>1682.4</ele>
        <time>2021-06-05T09:41:43Z</time>
      </trkpt>
      <trkpt lat="45.63302" lon="6.75356">
        <ele>1681.8</ele>
        <time>2021-06-05T09:41:44Z</time>
      </trkpt>
      <trkpt lat="45.63301" lon="6.75358">
        <ele>1681.8</ele>
        <time>2021-06-05T09:41:45Z</time>
      </trkpt>
      <trkpt lat="45.633" lon="6.75361">
        <ele>1681.4</ele>
        <time>2021-06-05T09:41:46Z</time>
      </trkpt>
      <trkpt lat="45.633" lon="6.75364">
        <ele>1680.2</ele>
        <time>2021-06-05T09:41:47Z</time>
      </trkpt>
      <trkpt lat="45.633" lon="6.75369">
        <ele>1680.2</ele>
        <time>2021-06-05T09:41:49Z</time>
      </trkpt>
      <trkpt lat="45.633" lon="6.75372">
        <ele>1680.2</ele>
        <time>2021-06-05T09:41:50Z</time>
      </trkpt>
      <trkpt lat="45.633" lon="6.75375">
        <ele>1679.8</ele>
        <time>2021-06-05T09:41:51Z</time>
      </trkpt>
      <trkpt lat="45.633" lon="6.75378">
        <ele>1679</ele>
        <time>2021-06-05T09:41:52Z</time>
      </trkpt>
      <trkpt lat="45.63301" lon="6.75382">
        <ele>1678.6</ele>
        <time>2021-06-05T09:41:54Z</time>
      </trkpt>
      <trkpt lat="45.63302" lon="6.75387">
        <ele>1678.2</ele>
        <time>2021-06-05T09:41:56Z</time>
      </trkpt>
      <trkpt lat="45.63302" lon="6.75391">
        <ele>1677.8</ele>
        <time>2021-06-05T09:41:58Z</time>
      </trkpt>
      <trkpt lat="45.63301" lon="6.75394">
        <ele>1677.4</ele>
        <time>2021-06-05T09:41:59Z</time>
      </trkpt>
      <trkpt lat="45.633" lon="6.75396">
        <ele>1677.4</ele>
        <time>2021-06-05T09:42:00Z</time>
      </trkpt>
      <trkpt lat="45.63299" lon="6.75399">
        <ele>1677</ele>
        <time>2021-06-05T09:42:01Z</time>
      </trkpt>
      <trkpt lat="45.63297" lon="6.754">
        <ele>1676.4</ele>
        <time>2021-06-05T09:42:02Z</time>
      </trkpt>
      <trkpt lat="45.63295" lon="6.75405">
        <ele>1676.4</ele>
        <time>2021-06-05T09:42:04Z</time>
      </trkpt>
      <trkpt lat="45.63294" lon="6.75407">
        <ele>1676.4</ele>
        <time>2021-06-05T09:42:05Z</time>
      </trkpt>
      <trkpt lat="45.63292" lon="6.75411">
        <ele>1675.6</ele>
        <time>2021-06-05T09:42:07Z</time>
      </trkpt>
      <trkpt lat="45.63291" lon="6.75412">
        <ele>1675</ele>
        <time>2021-06-05T09:42:08Z</time>
      </trkpt>
      <trkpt lat="45.63289" lon="6.75414">
        <ele>1674.6</ele>
        <time>2021-06-05T09:42:09Z</time>
      </trkpt>
      <trkpt lat="45.63287" lon="6.75418">
        <ele>1674.2</ele>
        <time>2021-06-05T09:42:11Z</time>
      </trkpt>
      <trkpt lat="45.63285" lon="6.75419">
        <ele>1673.6</ele>
        <time>2021-06-05T09:42:12Z</time>
      </trkpt>
      <trkpt lat="45.63283" lon="6.75421">
        <ele>1672.6</ele>
        <time>2021-06-05T09:42:14Z</time>
      </trkpt>
      <trkpt lat="45.63281" lon="6.75424">
        <ele>1671.8</ele>
        <time>2021-06-05T09:42:16Z</time>
      </trkpt>
      <trkpt lat="45.63278" lon="6.75428">
        <ele>1670.2</ele>
        <time>2021-06-05T09:42:18Z</time>
      </trkpt>
      <trkpt lat="45.63275" lon="6.75429">
        <ele>1669.2</ele>
        <time>2021-06-05T09:42:20Z</time>
      </trkpt>
      <trkpt lat="45.63272" lon="6.75431">
        <ele>1668.6</ele>
        <time>2021-06-05T09:42:22Z</time>
      </trkpt>
      <trkpt lat="45.63269" lon="6.75433">
        <ele>1666.8</ele>
        <time>2021-06-05T09:42:24Z</time>
      </trkpt>
      <trkpt lat="45.63268" lon="6.75434">
        <ele>1666.4</ele>
        <time>2021-06-05T09:42:25Z</time>
      </trkpt>
      <trkpt lat="45.63266" lon="6.75435">
        <ele>1665.6</ele>
        <time>2021-06-05T09:42:26Z</time>
      </trkpt>
      <trkpt lat="45.63262" lon="6.75437">
        <ele>1664.4</ele>
        <time>2021-06-05T09:42:28Z</time>
      </trkpt>
      <trkpt lat="45.6326" lon="6.75438">
        <ele>1663</ele>
        <time>2021-06-05T09:42:30Z</time>
      </trkpt>
      <trkpt lat="45.63257" lon="6.75439">
        <ele>1661.8</ele>
        <time>2021-06-05T09:42:32Z</time>
      </trkpt>
      <trkpt lat="45.63254" lon="6.75441">
        <ele>1660.4</ele>
        <time>2021-06-05T09:42:34Z</time>
      </trkpt>
      <trkpt lat="45.63252" lon="6.75442">
        <ele>1660</ele>
        <time>2021-06-05T09:42:35Z</time>
      </trkpt>
      <trkpt lat="45.6325" lon="6.75443">
        <ele>1658.8</ele>
        <time>2021-06-05T09:42:36Z</time>
      </trkpt>
      <trkpt lat="45.63247" lon="6.75445">
        <ele>1658.2</ele>
        <time>2021-06-05T09:42:38Z</time>
      </trkpt>
      <trkpt lat="45.63244" lon="6.75446">
        <ele>1657.8</ele>
        <time>2021-06-05T09:42:39Z</time>
      </trkpt>
      <trkpt lat="45.63243" lon="6.75448">
        <ele>1657.4</ele>
        <time>2021-06-05T09:42:40Z</time>
      </trkpt>
      <trkpt lat="45.6324" lon="6.75448">
        <ele>1657</ele>
        <time>2021-06-05T09:42:41Z</time>
      </trkpt>
      <trkpt lat="45.63237" lon="6.75448">
        <ele>1655.8</ele>
        <time>2021-06-05T09:42:43Z</time>
      </trkpt>
      <trkpt lat="45.63235" lon="6.75448">
        <ele>1655.6</ele>
        <time>2021-06-05T09:42:44Z</time>
      </trkpt>
      <trkpt lat="45.63232" lon="6.7545">
        <ele>1655.2</ele>
        <time>2021-06-05T09:42:46Z</time>
      </trkpt>
      <trkpt lat="45.63228" lon="6.75452">
        <ele>1654.6</ele>
        <time>2021-06-05T09:42:48Z</time>
      </trkpt>
      <trkpt lat="45.63226" lon="6.75453">
        <ele>1653.6</ele>
        <time>2021-06-05T09:42:50Z</time>
      </trkpt>
      <trkpt lat="45.63224" lon="6.75454">
        <ele>1653</ele>
        <time>2021-06-05T09:42:51Z</time>
      </trkpt>
      <trkpt lat="45.6322" lon="6.75455">
        <ele>1652</ele>
        <time>2021-06-05T09:42:53Z</time>
      </trkpt>
      <trkpt lat="45.63219" lon="6.75455">
        <ele>1651.2</ele>
        <time>2021-06-05T09:42:54Z</time>
      </trkpt>
      <trkpt lat="45.63215" lon="6.75456">
        <ele>1650.4</ele>
        <time>2021-06-05T09:42:56Z</time>
      </trkpt>
      <trkpt lat="45.63212" lon="6.75457">
        <ele>1649.2</ele>
        <time>2021-06-05T09:42:58Z</time>
      </trkpt>
      <trkpt lat="45.6321" lon="6.75458">
        <ele>1648.4</ele>
        <time>2021-06-05T09:42:59Z</time>
      </trkpt>
      <trkpt lat="45.63207" lon="6.75459">
        <ele>1647.4</ele>
        <time>2021-06-05T09:43:01Z</time>
      </trkpt>
      <trkpt lat="45.63205" lon="6.7546">
        <ele>1647</ele>
        <time>2021-06-05T09:43:02Z</time>
      </trkpt>
      <trkpt lat="45.63202" lon="6.75461">
        <ele>1645.8</ele>
        <time>2021-06-05T09:43:04Z</time>
      </trkpt>
      <trkpt lat="45.63198" lon="6.75462">
        <ele>1644.4</ele>
        <time>2021-06-05T09:43:06Z</time>
      </trkpt>
      <trkpt lat="45.63196" lon="6.75462">
        <ele>1643.6</ele>
        <time>2021-06-05T09:43:07Z</time>
      </trkpt>
      <trkpt lat="45.63193" lon="6.75464">
        <ele>1643.2</ele>
        <time>2021-06-05T09:43:09Z</time>
      </trkpt>
      <trkpt lat="45.6319" lon="6.75465">
        <ele>1642.6</ele>
        <time>2021-06-05T09:43:11Z</time>
      </trkpt>
      <trkpt lat="45.63187" lon="6.75466">
        <ele>1641.8</ele>
        <time>2021-06-05T09:43:13Z</time>
      </trkpt>
      <trkpt lat="45.63185" lon="6.75468">
        <ele>1640.8</ele>
        <time>2021-06-05T09:43:15Z</time>
      </trkpt>
      <trkpt lat="45.63184" lon="6.75471">
        <ele>1639.6</ele>
        <time>2021-06-05T09:43:17Z</time>
      </trkpt>
      <trkpt lat="45.63185" lon="6.75476">
        <ele>1638.6</ele>
        <time>2021-06-05T09:43:19Z</time>
      </trkpt>
      <trkpt lat="45.63186" lon="6.75478">
        <ele>1638</ele>
        <time>2021-06-05T09:43:20Z</time>
      </trkpt>
      <trkpt lat="45.63188" lon="6.7548">
        <ele>1636.8</ele>
        <time>2021-06-05T09:43:21Z</time>
      </trkpt>
      <trkpt lat="45.6319" lon="6.75481">
        <ele>1636.8</ele>
        <time>2021-06-05T09:43:22Z</time>
      </trkpt>
      <trkpt lat="45.63192" lon="6.75482">
        <ele>1636.2</ele>
        <time>2021-06-05T09:43:23Z</time>
      </trkpt>
      <trkpt lat="45.63194" lon="6.75484">
        <ele>1635.6</ele>
        <time>2021-06-05T09:43:24Z</time>
      </trkpt>
      <trkpt lat="45.63196" lon="6.75487">
        <ele>1635.2</ele>
        <time>2021-06-05T09:43:26Z</time>
      </trkpt>
      <trkpt lat="45.63199" lon="6.75488">
        <ele>1634.8</ele>
        <time>2021-06-05T09:43:28Z</time>
      </trkpt>
      <trkpt lat="45.63201" lon="6.7549">
        <ele>1633.4</ele>
        <time>2021-06-05T09:43:30Z</time>
      </trkpt>
      <trkpt lat="45.63204" lon="6.75493">
        <ele>1632.6</ele>
        <time>2021-06-05T09:43:32Z</time>
      </trkpt>
      <trkpt lat="45.63206" lon="6.75494">
        <ele>1632</ele>
        <time>2021-06-05T09:43:33Z</time>
      </trkpt>
      <trkpt lat="45.63207" lon="6.75496">
        <ele>1631.2</ele>
        <time>2021-06-05T09:43:34Z</time>
      </trkpt>
      <trkpt lat="45.63209" lon="6.75497">
        <ele>1630.6</ele>
        <time>2021-06-05T09:43:35Z</time>
      </trkpt>
      <trkpt lat="45.63212" lon="6.75499">
        <ele>1629.6</ele>
        <time>2021-06-05T09:43:37Z</time>
      </trkpt>
      <trkpt lat="45.63214" lon="6.75501">
        <ele>1629</ele>
        <time>2021-06-05T09:43:38Z</time>
      </trkpt>
      <trkpt lat="45.63216" lon="6.75502">
        <ele>1627.8</ele>
        <time>2021-06-05T09:43:40Z</time>
      </trkpt>
      <trkpt lat="45.63219" lon="6.75505">
        <ele>1626.4</ele>
        <time>2021-06-05T09:43:42Z</time>
      </trkpt>
      <trkpt lat="45.63222" lon="6.75507">
        <ele>1625.4</ele>
        <time>2021-06-05T09:43:44Z</time>
      </trkpt>
      <trkpt lat="45.63223" lon="6.75509">
        <ele>1624.6</ele>
        <time>2021-06-05T09:43:45Z</time>
      </trkpt>
      <trkpt lat="45.63225" lon="6.7551">
        <ele>1624.2</ele>
        <time>2021-06-05T09:43:46Z</time>
      </trkpt>
      <trkpt lat="45.63228" lon="6.75512">
        <ele>1623.6</ele>
        <time>2021-06-05T09:43:47Z</time>
      </trkpt>
      <trkpt lat="45.63229" lon="6.75513">
        <ele>1623</ele>
        <time>2021-06-05T09:43:48Z</time>
      </trkpt>
      <trkpt lat="45.63231" lon="6.75515">
        <ele>1622.6</ele>
        <time>2021-06-05T09:43:49Z</time>
      </trkpt>
      <trkpt lat="45.63234" lon="6.75518">
        <ele>1621.8</ele>
        <time>2021-06-05T09:43:51Z</time>
      </trkpt>
      <trkpt lat="45.63235" lon="6.7552">
        <ele>1621.2</ele>
        <time>2021-06-05T09:43:52Z</time>
      </trkpt>
      <trkpt lat="45.63238" lon="6.75523">
        <ele>1620.2</ele>
        <time>2021-06-05T09:43:54Z</time>
      </trkpt>
      <trkpt lat="45.63241" lon="6.75527">
        <ele>1619.4</ele>
        <time>2021-06-05T09:43:56Z</time>
      </trkpt>
      <trkpt lat="45.63243" lon="6.75528">
        <ele>1618.8</ele>
        <time>2021-06-05T09:43:57Z</time>
      </trkpt>
      <trkpt lat="45.63245" lon="6.75532">
        <ele>1617.6</ele>
        <time>2021-06-05T09:43:59Z</time>
      </trkpt>
      <trkpt lat="45.63247" lon="6.75535">
        <ele>1616.4</ele>
        <time>2021-06-05T09:44:01Z</time>
      </trkpt>
      <trkpt lat="45.63249" lon="6.75538">
        <ele>1615.2</ele>
        <time>2021-06-05T09:44:03Z</time>
      </trkpt>
      <trkpt lat="45.63251" lon="6.75539">
        <ele>1614.2</ele>
        <time>2021-06-05T09:44:05Z</time>
      </trkpt>
      <trkpt lat="45.63253" lon="6.7554">
        <ele>1613.4</ele>
        <time>2021-06-05T09:44:07Z</time>
      </trkpt>
      <trkpt lat="45.63256" lon="6.75541">
        <ele>1612</ele>
        <time>2021-06-05T09:44:09Z</time>
      </trkpt>
      <trkpt lat="45.63259" lon="6.75542">
        <ele>1610.8</ele>
        <time>2021-06-05T09:44:11Z</time>
      </trkpt>
      <trkpt lat="45.63262" lon="6.75543">
        <ele>1610</ele>
        <time>2021-06-05T09:44:13Z</time>
      </trkpt>
      <trkpt lat="45.63265" lon="6.75545">
        <ele>1608.4</ele>
        <time>2021-06-05T09:44:16Z</time>
      </trkpt>
      <trkpt lat="45.63267" lon="6.75545">
        <ele>1607.8</ele>
        <time>2021-06-05T09:44:17Z</time>
      </trkpt>
      <trkpt lat="45.63269" lon="6.75546">
        <ele>1607.2</ele>
        <time>2021-06-05T09:44:18Z</time>
      </trkpt>
      <trkpt lat="45.63271" lon="6.75546">
        <ele>1606.2</ele>
        <time>2021-06-05T09:44:19Z</time>
      </trkpt>
      <trkpt lat="45.63274" lon="6.75547">
        <ele>1605</ele>
        <time>2021-06-05T09:44:21Z</time>
      </trkpt>
      <trkpt lat="45.63277" lon="6.75547">
        <ele>1603.8</ele>
        <time>2021-06-05T09:44:23Z</time>
      </trkpt>
      <trkpt lat="45.63281" lon="6.75549">
        <ele>1602.4</ele>
        <time>2021-06-05T09:44:25Z</time>
      </trkpt>
      <trkpt lat="45.63284" lon="6.7555">
        <ele>1600.8</ele>
        <time>2021-06-05T09:44:27Z</time>
      </trkpt>
      <trkpt lat="45.63287" lon="6.75551">
        <ele>1599.2</ele>
        <time>2021-06-05T09:44:29Z</time>
      </trkpt>
      <trkpt lat="45.6329" lon="6.75553">
        <ele>1597.6</ele>
        <time>2021-06-05T09:44:31Z</time>
      </trkpt>
      <trkpt lat="45.63289" lon="6.75556">
        <ele>1596.6</ele>
        <time>2021-06-05T09:44:33Z</time>
      </trkpt>
      <trkpt lat="45.63286" lon="6.7556">
        <ele>1595.6</ele>
        <time>2021-06-05T09:44:35Z</time>
      </trkpt>
      <trkpt lat="45.63284" lon="6.75563">
        <ele>1594.6</ele>
        <time>2021-06-05T09:44:37Z</time>
      </trkpt>
      <trkpt lat="45.63282" lon="6.75567">
        <ele>1593.6</ele>
        <time>2021-06-05T09:44:39Z</time>
      </trkpt>
      <trkpt lat="45.6328" lon="6.75571">
        <ele>1592.2</ele>
        <time>2021-06-05T09:44:41Z</time>
      </trkpt>
      <trkpt lat="45.63278" lon="6.75574">
        <ele>1591</ele>
        <time>2021-06-05T09:44:43Z</time>
      </trkpt>
      <trkpt lat="45.63275" lon="6.75578">
        <ele>1590</ele>
        <time>2021-06-05T09:44:45Z</time>
      </trkpt>
      <trkpt lat="45.63274" lon="6.75579">
        <ele>1589.8</ele>
        <time>2021-06-05T09:44:46Z</time>
      </trkpt>
      <trkpt lat="45.63271" lon="6.75582">
        <ele>1589.4</ele>
        <time>2021-06-05T09:44:48Z</time>
      </trkpt>
      <trkpt lat="45.63269" lon="6.75584">
        <ele>1589</ele>
        <time>2021-06-05T09:44:49Z</time>
      </trkpt>
      <trkpt lat="45.63268" lon="6.75585">
        <ele>1588.6</ele>
        <time>2021-06-05T09:44:50Z</time>
      </trkpt>
      <trkpt lat="45.63266" lon="6.75586">
        <ele>1588.6</ele>
        <time>2021-06-05T09:44:51Z</time>
      </trkpt>
      <trkpt lat="45.63262" lon="6.75588">
        <ele>1588</ele>
        <time>2021-06-05T09:44:53Z</time>
      </trkpt>
      <trkpt lat="45.63259" lon="6.75591">
        <ele>1587.6</ele>
        <time>2021-06-05T09:44:55Z</time>
      </trkpt>
      <trkpt lat="45.63258" lon="6.75592">
        <ele>1587.6</ele>
        <time>2021-06-05T09:44:56Z</time>
      </trkpt>
      <trkpt lat="45.63256" lon="6.75594">
        <ele>1587</ele>
        <time>2021-06-05T09:44:57Z</time>
      </trkpt>
      <trkpt lat="45.63254" lon="6.75595">
        <ele>1586.8</ele>
        <time>2021-06-05T09:44:58Z</time>
      </trkpt>
      <trkpt lat="45.63251" lon="6.75598">
        <ele>1585.6</ele>
        <time>2021-06-05T09:45:00Z</time>
      </trkpt>
      <trkpt lat="45.63249" lon="6.75599">
        <ele>1584.6</ele>
        <time>2021-06-05T09:45:01Z</time>
      </trkpt>
      <trkpt lat="45.63247" lon="6.75601">
        <ele>1584.4</ele>
        <time>2021-06-05T09:45:02Z</time>
      </trkpt>
      <trkpt lat="45.63245" lon="6.75602">
        <ele>1583.8</ele>
        <time>2021-06-05T09:45:03Z</time>
      </trkpt>
      <trkpt lat="45.63243" lon="6.75604">
        <ele>1583.6</ele>
        <time>2021-06-05T09:45:04Z</time>
      </trkpt>
      <trkpt lat="45.63242" lon="6.75605">
        <ele>1583.6</ele>
        <time>2021-06-05T09:45:05Z</time>
      </trkpt>
      <trkpt lat="45.6324" lon="6.75606">
        <ele>1583</ele>
        <time>2021-06-05T09:45:06Z</time>
      </trkpt>
      <trkpt lat="45.63238" lon="6.75609">
        <ele>1582.8</ele>
        <time>2021-06-05T09:45:07Z</time>
      </trkpt>
      <trkpt lat="45.63236" lon="6.7561">
        <ele>1582.2</ele>
        <time>2021-06-05T09:45:08Z</time>
      </trkpt>
      <trkpt lat="45.63235" lon="6.75612">
        <ele>1581.8</ele>
        <time>2021-06-05T09:45:09Z</time>
      </trkpt>
      <trkpt lat="45.63233" lon="6.75614">
        <ele>1581</ele>
        <time>2021-06-05T09:45:10Z</time>
      </trkpt>
      <trkpt lat="45.63231" lon="6.75614">
        <ele>1581</ele>
        <time>2021-06-05T09:45:11Z</time>
      </trkpt>
      <trkpt lat="45.63228" lon="6.75615">
        <ele>1580.6</ele>
        <time>2021-06-05T09:45:12Z</time>
      </trkpt>
      <trkpt lat="45.63227" lon="6.75616">
        <ele>1580.6</ele>
        <time>2021-06-05T09:45:13Z</time>
      </trkpt>
      <trkpt lat="45.63225" lon="6.75616">
        <ele>1580.2</ele>
        <time>2021-06-05T09:45:14Z</time>
      </trkpt>
      <trkpt lat="45.63222" lon="6.75617">
        <ele>1579.6</ele>
        <time>2021-06-05T09:45:16Z</time>
      </trkpt>
      <trkpt lat="45.6322" lon="6.75618">
        <ele>1579.4</ele>
        <time>2021-06-05T09:45:17Z</time>
      </trkpt>
      <trkpt lat="45.63218" lon="6.7562">
        <ele>1578.6</ele>
        <time>2021-06-05T09:45:19Z</time>
      </trkpt>
      <trkpt lat="45.63216" lon="6.75622">
        <ele>1577.8</ele>
        <time>2021-06-05T09:45:20Z</time>
      </trkpt>
      <trkpt lat="45.63215" lon="6.75624">
        <ele>1577.4</ele>
        <time>2021-06-05T09:45:21Z</time>
      </trkpt>
      <trkpt lat="45.63214" lon="6.75628">
        <ele>1575.4</ele>
        <time>2021-06-05T09:45:27Z</time>
      </trkpt>
      <trkpt lat="45.63213" lon="6.75632">
        <ele>1574.6</ele>
        <time>2021-06-05T09:45:29Z</time>
      </trkpt>
      <trkpt lat="45.63212" lon="6.75636">
        <ele>1573.8</ele>
        <time>2021-06-05T09:45:31Z</time>
      </trkpt>
      <trkpt lat="45.6321" lon="6.7564">
        <ele>1573</ele>
        <time>2021-06-05T09:45:33Z</time>
      </trkpt>
      <trkpt lat="45.63208" lon="6.75643">
        <ele>1572.8</ele>
        <time>2021-06-05T09:45:35Z</time>
      </trkpt>
      <trkpt lat="45.63207" lon="6.75645">
        <ele>1572.6</ele>
        <time>2021-06-05T09:45:36Z</time>
      </trkpt>
      <trkpt lat="45.63204" lon="6.75648">
        <ele>1572</ele>
        <time>2021-06-05T09:45:38Z</time>
      </trkpt>
      <trkpt lat="45.63202" lon="6.75652">
        <ele>1571.6</ele>
        <time>2021-06-05T09:45:40Z</time>
      </trkpt>
      <trkpt lat="45.632" lon="6.75655">
        <ele>1570.8</ele>
        <time>2021-06-05T09:45:42Z</time>
      </trkpt>
      <trkpt lat="45.63199" lon="6.75658">
        <ele>1569.8</ele>
        <time>2021-06-05T09:45:44Z</time>
      </trkpt>
      <trkpt lat="45.63199" lon="6.75662">
        <ele>1568.2</ele>
        <time>2021-06-05T09:45:46Z</time>
      </trkpt>
      <trkpt lat="45.632" lon="6.75665">
        <ele>1567.2</ele>
        <time>2021-06-05T09:45:48Z</time>
      </trkpt>
      <trkpt lat="45.63202" lon="6.75666">
        <ele>1566.4</ele>
        <time>2021-06-05T09:45:50Z</time>
      </trkpt>
      <trkpt lat="45.63205" lon="6.75666">
        <ele>1564.8</ele>
        <time>2021-06-05T09:45:52Z</time>
      </trkpt>
      <trkpt lat="45.63205" lon="6.75669">
        <ele>1563.4</ele>
        <time>2021-06-05T09:45:55Z</time>
      </trkpt>
      <trkpt lat="45.63203" lon="6.75671">
        <ele>1562.6</ele>
        <time>2021-06-05T09:45:57Z</time>
      </trkpt>
      <trkpt lat="45.632" lon="6.75675">
        <ele>1561.2</ele>
        <time>2021-06-05T09:45:59Z</time>
      </trkpt>
      <trkpt lat="45.63198" lon="6.75677">
        <ele>1560.2</ele>
        <time>2021-06-05T09:46:01Z</time>
      </trkpt>
      <trkpt lat="45.63195" lon="6.7568">
        <ele>1559</ele>
        <time>2021-06-05T09:46:03Z</time>
      </trkpt>
      <trkpt lat="45.63192" lon="6.75682">
        <ele>1557.6</ele>
        <time>2021-06-05T09:46:05Z</time>
      </trkpt>
      <trkpt lat="45.63189" lon="6.75683">
        <ele>1557</ele>
        <time>2021-06-05T09:46:07Z</time>
      </trkpt>
      <trkpt lat="45.63186" lon="6.75684">
        <ele>1556</ele>
        <time>2021-06-05T09:46:09Z</time>
      </trkpt>
      <trkpt lat="45.63185" lon="6.75686">
        <ele>1555.4</ele>
        <time>2021-06-05T09:46:10Z</time>
      </trkpt>
      <trkpt lat="45.63182" lon="6.75689">
        <ele>1553.8</ele>
        <time>2021-06-05T09:46:12Z</time>
      </trkpt>
      <trkpt lat="45.63181" lon="6.75691">
        <ele>1553.8</ele>
        <time>2021-06-05T09:46:13Z</time>
      </trkpt>
      <trkpt lat="45.63179" lon="6.75694">
        <ele>1551.6</ele>
        <time>2021-06-05T09:46:15Z</time>
      </trkpt>
      <trkpt lat="45.63176" lon="6.75697">
        <ele>1550.4</ele>
        <time>2021-06-05T09:46:17Z</time>
      </trkpt>
      <trkpt lat="45.63174" lon="6.75698">
        <ele>1550.2</ele>
        <time>2021-06-05T09:46:18Z</time>
      </trkpt>
      <trkpt lat="45.63172" lon="6.757">
        <ele>1549.8</ele>
        <time>2021-06-05T09:46:19Z</time>
      </trkpt>
      <trkpt lat="45.63169" lon="6.75701">
        <ele>1548.8</ele>
        <time>2021-06-05T09:46:21Z</time>
      </trkpt>
      <trkpt lat="45.63166" lon="6.75703">
        <ele>1548</ele>
        <time>2021-06-05T09:46:23Z</time>
      </trkpt>
      <trkpt lat="45.63164" lon="6.75706">
        <ele>1547.2</ele>
        <time>2021-06-05T09:46:25Z</time>
      </trkpt>
      <trkpt lat="45.63163" lon="6.75708">
        <ele>1545.8</ele>
        <time>2021-06-05T09:46:27Z</time>
      </trkpt>
      <trkpt lat="45.63161" lon="6.75711">
        <ele>1544.2</ele>
        <time>2021-06-05T09:46:29Z</time>
      </trkpt>
      <trkpt lat="45.63158" lon="6.75713">
        <ele>1543</ele>
        <time>2021-06-05T09:46:31Z</time>
      </trkpt>
      <trkpt lat="45.63156" lon="6.75715">
        <ele>1541.4</ele>
        <time>2021-06-05T09:46:33Z</time>
      </trkpt>
      <trkpt lat="45.63154" lon="6.75718">
        <ele>1540</ele>
        <time>2021-06-05T09:46:35Z</time>
      </trkpt>
      <trkpt lat="45.63151" lon="6.75721">
        <ele>1538.4</ele>
        <time>2021-06-05T09:46:37Z</time>
      </trkpt>
      <trkpt lat="45.63148" lon="6.75722">
        <ele>1536.6</ele>
        <time>2021-06-05T09:46:39Z</time>
      </trkpt>
      <trkpt lat="45.63146" lon="6.75722">
        <ele>1536</ele>
        <time>2021-06-05T09:46:40Z</time>
      </trkpt>
      <trkpt lat="45.63143" lon="6.75723">
        <ele>1534.6</ele>
        <time>2021-06-05T09:46:42Z</time>
      </trkpt>
      <trkpt lat="45.6314" lon="6.75724">
        <ele>1533.6</ele>
        <time>2021-06-05T09:46:44Z</time>
      </trkpt>
      <trkpt lat="45.63138" lon="6.75726">
        <ele>1532.4</ele>
        <time>2021-06-05T09:46:46Z</time>
      </trkpt>
      <trkpt lat="45.63136" lon="6.75727">
        <ele>1531.2</ele>
        <time>2021-06-05T09:46:48Z</time>
      </trkpt>
      <trkpt lat="45.63133" lon="6.75728">
        <ele>1529.6</ele>
        <time>2021-06-05T09:46:50Z</time>
      </trkpt>
      <trkpt lat="45.6313" lon="6.75729">
        <ele>1528.4</ele>
        <time>2021-06-05T09:46:52Z</time>
      </trkpt>
      <trkpt lat="45.63127" lon="6.75729">
        <ele>1527</ele>
        <time>2021-06-05T09:46:54Z</time>
      </trkpt>
      <trkpt lat="45.63124" lon="6.75729">
        <ele>1525.8</ele>
        <time>2021-06-05T09:46:56Z</time>
      </trkpt>
      <trkpt lat="45.63121" lon="6.75729">
        <ele>1524.6</ele>
        <time>2021-06-05T09:46:58Z</time>
      </trkpt>
      <trkpt lat="45.63117" lon="6.7573">
        <ele>1523.2</ele>
        <time>2021-06-05T09:47:00Z</time>
      </trkpt>
      <trkpt lat="45.63115" lon="6.75731">
        <ele>1522</ele>
        <time>2021-06-05T09:47:02Z</time>
      </trkpt>
      <trkpt lat="45.63113" lon="6.75732">
        <ele>1521.4</ele>
        <time>2021-06-05T09:47:03Z</time>
      </trkpt>
      <trkpt lat="45.63111" lon="6.75733">
        <ele>1520</ele>
        <time>2021-06-05T09:47:05Z</time>
      </trkpt>
      <trkpt lat="45.63109" lon="6.75734">
        <ele>1518.6</ele>
        <time>2021-06-05T09:47:07Z</time>
      </trkpt>
      <trkpt lat="45.63106" lon="6.75734">
        <ele>1517.2</ele>
        <time>2021-06-05T09:47:09Z</time>
      </trkpt>
      <trkpt lat="45.63103" lon="6.75733">
        <ele>1516.2</ele>
        <time>2021-06-05T09:47:11Z</time>
      </trkpt>
      <trkpt lat="45.63101" lon="6.75733">
        <ele>1515.6</ele>
        <time>2021-06-05T09:47:12Z</time>
      </trkpt>
      <trkpt lat="45.631" lon="6.75734">
        <ele>1514.8</ele>
        <time>2021-06-05T09:47:13Z</time>
      </trkpt>
      <trkpt lat="45.63096" lon="6.75734">
        <ele>1514</ele>
        <time>2021-06-05T09:47:15Z</time>
      </trkpt>
      <trkpt lat="45.63093" lon="6.75734">
        <ele>1512.8</ele>
        <time>2021-06-05T09:47:17Z</time>
      </trkpt>
      <trkpt lat="45.63091" lon="6.75733">
        <ele>1512.2</ele>
        <time>2021-06-05T09:47:19Z</time>
      </trkpt>
      <trkpt lat="45.63088" lon="6.75733">
        <ele>1511.2</ele>
        <time>2021-06-05T09:47:21Z</time>
      </trkpt>
      <trkpt lat="45.63085" lon="6.75733">
        <ele>1510.2</ele>
        <time>2021-06-05T09:47:23Z</time>
      </trkpt>
      <trkpt lat="45.63082" lon="6.75732">
        <ele>1509.6</ele>
        <time>2021-06-05T09:47:25Z</time>
      </trkpt>
      <trkpt lat="45.63079" lon="6.75732">
        <ele>1508.6</ele>
        <time>2021-06-05T09:47:27Z</time>
      </trkpt>
      <trkpt lat="45.63076" lon="6.75732">
        <ele>1507.4</ele>
        <time>2021-06-05T09:47:29Z</time>
      </trkpt>
      <trkpt lat="45.63073" lon="6.75732">
        <ele>1506.2</ele>
        <time>2021-06-05T09:47:31Z</time>
      </trkpt>
      <trkpt lat="45.63071" lon="6.75732">
        <ele>1505</ele>
        <time>2021-06-05T09:47:32Z</time>
      </trkpt>
      <trkpt lat="45.63068" lon="6.75731">
        <ele>1504</ele>
        <time>2021-06-05T09:47:34Z</time>
      </trkpt>
      <trkpt lat="45.63065" lon="6.75732">
        <ele>1503.4</ele>
        <time>2021-06-05T09:47:36Z</time>
      </trkpt>
      <trkpt lat="45.63061" lon="6.75732">
        <ele>1502.8</ele>
        <time>2021-06-05T09:47:38Z</time>
      </trkpt>
      <trkpt lat="45.63059" lon="6.75732">
        <ele>1502</ele>
        <time>2021-06-05T09:47:40Z</time>
      </trkpt>
      <trkpt lat="45.63056" lon="6.75732">
        <ele>1501</ele>
        <time>2021-06-05T09:47:42Z</time>
      </trkpt>
      <trkpt lat="45.63053" lon="6.75732">
        <ele>1499.8</ele>
        <time>2021-06-05T09:47:44Z</time>
      </trkpt>
      <trkpt lat="45.63051" lon="6.75732">
        <ele>1498.6</ele>
        <time>2021-06-05T09:47:46Z</time>
      </trkpt>
      <trkpt lat="45.63048" lon="6.75732">
        <ele>1498.2</ele>
        <time>2021-06-05T09:47:48Z</time>
      </trkpt>
      <trkpt lat="45.63046" lon="6.75732">
        <ele>1497</ele>
        <time>2021-06-05T09:47:50Z</time>
      </trkpt>
      <trkpt lat="45.63047" lon="6.75734">
        <ele>1495.6</ele>
        <time>2021-06-05T09:47:54Z</time>
      </trkpt>
      <trkpt lat="45.63048" lon="6.75736">
        <ele>1495.4</ele>
        <time>2021-06-05T09:47:55Z</time>
      </trkpt>
      <trkpt lat="45.63051" lon="6.75739">
        <ele>1494.6</ele>
        <time>2021-06-05T09:47:57Z</time>
      </trkpt>
      <trkpt lat="45.63052" lon="6.7574">
        <ele>1494.2</ele>
        <time>2021-06-05T09:47:58Z</time>
      </trkpt>
      <trkpt lat="45.63054" lon="6.75743">
        <ele>1493.2</ele>
        <time>2021-06-05T09:48:00Z</time>
      </trkpt>
      <trkpt lat="45.63057" lon="6.75746">
        <ele>1492.6</ele>
        <time>2021-06-05T09:48:02Z</time>
      </trkpt>
      <trkpt lat="45.63059" lon="6.75749">
        <ele>1492</ele>
        <time>2021-06-05T09:48:04Z</time>
      </trkpt>
      <trkpt lat="45.63061" lon="6.75752">
        <ele>1491.4</ele>
        <time>2021-06-05T09:48:06Z</time>
      </trkpt>
      <trkpt lat="45.63062" lon="6.75756">
        <ele>1490.2</ele>
        <time>2021-06-05T09:48:08Z</time>
      </trkpt>
      <trkpt lat="45.63063" lon="6.75761">
        <ele>1489.2</ele>
        <time>2021-06-05T09:48:10Z</time>
      </trkpt>
      <trkpt lat="45.63064" lon="6.75763">
        <ele>1488.8</ele>
        <time>2021-06-05T09:48:11Z</time>
      </trkpt>
      <trkpt lat="45.63065" lon="6.75767">
        <ele>1487.8</ele>
        <time>2021-06-05T09:48:13Z</time>
      </trkpt>
      <trkpt lat="45.63067" lon="6.75769">
        <ele>1487.4</ele>
        <time>2021-06-05T09:48:14Z</time>
      </trkpt>
      <trkpt lat="45.63068" lon="6.75773">
        <ele>1486.2</ele>
        <time>2021-06-05T09:48:16Z</time>
      </trkpt>
      <trkpt lat="45.63071" lon="6.75777">
        <ele>1485.2</ele>
        <time>2021-06-05T09:48:18Z</time>
      </trkpt>
      <trkpt lat="45.63073" lon="6.7578">
        <ele>1483.8</ele>
        <time>2021-06-05T09:48:20Z</time>
      </trkpt>
      <trkpt lat="45.63076" lon="6.75783">
        <ele>1483</ele>
        <time>2021-06-05T09:48:22Z</time>
      </trkpt>
      <trkpt lat="45.63078" lon="6.75786">
        <ele>1482.2</ele>
        <time>2021-06-05T09:48:24Z</time>
      </trkpt>
      <trkpt lat="45.63079" lon="6.75789">
        <ele>1481.6</ele>
        <time>2021-06-05T09:48:26Z</time>
      </trkpt>
      <trkpt lat="45.63077" lon="6.75791">
        <ele>1481</ele>
        <time>2021-06-05T09:48:28Z</time>
      </trkpt>
      <trkpt lat="45.63074" lon="6.75792">
        <ele>1480.8</ele>
        <time>2021-06-05T09:48:30Z</time>
      </trkpt>
      <trkpt lat="45.63072" lon="6.75792">
        <ele>1480.6</ele>
        <time>2021-06-05T09:48:31Z</time>
      </trkpt>
      <trkpt lat="45.63069" lon="6.75794">
        <ele>1479.6</ele>
        <time>2021-06-05T09:48:33Z</time>
      </trkpt>
      <trkpt lat="45.63067" lon="6.75796">
        <ele>1479</ele>
        <time>2021-06-05T09:48:35Z</time>
      </trkpt>
      <trkpt lat="45.63067" lon="6.758">
        <ele>1478</ele>
        <time>2021-06-05T09:48:37Z</time>
      </trkpt>
      <trkpt lat="45.63067" lon="6.75805">
        <ele>1477</ele>
        <time>2021-06-05T09:48:39Z</time>
      </trkpt>
      <trkpt lat="45.63067" lon="6.75809">
        <ele>1476</ele>
        <time>2021-06-05T09:48:41Z</time>
      </trkpt>
      <trkpt lat="45.63067" lon="6.75814">
        <ele>1474.4</ele>
        <time>2021-06-05T09:48:43Z</time>
      </trkpt>
      <trkpt lat="45.63067" lon="6.75818">
        <ele>1473.4</ele>
        <time>2021-06-05T09:48:45Z</time>
      </trkpt>
      <trkpt lat="45.63066" lon="6.75822">
        <ele>1472</ele>
        <time>2021-06-05T09:48:47Z</time>
      </trkpt>
      <trkpt lat="45.63067" lon="6.75825">
        <ele>1471.4</ele>
        <time>2021-06-05T09:48:49Z</time>
      </trkpt>
      <trkpt lat="45.63069" lon="6.75827">
        <ele>1470.4</ele>
        <time>2021-06-05T09:48:51Z</time>
      </trkpt>
      <trkpt lat="45.63069" lon="6.75831">
        <ele>1468.8</ele>
        <time>2021-06-05T09:48:53Z</time>
      </trkpt>
      <trkpt lat="45.63068" lon="6.75835">
        <ele>1468.2</ele>
        <time>2021-06-05T09:48:55Z</time>
      </trkpt>
      <trkpt lat="45.63067" lon="6.75838">
        <ele>1468</ele>
        <time>2021-06-05T09:48:56Z</time>
      </trkpt>
      <trkpt lat="45.63065" lon="6.7584">
        <ele>1467.6</ele>
        <time>2021-06-05T09:48:57Z</time>
      </trkpt>
      <trkpt lat="45.63063" lon="6.75841">
        <ele>1467</ele>
        <time>2021-06-05T09:48:58Z</time>
      </trkpt>
      <trkpt lat="45.6306" lon="6.7584">
        <ele>1467</ele>
        <time>2021-06-05T09:48:59Z</time>
      </trkpt>
      <trkpt lat="45.63058" lon="6.75839">
        <ele>1466.6</ele>
        <time>2021-06-05T09:49:00Z</time>
      </trkpt>
      <trkpt lat="45.63055" lon="6.75838">
        <ele>1466.4</ele>
        <time>2021-06-05T09:49:01Z</time>
      </trkpt>
      <trkpt lat="45.63052" lon="6.75836">
        <ele>1466.6</ele>
        <time>2021-06-05T09:49:02Z</time>
      </trkpt>
      <trkpt lat="45.6305" lon="6.75835">
        <ele>1466.2</ele>
        <time>2021-06-05T09:49:03Z</time>
      </trkpt>
      <trkpt lat="45.63048" lon="6.75834">
        <ele>1466</ele>
        <time>2021-06-05T09:49:04Z</time>
      </trkpt>
      <trkpt lat="45.63046" lon="6.75833">
        <ele>1466</ele>
        <time>2021-06-05T09:49:05Z</time>
      </trkpt>
      <trkpt lat="45.63044" lon="6.75833">
        <ele>1465.6</ele>
        <time>2021-06-05T09:49:06Z</time>
      </trkpt>
      <trkpt lat="45.63042" lon="6.75832">
        <ele>1465.2</ele>
        <time>2021-06-05T09:49:07Z</time>
      </trkpt>
      <trkpt lat="45.6304" lon="6.75832">
        <ele>1464.6</ele>
        <time>2021-06-05T09:49:08Z</time>
      </trkpt>
      <trkpt lat="45.63036" lon="6.75829">
        <ele>1464</ele>
        <time>2021-06-05T09:49:10Z</time>
      </trkpt>
      <trkpt lat="45.63035" lon="6.75827">
        <ele>1463.2</ele>
        <time>2021-06-05T09:49:11Z</time>
      </trkpt>
      <trkpt lat="45.63033" lon="6.75826">
        <ele>1462.2</ele>
        <time>2021-06-05T09:49:12Z</time>
      </trkpt>
      <trkpt lat="45.63031" lon="6.75824">
        <ele>1462</ele>
        <time>2021-06-05T09:49:13Z</time>
      </trkpt>
      <trkpt lat="45.63029" lon="6.75823">
        <ele>1461.2</ele>
        <time>2021-06-05T09:49:14Z</time>
      </trkpt>
      <trkpt lat="45.63026" lon="6.75821">
        <ele>1459.6</ele>
        <time>2021-06-05T09:49:16Z</time>
      </trkpt>
      <trkpt lat="45.63023" lon="6.7582">
        <ele>1460</ele>
        <time>2021-06-05T09:49:18Z</time>
      </trkpt>
      <trkpt lat="45.63021" lon="6.7582">
        <ele>1460</ele>
        <time>2021-06-05T09:49:19Z</time>
      </trkpt>
      <trkpt lat="45.63019" lon="6.7582">
        <ele>1459.6</ele>
        <time>2021-06-05T09:49:20Z</time>
      </trkpt>
      <trkpt lat="45.63016" lon="6.7582">
        <ele>1459.2</ele>
        <time>2021-06-05T09:49:22Z</time>
      </trkpt>
      <trkpt lat="45.63013" lon="6.75822">
        <ele>1457.8</ele>
        <time>2021-06-05T09:49:25Z</time>
      </trkpt>
      <trkpt lat="45.63011" lon="6.75824">
        <ele>1457.2</ele>
        <time>2021-06-05T09:49:27Z</time>
      </trkpt>
      <trkpt lat="45.63007" lon="6.75824">
        <ele>1456.8</ele>
        <time>2021-06-05T09:49:29Z</time>
      </trkpt>
      <trkpt lat="45.63004" lon="6.75823">
        <ele>1456</ele>
        <time>2021-06-05T09:49:31Z</time>
      </trkpt>
      <trkpt lat="45.63002" lon="6.75821">
        <ele>1455.4</ele>
        <time>2021-06-05T09:49:32Z</time>
      </trkpt>
      <trkpt lat="45.63" lon="6.7582">
        <ele>1455.2</ele>
        <time>2021-06-05T09:49:33Z</time>
      </trkpt>
      <trkpt lat="45.62998" lon="6.75819">
        <ele>1454.6</ele>
        <time>2021-06-05T09:49:34Z</time>
      </trkpt>
      <trkpt lat="45.62996" lon="6.75818">
        <ele>1454.4</ele>
        <time>2021-06-05T09:49:35Z</time>
      </trkpt>
      <trkpt lat="45.62994" lon="6.75817">
        <ele>1454.2</ele>
        <time>2021-06-05T09:49:36Z</time>
      </trkpt>
      <trkpt lat="45.62992" lon="6.75815">
        <ele>1453.6</ele>
        <time>2021-06-05T09:49:38Z</time>
      </trkpt>
      <trkpt lat="45.62989" lon="6.75816">
        <ele>1453.4</ele>
        <time>2021-06-05T09:49:40Z</time>
      </trkpt>
      <trkpt lat="45.62986" lon="6.75815">
        <ele>1452.2</ele>
        <time>2021-06-05T09:49:42Z</time>
      </trkpt>
      <trkpt lat="45.62984" lon="6.75814">
        <ele>1451.8</ele>
        <time>2021-06-05T09:49:43Z</time>
      </trkpt>
      <trkpt lat="45.62982" lon="6.75813">
        <ele>1451.4</ele>
        <time>2021-06-05T09:49:44Z</time>
      </trkpt>
      <trkpt lat="45.6298" lon="6.75811">
        <ele>1450.8</ele>
        <time>2021-06-05T09:49:45Z</time>
      </trkpt>
      <trkpt lat="45.62978" lon="6.7581">
        <ele>1450.4</ele>
        <time>2021-06-05T09:49:46Z</time>
      </trkpt>
      <trkpt lat="45.62976" lon="6.75808">
        <ele>1449.6</ele>
        <time>2021-06-05T09:49:47Z</time>
      </trkpt>
      <trkpt lat="45.62974" lon="6.75807">
        <ele>1448.8</ele>
        <time>2021-06-05T09:49:48Z</time>
      </trkpt>
      <trkpt lat="45.62972" lon="6.75804">
        <ele>1448.2</ele>
        <time>2021-06-05T09:49:50Z</time>
      </trkpt>
      <trkpt lat="45.62968" lon="6.75802">
        <ele>1447.4</ele>
        <time>2021-06-05T09:49:52Z</time>
      </trkpt>
      <trkpt lat="45.62966" lon="6.75801">
        <ele>1446.8</ele>
        <time>2021-06-05T09:49:53Z</time>
      </trkpt>
      <trkpt lat="45.62964" lon="6.758">
        <ele>1446.6</ele>
        <time>2021-06-05T09:49:54Z</time>
      </trkpt>
      <trkpt lat="45.62963" lon="6.75798">
        <ele>1446.2</ele>
        <time>2021-06-05T09:49:55Z</time>
      </trkpt>
      <trkpt lat="45.62961" lon="6.75797">
        <ele>1445.6</ele>
        <time>2021-06-05T09:49:56Z</time>
      </trkpt>
      <trkpt lat="45.62959" lon="6.75796">
        <ele>1445</ele>
        <time>2021-06-05T09:49:57Z</time>
      </trkpt>
      <trkpt lat="45.62957" lon="6.75796">
        <ele>1444.4</ele>
        <time>2021-06-05T09:49:58Z</time>
      </trkpt>
      <trkpt lat="45.62955" lon="6.75796">
        <ele>1443.8</ele>
        <time>2021-06-05T09:49:59Z</time>
      </trkpt>
      <trkpt lat="45.62952" lon="6.75793">
        <ele>1442.6</ele>
        <time>2021-06-05T09:50:01Z</time>
      </trkpt>
      <trkpt lat="45.6295" lon="6.75791">
        <ele>1441.8</ele>
        <time>2021-06-05T09:50:03Z</time>
      </trkpt>
      <trkpt lat="45.62948" lon="6.7579">
        <ele>1441</ele>
        <time>2021-06-05T09:50:05Z</time>
      </trkpt>
      <trkpt lat="45.62945" lon="6.75789">
        <ele>1440.6</ele>
        <time>2021-06-05T09:50:07Z</time>
      </trkpt>
      <trkpt lat="45.62943" lon="6.75789">
        <ele>1439.4</ele>
        <time>2021-06-05T09:50:09Z</time>
      </trkpt>
      <trkpt lat="45.62941" lon="6.75789">
        <ele>1438.4</ele>
        <time>2021-06-05T09:50:11Z</time>
      </trkpt>
      <trkpt lat="45.62938" lon="6.75789">
        <ele>1436.8</ele>
        <time>2021-06-05T09:50:13Z</time>
      </trkpt>
      <trkpt lat="45.62936" lon="6.75789">
        <ele>1436.2</ele>
        <time>2021-06-05T09:50:14Z</time>
      </trkpt>
      <trkpt lat="45.62933" lon="6.75789">
        <ele>1435.6</ele>
        <time>2021-06-05T09:50:16Z</time>
      </trkpt>
      <trkpt lat="45.62931" lon="6.75789">
        <ele>1435.4</ele>
        <time>2021-06-05T09:50:17Z</time>
      </trkpt>
      <trkpt lat="45.62929" lon="6.7579">
        <ele>1435</ele>
        <time>2021-06-05T09:50:18Z</time>
      </trkpt>
      <trkpt lat="45.62926" lon="6.7579">
        <ele>1434</ele>
        <time>2021-06-05T09:50:20Z</time>
      </trkpt>
      <trkpt lat="45.62924" lon="6.7579">
        <ele>1433</ele>
        <time>2021-06-05T09:50:22Z</time>
      </trkpt>
      <trkpt lat="45.62921" lon="6.75792">
        <ele>1432.2</ele>
        <time>2021-06-05T09:50:24Z</time>
      </trkpt>
      <trkpt lat="45.62918" lon="6.75796">
        <ele>1430.4</ele>
        <time>2021-06-05T09:50:26Z</time>
      </trkpt>
      <trkpt lat="45.62916" lon="6.75797">
        <ele>1429.2</ele>
        <time>2021-06-05T09:50:27Z</time>
      </trkpt>
      <trkpt lat="45.62914" lon="6.75799">
        <ele>1428.6</ele>
        <time>2021-06-05T09:50:28Z</time>
      </trkpt>
      <trkpt lat="45.62912" lon="6.75801">
        <ele>1427.4</ele>
        <time>2021-06-05T09:50:30Z</time>
      </trkpt>
      <trkpt lat="45.6291" lon="6.75802">
        <ele>1426.8</ele>
        <time>2021-06-05T09:50:31Z</time>
      </trkpt>
      <trkpt lat="45.62908" lon="6.75804">
        <ele>1425.4</ele>
        <time>2021-06-05T09:50:33Z</time>
      </trkpt>
      <trkpt lat="45.62905" lon="6.75802">
        <ele>1424.6</ele>
        <time>2021-06-05T09:50:35Z</time>
      </trkpt>
      <trkpt lat="45.62902" lon="6.758">
        <ele>1423.8</ele>
        <time>2021-06-05T09:50:37Z</time>
      </trkpt>
      <trkpt lat="45.629" lon="6.75799">
        <ele>1423.4</ele>
        <time>2021-06-05T09:50:38Z</time>
      </trkpt>
      <trkpt lat="45.62897" lon="6.75798">
        <ele>1423</ele>
        <time>2021-06-05T09:50:39Z</time>
      </trkpt>
      <trkpt lat="45.62894" lon="6.75798">
        <ele>1422.4</ele>
        <time>2021-06-05T09:50:40Z</time>
      </trkpt>
      <trkpt lat="45.62892" lon="6.75797">
        <ele>1422.2</ele>
        <time>2021-06-05T09:50:41Z</time>
      </trkpt>
      <trkpt lat="45.62889" lon="6.75797">
        <ele>1421.6</ele>
        <time>2021-06-05T09:50:42Z</time>
      </trkpt>
      <trkpt lat="45.62887" lon="6.75796">
        <ele>1421.2</ele>
        <time>2021-06-05T09:50:43Z</time>
      </trkpt>
      <trkpt lat="45.62885" lon="6.75795">
        <ele>1420.8</ele>
        <time>2021-06-05T09:50:44Z</time>
      </trkpt>
      <trkpt lat="45.62883" lon="6.75794">
        <ele>1420.6</ele>
        <time>2021-06-05T09:50:45Z</time>
      </trkpt>
      <trkpt lat="45.62881" lon="6.75794">
        <ele>1420</ele>
        <time>2021-06-05T09:50:46Z</time>
      </trkpt>
      <trkpt lat="45.62878" lon="6.75794">
        <ele>1419.4</ele>
        <time>2021-06-05T09:50:47Z</time>
      </trkpt>
      <trkpt lat="45.62876" lon="6.75793">
        <ele>1419</ele>
        <time>2021-06-05T09:50:48Z</time>
      </trkpt>
      <trkpt lat="45.62874" lon="6.75792">
        <ele>1418.6</ele>
        <time>2021-06-05T09:50:49Z</time>
      </trkpt>
      <trkpt lat="45.62872" lon="6.75792">
        <ele>1417.8</ele>
        <time>2021-06-05T09:50:50Z</time>
      </trkpt>
      <trkpt lat="45.6287" lon="6.75792">
        <ele>1417.4</ele>
        <time>2021-06-05T09:50:51Z</time>
      </trkpt>
      <trkpt lat="45.62868" lon="6.75791">
        <ele>1416.8</ele>
        <time>2021-06-05T09:50:52Z</time>
      </trkpt>
      <trkpt lat="45.62866" lon="6.75791">
        <ele>1416.4</ele>
        <time>2021-06-05T09:50:53Z</time>
      </trkpt>
      <trkpt lat="45.62864" lon="6.75791">
        <ele>1415.4</ele>
        <time>2021-06-05T09:50:54Z</time>
      </trkpt>
      <trkpt lat="45.62861" lon="6.75792">
        <ele>1414.4</ele>
        <time>2021-06-05T09:50:55Z</time>
      </trkpt>
      <trkpt lat="45.62859" lon="6.75792">
        <ele>1413.6</ele>
        <time>2021-06-05T09:50:56Z</time>
      </trkpt>
      <trkpt lat="45.62857" lon="6.75792">
        <ele>1412</ele>
        <time>2021-06-05T09:50:57Z</time>
      </trkpt>
      <trkpt lat="45.62855" lon="6.75793">
        <ele>1411.4</ele>
        <time>2021-06-05T09:50:58Z</time>
      </trkpt>
      <trkpt lat="45.62853" lon="6.75794">
        <ele>1411</ele>
        <time>2021-06-05T09:50:59Z</time>
      </trkpt>
      <trkpt lat="45.62851" lon="6.75797">
        <ele>1410.2</ele>
        <time>2021-06-05T09:51:01Z</time>
      </trkpt>
      <trkpt lat="45.62849" lon="6.75798">
        <ele>1409</ele>
        <time>2021-06-05T09:51:03Z</time>
      </trkpt>
      <trkpt lat="45.62846" lon="6.75798">
        <ele>1408.4</ele>
        <time>2021-06-05T09:51:04Z</time>
      </trkpt>
      <trkpt lat="45.62844" lon="6.75798">
        <ele>1407.6</ele>
        <time>2021-06-05T09:51:05Z</time>
      </trkpt>
      <trkpt lat="45.62843" lon="6.758">
        <ele>1407.2</ele>
        <time>2021-06-05T09:51:06Z</time>
      </trkpt>
      <trkpt lat="45.62841" lon="6.75802">
        <ele>1406.2</ele>
        <time>2021-06-05T09:51:07Z</time>
      </trkpt>
      <trkpt lat="45.62838" lon="6.75803">
        <ele>1404</ele>
        <time>2021-06-05T09:51:09Z</time>
      </trkpt>
      <trkpt lat="45.62835" lon="6.75802">
        <ele>1402.8</ele>
        <time>2021-06-05T09:51:11Z</time>
      </trkpt>
      <trkpt lat="45.62833" lon="6.75802">
        <ele>1402</ele>
        <time>2021-06-05T09:51:12Z</time>
      </trkpt>
      <trkpt lat="45.6283" lon="6.75802">
        <ele>1401.6</ele>
        <time>2021-06-05T09:51:13Z</time>
      </trkpt>
      <trkpt lat="45.62828" lon="6.75802">
        <ele>1401</ele>
        <time>2021-06-05T09:51:14Z</time>
      </trkpt>
      <trkpt lat="45.62826" lon="6.75802">
        <ele>1400</ele>
        <time>2021-06-05T09:51:15Z</time>
      </trkpt>
      <trkpt lat="45.62824" lon="6.75801">
        <ele>1399</ele>
        <time>2021-06-05T09:51:16Z</time>
      </trkpt>
      <trkpt lat="45.62821" lon="6.758">
        <ele>1398.6</ele>
        <time>2021-06-05T09:51:17Z</time>
      </trkpt>
      <trkpt lat="45.62819" lon="6.758">
        <ele>1398</ele>
        <time>2021-06-05T09:51:18Z</time>
      </trkpt>
      <trkpt lat="45.62817" lon="6.758">
        <ele>1397.6</ele>
        <time>2021-06-05T09:51:19Z</time>
      </trkpt>
      <trkpt lat="45.62815" lon="6.75799">
        <ele>1397.2</ele>
        <time>2021-06-05T09:51:20Z</time>
      </trkpt>
      <trkpt lat="45.62813" lon="6.75799">
        <ele>1396.6</ele>
        <time>2021-06-05T09:51:21Z</time>
      </trkpt>
      <trkpt lat="45.6281" lon="6.75798">
        <ele>1396.2</ele>
        <time>2021-06-05T09:51:22Z</time>
      </trkpt>
      <trkpt lat="45.62808" lon="6.75798">
        <ele>1395.8</ele>
        <time>2021-06-05T09:51:23Z</time>
      </trkpt>
      <trkpt lat="45.62806" lon="6.75796">
        <ele>1395.2</ele>
        <time>2021-06-05T09:51:24Z</time>
      </trkpt>
      <trkpt lat="45.62804" lon="6.75795">
        <ele>1394.8</ele>
        <time>2021-06-05T09:51:25Z</time>
      </trkpt>
      <trkpt lat="45.62801" lon="6.75794">
        <ele>1393.4</ele>
        <time>2021-06-05T09:51:27Z</time>
      </trkpt>
      <trkpt lat="45.62797" lon="6.75793">
        <ele>1392.4</ele>
        <time>2021-06-05T09:51:29Z</time>
      </trkpt>
      <trkpt lat="45.62796" lon="6.75793">
        <ele>1391.6</ele>
        <time>2021-06-05T09:51:30Z</time>
      </trkpt>
      <trkpt lat="45.62793" lon="6.75793">
        <ele>1391.2</ele>
        <time>2021-06-05T09:51:32Z</time>
      </trkpt>
      <trkpt lat="45.62792" lon="6.75796">
        <ele>1389.8</ele>
        <time>2021-06-05T09:51:35Z</time>
      </trkpt>
      <trkpt lat="45.62791" lon="6.75799">
        <ele>1388.2</ele>
        <time>2021-06-05T09:51:37Z</time>
      </trkpt>
      <trkpt lat="45.62788" lon="6.75799">
        <ele>1387.4</ele>
        <time>2021-06-05T09:51:39Z</time>
      </trkpt>
      <trkpt lat="45.62786" lon="6.75799">
        <ele>1386.6</ele>
        <time>2021-06-05T09:51:41Z</time>
      </trkpt>
      <trkpt lat="45.62783" lon="6.75799">
        <ele>1385.6</ele>
        <time>2021-06-05T09:51:43Z</time>
      </trkpt>
      <trkpt lat="45.62781" lon="6.75798">
        <ele>1384.6</ele>
        <time>2021-06-05T09:51:45Z</time>
      </trkpt>
      <trkpt lat="45.62779" lon="6.75798">
        <ele>1383</ele>
        <time>2021-06-05T09:51:47Z</time>
      </trkpt>
      <trkpt lat="45.62776" lon="6.75797">
        <ele>1382.4</ele>
        <time>2021-06-05T09:51:49Z</time>
      </trkpt>
      <trkpt lat="45.62773" lon="6.75797">
        <ele>1381.4</ele>
        <time>2021-06-05T09:51:51Z</time>
      </trkpt>
      <trkpt lat="45.62772" lon="6.75799">
        <ele>1379.8</ele>
        <time>2021-06-05T09:51:54Z</time>
      </trkpt>
      <trkpt lat="45.62769" lon="6.75798">
        <ele>1379.2</ele>
        <time>2021-06-05T09:51:56Z</time>
      </trkpt>
      <trkpt lat="45.62767" lon="6.75798">
        <ele>1378.4</ele>
        <time>2021-06-05T09:51:58Z</time>
      </trkpt>
      <trkpt lat="45.62766" lon="6.75802">
        <ele>1377.6</ele>
        <time>2021-06-05T09:52:01Z</time>
      </trkpt>
      <trkpt lat="45.62764" lon="6.75804">
        <ele>1376.8</ele>
        <time>2021-06-05T09:52:03Z</time>
      </trkpt>
      <trkpt lat="45.62761" lon="6.75804">
        <ele>1376</ele>
        <time>2021-06-05T09:52:05Z</time>
      </trkpt>
      <trkpt lat="45.62759" lon="6.75803">
        <ele>1375.4</ele>
        <time>2021-06-05T09:52:06Z</time>
      </trkpt>
      <trkpt lat="45.62757" lon="6.75803">
        <ele>1374.8</ele>
        <time>2021-06-05T09:52:07Z</time>
      </trkpt>
      <trkpt lat="45.62755" lon="6.75804">
        <ele>1372.2</ele>
        <time>2021-06-05T09:52:11Z</time>
      </trkpt>
      <trkpt lat="45.62753" lon="6.75804">
        <ele>1371.4</ele>
        <time>2021-06-05T09:52:13Z</time>
      </trkpt>
      <trkpt lat="45.62751" lon="6.75804">
        <ele>1371.2</ele>
        <time>2021-06-05T09:52:14Z</time>
      </trkpt>
      <trkpt lat="45.62749" lon="6.75804">
        <ele>1370.8</ele>
        <time>2021-06-05T09:52:15Z</time>
      </trkpt>
      <trkpt lat="45.62747" lon="6.75803">
        <ele>1370</ele>
        <time>2021-06-05T09:52:17Z</time>
      </trkpt>
      <trkpt lat="45.62745" lon="6.75805">
        <ele>1369</ele>
        <time>2021-06-05T09:52:19Z</time>
      </trkpt>
      <trkpt lat="45.62744" lon="6.75809">
        <ele>1368</ele>
        <time>2021-06-05T09:52:21Z</time>
      </trkpt>
      <trkpt lat="45.62742" lon="6.75809">
        <ele>1367</ele>
        <time>2021-06-05T09:52:23Z</time>
      </trkpt>
      <trkpt lat="45.62739" lon="6.75808">
        <ele>1366.2</ele>
        <time>2021-06-05T09:52:25Z</time>
      </trkpt>
      <trkpt lat="45.62738" lon="6.75807">
        <ele>1365.2</ele>
        <time>2021-06-05T09:52:27Z</time>
      </trkpt>
      <trkpt lat="45.62737" lon="6.7581">
        <ele>1364</ele>
        <time>2021-06-05T09:52:29Z</time>
      </trkpt>
      <trkpt lat="45.62737" lon="6.75814">
        <ele>1363</ele>
        <time>2021-06-05T09:52:31Z</time>
      </trkpt>
      <trkpt lat="45.62735" lon="6.75814">
        <ele>1362.4</ele>
        <time>2021-06-05T09:52:33Z</time>
      </trkpt>
      <trkpt lat="45.62732" lon="6.75813">
        <ele>1362.2</ele>
        <time>2021-06-05T09:52:34Z</time>
      </trkpt>
      <trkpt lat="45.6273" lon="6.75811">
        <ele>1361.2</ele>
        <time>2021-06-05T09:52:35Z</time>
      </trkpt>
      <trkpt lat="45.62728" lon="6.7581">
        <ele>1360.4</ele>
        <time>2021-06-05T09:52:36Z</time>
      </trkpt>
      <trkpt lat="45.62725" lon="6.75809">
        <ele>1359.8</ele>
        <time>2021-06-05T09:52:37Z</time>
      </trkpt>
      <trkpt lat="45.62723" lon="6.75807">
        <ele>1359</ele>
        <time>2021-06-05T09:52:38Z</time>
      </trkpt>
      <trkpt lat="45.62721" lon="6.75806">
        <ele>1358</ele>
        <time>2021-06-05T09:52:39Z</time>
      </trkpt>
      <trkpt lat="45.62719" lon="6.75804">
        <ele>1357.8</ele>
        <time>2021-06-05T09:52:40Z</time>
      </trkpt>
      <trkpt lat="45.62718" lon="6.75802">
        <ele>1357.4</ele>
        <time>2021-06-05T09:52:41Z</time>
      </trkpt>
      <trkpt lat="45.62715" lon="6.758">
        <ele>1357</ele>
        <time>2021-06-05T09:52:43Z</time>
      </trkpt>
      <trkpt lat="45.62713" lon="6.75803">
        <ele>1355.6</ele>
        <time>2021-06-05T09:52:45Z</time>
      </trkpt>
      <trkpt lat="45.62712" lon="6.75805">
        <ele>1355</ele>
        <time>2021-06-05T09:52:46Z</time>
      </trkpt>
      <trkpt lat="45.6271" lon="6.75807">
        <ele>1354.4</ele>
        <time>2021-06-05T09:52:47Z</time>
      </trkpt>
      <trkpt lat="45.62708" lon="6.75807">
        <ele>1354.2</ele>
        <time>2021-06-05T09:52:48Z</time>
      </trkpt>
      <trkpt lat="45.62706" lon="6.75807">
        <ele>1354</ele>
        <time>2021-06-05T09:52:49Z</time>
      </trkpt>
      <trkpt lat="45.62704" lon="6.75806">
        <ele>1353.4</ele>
        <time>2021-06-05T09:52:50Z</time>
      </trkpt>
      <trkpt lat="45.62705" lon="6.75802">
        <ele>1352.2</ele>
        <time>2021-06-05T09:52:52Z</time>
      </trkpt>
      <trkpt lat="45.62706" lon="6.75798">
        <ele>1351.6</ele>
        <time>2021-06-05T09:52:54Z</time>
      </trkpt>
      <trkpt lat="45.62704" lon="6.75795">
        <ele>1351.4</ele>
        <time>2021-06-05T09:52:55Z</time>
      </trkpt>
      <trkpt lat="45.62704" lon="6.75791">
        <ele>1349.6</ele>
        <time>2021-06-05T09:52:57Z</time>
      </trkpt>
      <trkpt lat="45.62704" lon="6.75788">
        <ele>1348.8</ele>
        <time>2021-06-05T09:52:59Z</time>
      </trkpt>
      <trkpt lat="45.62703" lon="6.75786">
        <ele>1348</ele>
        <time>2021-06-05T09:53:01Z</time>
      </trkpt>
      <trkpt lat="45.62701" lon="6.75788">
        <ele>1347</ele>
        <time>2021-06-05T09:53:04Z</time>
      </trkpt>
      <trkpt lat="45.62699" lon="6.75786">
        <ele>1345.6</ele>
        <time>2021-06-05T09:53:06Z</time>
      </trkpt>
      <trkpt lat="45.62699" lon="6.75782">
        <ele>1344.8</ele>
        <time>2021-06-05T09:53:08Z</time>
      </trkpt>
      <trkpt lat="45.62697" lon="6.7578">
        <ele>1344</ele>
        <time>2021-06-05T09:53:09Z</time>
      </trkpt>
      <trkpt lat="45.62695" lon="6.75778">
        <ele>1343.6</ele>
        <time>2021-06-05T09:53:10Z</time>
      </trkpt>
      <trkpt lat="45.62694" lon="6.75775">
        <ele>1342.6</ele>
        <time>2021-06-05T09:53:12Z</time>
      </trkpt>
      <trkpt lat="45.62693" lon="6.7578">
        <ele>1341</ele>
        <time>2021-06-05T09:53:15Z</time>
      </trkpt>
      <trkpt lat="45.62692" lon="6.75783">
        <ele>1339.8</ele>
        <time>2021-06-05T09:53:17Z</time>
      </trkpt>
      <trkpt lat="45.6269" lon="6.75786">
        <ele>1338.8</ele>
        <time>2021-06-05T09:53:19Z</time>
      </trkpt>
      <trkpt lat="45.62688" lon="6.75785">
        <ele>1337.8</ele>
        <time>2021-06-05T09:53:21Z</time>
      </trkpt>
      <trkpt lat="45.62687" lon="6.75782">
        <ele>1336.8</ele>
        <time>2021-06-05T09:53:23Z</time>
      </trkpt>
      <trkpt lat="45.62685" lon="6.75777">
        <ele>1335.6</ele>
        <time>2021-06-05T09:53:25Z</time>
      </trkpt>
      <trkpt lat="45.62684" lon="6.75774">
        <ele>1334.8</ele>
        <time>2021-06-05T09:53:26Z</time>
      </trkpt>
      <trkpt lat="45.62682" lon="6.75772">
        <ele>1334.4</ele>
        <time>2021-06-05T09:53:27Z</time>
      </trkpt>
      <trkpt lat="45.62681" lon="6.7577">
        <ele>1333.8</ele>
        <time>2021-06-05T09:53:28Z</time>
      </trkpt>
      <trkpt lat="45.62678" lon="6.7577">
        <ele>1332.4</ele>
        <time>2021-06-05T09:53:30Z</time>
      </trkpt>
      <trkpt lat="45.6268" lon="6.75772">
        <ele>1330.8</ele>
        <time>2021-06-05T09:53:32Z</time>
      </trkpt>
      <trkpt lat="45.6268" lon="6.75776">
        <ele>1329.8</ele>
        <time>2021-06-05T09:53:34Z</time>
      </trkpt>
      <trkpt lat="45.62678" lon="6.75779">
        <ele>1328.2</ele>
        <time>2021-06-05T09:53:36Z</time>
      </trkpt>
      <trkpt lat="45.62677" lon="6.75782">
        <ele>1327.8</ele>
        <time>2021-06-05T09:53:37Z</time>
      </trkpt>
      <trkpt lat="45.62676" lon="6.75785">
        <ele>1327.2</ele>
        <time>2021-06-05T09:53:38Z</time>
      </trkpt>
      <trkpt lat="45.62676" lon="6.75788">
        <ele>1326.4</ele>
        <time>2021-06-05T09:53:39Z</time>
      </trkpt>
      <trkpt lat="45.62674" lon="6.75792">
        <ele>1324.6</ele>
        <time>2021-06-05T09:53:41Z</time>
      </trkpt>
      <trkpt lat="45.62673" lon="6.75794">
        <ele>1324</ele>
        <time>2021-06-05T09:53:42Z</time>
      </trkpt>
      <trkpt lat="45.62671" lon="6.75797">
        <ele>1323.8</ele>
        <time>2021-06-05T09:53:43Z</time>
      </trkpt>
      <trkpt lat="45.6267" lon="6.75798">
        <ele>1323.2</ele>
        <time>2021-06-05T09:53:44Z</time>
      </trkpt>
      <trkpt lat="45.62668" lon="6.75799">
        <ele>1323</ele>
        <time>2021-06-05T09:53:45Z</time>
      </trkpt>
      <trkpt lat="45.62667" lon="6.75796">
        <ele>1321</ele>
        <time>2021-06-05T09:53:48Z</time>
      </trkpt>
      <trkpt lat="45.62666" lon="6.75794">
        <ele>1320.4</ele>
        <time>2021-06-05T09:53:49Z</time>
      </trkpt>
      <trkpt lat="45.62666" lon="6.7579">
        <ele>1319.6</ele>
        <time>2021-06-05T09:53:51Z</time>
      </trkpt>
      <trkpt lat="45.62664" lon="6.75786">
        <ele>1318.6</ele>
        <time>2021-06-05T09:53:53Z</time>
      </trkpt>
      <trkpt lat="45.62662" lon="6.75785">
        <ele>1317.4</ele>
        <time>2021-06-05T09:53:56Z</time>
      </trkpt>
      <trkpt lat="45.62661" lon="6.75788">
        <ele>1315.6</ele>
        <time>2021-06-05T09:53:59Z</time>
      </trkpt>
      <trkpt lat="45.62659" lon="6.75791">
        <ele>1314.4</ele>
        <time>2021-06-05T09:54:01Z</time>
      </trkpt>
      <trkpt lat="45.62656" lon="6.75795">
        <ele>1313.2</ele>
        <time>2021-06-05T09:54:03Z</time>
      </trkpt>
      <trkpt lat="45.62656" lon="6.75797">
        <ele>1312.6</ele>
        <time>2021-06-05T09:54:04Z</time>
      </trkpt>
      <trkpt lat="45.62655" lon="6.75799">
        <ele>1311.8</ele>
        <time>2021-06-05T09:54:05Z</time>
      </trkpt>
      <trkpt lat="45.62654" lon="6.75796">
        <ele>1308</ele>
        <time>2021-06-05T09:54:11Z</time>
      </trkpt>
      <trkpt lat="45.62654" lon="6.7579">
        <ele>1307.2</ele>
        <time>2021-06-05T09:54:13Z</time>
      </trkpt>
      <trkpt lat="45.62653" lon="6.75787">
        <ele>1306.8</ele>
        <time>2021-06-05T09:54:14Z</time>
      </trkpt>
      <trkpt lat="45.62653" lon="6.75785">
        <ele>1306.2</ele>
        <time>2021-06-05T09:54:15Z</time>
      </trkpt>
      <trkpt lat="45.62653" lon="6.75782">
        <ele>1306.2</ele>
        <time>2021-06-05T09:54:16Z</time>
      </trkpt>
      <trkpt lat="45.62655" lon="6.75778">
        <ele>1305.2</ele>
        <time>2021-06-05T09:54:18Z</time>
      </trkpt>
      <trkpt lat="45.62655" lon="6.75775">
        <ele>1304</ele>
        <time>2021-06-05T09:54:20Z</time>
      </trkpt>
      <trkpt lat="45.62655" lon="6.7577">
        <ele>1303.2</ele>
        <time>2021-06-05T09:54:22Z</time>
      </trkpt>
      <trkpt lat="45.62654" lon="6.75767">
        <ele>1302.4</ele>
        <time>2021-06-05T09:54:24Z</time>
      </trkpt>
      <trkpt lat="45.62652" lon="6.75764">
        <ele>1301.2</ele>
        <time>2021-06-05T09:54:26Z</time>
      </trkpt>
      <trkpt lat="45.6265" lon="6.75763">
        <ele>1300.2</ele>
        <time>2021-06-05T09:54:28Z</time>
      </trkpt>
      <trkpt lat="45.62648" lon="6.75761">
        <ele>1300</ele>
        <time>2021-06-05T09:54:29Z</time>
      </trkpt>
      <trkpt lat="45.62646" lon="6.75758">
        <ele>1298.8</ele>
        <time>2021-06-05T09:54:31Z</time>
      </trkpt>
      <trkpt lat="45.62645" lon="6.75755">
        <ele>1298.4</ele>
        <time>2021-06-05T09:54:32Z</time>
      </trkpt>
      <trkpt lat="45.62645" lon="6.75751">
        <ele>1297.8</ele>
        <time>2021-06-05T09:54:33Z</time>
      </trkpt>
      <trkpt lat="45.62645" lon="6.75748">
        <ele>1297.4</ele>
        <time>2021-06-05T09:54:34Z</time>
      </trkpt>
      <trkpt lat="45.62646" lon="6.75744">
        <ele>1297</ele>
        <time>2021-06-05T09:54:35Z</time>
      </trkpt>
      <trkpt lat="45.62646" lon="6.75741">
        <ele>1296.8</ele>
        <time>2021-06-05T09:54:36Z</time>
      </trkpt>
      <trkpt lat="45.62646" lon="6.75738">
        <ele>1296.4</ele>
        <time>2021-06-05T09:54:37Z</time>
      </trkpt>
      <trkpt lat="45.62647" lon="6.75736">
        <ele>1296.2</ele>
        <time>2021-06-05T09:54:38Z</time>
      </trkpt>
      <trkpt lat="45.62647" lon="6.75732">
        <ele>1295</ele>
        <time>2021-06-05T09:54:40Z</time>
      </trkpt>
      <trkpt lat="45.62646" lon="6.75728">
        <ele>1293.8</ele>
        <time>2021-06-05T09:54:42Z</time>
      </trkpt>
      <trkpt lat="45.62645" lon="6.75726">
        <ele>1292.6</ele>
        <time>2021-06-05T09:54:44Z</time>
      </trkpt>
      <trkpt lat="45.62643" lon="6.75724">
        <ele>1291.8</ele>
        <time>2021-06-05T09:54:46Z</time>
      </trkpt>
      <trkpt lat="45.6264" lon="6.75722">
        <ele>1290.8</ele>
        <time>2021-06-05T09:54:48Z</time>
      </trkpt>
      <trkpt lat="45.62638" lon="6.75718">
        <ele>1289.6</ele>
        <time>2021-06-05T09:54:50Z</time>
      </trkpt>
      <trkpt lat="45.62636" lon="6.75716">
        <ele>1288.8</ele>
        <time>2021-06-05T09:54:51Z</time>
      </trkpt>
      <trkpt lat="45.62635" lon="6.75714">
        <ele>1288.4</ele>
        <time>2021-06-05T09:54:52Z</time>
      </trkpt>
      <trkpt lat="45.62633" lon="6.75712">
        <ele>1287.8</ele>
        <time>2021-06-05T09:54:53Z</time>
      </trkpt>
      <trkpt lat="45.6263" lon="6.7571">
        <ele>1287.2</ele>
        <time>2021-06-05T09:54:54Z</time>
      </trkpt>
      <trkpt lat="45.62628" lon="6.75709">
        <ele>1286.6</ele>
        <time>2021-06-05T09:54:55Z</time>
      </trkpt>
      <trkpt lat="45.62626" lon="6.75707">
        <ele>1286</ele>
        <time>2021-06-05T09:54:56Z</time>
      </trkpt>
      <trkpt lat="45.62624" lon="6.75706">
        <ele>1285.4</ele>
        <time>2021-06-05T09:54:57Z</time>
      </trkpt>
      <trkpt lat="45.62622" lon="6.75704">
        <ele>1284.6</ele>
        <time>2021-06-05T09:54:58Z</time>
      </trkpt>
      <trkpt lat="45.6262" lon="6.757">
        <ele>1283.4</ele>
        <time>2021-06-05T09:55:00Z</time>
      </trkpt>
      <trkpt lat="45.62617" lon="6.75697">
        <ele>1281</ele>
        <time>2021-06-05T09:55:02Z</time>
      </trkpt>
      <trkpt lat="45.62614" lon="6.75697">
        <ele>1280.8</ele>
        <time>2021-06-05T09:55:03Z</time>
      </trkpt>
      <trkpt lat="45.62611" lon="6.75697">
        <ele>1280</ele>
        <time>2021-06-05T09:55:04Z</time>
      </trkpt>
      <trkpt lat="45.62609" lon="6.75696">
        <ele>1279.4</ele>
        <time>2021-06-05T09:55:05Z</time>
      </trkpt>
      <trkpt lat="45.62606" lon="6.75696">
        <ele>1277.4</ele>
        <time>2021-06-05T09:55:08Z</time>
      </trkpt>
      <trkpt lat="45.62603" lon="6.75697">
        <ele>1275.8</ele>
        <time>2021-06-05T09:55:10Z</time>
      </trkpt>
      <trkpt lat="45.62601" lon="6.75697">
        <ele>1275.4</ele>
        <time>2021-06-05T09:55:11Z</time>
      </trkpt>
      <trkpt lat="45.62598" lon="6.75697">
        <ele>1274.6</ele>
        <time>2021-06-05T09:55:12Z</time>
      </trkpt>
      <trkpt lat="45.62596" lon="6.75697">
        <ele>1273.8</ele>
        <time>2021-06-05T09:55:13Z</time>
      </trkpt>
      <trkpt lat="45.62594" lon="6.75698">
        <ele>1273.4</ele>
        <time>2021-06-05T09:55:14Z</time>
      </trkpt>
      <trkpt lat="45.62591" lon="6.75698">
        <ele>1272.8</ele>
        <time>2021-06-05T09:55:15Z</time>
      </trkpt>
      <trkpt lat="45.62588" lon="6.75697">
        <ele>1272</ele>
        <time>2021-06-05T09:55:16Z</time>
      </trkpt>
      <trkpt lat="45.62586" lon="6.75696">
        <ele>1271.4</ele>
        <time>2021-06-05T09:55:17Z</time>
      </trkpt>
      <trkpt lat="45.62584" lon="6.75696">
        <ele>1271</ele>
        <time>2021-06-05T09:55:18Z</time>
      </trkpt>
      <trkpt lat="45.62581" lon="6.75695">
        <ele>1270.4</ele>
        <time>2021-06-05T09:55:19Z</time>
      </trkpt>
      <trkpt lat="45.62578" lon="6.75695">
        <ele>1269.4</ele>
        <time>2021-06-05T09:55:20Z</time>
      </trkpt>
      <trkpt lat="45.62576" lon="6.75695">
        <ele>1269.8</ele>
        <time>2021-06-05T09:55:21Z</time>
      </trkpt>
      <trkpt lat="45.62574" lon="6.75694">
        <ele>1269.4</ele>
        <time>2021-06-05T09:55:22Z</time>
      </trkpt>
      <trkpt lat="45.62571" lon="6.75693">
        <ele>1269.2</ele>
        <time>2021-06-05T09:55:23Z</time>
      </trkpt>
      <trkpt lat="45.6257" lon="6.75691">
        <ele>1268.8</ele>
        <time>2021-06-05T09:55:24Z</time>
      </trkpt>
      <trkpt lat="45.62568" lon="6.75688">
        <ele>1268.6</ele>
        <time>2021-06-05T09:55:25Z</time>
      </trkpt>
      <trkpt lat="45.62567" lon="6.75686">
        <ele>1268</ele>
        <time>2021-06-05T09:55:26Z</time>
      </trkpt>
      <trkpt lat="45.62564" lon="6.75685">
        <ele>1267.2</ele>
        <time>2021-06-05T09:55:28Z</time>
      </trkpt>
      <trkpt lat="45.62563" lon="6.75687">
        <ele>1266</ele>
        <time>2021-06-05T09:55:31Z</time>
      </trkpt>
      <trkpt lat="45.62562" lon="6.75692">
        <ele>1265.2</ele>
        <time>2021-06-05T09:55:33Z</time>
      </trkpt>
      <trkpt lat="45.62562" lon="6.75695">
        <ele>1264.8</ele>
        <time>2021-06-05T09:55:34Z</time>
      </trkpt>
      <trkpt lat="45.6256" lon="6.75696">
        <ele>1263.6</ele>
        <time>2021-06-05T09:55:35Z</time>
      </trkpt>
      <trkpt lat="45.62558" lon="6.75694">
        <ele>1263.4</ele>
        <time>2021-06-05T09:55:37Z</time>
      </trkpt>
      <trkpt lat="45.62556" lon="6.75694">
        <ele>1262.8</ele>
        <time>2021-06-05T09:55:39Z</time>
      </trkpt>
      <trkpt lat="45.62554" lon="6.75696">
        <ele>1262</ele>
        <time>2021-06-05T09:55:42Z</time>
      </trkpt>
      <trkpt lat="45.62554" lon="6.75699">
        <ele>1260.8</ele>
        <time>2021-06-05T09:55:45Z</time>
      </trkpt>
      <trkpt lat="45.62554" lon="6.75703">
        <ele>1259.2</ele>
        <time>2021-06-05T09:55:48Z</time>
      </trkpt>
      <trkpt lat="45.62555" lon="6.75706">
        <ele>1257.6</ele>
        <time>2021-06-05T09:55:50Z</time>
      </trkpt>
      <trkpt lat="45.62555" lon="6.75711">
        <ele>1257</ele>
        <time>2021-06-05T09:55:52Z</time>
      </trkpt>
      <trkpt lat="45.62554" lon="6.75715">
        <ele>1256</ele>
        <time>2021-06-05T09:55:54Z</time>
      </trkpt>
      <trkpt lat="45.62556" lon="6.75718">
        <ele>1255.6</ele>
        <time>2021-06-05T09:55:56Z</time>
      </trkpt>
      <trkpt lat="45.62558" lon="6.75722">
        <ele>1255</ele>
        <time>2021-06-05T09:55:58Z</time>
      </trkpt>
      <trkpt lat="45.6256" lon="6.75726">
        <ele>1254.2</ele>
        <time>2021-06-05T09:56:00Z</time>
      </trkpt>
      <trkpt lat="45.62562" lon="6.75729">
        <ele>1253.4</ele>
        <time>2021-06-05T09:56:01Z</time>
      </trkpt>
      <trkpt lat="45.62563" lon="6.75734">
        <ele>1252.4</ele>
        <time>2021-06-05T09:56:03Z</time>
      </trkpt>
      <trkpt lat="45.62564" lon="6.75736">
        <ele>1251.8</ele>
        <time>2021-06-05T09:56:04Z</time>
      </trkpt>
      <trkpt lat="45.62565" lon="6.75739">
        <ele>1251.4</ele>
        <time>2021-06-05T09:56:05Z</time>
      </trkpt>
      <trkpt lat="45.62566" lon="6.75741">
        <ele>1250.6</ele>
        <time>2021-06-05T09:56:06Z</time>
      </trkpt>
      <trkpt lat="45.62567" lon="6.75746">
        <ele>1250</ele>
        <time>2021-06-05T09:56:08Z</time>
      </trkpt>
      <trkpt lat="45.62568" lon="6.75748">
        <ele>1249.4</ele>
        <time>2021-06-05T09:56:09Z</time>
      </trkpt>
      <trkpt lat="45.62568" lon="6.75751">
        <ele>1249</ele>
        <time>2021-06-05T09:56:10Z</time>
      </trkpt>
      <trkpt lat="45.62568" lon="6.75754">
        <ele>1248.2</ele>
        <time>2021-06-05T09:56:11Z</time>
      </trkpt>
      <trkpt lat="45.62567" lon="6.75758">
        <ele>1247.6</ele>
        <time>2021-06-05T09:56:12Z</time>
      </trkpt>
      <trkpt lat="45.62566" lon="6.75761">
        <ele>1246.8</ele>
        <time>2021-06-05T09:56:14Z</time>
      </trkpt>
      <trkpt lat="45.62565" lon="6.75764">
        <ele>1246.4</ele>
        <time>2021-06-05T09:56:15Z</time>
      </trkpt>
      <trkpt lat="45.62565" lon="6.75768">
        <ele>1245.6</ele>
        <time>2021-06-05T09:56:17Z</time>
      </trkpt>
      <trkpt lat="45.62564" lon="6.75772">
        <ele>1244.4</ele>
        <time>2021-06-05T09:56:19Z</time>
      </trkpt>
      <trkpt lat="45.62563" lon="6.75774">
        <ele>1243.2</ele>
        <time>2021-06-05T09:56:21Z</time>
      </trkpt>
      <trkpt lat="45.62561" lon="6.75776">
        <ele>1242</ele>
        <time>2021-06-05T09:56:23Z</time>
      </trkpt>
      <trkpt lat="45.62561" lon="6.75779">
        <ele>1241.2</ele>
        <time>2021-06-05T09:56:25Z</time>
      </trkpt>
      <trkpt lat="45.62558" lon="6.75782">
        <ele>1239.4</ele>
        <time>2021-06-05T09:56:28Z</time>
      </trkpt>
      <trkpt lat="45.62556" lon="6.75784">
        <ele>1238</ele>
        <time>2021-06-05T09:56:30Z</time>
      </trkpt>
      <trkpt lat="45.62554" lon="6.75786">
        <ele>1236.8</ele>
        <time>2021-06-05T09:56:32Z</time>
      </trkpt>
      <trkpt lat="45.62553" lon="6.75789">
        <ele>1236.6</ele>
        <time>2021-06-05T09:56:33Z</time>
      </trkpt>
      <trkpt lat="45.62552" lon="6.75793">
        <ele>1235.4</ele>
        <time>2021-06-05T09:56:35Z</time>
      </trkpt>
      <trkpt lat="45.6255" lon="6.75797">
        <ele>1233.8</ele>
        <time>2021-06-05T09:56:37Z</time>
      </trkpt>
      <trkpt lat="45.62549" lon="6.758">
        <ele>1232.4</ele>
        <time>2021-06-05T09:56:39Z</time>
      </trkpt>
      <trkpt lat="45.62547" lon="6.75804">
        <ele>1231.4</ele>
        <time>2021-06-05T09:56:41Z</time>
      </trkpt>
      <trkpt lat="45.62545" lon="6.75807">
        <ele>1231</ele>
        <time>2021-06-05T09:56:42Z</time>
      </trkpt>
      <trkpt lat="45.62544" lon="6.75809">
        <ele>1230</ele>
        <time>2021-06-05T09:56:43Z</time>
      </trkpt>
      <trkpt lat="45.62542" lon="6.75812">
        <ele>1229.6</ele>
        <time>2021-06-05T09:56:45Z</time>
      </trkpt>
      <trkpt lat="45.6254" lon="6.75816">
        <ele>1227.8</ele>
        <time>2021-06-05T09:56:47Z</time>
      </trkpt>
      <trkpt lat="45.6254" lon="6.75818">
        <ele>1227.4</ele>
        <time>2021-06-05T09:56:48Z</time>
      </trkpt>
      <trkpt lat="45.62539" lon="6.75821">
        <ele>1227.2</ele>
        <time>2021-06-05T09:56:49Z</time>
      </trkpt>
      <trkpt lat="45.62539" lon="6.75824">
        <ele>1226.6</ele>
        <time>2021-06-05T09:56:50Z</time>
      </trkpt>
      <trkpt lat="45.62537" lon="6.75828">
        <ele>1226</ele>
        <time>2021-06-05T09:56:52Z</time>
      </trkpt>
      <trkpt lat="45.62536" lon="6.75832">
        <ele>1225.2</ele>
        <time>2021-06-05T09:56:54Z</time>
      </trkpt>
      <trkpt lat="45.62534" lon="6.7583">
        <ele>1224.6</ele>
        <time>2021-06-05T09:56:57Z</time>
      </trkpt>
      <trkpt lat="45.62533" lon="6.75827">
        <ele>1223.6</ele>
        <time>2021-06-05T09:56:59Z</time>
      </trkpt>
      <trkpt lat="45.62531" lon="6.75825">
        <ele>1222.8</ele>
        <time>2021-06-05T09:57:01Z</time>
      </trkpt>
      <trkpt lat="45.62529" lon="6.75827">
        <ele>1221.4</ele>
        <time>2021-06-05T09:57:04Z</time>
      </trkpt>
      <trkpt lat="45.62529" lon="6.75832">
        <ele>1220.2</ele>
        <time>2021-06-05T09:57:06Z</time>
      </trkpt>
      <trkpt lat="45.62529" lon="6.75836">
        <ele>1218.8</ele>
        <time>2021-06-05T09:57:08Z</time>
      </trkpt>
      <trkpt lat="45.62528" lon="6.75838">
        <ele>1218.4</ele>
        <time>2021-06-05T09:57:09Z</time>
      </trkpt>
      <trkpt lat="45.62527" lon="6.75841">
        <ele>1218.2</ele>
        <time>2021-06-05T09:57:10Z</time>
      </trkpt>
      <trkpt lat="45.62526" lon="6.75845">
        <ele>1217</ele>
        <time>2021-06-05T09:57:12Z</time>
      </trkpt>
      <trkpt lat="45.62525" lon="6.75848">
        <ele>1216.6</ele>
        <time>2021-06-05T09:57:13Z</time>
      </trkpt>
      <trkpt lat="45.62524" lon="6.75852">
        <ele>1215.8</ele>
        <time>2021-06-05T09:57:15Z</time>
      </trkpt>
      <trkpt lat="45.62523" lon="6.75857">
        <ele>1214.8</ele>
        <time>2021-06-05T09:57:17Z</time>
      </trkpt>
      <trkpt lat="45.62522" lon="6.75861">
        <ele>1213.4</ele>
        <time>2021-06-05T09:57:19Z</time>
      </trkpt>
      <trkpt lat="45.62521" lon="6.75863">
        <ele>1213</ele>
        <time>2021-06-05T09:57:20Z</time>
      </trkpt>
      <trkpt lat="45.62519" lon="6.75866">
        <ele>1212</ele>
        <time>2021-06-05T09:57:22Z</time>
      </trkpt>
      <trkpt lat="45.62518" lon="6.75871">
        <ele>1210.8</ele>
        <time>2021-06-05T09:57:24Z</time>
      </trkpt>
      <trkpt lat="45.62516" lon="6.75873">
        <ele>1209.6</ele>
        <time>2021-06-05T09:57:26Z</time>
      </trkpt>
      <trkpt lat="45.62515" lon="6.7587">
        <ele>1207.8</ele>
        <time>2021-06-05T09:57:28Z</time>
      </trkpt>
      <trkpt lat="45.62514" lon="6.75868">
        <ele>1207.4</ele>
        <time>2021-06-05T09:57:30Z</time>
      </trkpt>
      <trkpt lat="45.62511" lon="6.7587">
        <ele>1206.2</ele>
        <time>2021-06-05T09:57:32Z</time>
      </trkpt>
      <trkpt lat="45.62509" lon="6.75874">
        <ele>1205.4</ele>
        <time>2021-06-05T09:57:34Z</time>
      </trkpt>
      <trkpt lat="45.62508" lon="6.75877">
        <ele>1204.6</ele>
        <time>2021-06-05T09:57:35Z</time>
      </trkpt>
      <trkpt lat="45.62508" lon="6.75879">
        <ele>1204.2</ele>
        <time>2021-06-05T09:57:36Z</time>
      </trkpt>
      <trkpt lat="45.62508" lon="6.75882">
        <ele>1204</ele>
        <time>2021-06-05T09:57:37Z</time>
      </trkpt>
      <trkpt lat="45.62508" lon="6.75887">
        <ele>1203.4</ele>
        <time>2021-06-05T09:57:39Z</time>
      </trkpt>
      <trkpt lat="45.62507" lon="6.75891">
        <ele>1202.6</ele>
        <time>2021-06-05T09:57:41Z</time>
      </trkpt>
      <trkpt lat="45.62505" lon="6.75892">
        <ele>1202</ele>
        <time>2021-06-05T09:57:42Z</time>
      </trkpt>
      <trkpt lat="45.62503" lon="6.7589">
        <ele>1201</ele>
        <time>2021-06-05T09:57:44Z</time>
      </trkpt>
      <trkpt lat="45.62501" lon="6.75886">
        <ele>1200.2</ele>
        <time>2021-06-05T09:57:46Z</time>
      </trkpt>
      <trkpt lat="45.62499" lon="6.75886">
        <ele>1199.2</ele>
        <time>2021-06-05T09:57:48Z</time>
      </trkpt>
      <trkpt lat="45.62498" lon="6.7589">
        <ele>1198</ele>
        <time>2021-06-05T09:57:50Z</time>
      </trkpt>
      <trkpt lat="45.62499" lon="6.75895">
        <ele>1197.4</ele>
        <time>2021-06-05T09:57:52Z</time>
      </trkpt>
      <trkpt lat="45.62499" lon="6.75898">
        <ele>1196.8</ele>
        <time>2021-06-05T09:57:53Z</time>
      </trkpt>
      <trkpt lat="45.62499" lon="6.75901">
        <ele>1196</ele>
        <time>2021-06-05T09:57:54Z</time>
      </trkpt>
      <trkpt lat="45.62497" lon="6.75903">
        <ele>1194.6</ele>
        <time>2021-06-05T09:57:56Z</time>
      </trkpt>
      <trkpt lat="45.62495" lon="6.75901">
        <ele>1193.6</ele>
        <time>2021-06-05T09:57:58Z</time>
      </trkpt>
      <trkpt lat="45.62493" lon="6.75898">
        <ele>1193</ele>
        <time>2021-06-05T09:58:00Z</time>
      </trkpt>
      <trkpt lat="45.62491" lon="6.75898">
        <ele>1192.2</ele>
        <time>2021-06-05T09:58:02Z</time>
      </trkpt>
      <trkpt lat="45.6249" lon="6.75901">
        <ele>1190.8</ele>
        <time>2021-06-05T09:58:04Z</time>
      </trkpt>
      <trkpt lat="45.6249" lon="6.75906">
        <ele>1189.8</ele>
        <time>2021-06-05T09:58:06Z</time>
      </trkpt>
      <trkpt lat="45.62489" lon="6.7591">
        <ele>1188.8</ele>
        <time>2021-06-05T09:58:08Z</time>
      </trkpt>
      <trkpt lat="45.62487" lon="6.7591">
        <ele>1188</ele>
        <time>2021-06-05T09:58:10Z</time>
      </trkpt>
      <trkpt lat="45.62485" lon="6.75907">
        <ele>1187.4</ele>
        <time>2021-06-05T09:58:11Z</time>
      </trkpt>
      <trkpt lat="45.62485" lon="6.75905">
        <ele>1186.8</ele>
        <time>2021-06-05T09:58:12Z</time>
      </trkpt>
      <trkpt lat="45.62484" lon="6.75902">
        <ele>1186</ele>
        <time>2021-06-05T09:58:13Z</time>
      </trkpt>
      <trkpt lat="45.62483" lon="6.759">
        <ele>1185.6</ele>
        <time>2021-06-05T09:58:14Z</time>
      </trkpt>
      <trkpt lat="45.62483" lon="6.75897">
        <ele>1185.2</ele>
        <time>2021-06-05T09:58:15Z</time>
      </trkpt>
      <trkpt lat="45.62483" lon="6.75893">
        <ele>1184.4</ele>
        <time>2021-06-05T09:58:17Z</time>
      </trkpt>
      <trkpt lat="45.62479" lon="6.7589">
        <ele>1183.6</ele>
        <time>2021-06-05T09:58:19Z</time>
      </trkpt>
      <trkpt lat="45.62478" lon="6.75889">
        <ele>1182.6</ele>
        <time>2021-06-05T09:58:20Z</time>
      </trkpt>
      <trkpt lat="45.62476" lon="6.75889">
        <ele>1181.2</ele>
        <time>2021-06-05T09:58:22Z</time>
      </trkpt>
      <trkpt lat="45.62474" lon="6.75893">
        <ele>1179.6</ele>
        <time>2021-06-05T09:58:24Z</time>
      </trkpt>
      <trkpt lat="45.62473" lon="6.75896">
        <ele>1179.2</ele>
        <time>2021-06-05T09:58:25Z</time>
      </trkpt>
      <trkpt lat="45.62471" lon="6.75898">
        <ele>1178.6</ele>
        <time>2021-06-05T09:58:26Z</time>
      </trkpt>
      <trkpt lat="45.6247" lon="6.759">
        <ele>1178.4</ele>
        <time>2021-06-05T09:58:27Z</time>
      </trkpt>
      <trkpt lat="45.62469" lon="6.75902">
        <ele>1177.8</ele>
        <time>2021-06-05T09:58:28Z</time>
      </trkpt>
      <trkpt lat="45.62468" lon="6.75907">
        <ele>1176.8</ele>
        <time>2021-06-05T09:58:30Z</time>
      </trkpt>
      <trkpt lat="45.62466" lon="6.75911">
        <ele>1175</ele>
        <time>2021-06-05T09:58:32Z</time>
      </trkpt>
      <trkpt lat="45.62465" lon="6.75916">
        <ele>1173.8</ele>
        <time>2021-06-05T09:58:34Z</time>
      </trkpt>
      <trkpt lat="45.62462" lon="6.75916">
        <ele>1172.8</ele>
        <time>2021-06-05T09:58:36Z</time>
      </trkpt>
      <trkpt lat="45.6246" lon="6.75912">
        <ele>1171.8</ele>
        <time>2021-06-05T09:58:38Z</time>
      </trkpt>
      <trkpt lat="45.62458" lon="6.75915">
        <ele>1170</ele>
        <time>2021-06-05T09:58:41Z</time>
      </trkpt>
      <trkpt lat="45.62458" lon="6.75918">
        <ele>1169.8</ele>
        <time>2021-06-05T09:58:42Z</time>
      </trkpt>
      <trkpt lat="45.62457" lon="6.75921">
        <ele>1169.2</ele>
        <time>2021-06-05T09:58:44Z</time>
      </trkpt>
      <trkpt lat="45.62453" lon="6.75921">
        <ele>1167.6</ele>
        <time>2021-06-05T09:58:46Z</time>
      </trkpt>
      <trkpt lat="45.62452" lon="6.75919">
        <ele>1166.8</ele>
        <time>2021-06-05T09:58:48Z</time>
      </trkpt>
      <trkpt lat="45.62451" lon="6.75922">
        <ele>1165.6</ele>
        <time>2021-06-05T09:58:50Z</time>
      </trkpt>
      <trkpt lat="45.62451" lon="6.75926">
        <ele>1163.8</ele>
        <time>2021-06-05T09:58:52Z</time>
      </trkpt>
      <trkpt lat="45.62448" lon="6.75926">
        <ele>1163</ele>
        <time>2021-06-05T09:58:55Z</time>
      </trkpt>
      <trkpt lat="45.62445" lon="6.75923">
        <ele>1162.2</ele>
        <time>2021-06-05T09:58:57Z</time>
      </trkpt>
      <trkpt lat="45.62444" lon="6.7592">
        <ele>1161.4</ele>
        <time>2021-06-05T09:58:59Z</time>
      </trkpt>
      <trkpt lat="45.62445" lon="6.75915">
        <ele>1160</ele>
        <time>2021-06-05T09:59:01Z</time>
      </trkpt>
      <trkpt lat="45.62446" lon="6.75912">
        <ele>1159.8</ele>
        <time>2021-06-05T09:59:02Z</time>
      </trkpt>
      <trkpt lat="45.62446" lon="6.75909">
        <ele>1159.6</ele>
        <time>2021-06-05T09:59:03Z</time>
      </trkpt>
      <trkpt lat="45.62447" lon="6.75906">
        <ele>1159</ele>
        <time>2021-06-05T09:59:04Z</time>
      </trkpt>
      <trkpt lat="45.62447" lon="6.75904">
        <ele>1158.6</ele>
        <time>2021-06-05T09:59:05Z</time>
      </trkpt>
      <trkpt lat="45.62448" lon="6.75901">
        <ele>1158.6</ele>
        <time>2021-06-05T09:59:06Z</time>
      </trkpt>
      <trkpt lat="45.62448" lon="6.75898">
        <ele>1158.2</ele>
        <time>2021-06-05T09:59:07Z</time>
      </trkpt>
      <trkpt lat="45.62449" lon="6.75894">
        <ele>1157.6</ele>
        <time>2021-06-05T09:59:09Z</time>
      </trkpt>
      <trkpt lat="45.62447" lon="6.75891">
        <ele>1157</ele>
        <time>2021-06-05T09:59:11Z</time>
      </trkpt>
      <trkpt lat="45.62445" lon="6.75889">
        <ele>1155.2</ele>
        <time>2021-06-05T09:59:13Z</time>
      </trkpt>
      <trkpt lat="45.62443" lon="6.75888">
        <ele>1155.2</ele>
        <time>2021-06-05T09:59:15Z</time>
      </trkpt>
      <trkpt lat="45.62441" lon="6.75885">
        <ele>1154.2</ele>
        <time>2021-06-05T09:59:18Z</time>
      </trkpt>
      <trkpt lat="45.62437" lon="6.75886">
        <ele>1153.2</ele>
        <time>2021-06-05T09:59:20Z</time>
      </trkpt>
      <trkpt lat="45.62434" lon="6.75885">
        <ele>1151.4</ele>
        <time>2021-06-05T09:59:23Z</time>
      </trkpt>
      <trkpt lat="45.62432" lon="6.75883">
        <ele>1151</ele>
        <time>2021-06-05T09:59:24Z</time>
      </trkpt>
      <trkpt lat="45.6243" lon="6.75882">
        <ele>1150.6</ele>
        <time>2021-06-05T09:59:25Z</time>
      </trkpt>
      <trkpt lat="45.62428" lon="6.75881">
        <ele>1150</ele>
        <time>2021-06-05T09:59:26Z</time>
      </trkpt>
      <trkpt lat="45.62426" lon="6.75876">
        <ele>1149</ele>
        <time>2021-06-05T09:59:28Z</time>
      </trkpt>
      <trkpt lat="45.62424" lon="6.75874">
        <ele>1148.6</ele>
        <time>2021-06-05T09:59:29Z</time>
      </trkpt>
      <trkpt lat="45.62424" lon="6.75871">
        <ele>1148.2</ele>
        <time>2021-06-05T09:59:30Z</time>
      </trkpt>
      <trkpt lat="45.62423" lon="6.75868">
        <ele>1147.8</ele>
        <time>2021-06-05T09:59:31Z</time>
      </trkpt>
      <trkpt lat="45.62421" lon="6.75866">
        <ele>1147.6</ele>
        <time>2021-06-05T09:59:32Z</time>
      </trkpt>
      <trkpt lat="45.62419" lon="6.75863">
        <ele>1147</ele>
        <time>2021-06-05T09:59:33Z</time>
      </trkpt>
      <trkpt lat="45.62417" lon="6.75861">
        <ele>1147</ele>
        <time>2021-06-05T09:59:34Z</time>
      </trkpt>
      <trkpt lat="45.62414" lon="6.7586">
        <ele>1145.8</ele>
        <time>2021-06-05T09:59:35Z</time>
      </trkpt>
      <trkpt lat="45.62413" lon="6.75858">
        <ele>1145</ele>
        <time>2021-06-05T09:59:36Z</time>
      </trkpt>
      <trkpt lat="45.62411" lon="6.75858">
        <ele>1144.6</ele>
        <time>2021-06-05T09:59:37Z</time>
      </trkpt>
      <trkpt lat="45.62409" lon="6.75859">
        <ele>1144.2</ele>
        <time>2021-06-05T09:59:38Z</time>
      </trkpt>
      <trkpt lat="45.62407" lon="6.75859">
        <ele>1143.8</ele>
        <time>2021-06-05T09:59:39Z</time>
      </trkpt>
      <trkpt lat="45.62404" lon="6.7586">
        <ele>1142.8</ele>
        <time>2021-06-05T09:59:41Z</time>
      </trkpt>
      <trkpt lat="45.62402" lon="6.7586">
        <ele>1141.6</ele>
        <time>2021-06-05T09:59:43Z</time>
      </trkpt>
      <trkpt lat="45.62399" lon="6.75862">
        <ele>1140</ele>
        <time>2021-06-05T09:59:45Z</time>
      </trkpt>
      <trkpt lat="45.62396" lon="6.75861">
        <ele>1139</ele>
        <time>2021-06-05T09:59:47Z</time>
      </trkpt>
      <trkpt lat="45.62394" lon="6.7586">
        <ele>1138</ele>
        <time>2021-06-05T09:59:48Z</time>
      </trkpt>
      <trkpt lat="45.62392" lon="6.75859">
        <ele>1138</ele>
        <time>2021-06-05T09:59:49Z</time>
      </trkpt>
      <trkpt lat="45.62389" lon="6.75857">
        <ele>1137.4</ele>
        <time>2021-06-05T09:59:50Z</time>
      </trkpt>
      <trkpt lat="45.62387" lon="6.75855">
        <ele>1137.4</ele>
        <time>2021-06-05T09:59:51Z</time>
      </trkpt>
      <trkpt lat="45.62384" lon="6.75853">
        <ele>1137.2</ele>
        <time>2021-06-05T09:59:52Z</time>
      </trkpt>
      <trkpt lat="45.62382" lon="6.7585">
        <ele>1136.8</ele>
        <time>2021-06-05T09:59:53Z</time>
      </trkpt>
      <trkpt lat="45.6238" lon="6.75848">
        <ele>1136.6</ele>
        <time>2021-06-05T09:59:54Z</time>
      </trkpt>
      <trkpt lat="45.62378" lon="6.75846">
        <ele>1135.8</ele>
        <time>2021-06-05T09:59:55Z</time>
      </trkpt>
      <trkpt lat="45.62376" lon="6.75844">
        <ele>1135</ele>
        <time>2021-06-05T09:59:56Z</time>
      </trkpt>
      <trkpt lat="45.62373" lon="6.75841">
        <ele>1134.8</ele>
        <time>2021-06-05T09:59:57Z</time>
      </trkpt>
      <trkpt lat="45.62372" lon="6.75839">
        <ele>1134.4</ele>
        <time>2021-06-05T09:59:58Z</time>
      </trkpt>
      <trkpt lat="45.6237" lon="6.75836">
        <ele>1134.4</ele>
        <time>2021-06-05T10:00:00Z</time>
      </trkpt>
      <trkpt lat="45.62368" lon="6.75832">
        <ele>1133.8</ele>
        <time>2021-06-05T10:00:02Z</time>
      </trkpt>
      <trkpt lat="45.62366" lon="6.75829">
        <ele>1133.2</ele>
        <time>2021-06-05T10:00:04Z</time>
      </trkpt>
      <trkpt lat="45.62364" lon="6.75827">
        <ele>1133</ele>
        <time>2021-06-05T10:00:05Z</time>
      </trkpt>
      <trkpt lat="45.62363" lon="6.75824">
        <ele>1132.6</ele>
        <time>2021-06-05T10:00:06Z</time>
      </trkpt>
      <trkpt lat="45.62362" lon="6.75822">
        <ele>1132.4</ele>
        <time>2021-06-05T10:00:07Z</time>
      </trkpt>
      <trkpt lat="45.62361" lon="6.75819">
        <ele>1131.6</ele>
        <time>2021-06-05T10:00:08Z</time>
      </trkpt>
      <trkpt lat="45.62359" lon="6.75816">
        <ele>1130.8</ele>
        <time>2021-06-05T10:00:10Z</time>
      </trkpt>
      <trkpt lat="45.62356" lon="6.75813">
        <ele>1130.2</ele>
        <time>2021-06-05T10:00:12Z</time>
      </trkpt>
      <trkpt lat="45.62355" lon="6.75813">
        <ele>1129.6</ele>
        <time>2021-06-05T10:00:13Z</time>
      </trkpt>
      <trkpt lat="45.62353" lon="6.75814">
        <ele>1128.8</ele>
        <time>2021-06-05T10:00:14Z</time>
      </trkpt>
      <trkpt lat="45.6235" lon="6.75815">
        <ele>1128</ele>
        <time>2021-06-05T10:00:16Z</time>
      </trkpt>
      <trkpt lat="45.62348" lon="6.75816">
        <ele>1127.2</ele>
        <time>2021-06-05T10:00:17Z</time>
      </trkpt>
      <trkpt lat="45.62345" lon="6.75817">
        <ele>1126</ele>
        <time>2021-06-05T10:00:18Z</time>
      </trkpt>
      <trkpt lat="45.62343" lon="6.75817">
        <ele>1125.4</ele>
        <time>2021-06-05T10:00:19Z</time>
      </trkpt>
      <trkpt lat="45.6234" lon="6.75816">
        <ele>1124.8</ele>
        <time>2021-06-05T10:00:20Z</time>
      </trkpt>
      <trkpt lat="45.62339" lon="6.75815">
        <ele>1124</ele>
        <time>2021-06-05T10:00:21Z</time>
      </trkpt>
      <trkpt lat="45.62335" lon="6.75814">
        <ele>1123.4</ele>
        <time>2021-06-05T10:00:23Z</time>
      </trkpt>
      <trkpt lat="45.62331" lon="6.75814">
        <ele>1122.4</ele>
        <time>2021-06-05T10:00:25Z</time>
      </trkpt>
      <trkpt lat="45.62329" lon="6.75812">
        <ele>1122</ele>
        <time>2021-06-05T10:00:27Z</time>
      </trkpt>
      <trkpt lat="45.62326" lon="6.7581">
        <ele>1121</ele>
        <time>2021-06-05T10:00:29Z</time>
      </trkpt>
      <trkpt lat="45.62324" lon="6.7581">
        <ele>1120</ele>
        <time>2021-06-05T10:00:31Z</time>
      </trkpt>
      <trkpt lat="45.62326" lon="6.75812">
        <ele>1118.4</ele>
        <time>2021-06-05T10:00:33Z</time>
      </trkpt>
      <trkpt lat="45.62328" lon="6.75814">
        <ele>1118</ele>
        <time>2021-06-05T10:00:34Z</time>
      </trkpt>
      <trkpt lat="45.62328" lon="6.75818">
        <ele>1117.4</ele>
        <time>2021-06-05T10:00:35Z</time>
      </trkpt>
      <trkpt lat="45.62327" lon="6.7582">
        <ele>1116.8</ele>
        <time>2021-06-05T10:00:36Z</time>
      </trkpt>
      <trkpt lat="45.62324" lon="6.75822">
        <ele>1115.6</ele>
        <time>2021-06-05T10:00:38Z</time>
      </trkpt>
      <trkpt lat="45.62322" lon="6.75821">
        <ele>1114.8</ele>
        <time>2021-06-05T10:00:40Z</time>
      </trkpt>
      <trkpt lat="45.6232" lon="6.7582">
        <ele>1114.4</ele>
        <time>2021-06-05T10:00:41Z</time>
      </trkpt>
      <trkpt lat="45.62318" lon="6.75819">
        <ele>1113.6</ele>
        <time>2021-06-05T10:00:42Z</time>
      </trkpt>
      <trkpt lat="45.62315" lon="6.75818">
        <ele>1113</ele>
        <time>2021-06-05T10:00:43Z</time>
      </trkpt>
      <trkpt lat="45.62312" lon="6.75818">
        <ele>1112</ele>
        <time>2021-06-05T10:00:44Z</time>
      </trkpt>
      <trkpt lat="45.62308" lon="6.75816">
        <ele>1112</ele>
        <time>2021-06-05T10:00:45Z</time>
      </trkpt>
      <trkpt lat="45.62306" lon="6.75815">
        <ele>1111.4</ele>
        <time>2021-06-05T10:00:46Z</time>
      </trkpt>
      <trkpt lat="45.62302" lon="6.75814">
        <ele>1111.2</ele>
        <time>2021-06-05T10:00:47Z</time>
      </trkpt>
      <trkpt lat="45.62299" lon="6.75814">
        <ele>1111.2</ele>
        <time>2021-06-05T10:00:48Z</time>
      </trkpt>
      <trkpt lat="45.62296" lon="6.75813">
        <ele>1110.8</ele>
        <time>2021-06-05T10:00:49Z</time>
      </trkpt>
      <trkpt lat="45.62294" lon="6.75812">
        <ele>1110.6</ele>
        <time>2021-06-05T10:00:50Z</time>
      </trkpt>
      <trkpt lat="45.62291" lon="6.75811">
        <ele>1110.2</ele>
        <time>2021-06-05T10:00:51Z</time>
      </trkpt>
      <trkpt lat="45.62288" lon="6.75809">
        <ele>1109.4</ele>
        <time>2021-06-05T10:00:52Z</time>
      </trkpt>
      <trkpt lat="45.62286" lon="6.75808">
        <ele>1109.6</ele>
        <time>2021-06-05T10:00:53Z</time>
      </trkpt>
      <trkpt lat="45.62283" lon="6.75807">
        <ele>1109.2</ele>
        <time>2021-06-05T10:00:54Z</time>
      </trkpt>
      <trkpt lat="45.62281" lon="6.75805">
        <ele>1109.2</ele>
        <time>2021-06-05T10:00:55Z</time>
      </trkpt>
      <trkpt lat="45.62279" lon="6.75804">
        <ele>1109.2</ele>
        <time>2021-06-05T10:00:56Z</time>
      </trkpt>
      <trkpt lat="45.62278" lon="6.75802">
        <ele>1109</ele>
        <time>2021-06-05T10:00:57Z</time>
      </trkpt>
      <trkpt lat="45.62274" lon="6.758">
        <ele>1108.4</ele>
        <time>2021-06-05T10:00:59Z</time>
      </trkpt>
      <trkpt lat="45.62272" lon="6.75798">
        <ele>1108</ele>
        <time>2021-06-05T10:01:01Z</time>
      </trkpt>
      <trkpt lat="45.62269" lon="6.75794">
        <ele>1107.2</ele>
        <time>2021-06-05T10:01:03Z</time>
      </trkpt>
      <trkpt lat="45.62267" lon="6.75792">
        <ele>1107</ele>
        <time>2021-06-05T10:01:04Z</time>
      </trkpt>
      <trkpt lat="45.62265" lon="6.75787">
        <ele>1105.8</ele>
        <time>2021-06-05T10:01:06Z</time>
      </trkpt>
      <trkpt lat="45.62263" lon="6.75784">
        <ele>1105.4</ele>
        <time>2021-06-05T10:01:07Z</time>
      </trkpt>
      <trkpt lat="45.62262" lon="6.7578">
        <ele>1104.6</ele>
        <time>2021-06-05T10:01:09Z</time>
      </trkpt>
      <trkpt lat="45.62261" lon="6.75778">
        <ele>1104.4</ele>
        <time>2021-06-05T10:01:10Z</time>
      </trkpt>
      <trkpt lat="45.6226" lon="6.75775">
        <ele>1104</ele>
        <time>2021-06-05T10:01:11Z</time>
      </trkpt>
      <trkpt lat="45.62259" lon="6.75773">
        <ele>1104</ele>
        <time>2021-06-05T10:01:12Z</time>
      </trkpt>
      <trkpt lat="45.62257" lon="6.75769">
        <ele>1102.8</ele>
        <time>2021-06-05T10:01:14Z</time>
      </trkpt>
      <trkpt lat="45.62255" lon="6.75767">
        <ele>1102.4</ele>
        <time>2021-06-05T10:01:15Z</time>
      </trkpt>
      <trkpt lat="45.62253" lon="6.75766">
        <ele>1101.8</ele>
        <time>2021-06-05T10:01:16Z</time>
      </trkpt>
      <trkpt lat="45.62252" lon="6.75763">
        <ele>1101.8</ele>
        <time>2021-06-05T10:01:17Z</time>
      </trkpt>
      <trkpt lat="45.62251" lon="6.7576">
        <ele>1101.2</ele>
        <time>2021-06-05T10:01:18Z</time>
      </trkpt>
      <trkpt lat="45.62252" lon="6.75757">
        <ele>1100.4</ele>
        <time>2021-06-05T10:01:19Z</time>
      </trkpt>
      <trkpt lat="45.62252" lon="6.75754">
        <ele>1099.4</ele>
        <time>2021-06-05T10:01:20Z</time>
      </trkpt>
      <trkpt lat="45.62252" lon="6.75751">
        <ele>1099.2</ele>
        <time>2021-06-05T10:01:21Z</time>
      </trkpt>
      <trkpt lat="45.62249" lon="6.75752">
        <ele>1098.6</ele>
        <time>2021-06-05T10:01:24Z</time>
      </trkpt>
      <trkpt lat="45.62247" lon="6.75756">
        <ele>1097.6</ele>
        <time>2021-06-05T10:01:26Z</time>
      </trkpt>
      <trkpt lat="45.62245" lon="6.75759">
        <ele>1096.6</ele>
        <time>2021-06-05T10:01:28Z</time>
      </trkpt>
      <trkpt lat="45.62244" lon="6.75762">
        <ele>1095.4</ele>
        <time>2021-06-05T10:01:30Z</time>
      </trkpt>
      <trkpt lat="45.62243" lon="6.75764">
        <ele>1094.4</ele>
        <time>2021-06-05T10:01:31Z</time>
      </trkpt>
      <trkpt lat="45.62241" lon="6.7577">
        <ele>1092.4</ele>
        <time>2021-06-05T10:01:33Z</time>
      </trkpt>
      <trkpt lat="45.6224" lon="6.75772">
        <ele>1092</ele>
        <time>2021-06-05T10:01:34Z</time>
      </trkpt>
      <trkpt lat="45.6224" lon="6.75777">
        <ele>1091</ele>
        <time>2021-06-05T10:01:36Z</time>
      </trkpt>
      <trkpt lat="45.62238" lon="6.7578">
        <ele>1090</ele>
        <time>2021-06-05T10:01:38Z</time>
      </trkpt>
      <trkpt lat="45.62238" lon="6.75784">
        <ele>1088.8</ele>
        <time>2021-06-05T10:01:40Z</time>
      </trkpt>
      <trkpt lat="45.62238" lon="6.75787">
        <ele>1087.6</ele>
        <time>2021-06-05T10:01:42Z</time>
      </trkpt>
      <trkpt lat="45.62238" lon="6.75792">
        <ele>1086.2</ele>
        <time>2021-06-05T10:01:44Z</time>
      </trkpt>
      <trkpt lat="45.62238" lon="6.75794">
        <ele>1085.6</ele>
        <time>2021-06-05T10:01:45Z</time>
      </trkpt>
      <trkpt lat="45.62238" lon="6.75797">
        <ele>1085</ele>
        <time>2021-06-05T10:01:46Z</time>
      </trkpt>
      <trkpt lat="45.62237" lon="6.758">
        <ele>1084.4</ele>
        <time>2021-06-05T10:01:47Z</time>
      </trkpt>
      <trkpt lat="45.62237" lon="6.75803">
        <ele>1083.8</ele>
        <time>2021-06-05T10:01:48Z</time>
      </trkpt>
      <trkpt lat="45.62236" lon="6.75806">
        <ele>1083.4</ele>
        <time>2021-06-05T10:01:49Z</time>
      </trkpt>
      <trkpt lat="45.62235" lon="6.7581">
        <ele>1082.4</ele>
        <time>2021-06-05T10:01:51Z</time>
      </trkpt>
      <trkpt lat="45.62235" lon="6.75813">
        <ele>1081.2</ele>
        <time>2021-06-05T10:01:53Z</time>
      </trkpt>
      <trkpt lat="45.62234" lon="6.75818">
        <ele>1080</ele>
        <time>2021-06-05T10:01:55Z</time>
      </trkpt>
      <trkpt lat="45.62233" lon="6.75821">
        <ele>1079.8</ele>
        <time>2021-06-05T10:01:56Z</time>
      </trkpt>
      <trkpt lat="45.62231" lon="6.75826">
        <ele>1078.8</ele>
        <time>2021-06-05T10:01:58Z</time>
      </trkpt>
      <trkpt lat="45.6223" lon="6.75829">
        <ele>1078.2</ele>
        <time>2021-06-05T10:01:59Z</time>
      </trkpt>
      <trkpt lat="45.62229" lon="6.7583">
        <ele>1078</ele>
        <time>2021-06-05T10:02:00Z</time>
      </trkpt>
      <trkpt lat="45.62228" lon="6.75828">
        <ele>1075.8</ele>
        <time>2021-06-05T10:02:03Z</time>
      </trkpt>
      <trkpt lat="45.62227" lon="6.75824">
        <ele>1075</ele>
        <time>2021-06-05T10:02:05Z</time>
      </trkpt>
      <trkpt lat="45.62227" lon="6.7582">
        <ele>1074.4</ele>
        <time>2021-06-05T10:02:07Z</time>
      </trkpt>
      <trkpt lat="45.62227" lon="6.75816">
        <ele>1073.6</ele>
        <time>2021-06-05T10:02:09Z</time>
      </trkpt>
      <trkpt lat="45.62225" lon="6.75814">
        <ele>1072.8</ele>
        <time>2021-06-05T10:02:10Z</time>
      </trkpt>
      <trkpt lat="45.62223" lon="6.7581">
        <ele>1071.6</ele>
        <time>2021-06-05T10:02:12Z</time>
      </trkpt>
      <trkpt lat="45.62222" lon="6.75807">
        <ele>1070.4</ele>
        <time>2021-06-05T10:02:14Z</time>
      </trkpt>
      <trkpt lat="45.62219" lon="6.75804">
        <ele>1069.6</ele>
        <time>2021-06-05T10:02:16Z</time>
      </trkpt>
      <trkpt lat="45.62217" lon="6.75804">
        <ele>1068.6</ele>
        <time>2021-06-05T10:02:18Z</time>
      </trkpt>
      <trkpt lat="45.62213" lon="6.75802">
        <ele>1067.6</ele>
        <time>2021-06-05T10:02:20Z</time>
      </trkpt>
      <trkpt lat="45.62212" lon="6.75798">
        <ele>1066.4</ele>
        <time>2021-06-05T10:02:22Z</time>
      </trkpt>
      <trkpt lat="45.6221" lon="6.75795">
        <ele>1065.6</ele>
        <time>2021-06-05T10:02:24Z</time>
      </trkpt>
      <trkpt lat="45.62207" lon="6.75792">
        <ele>1064.6</ele>
        <time>2021-06-05T10:02:26Z</time>
      </trkpt>
      <trkpt lat="45.62204" lon="6.7579">
        <ele>1063</ele>
        <time>2021-06-05T10:02:28Z</time>
      </trkpt>
      <trkpt lat="45.62202" lon="6.75788">
        <ele>1061.8</ele>
        <time>2021-06-05T10:02:30Z</time>
      </trkpt>
      <trkpt lat="45.622" lon="6.75786">
        <ele>1061.2</ele>
        <time>2021-06-05T10:02:32Z</time>
      </trkpt>
      <trkpt lat="45.62199" lon="6.75783">
        <ele>1060</ele>
        <time>2021-06-05T10:02:34Z</time>
      </trkpt>
      <trkpt lat="45.62197" lon="6.7578">
        <ele>1059.2</ele>
        <time>2021-06-05T10:02:36Z</time>
      </trkpt>
      <trkpt lat="45.62196" lon="6.75776">
        <ele>1057.6</ele>
        <time>2021-06-05T10:02:38Z</time>
      </trkpt>
      <trkpt lat="45.62195" lon="6.75773">
        <ele>1057.2</ele>
        <time>2021-06-05T10:02:39Z</time>
      </trkpt>
      <trkpt lat="45.62193" lon="6.75769">
        <ele>1056</ele>
        <time>2021-06-05T10:02:41Z</time>
      </trkpt>
      <trkpt lat="45.62193" lon="6.75766">
        <ele>1055.6</ele>
        <time>2021-06-05T10:02:42Z</time>
      </trkpt>
      <trkpt lat="45.62192" lon="6.75764">
        <ele>1055</ele>
        <time>2021-06-05T10:02:43Z</time>
      </trkpt>
      <trkpt lat="45.62191" lon="6.75761">
        <ele>1054.4</ele>
        <time>2021-06-05T10:02:44Z</time>
      </trkpt>
      <trkpt lat="45.62189" lon="6.75759">
        <ele>1054.2</ele>
        <time>2021-06-05T10:02:45Z</time>
      </trkpt>
      <trkpt lat="45.62188" lon="6.75756">
        <ele>1053.6</ele>
        <time>2021-06-05T10:02:46Z</time>
      </trkpt>
      <trkpt lat="45.62186" lon="6.75754">
        <ele>1053</ele>
        <time>2021-06-05T10:02:47Z</time>
      </trkpt>
      <trkpt lat="45.62184" lon="6.75751">
        <ele>1052.4</ele>
        <time>2021-06-05T10:02:48Z</time>
      </trkpt>
      <trkpt lat="45.62183" lon="6.75749">
        <ele>1052</ele>
        <time>2021-06-05T10:02:49Z</time>
      </trkpt>
      <trkpt lat="45.62181" lon="6.75747">
        <ele>1051.2</ele>
        <time>2021-06-05T10:02:50Z</time>
      </trkpt>
      <trkpt lat="45.6218" lon="6.75744">
        <ele>1051</ele>
        <time>2021-06-05T10:02:51Z</time>
      </trkpt>
      <trkpt lat="45.62178" lon="6.75741">
        <ele>1050</ele>
        <time>2021-06-05T10:02:53Z</time>
      </trkpt>
      <trkpt lat="45.62176" lon="6.75739">
        <ele>1048.8</ele>
        <time>2021-06-05T10:02:55Z</time>
      </trkpt>
      <trkpt lat="45.62174" lon="6.75739">
        <ele>1047.6</ele>
        <time>2021-06-05T10:02:57Z</time>
      </trkpt>
      <trkpt lat="45.62175" lon="6.75742">
        <ele>1046.2</ele>
        <time>2021-06-05T10:02:59Z</time>
      </trkpt>
      <trkpt lat="45.62175" lon="6.75747">
        <ele>1045</ele>
        <time>2021-06-05T10:03:01Z</time>
      </trkpt>
      <trkpt lat="45.62175" lon="6.7575">
        <ele>1044.2</ele>
        <time>2021-06-05T10:03:02Z</time>
      </trkpt>
      <trkpt lat="45.62175" lon="6.75752">
        <ele>1044</ele>
        <time>2021-06-05T10:03:03Z</time>
      </trkpt>
      <trkpt lat="45.62176" lon="6.75755">
        <ele>1043.4</ele>
        <time>2021-06-05T10:03:04Z</time>
      </trkpt>
      <trkpt lat="45.62176" lon="6.75758">
        <ele>1042.8</ele>
        <time>2021-06-05T10:03:05Z</time>
      </trkpt>
      <trkpt lat="45.62176" lon="6.7576">
        <ele>1041.8</ele>
        <time>2021-06-05T10:03:06Z</time>
      </trkpt>
      <trkpt lat="45.62175" lon="6.75764">
        <ele>1041</ele>
        <time>2021-06-05T10:03:08Z</time>
      </trkpt>
      <trkpt lat="45.62173" lon="6.75768">
        <ele>1040.4</ele>
        <time>2021-06-05T10:03:09Z</time>
      </trkpt>
      <trkpt lat="45.62172" lon="6.75771">
        <ele>1040.2</ele>
        <time>2021-06-05T10:03:10Z</time>
      </trkpt>
      <trkpt lat="45.62172" lon="6.75774">
        <ele>1039.6</ele>
        <time>2021-06-05T10:03:11Z</time>
      </trkpt>
      <trkpt lat="45.62172" lon="6.75778">
        <ele>1038.6</ele>
        <time>2021-06-05T10:03:13Z</time>
      </trkpt>
      <trkpt lat="45.62172" lon="6.75781">
        <ele>1038</ele>
        <time>2021-06-05T10:03:14Z</time>
      </trkpt>
      <trkpt lat="45.62172" lon="6.75784">
        <ele>1038</ele>
        <time>2021-06-05T10:03:15Z</time>
      </trkpt>
      <trkpt lat="45.62173" lon="6.75787">
        <ele>1037.4</ele>
        <time>2021-06-05T10:03:16Z</time>
      </trkpt>
      <trkpt lat="45.62173" lon="6.7579">
        <ele>1036.8</ele>
        <time>2021-06-05T10:03:17Z</time>
      </trkpt>
      <trkpt lat="45.62173" lon="6.75794">
        <ele>1036.6</ele>
        <time>2021-06-05T10:03:18Z</time>
      </trkpt>
      <trkpt lat="45.62173" lon="6.75797">
        <ele>1036.2</ele>
        <time>2021-06-05T10:03:19Z</time>
      </trkpt>
      <trkpt lat="45.62173" lon="6.75801">
        <ele>1036</ele>
        <time>2021-06-05T10:03:20Z</time>
      </trkpt>
      <trkpt lat="45.62173" lon="6.75805">
        <ele>1035.4</ele>
        <time>2021-06-05T10:03:21Z</time>
      </trkpt>
      <trkpt lat="45.62172" lon="6.7581">
        <ele>1035</ele>
        <time>2021-06-05T10:03:22Z</time>
      </trkpt>
      <trkpt lat="45.62171" lon="6.75814">
        <ele>1034.8</ele>
        <time>2021-06-05T10:03:23Z</time>
      </trkpt>
      <trkpt lat="45.6217" lon="6.75817">
        <ele>1034.6</ele>
        <time>2021-06-05T10:03:24Z</time>
      </trkpt>
      <trkpt lat="45.62169" lon="6.7582">
        <ele>1034.4</ele>
        <time>2021-06-05T10:03:25Z</time>
      </trkpt>
      <trkpt lat="45.62167" lon="6.75822">
        <ele>1033.8</ele>
        <time>2021-06-05T10:03:26Z</time>
      </trkpt>
      <trkpt lat="45.62166" lon="6.75824">
        <ele>1032.8</ele>
        <time>2021-06-05T10:03:27Z</time>
      </trkpt>
      <trkpt lat="45.62165" lon="6.75827">
        <ele>1032.4</ele>
        <time>2021-06-05T10:03:28Z</time>
      </trkpt>
      <trkpt lat="45.62164" lon="6.7583">
        <ele>1032.2</ele>
        <time>2021-06-05T10:03:29Z</time>
      </trkpt>
      <trkpt lat="45.62163" lon="6.75832">
        <ele>1031.4</ele>
        <time>2021-06-05T10:03:30Z</time>
      </trkpt>
      <trkpt lat="45.62162" lon="6.75834">
        <ele>1031.2</ele>
        <time>2021-06-05T10:03:31Z</time>
      </trkpt>
      <trkpt lat="45.62161" lon="6.75838">
        <ele>1030.2</ele>
        <time>2021-06-05T10:03:33Z</time>
      </trkpt>
      <trkpt lat="45.62159" lon="6.75842">
        <ele>1028.4</ele>
        <time>2021-06-05T10:03:35Z</time>
      </trkpt>
      <trkpt lat="45.62158" lon="6.75845">
        <ele>1024.2</ele>
        <time>2021-06-05T10:03:48Z</time>
      </trkpt>
      <trkpt lat="45.62157" lon="6.75848">
        <ele>1024.2</ele>
        <time>2021-06-05T10:03:49Z</time>
      </trkpt>
      <trkpt lat="45.62156" lon="6.75852">
        <ele>1024</ele>
        <time>2021-06-05T10:03:50Z</time>
      </trkpt>
      <trkpt lat="45.62155" lon="6.75855">
        <ele>1023.8</ele>
        <time>2021-06-05T10:03:51Z</time>
      </trkpt>
      <trkpt lat="45.62154" lon="6.75858">
        <ele>1023.2</ele>
        <time>2021-06-05T10:03:52Z</time>
      </trkpt>
      <trkpt lat="45.62154" lon="6.75861">
        <ele>1023</ele>
        <time>2021-06-05T10:03:53Z</time>
      </trkpt>
      <trkpt lat="45.62153" lon="6.75864">
        <ele>1022.4</ele>
        <time>2021-06-05T10:03:54Z</time>
      </trkpt>
      <trkpt lat="45.62152" lon="6.75867">
        <ele>1022.2</ele>
        <time>2021-06-05T10:03:55Z</time>
      </trkpt>
      <trkpt lat="45.62151" lon="6.7587">
        <ele>1021.8</ele>
        <time>2021-06-05T10:03:56Z</time>
      </trkpt>
      <trkpt lat="45.6215" lon="6.75874">
        <ele>1021.4</ele>
        <time>2021-06-05T10:03:57Z</time>
      </trkpt>
      <trkpt lat="45.62149" lon="6.75878">
        <ele>1020.6</ele>
        <time>2021-06-05T10:03:58Z</time>
      </trkpt>
      <trkpt lat="45.62149" lon="6.75882">
        <ele>1020.2</ele>
        <time>2021-06-05T10:03:59Z</time>
      </trkpt>
      <trkpt lat="45.62148" lon="6.75886">
        <ele>1019.4</ele>
        <time>2021-06-05T10:04:00Z</time>
      </trkpt>
      <trkpt lat="45.62146" lon="6.7589">
        <ele>1018.8</ele>
        <time>2021-06-05T10:04:01Z</time>
      </trkpt>
      <trkpt lat="45.62145" lon="6.75892">
        <ele>1018.2</ele>
        <time>2021-06-05T10:04:02Z</time>
      </trkpt>
      <trkpt lat="45.62144" lon="6.75895">
        <ele>1017.8</ele>
        <time>2021-06-05T10:04:03Z</time>
      </trkpt>
      <trkpt lat="45.62144" lon="6.75898">
        <ele>1017.4</ele>
        <time>2021-06-05T10:04:04Z</time>
      </trkpt>
      <trkpt lat="45.62143" lon="6.75901">
        <ele>1016.8</ele>
        <time>2021-06-05T10:04:05Z</time>
      </trkpt>
      <trkpt lat="45.62142" lon="6.75903">
        <ele>1016</ele>
        <time>2021-06-05T10:04:06Z</time>
      </trkpt>
      <trkpt lat="45.62141" lon="6.75906">
        <ele>1015.8</ele>
        <time>2021-06-05T10:04:07Z</time>
      </trkpt>
      <trkpt lat="45.6214" lon="6.75908">
        <ele>1015</ele>
        <time>2021-06-05T10:04:08Z</time>
      </trkpt>
      <trkpt lat="45.62139" lon="6.75911">
        <ele>1014.6</ele>
        <time>2021-06-05T10:04:09Z</time>
      </trkpt>
      <trkpt lat="45.62138" lon="6.75914">
        <ele>1014</ele>
        <time>2021-06-05T10:04:10Z</time>
      </trkpt>
      <trkpt lat="45.62136" lon="6.75916">
        <ele>1013</ele>
        <time>2021-06-05T10:04:12Z</time>
      </trkpt>
      <trkpt lat="45.62133" lon="6.75914">
        <ele>1011.2</ele>
        <time>2021-06-05T10:04:14Z</time>
      </trkpt>
      <trkpt lat="45.62132" lon="6.75911">
        <ele>1010.8</ele>
        <time>2021-06-05T10:04:15Z</time>
      </trkpt>
      <trkpt lat="45.6213" lon="6.75908">
        <ele>1010.4</ele>
        <time>2021-06-05T10:04:16Z</time>
      </trkpt>
      <trkpt lat="45.62129" lon="6.75904">
        <ele>1010.6</ele>
        <time>2021-06-05T10:04:17Z</time>
      </trkpt>
      <trkpt lat="45.62129" lon="6.759">
        <ele>1010</ele>
        <time>2021-06-05T10:04:18Z</time>
      </trkpt>
      <trkpt lat="45.62128" lon="6.75896">
        <ele>1010</ele>
        <time>2021-06-05T10:04:19Z</time>
      </trkpt>
      <trkpt lat="45.62128" lon="6.75892">
        <ele>1009.6</ele>
        <time>2021-06-05T10:04:20Z</time>
      </trkpt>
      <trkpt lat="45.62128" lon="6.75889">
        <ele>1009.2</ele>
        <time>2021-06-05T10:04:21Z</time>
      </trkpt>
      <trkpt lat="45.62128" lon="6.75885">
        <ele>1009.2</ele>
        <time>2021-06-05T10:04:22Z</time>
      </trkpt>
      <trkpt lat="45.62129" lon="6.75882">
        <ele>1008.8</ele>
        <time>2021-06-05T10:04:23Z</time>
      </trkpt>
      <trkpt lat="45.62129" lon="6.75879">
        <ele>1008.6</ele>
        <time>2021-06-05T10:04:24Z</time>
      </trkpt>
      <trkpt lat="45.62129" lon="6.75875">
        <ele>1008.4</ele>
        <time>2021-06-05T10:04:25Z</time>
      </trkpt>
      <trkpt lat="45.62129" lon="6.75871">
        <ele>1008</ele>
        <time>2021-06-05T10:04:26Z</time>
      </trkpt>
      <trkpt lat="45.62129" lon="6.75868">
        <ele>1007.6</ele>
        <time>2021-06-05T10:04:27Z</time>
      </trkpt>
      <trkpt lat="45.62129" lon="6.75863">
        <ele>1007.6</ele>
        <time>2021-06-05T10:04:28Z</time>
      </trkpt>
      <trkpt lat="45.62129" lon="6.7586">
        <ele>1007</ele>
        <time>2021-06-05T10:04:29Z</time>
      </trkpt>
      <trkpt lat="45.62129" lon="6.75856">
        <ele>1006.4</ele>
        <time>2021-06-05T10:04:30Z</time>
      </trkpt>
      <trkpt lat="45.62128" lon="6.75853">
        <ele>1006.2</ele>
        <time>2021-06-05T10:04:31Z</time>
      </trkpt>
      <trkpt lat="45.62128" lon="6.75849">
        <ele>1005.6</ele>
        <time>2021-06-05T10:04:32Z</time>
      </trkpt>
      <trkpt lat="45.62128" lon="6.75846">
        <ele>1005.4</ele>
        <time>2021-06-05T10:04:33Z</time>
      </trkpt>
      <trkpt lat="45.62129" lon="6.75843">
        <ele>1004.8</ele>
        <time>2021-06-05T10:04:34Z</time>
      </trkpt>
      <trkpt lat="45.62129" lon="6.7584">
        <ele>1004</ele>
        <time>2021-06-05T10:04:35Z</time>
      </trkpt>
      <trkpt lat="45.62128" lon="6.75837">
        <ele>1003.8</ele>
        <time>2021-06-05T10:04:36Z</time>
      </trkpt>
      <trkpt lat="45.62128" lon="6.75834">
        <ele>1003.4</ele>
        <time>2021-06-05T10:04:37Z</time>
      </trkpt>
      <trkpt lat="45.62127" lon="6.75831">
        <ele>1002.4</ele>
        <time>2021-06-05T10:04:38Z</time>
      </trkpt>
      <trkpt lat="45.62126" lon="6.75828">
        <ele>1001.8</ele>
        <time>2021-06-05T10:04:39Z</time>
      </trkpt>
      <trkpt lat="45.62126" lon="6.75824">
        <ele>1001</ele>
        <time>2021-06-05T10:04:40Z</time>
      </trkpt>
      <trkpt lat="45.62125" lon="6.75821">
        <ele>1001</ele>
        <time>2021-06-05T10:04:41Z</time>
      </trkpt>
      <trkpt lat="45.62124" lon="6.75819">
        <ele>1000.8</ele>
        <time>2021-06-05T10:04:42Z</time>
      </trkpt>
      <trkpt lat="45.62124" lon="6.75816">
        <ele>1000.4</ele>
        <time>2021-06-05T10:04:43Z</time>
      </trkpt>
      <trkpt lat="45.62124" lon="6.75813">
        <ele>999.4</ele>
        <time>2021-06-05T10:04:44Z</time>
      </trkpt>
      <trkpt lat="45.62123" lon="6.7581">
        <ele>999.2</ele>
        <time>2021-06-05T10:04:45Z</time>
      </trkpt>
      <trkpt lat="45.62122" lon="6.75809">
        <ele>999</ele>
        <time>2021-06-05T10:04:46Z</time>
      </trkpt>
      <trkpt lat="45.6212" lon="6.75805">
        <ele>998</ele>
        <time>2021-06-05T10:04:48Z</time>
      </trkpt>
      <trkpt lat="45.62118" lon="6.75803">
        <ele>996.8</ele>
        <time>2021-06-05T10:04:49Z</time>
      </trkpt>
      <trkpt lat="45.62117" lon="6.758">
        <ele>996</ele>
        <time>2021-06-05T10:04:50Z</time>
      </trkpt>
      <trkpt lat="45.62116" lon="6.75798">
        <ele>995.4</ele>
        <time>2021-06-05T10:04:51Z</time>
      </trkpt>
      <trkpt lat="45.62113" lon="6.75794">
        <ele>994.8</ele>
        <time>2021-06-05T10:04:53Z</time>
      </trkpt>
      <trkpt lat="45.62111" lon="6.7579">
        <ele>993.6</ele>
        <time>2021-06-05T10:04:55Z</time>
      </trkpt>
      <trkpt lat="45.6211" lon="6.75787">
        <ele>993</ele>
        <time>2021-06-05T10:04:56Z</time>
      </trkpt>
      <trkpt lat="45.62108" lon="6.75783">
        <ele>991.2</ele>
        <time>2021-06-05T10:04:58Z</time>
      </trkpt>
      <trkpt lat="45.62107" lon="6.75783">
        <ele>990.8</ele>
        <time>2021-06-05T10:04:59Z</time>
      </trkpt>
      <trkpt lat="45.62104" lon="6.75783">
        <ele>990.2</ele>
        <time>2021-06-05T10:05:01Z</time>
      </trkpt>
      <trkpt lat="45.62101" lon="6.75785">
        <ele>989.2</ele>
        <time>2021-06-05T10:05:03Z</time>
      </trkpt>
      <trkpt lat="45.621" lon="6.75788">
        <ele>988.6</ele>
        <time>2021-06-05T10:05:04Z</time>
      </trkpt>
      <trkpt lat="45.62098" lon="6.7579">
        <ele>987.6</ele>
        <time>2021-06-05T10:05:05Z</time>
      </trkpt>
      <trkpt lat="45.62097" lon="6.75791">
        <ele>987.2</ele>
        <time>2021-06-05T10:05:06Z</time>
      </trkpt>
      <trkpt lat="45.62095" lon="6.75792">
        <ele>986.4</ele>
        <time>2021-06-05T10:05:07Z</time>
      </trkpt>
      <trkpt lat="45.62092" lon="6.75789">
        <ele>984.8</ele>
        <time>2021-06-05T10:05:10Z</time>
      </trkpt>
      <trkpt lat="45.62093" lon="6.75785">
        <ele>983.8</ele>
        <time>2021-06-05T10:05:12Z</time>
      </trkpt>
      <trkpt lat="45.62093" lon="6.75782">
        <ele>983</ele>
        <time>2021-06-05T10:05:13Z</time>
      </trkpt>
      <trkpt lat="45.62092" lon="6.75777">
        <ele>982.4</ele>
        <time>2021-06-05T10:05:14Z</time>
      </trkpt>
      <trkpt lat="45.6209" lon="6.75774">
        <ele>981.2</ele>
        <time>2021-06-05T10:05:15Z</time>
      </trkpt>
      <trkpt lat="45.62088" lon="6.75772">
        <ele>980.8</ele>
        <time>2021-06-05T10:05:16Z</time>
      </trkpt>
      <trkpt lat="45.62086" lon="6.7577">
        <ele>979.6</ele>
        <time>2021-06-05T10:05:18Z</time>
      </trkpt>
      <trkpt lat="45.62084" lon="6.75774">
        <ele>977.6</ele>
        <time>2021-06-05T10:05:20Z</time>
      </trkpt>
      <trkpt lat="45.62082" lon="6.75775">
        <ele>976.6</ele>
        <time>2021-06-05T10:05:22Z</time>
      </trkpt>
      <trkpt lat="45.62081" lon="6.75772">
        <ele>975.6</ele>
        <time>2021-06-05T10:05:24Z</time>
      </trkpt>
      <trkpt lat="45.62079" lon="6.75769">
        <ele>974.2</ele>
        <time>2021-06-05T10:05:26Z</time>
      </trkpt>
      <trkpt lat="45.62076" lon="6.75768">
        <ele>972.6</ele>
        <time>2021-06-05T10:05:28Z</time>
      </trkpt>
      <trkpt lat="45.62074" lon="6.75768">
        <ele>972</ele>
        <time>2021-06-05T10:05:29Z</time>
      </trkpt>
      <trkpt lat="45.62072" lon="6.7577">
        <ele>971</ele>
        <time>2021-06-05T10:05:31Z</time>
      </trkpt>
      <trkpt lat="45.62069" lon="6.75772">
        <ele>969.4</ele>
        <time>2021-06-05T10:05:33Z</time>
      </trkpt>
      <trkpt lat="45.62067" lon="6.75774">
        <ele>968</ele>
        <time>2021-06-05T10:05:35Z</time>
      </trkpt>
      <trkpt lat="45.62065" lon="6.75776">
        <ele>967.4</ele>
        <time>2021-06-05T10:05:36Z</time>
      </trkpt>
      <trkpt lat="45.62063" lon="6.75778">
        <ele>966.6</ele>
        <time>2021-06-05T10:05:37Z</time>
      </trkpt>
      <trkpt lat="45.6206" lon="6.75779">
        <ele>965</ele>
        <time>2021-06-05T10:05:39Z</time>
      </trkpt>
      <trkpt lat="45.62058" lon="6.75779">
        <ele>964.4</ele>
        <time>2021-06-05T10:05:40Z</time>
      </trkpt>
      <trkpt lat="45.62056" lon="6.75779">
        <ele>963.8</ele>
        <time>2021-06-05T10:05:41Z</time>
      </trkpt>
      <trkpt lat="45.62053" lon="6.75779">
        <ele>962.8</ele>
        <time>2021-06-05T10:05:42Z</time>
      </trkpt>
      <trkpt lat="45.62051" lon="6.75779">
        <ele>962.4</ele>
        <time>2021-06-05T10:05:43Z</time>
      </trkpt>
      <trkpt lat="45.62049" lon="6.7578">
        <ele>962.2</ele>
        <time>2021-06-05T10:05:44Z</time>
      </trkpt>
      <trkpt lat="45.62047" lon="6.7578">
        <ele>961.8</ele>
        <time>2021-06-05T10:05:45Z</time>
      </trkpt>
      <trkpt lat="45.62045" lon="6.7578">
        <ele>961.6</ele>
        <time>2021-06-05T10:05:46Z</time>
      </trkpt>
      <trkpt lat="45.62043" lon="6.75781">
        <ele>961</ele>
        <time>2021-06-05T10:05:47Z</time>
      </trkpt>
      <trkpt lat="45.62041" lon="6.75783">
        <ele>960.8</ele>
        <time>2021-06-05T10:05:48Z</time>
      </trkpt>
      <trkpt lat="45.62038" lon="6.75788">
        <ele>959.8</ele>
        <time>2021-06-05T10:05:50Z</time>
      </trkpt>
      <trkpt lat="45.62036" lon="6.75789">
        <ele>958.8</ele>
        <time>2021-06-05T10:05:51Z</time>
      </trkpt>
      <trkpt lat="45.62034" lon="6.75791">
        <ele>958.6</ele>
        <time>2021-06-05T10:05:52Z</time>
      </trkpt>
      <trkpt lat="45.62032" lon="6.75792">
        <ele>958</ele>
        <time>2021-06-05T10:05:53Z</time>
      </trkpt>
      <trkpt lat="45.6203" lon="6.75794">
        <ele>957.8</ele>
        <time>2021-06-05T10:05:54Z</time>
      </trkpt>
      <trkpt lat="45.62027" lon="6.75795">
        <ele>957</ele>
        <time>2021-06-05T10:05:55Z</time>
      </trkpt>
      <trkpt lat="45.62026" lon="6.75797">
        <ele>956.6</ele>
        <time>2021-06-05T10:05:56Z</time>
      </trkpt>
      <trkpt lat="45.62024" lon="6.75798">
        <ele>956</ele>
        <time>2021-06-05T10:05:57Z</time>
      </trkpt>
      <trkpt lat="45.62023" lon="6.758">
        <ele>956</ele>
        <time>2021-06-05T10:05:58Z</time>
      </trkpt>
      <trkpt lat="45.62021" lon="6.75802">
        <ele>955.6</ele>
        <time>2021-06-05T10:05:59Z</time>
      </trkpt>
      <trkpt lat="45.62019" lon="6.75804">
        <ele>955.2</ele>
        <time>2021-06-05T10:06:00Z</time>
      </trkpt>
      <trkpt lat="45.62018" lon="6.75806">
        <ele>954.8</ele>
        <time>2021-06-05T10:06:01Z</time>
      </trkpt>
      <trkpt lat="45.62016" lon="6.75808">
        <ele>954.6</ele>
        <time>2021-06-05T10:06:02Z</time>
      </trkpt>
      <trkpt lat="45.62015" lon="6.75811">
        <ele>954.2</ele>
        <time>2021-06-05T10:06:03Z</time>
      </trkpt>
      <trkpt lat="45.62013" lon="6.75813">
        <ele>953.6</ele>
        <time>2021-06-05T10:06:04Z</time>
      </trkpt>
      <trkpt lat="45.62011" lon="6.75816">
        <ele>952.6</ele>
        <time>2021-06-05T10:06:06Z</time>
      </trkpt>
      <trkpt lat="45.62009" lon="6.75818">
        <ele>952.2</ele>
        <time>2021-06-05T10:06:07Z</time>
      </trkpt>
      <trkpt lat="45.62007" lon="6.7582">
        <ele>951.6</ele>
        <time>2021-06-05T10:06:08Z</time>
      </trkpt>
      <trkpt lat="45.62005" lon="6.75824">
        <ele>951.2</ele>
        <time>2021-06-05T10:06:09Z</time>
      </trkpt>
      <trkpt lat="45.62003" lon="6.75826">
        <ele>950.4</ele>
        <time>2021-06-05T10:06:10Z</time>
      </trkpt>
      <trkpt lat="45.62" lon="6.7583">
        <ele>949.6</ele>
        <time>2021-06-05T10:06:11Z</time>
      </trkpt>
      <trkpt lat="45.61998" lon="6.75832">
        <ele>948.4</ele>
        <time>2021-06-05T10:06:12Z</time>
      </trkpt>
      <trkpt lat="45.61997" lon="6.75835">
        <ele>948.2</ele>
        <time>2021-06-05T10:06:13Z</time>
      </trkpt>
      <trkpt lat="45.61995" lon="6.75838">
        <ele>947.6</ele>
        <time>2021-06-05T10:06:14Z</time>
      </trkpt>
      <trkpt lat="45.61993" lon="6.75841">
        <ele>946.8</ele>
        <time>2021-06-05T10:06:15Z</time>
      </trkpt>
      <trkpt lat="45.61991" lon="6.75843">
        <ele>946.4</ele>
        <time>2021-06-05T10:06:16Z</time>
      </trkpt>
      <trkpt lat="45.6199" lon="6.75846">
        <ele>946.2</ele>
        <time>2021-06-05T10:06:17Z</time>
      </trkpt>
      <trkpt lat="45.61988" lon="6.7585">
        <ele>945.8</ele>
        <time>2021-06-05T10:06:18Z</time>
      </trkpt>
      <trkpt lat="45.61987" lon="6.75852">
        <ele>945.6</ele>
        <time>2021-06-05T10:06:19Z</time>
      </trkpt>
      <trkpt lat="45.61985" lon="6.75855">
        <ele>945.2</ele>
        <time>2021-06-05T10:06:20Z</time>
      </trkpt>
      <trkpt lat="45.61983" lon="6.75858">
        <ele>944.8</ele>
        <time>2021-06-05T10:06:21Z</time>
      </trkpt>
      <trkpt lat="45.61981" lon="6.75861">
        <ele>944.4</ele>
        <time>2021-06-05T10:06:22Z</time>
      </trkpt>
      <trkpt lat="45.61979" lon="6.75865">
        <ele>943.8</ele>
        <time>2021-06-05T10:06:23Z</time>
      </trkpt>
      <trkpt lat="45.61978" lon="6.75868">
        <ele>943.6</ele>
        <time>2021-06-05T10:06:24Z</time>
      </trkpt>
      <trkpt lat="45.61976" lon="6.7587">
        <ele>943.2</ele>
        <time>2021-06-05T10:06:25Z</time>
      </trkpt>
      <trkpt lat="45.61975" lon="6.75873">
        <ele>943.2</ele>
        <time>2021-06-05T10:06:26Z</time>
      </trkpt>
      <trkpt lat="45.61973" lon="6.75876">
        <ele>942.8</ele>
        <time>2021-06-05T10:06:27Z</time>
      </trkpt>
      <trkpt lat="45.61972" lon="6.75879">
        <ele>942.6</ele>
        <time>2021-06-05T10:06:28Z</time>
      </trkpt>
      <trkpt lat="45.6197" lon="6.75882">
        <ele>942.2</ele>
        <time>2021-06-05T10:06:29Z</time>
      </trkpt>
      <trkpt lat="45.61968" lon="6.75884">
        <ele>941.8</ele>
        <time>2021-06-05T10:06:30Z</time>
      </trkpt>
      <trkpt lat="45.61966" lon="6.75887">
        <ele>942</ele>
        <time>2021-06-05T10:06:31Z</time>
      </trkpt>
      <trkpt lat="45.61964" lon="6.7589">
        <ele>941.6</ele>
        <time>2021-06-05T10:06:32Z</time>
      </trkpt>
      <trkpt lat="45.61963" lon="6.75892">
        <ele>941.4</ele>
        <time>2021-06-05T10:06:33Z</time>
      </trkpt>
      <trkpt lat="45.61961" lon="6.75894">
        <ele>941</ele>
        <time>2021-06-05T10:06:34Z</time>
      </trkpt>
      <trkpt lat="45.61959" lon="6.75897">
        <ele>940.8</ele>
        <time>2021-06-05T10:06:35Z</time>
      </trkpt>
      <trkpt lat="45.61957" lon="6.75899">
        <ele>940.4</ele>
        <time>2021-06-05T10:06:36Z</time>
      </trkpt>
      <trkpt lat="45.61956" lon="6.759">
        <ele>940.2</ele>
        <time>2021-06-05T10:06:37Z</time>
      </trkpt>
      <trkpt lat="45.61954" lon="6.75902">
        <ele>939.6</ele>
        <time>2021-06-05T10:06:38Z</time>
      </trkpt>
      <trkpt lat="45.61952" lon="6.75904">
        <ele>939.4</ele>
        <time>2021-06-05T10:06:39Z</time>
      </trkpt>
      <trkpt lat="45.6195" lon="6.75906">
        <ele>938.6</ele>
        <time>2021-06-05T10:06:40Z</time>
      </trkpt>
      <trkpt lat="45.61949" lon="6.75908">
        <ele>937.6</ele>
        <time>2021-06-05T10:06:41Z</time>
      </trkpt>
      <trkpt lat="45.61947" lon="6.7591">
        <ele>937.4</ele>
        <time>2021-06-05T10:06:42Z</time>
      </trkpt>
      <trkpt lat="45.61946" lon="6.75912">
        <ele>937</ele>
        <time>2021-06-05T10:06:43Z</time>
      </trkpt>
      <trkpt lat="45.61945" lon="6.75914">
        <ele>936.8</ele>
        <time>2021-06-05T10:06:44Z</time>
      </trkpt>
      <trkpt lat="45.61944" lon="6.75918">
        <ele>936</ele>
        <time>2021-06-05T10:06:45Z</time>
      </trkpt>
      <trkpt lat="45.61943" lon="6.75921">
        <ele>935.8</ele>
        <time>2021-06-05T10:06:46Z</time>
      </trkpt>
      <trkpt lat="45.61942" lon="6.75924">
        <ele>935.4</ele>
        <time>2021-06-05T10:06:47Z</time>
      </trkpt>
      <trkpt lat="45.61943" lon="6.75928">
        <ele>934.8</ele>
        <time>2021-06-05T10:06:48Z</time>
      </trkpt>
      <trkpt lat="45.61943" lon="6.7593">
        <ele>934.8</ele>
        <time>2021-06-05T10:06:49Z</time>
      </trkpt>
      <trkpt lat="45.61943" lon="6.75933">
        <ele>934.6</ele>
        <time>2021-06-05T10:06:50Z</time>
      </trkpt>
      <trkpt lat="45.61944" lon="6.75936">
        <ele>935</ele>
        <time>2021-06-05T10:06:51Z</time>
      </trkpt>
      <trkpt lat="45.61945" lon="6.7594">
        <ele>935</ele>
        <time>2021-06-05T10:06:52Z</time>
      </trkpt>
      <trkpt lat="45.61947" lon="6.75942">
        <ele>935.4</ele>
        <time>2021-06-05T10:06:53Z</time>
      </trkpt>
      <trkpt lat="45.61949" lon="6.75943">
        <ele>935.6</ele>
        <time>2021-06-05T10:06:55Z</time>
      </trkpt>
      <trkpt lat="45.61951" lon="6.75943">
        <ele>935.4</ele>
        <time>2021-06-05T10:06:56Z</time>
      </trkpt>
      <trkpt lat="45.61953" lon="6.75944">
        <ele>935</ele>
        <time>2021-06-05T10:06:57Z</time>
      </trkpt>
      <trkpt lat="45.61956" lon="6.75946">
        <ele>935.6</ele>
        <time>2021-06-05T10:06:58Z</time>
      </trkpt>
      <trkpt lat="45.61958" lon="6.75948">
        <ele>935.6</ele>
        <time>2021-06-05T10:06:59Z</time>
      </trkpt>
      <trkpt lat="45.6196" lon="6.75949">
        <ele>936</ele>
        <time>2021-06-05T10:07:00Z</time>
      </trkpt>
      <trkpt lat="45.61963" lon="6.7595">
        <ele>936.2</ele>
        <time>2021-06-05T10:07:01Z</time>
      </trkpt>
      <trkpt lat="45.61964" lon="6.7595">
        <ele>936.2</ele>
        <time>2021-06-05T10:07:02Z</time>
      </trkpt>
      <trkpt lat="45.61966" lon="6.75952">
        <ele>936.4</ele>
        <time>2021-06-05T10:07:03Z</time>
      </trkpt>
      <trkpt lat="45.61969" lon="6.75953">
        <ele>936.4</ele>
        <time>2021-06-05T10:07:04Z</time>
      </trkpt>
      <trkpt lat="45.61971" lon="6.75954">
        <ele>936.8</ele>
        <time>2021-06-05T10:07:05Z</time>
      </trkpt>
      <trkpt lat="45.61972" lon="6.75956">
        <ele>936.8</ele>
        <time>2021-06-05T10:07:06Z</time>
      </trkpt>
      <trkpt lat="45.61973" lon="6.75961">
        <ele>937</ele>
        <time>2021-06-05T10:07:08Z</time>
      </trkpt>
      <trkpt lat="45.61972" lon="6.75963">
        <ele>936.8</ele>
        <time>2021-06-05T10:07:09Z</time>
      </trkpt>
      <trkpt lat="45.61972" lon="6.75966">
        <ele>936.8</ele>
        <time>2021-06-05T10:07:10Z</time>
      </trkpt>
      <trkpt lat="45.61971" lon="6.75969">
        <ele>936.4</ele>
        <time>2021-06-05T10:07:11Z</time>
      </trkpt>
      <trkpt lat="45.6197" lon="6.75972">
        <ele>936</ele>
        <time>2021-06-05T10:07:12Z</time>
      </trkpt>
      <trkpt lat="45.61969" lon="6.75976">
        <ele>935.4</ele>
        <time>2021-06-05T10:07:13Z</time>
      </trkpt>
      <trkpt lat="45.61968" lon="6.75979">
        <ele>934.6</ele>
        <time>2021-06-05T10:07:14Z</time>
      </trkpt>
      <trkpt lat="45.61967" lon="6.75983">
        <ele>934.6</ele>
        <time>2021-06-05T10:07:15Z</time>
      </trkpt>
      <trkpt lat="45.61966" lon="6.75986">
        <ele>934.2</ele>
        <time>2021-06-05T10:07:16Z</time>
      </trkpt>
      <trkpt lat="45.61965" lon="6.75989">
        <ele>934</ele>
        <time>2021-06-05T10:07:17Z</time>
      </trkpt>
      <trkpt lat="45.61964" lon="6.75992">
        <ele>933.2</ele>
        <time>2021-06-05T10:07:19Z</time>
      </trkpt>
      <trkpt lat="45.61962" lon="6.7599">
        <ele>932.2</ele>
        <time>2021-06-05T10:07:21Z</time>
      </trkpt>
      <trkpt lat="45.61963" lon="6.75993">
        <ele>931.4</ele>
        <time>2021-06-05T10:07:31Z</time>
      </trkpt>
      <trkpt lat="45.61963" lon="6.75996">
        <ele>931.2</ele>
        <time>2021-06-05T10:07:32Z</time>
      </trkpt>
      <trkpt lat="45.61963" lon="6.75999">
        <ele>931</ele>
        <time>2021-06-05T10:07:33Z</time>
      </trkpt>
      <trkpt lat="45.61963" lon="6.76003">
        <ele>930.6</ele>
        <time>2021-06-05T10:07:34Z</time>
      </trkpt>
      <trkpt lat="45.61963" lon="6.76006">
        <ele>930.2</ele>
        <time>2021-06-05T10:07:35Z</time>
      </trkpt>
      <trkpt lat="45.61963" lon="6.76009">
        <ele>929.6</ele>
        <time>2021-06-05T10:07:36Z</time>
      </trkpt>
      <trkpt lat="45.61964" lon="6.76014">
        <ele>928.8</ele>
        <time>2021-06-05T10:07:38Z</time>
      </trkpt>
      <trkpt lat="45.61964" lon="6.76017">
        <ele>928.4</ele>
        <time>2021-06-05T10:07:39Z</time>
      </trkpt>
      <trkpt lat="45.61964" lon="6.76021">
        <ele>927.6</ele>
        <time>2021-06-05T10:07:41Z</time>
      </trkpt>
      <trkpt lat="45.61965" lon="6.76024">
        <ele>927.4</ele>
        <time>2021-06-05T10:07:42Z</time>
      </trkpt>
      <trkpt lat="45.61966" lon="6.76028">
        <ele>926.8</ele>
        <time>2021-06-05T10:07:43Z</time>
      </trkpt>
      <trkpt lat="45.61967" lon="6.76032">
        <ele>925.8</ele>
        <time>2021-06-05T10:07:44Z</time>
      </trkpt>
      <trkpt lat="45.61968" lon="6.76035">
        <ele>925.4</ele>
        <time>2021-06-05T10:07:45Z</time>
      </trkpt>
      <trkpt lat="45.61969" lon="6.76038">
        <ele>925.4</ele>
        <time>2021-06-05T10:07:46Z</time>
      </trkpt>
      <trkpt lat="45.6197" lon="6.76042">
        <ele>925.2</ele>
        <time>2021-06-05T10:07:47Z</time>
      </trkpt>
      <trkpt lat="45.61971" lon="6.76045">
        <ele>925.6</ele>
        <time>2021-06-05T10:07:48Z</time>
      </trkpt>
      <trkpt lat="45.61972" lon="6.76049">
        <ele>925.4</ele>
        <time>2021-06-05T10:07:49Z</time>
      </trkpt>
      <trkpt lat="45.61972" lon="6.76053">
        <ele>925.2</ele>
        <time>2021-06-05T10:07:50Z</time>
      </trkpt>
      <trkpt lat="45.61973" lon="6.76056">
        <ele>925.6</ele>
        <time>2021-06-05T10:07:51Z</time>
      </trkpt>
      <trkpt lat="45.61974" lon="6.76061">
        <ele>925.6</ele>
        <time>2021-06-05T10:07:52Z</time>
      </trkpt>
      <trkpt lat="45.61975" lon="6.76064">
        <ele>925.8</ele>
        <time>2021-06-05T10:07:53Z</time>
      </trkpt>
      <trkpt lat="45.61976" lon="6.76068">
        <ele>925.8</ele>
        <time>2021-06-05T10:07:54Z</time>
      </trkpt>
      <trkpt lat="45.61976" lon="6.76072">
        <ele>925.8</ele>
        <time>2021-06-05T10:07:55Z</time>
      </trkpt>
      <trkpt lat="45.61976" lon="6.76075">
        <ele>926.2</ele>
        <time>2021-06-05T10:07:56Z</time>
      </trkpt>
      <trkpt lat="45.61975" lon="6.76078">
        <ele>925.8</ele>
        <time>2021-06-05T10:07:57Z</time>
      </trkpt>
      <trkpt lat="45.61973" lon="6.76082">
        <ele>925.2</ele>
        <time>2021-06-05T10:07:59Z</time>
      </trkpt>
      <trkpt lat="45.61972" lon="6.76085">
        <ele>925</ele>
        <time>2021-06-05T10:08:01Z</time>
      </trkpt>
      <trkpt lat="45.61971" lon="6.76087">
        <ele>925</ele>
        <time>2021-06-05T10:08:02Z</time>
      </trkpt>
      <trkpt lat="45.61969" lon="6.76088">
        <ele>924.2</ele>
        <time>2021-06-05T10:08:03Z</time>
      </trkpt>
      <trkpt lat="45.61967" lon="6.76089">
        <ele>922.8</ele>
        <time>2021-06-05T10:08:05Z</time>
      </trkpt>
      <trkpt lat="45.61965" lon="6.76094">
        <ele>921.8</ele>
        <time>2021-06-05T10:08:07Z</time>
      </trkpt>
      <trkpt lat="45.61964" lon="6.76096">
        <ele>921.6</ele>
        <time>2021-06-05T10:08:08Z</time>
      </trkpt>
      <trkpt lat="45.61962" lon="6.76099">
        <ele>921.6</ele>
        <time>2021-06-05T10:08:09Z</time>
      </trkpt>
      <trkpt lat="45.6196" lon="6.76102">
        <ele>921</ele>
        <time>2021-06-05T10:08:11Z</time>
      </trkpt>
      <trkpt lat="45.61958" lon="6.76104">
        <ele>920.6</ele>
        <time>2021-06-05T10:08:12Z</time>
      </trkpt>
      <trkpt lat="45.61957" lon="6.76107">
        <ele>919.8</ele>
        <time>2021-06-05T10:08:13Z</time>
      </trkpt>
      <trkpt lat="45.61956" lon="6.7611">
        <ele>919.4</ele>
        <time>2021-06-05T10:08:14Z</time>
      </trkpt>
      <trkpt lat="45.61955" lon="6.76113">
        <ele>919</ele>
        <time>2021-06-05T10:08:15Z</time>
      </trkpt>
      <trkpt lat="45.61953" lon="6.76116">
        <ele>918.2</ele>
        <time>2021-06-05T10:08:16Z</time>
      </trkpt>
      <trkpt lat="45.61951" lon="6.76119">
        <ele>917.4</ele>
        <time>2021-06-05T10:08:18Z</time>
      </trkpt>
      <trkpt lat="45.61949" lon="6.76121">
        <ele>917</ele>
        <time>2021-06-05T10:08:19Z</time>
      </trkpt>
      <trkpt lat="45.61948" lon="6.76126">
        <ele>916.2</ele>
        <time>2021-06-05T10:08:21Z</time>
      </trkpt>
      <trkpt lat="45.61947" lon="6.7613">
        <ele>915.4</ele>
        <time>2021-06-05T10:08:22Z</time>
      </trkpt>
      <trkpt lat="45.61946" lon="6.76132">
        <ele>914.8</ele>
        <time>2021-06-05T10:08:23Z</time>
      </trkpt>
      <trkpt lat="45.61945" lon="6.76135">
        <ele>914.6</ele>
        <time>2021-06-05T10:08:24Z</time>
      </trkpt>
      <trkpt lat="45.61944" lon="6.76137">
        <ele>914</ele>
        <time>2021-06-05T10:08:25Z</time>
      </trkpt>
      <trkpt lat="45.61943" lon="6.76142">
        <ele>913.2</ele>
        <time>2021-06-05T10:08:27Z</time>
      </trkpt>
      <trkpt lat="45.61943" lon="6.76147">
        <ele>912.4</ele>
        <time>2021-06-05T10:08:29Z</time>
      </trkpt>
      <trkpt lat="45.61943" lon="6.7615">
        <ele>911.8</ele>
        <time>2021-06-05T10:08:30Z</time>
      </trkpt>
      <trkpt lat="45.61942" lon="6.76153">
        <ele>911.4</ele>
        <time>2021-06-05T10:08:31Z</time>
      </trkpt>
      <trkpt lat="45.61941" lon="6.76156">
        <ele>910.8</ele>
        <time>2021-06-05T10:08:32Z</time>
      </trkpt>
      <trkpt lat="45.61941" lon="6.76159">
        <ele>910.2</ele>
        <time>2021-06-05T10:08:33Z</time>
      </trkpt>
      <trkpt lat="45.61941" lon="6.76162">
        <ele>909.6</ele>
        <time>2021-06-05T10:08:34Z</time>
      </trkpt>
      <trkpt lat="45.61941" lon="6.76166">
        <ele>909</ele>
        <time>2021-06-05T10:08:35Z</time>
      </trkpt>
      <trkpt lat="45.61941" lon="6.7617">
        <ele>908.4</ele>
        <time>2021-06-05T10:08:36Z</time>
      </trkpt>
      <trkpt lat="45.6194" lon="6.76173">
        <ele>907.8</ele>
        <time>2021-06-05T10:08:37Z</time>
      </trkpt>
      <trkpt lat="45.6194" lon="6.76176">
        <ele>907</ele>
        <time>2021-06-05T10:08:38Z</time>
      </trkpt>
      <trkpt lat="45.6194" lon="6.76178">
        <ele>905.6</ele>
        <time>2021-06-05T10:08:39Z</time>
      </trkpt>
      <trkpt lat="45.6194" lon="6.76182">
        <ele>905</ele>
        <time>2021-06-05T10:08:40Z</time>
      </trkpt>
      <trkpt lat="45.61939" lon="6.76185">
        <ele>904.8</ele>
        <time>2021-06-05T10:08:41Z</time>
      </trkpt>
      <trkpt lat="45.61939" lon="6.76188">
        <ele>904.2</ele>
        <time>2021-06-05T10:08:42Z</time>
      </trkpt>
      <trkpt lat="45.6194" lon="6.76192">
        <ele>904.2</ele>
        <time>2021-06-05T10:08:43Z</time>
      </trkpt>
      <trkpt lat="45.61939" lon="6.76195">
        <ele>904</ele>
        <time>2021-06-05T10:08:44Z</time>
      </trkpt>
      <trkpt lat="45.61939" lon="6.762">
        <ele>903.2</ele>
        <time>2021-06-05T10:08:46Z</time>
      </trkpt>
      <trkpt lat="45.6194" lon="6.76203">
        <ele>902</ele>
        <time>2021-06-05T10:08:48Z</time>
      </trkpt>
      <trkpt lat="45.61941" lon="6.76208">
        <ele>901.4</ele>
        <time>2021-06-05T10:08:50Z</time>
      </trkpt>
      <trkpt lat="45.61941" lon="6.76211">
        <ele>900.8</ele>
        <time>2021-06-05T10:08:51Z</time>
      </trkpt>
      <trkpt lat="45.61941" lon="6.76214">
        <ele>900.6</ele>
        <time>2021-06-05T10:08:52Z</time>
      </trkpt>
      <trkpt lat="45.61941" lon="6.76217">
        <ele>900</ele>
        <time>2021-06-05T10:08:53Z</time>
      </trkpt>
      <trkpt lat="45.6194" lon="6.76219">
        <ele>899.6</ele>
        <time>2021-06-05T10:08:54Z</time>
      </trkpt>
      <trkpt lat="45.61939" lon="6.76221">
        <ele>898.8</ele>
        <time>2021-06-05T10:08:55Z</time>
      </trkpt>
      <trkpt lat="45.61937" lon="6.76223">
        <ele>898.2</ele>
        <time>2021-06-05T10:08:56Z</time>
      </trkpt>
      <trkpt lat="45.61937" lon="6.76226">
        <ele>898</ele>
        <time>2021-06-05T10:08:57Z</time>
      </trkpt>
      <trkpt lat="45.61936" lon="6.76228">
        <ele>897.4</ele>
        <time>2021-06-05T10:08:58Z</time>
      </trkpt>
      <trkpt lat="45.61934" lon="6.76231">
        <ele>897</ele>
        <time>2021-06-05T10:08:59Z</time>
      </trkpt>
      <trkpt lat="45.61933" lon="6.76233">
        <ele>896.4</ele>
        <time>2021-06-05T10:09:00Z</time>
      </trkpt>
      <trkpt lat="45.61932" lon="6.76236">
        <ele>895.6</ele>
        <time>2021-06-05T10:09:01Z</time>
      </trkpt>
      <trkpt lat="45.6193" lon="6.76239">
        <ele>894.8</ele>
        <time>2021-06-05T10:09:02Z</time>
      </trkpt>
      <trkpt lat="45.61929" lon="6.76242">
        <ele>894.8</ele>
        <time>2021-06-05T10:09:03Z</time>
      </trkpt>
      <trkpt lat="45.61927" lon="6.76244">
        <ele>894.2</ele>
        <time>2021-06-05T10:09:04Z</time>
      </trkpt>
      <trkpt lat="45.61925" lon="6.76248">
        <ele>893.8</ele>
        <time>2021-06-05T10:09:05Z</time>
      </trkpt>
      <trkpt lat="45.61924" lon="6.76251">
        <ele>893.6</ele>
        <time>2021-06-05T10:09:06Z</time>
      </trkpt>
      <trkpt lat="45.61923" lon="6.76254">
        <ele>893</ele>
        <time>2021-06-05T10:09:07Z</time>
      </trkpt>
      <trkpt lat="45.61922" lon="6.76258">
        <ele>892.2</ele>
        <time>2021-06-05T10:09:08Z</time>
      </trkpt>
      <trkpt lat="45.61921" lon="6.76261">
        <ele>891.8</ele>
        <time>2021-06-05T10:09:09Z</time>
      </trkpt>
      <trkpt lat="45.6192" lon="6.76265">
        <ele>891.8</ele>
        <time>2021-06-05T10:09:10Z</time>
      </trkpt>
      <trkpt lat="45.61919" lon="6.76268">
        <ele>891.2</ele>
        <time>2021-06-05T10:09:11Z</time>
      </trkpt>
      <trkpt lat="45.61918" lon="6.76272">
        <ele>891.2</ele>
        <time>2021-06-05T10:09:12Z</time>
      </trkpt>
      <trkpt lat="45.61917" lon="6.76276">
        <ele>891</ele>
        <time>2021-06-05T10:09:13Z</time>
      </trkpt>
      <trkpt lat="45.61916" lon="6.7628">
        <ele>890.6</ele>
        <time>2021-06-05T10:09:15Z</time>
      </trkpt>
      <trkpt lat="45.61916" lon="6.76284">
        <ele>890.2</ele>
        <time>2021-06-05T10:09:16Z</time>
      </trkpt>
      <trkpt lat="45.61916" lon="6.76286">
        <ele>889.8</ele>
        <time>2021-06-05T10:09:17Z</time>
      </trkpt>
      <trkpt lat="45.61915" lon="6.7629">
        <ele>889.6</ele>
        <time>2021-06-05T10:09:18Z</time>
      </trkpt>
      <trkpt lat="45.61915" lon="6.76295">
        <ele>889</ele>
        <time>2021-06-05T10:09:20Z</time>
      </trkpt>
      <trkpt lat="45.61914" lon="6.76298">
        <ele>888.6</ele>
        <time>2021-06-05T10:09:21Z</time>
      </trkpt>
      <trkpt lat="45.61914" lon="6.76301">
        <ele>888.2</ele>
        <time>2021-06-05T10:09:22Z</time>
      </trkpt>
      <trkpt lat="45.61913" lon="6.76304">
        <ele>888</ele>
        <time>2021-06-05T10:09:23Z</time>
      </trkpt>
      <trkpt lat="45.61912" lon="6.76308">
        <ele>887.4</ele>
        <time>2021-06-05T10:09:24Z</time>
      </trkpt>
      <trkpt lat="45.61911" lon="6.76311">
        <ele>886.8</ele>
        <time>2021-06-05T10:09:25Z</time>
      </trkpt>
      <trkpt lat="45.61909" lon="6.76313">
        <ele>886.8</ele>
        <time>2021-06-05T10:09:26Z</time>
      </trkpt>
      <trkpt lat="45.61907" lon="6.76316">
        <ele>886.4</ele>
        <time>2021-06-05T10:09:27Z</time>
      </trkpt>
      <trkpt lat="45.61905" lon="6.76319">
        <ele>886.2</ele>
        <time>2021-06-05T10:09:28Z</time>
      </trkpt>
      <trkpt lat="45.61903" lon="6.76321">
        <ele>886</ele>
        <time>2021-06-05T10:09:29Z</time>
      </trkpt>
      <trkpt lat="45.61901" lon="6.76323">
        <ele>885.6</ele>
        <time>2021-06-05T10:09:30Z</time>
      </trkpt>
      <trkpt lat="45.61899" lon="6.76325">
        <ele>885.6</ele>
        <time>2021-06-05T10:09:31Z</time>
      </trkpt>
      <trkpt lat="45.61897" lon="6.76328">
        <ele>885.2</ele>
        <time>2021-06-05T10:09:32Z</time>
      </trkpt>
      <trkpt lat="45.61895" lon="6.7633">
        <ele>885</ele>
        <time>2021-06-05T10:09:33Z</time>
      </trkpt>
      <trkpt lat="45.61893" lon="6.76332">
        <ele>884.4</ele>
        <time>2021-06-05T10:09:34Z</time>
      </trkpt>
      <trkpt lat="45.61892" lon="6.76334">
        <ele>883.8</ele>
        <time>2021-06-05T10:09:35Z</time>
      </trkpt>
      <trkpt lat="45.6189" lon="6.76335">
        <ele>883.4</ele>
        <time>2021-06-05T10:09:36Z</time>
      </trkpt>
      <trkpt lat="45.61887" lon="6.76338">
        <ele>882.8</ele>
        <time>2021-06-05T10:09:38Z</time>
      </trkpt>
      <trkpt lat="45.61884" lon="6.7634">
        <ele>882</ele>
        <time>2021-06-05T10:09:39Z</time>
      </trkpt>
      <trkpt lat="45.61882" lon="6.76342">
        <ele>881.6</ele>
        <time>2021-06-05T10:09:40Z</time>
      </trkpt>
      <trkpt lat="45.6188" lon="6.76344">
        <ele>881</ele>
        <time>2021-06-05T10:09:41Z</time>
      </trkpt>
      <trkpt lat="45.61878" lon="6.76346">
        <ele>880.6</ele>
        <time>2021-06-05T10:09:42Z</time>
      </trkpt>
      <trkpt lat="45.61876" lon="6.76348">
        <ele>880</ele>
        <time>2021-06-05T10:09:43Z</time>
      </trkpt>
      <trkpt lat="45.61874" lon="6.7635">
        <ele>879.8</ele>
        <time>2021-06-05T10:09:44Z</time>
      </trkpt>
      <trkpt lat="45.61873" lon="6.76351">
        <ele>879.6</ele>
        <time>2021-06-05T10:09:45Z</time>
      </trkpt>
      <trkpt lat="45.61871" lon="6.76352">
        <ele>879</ele>
        <time>2021-06-05T10:09:46Z</time>
      </trkpt>
      <trkpt lat="45.61869" lon="6.76353">
        <ele>879</ele>
        <time>2021-06-05T10:09:47Z</time>
      </trkpt>
      <trkpt lat="45.61867" lon="6.76354">
        <ele>878.6</ele>
        <time>2021-06-05T10:09:48Z</time>
      </trkpt>
      <trkpt lat="45.61864" lon="6.76355">
        <ele>878.4</ele>
        <time>2021-06-05T10:09:49Z</time>
      </trkpt>
      <trkpt lat="45.61862" lon="6.76356">
        <ele>877.8</ele>
        <time>2021-06-05T10:09:50Z</time>
      </trkpt>
      <trkpt lat="45.6186" lon="6.76358">
        <ele>877.4</ele>
        <time>2021-06-05T10:09:51Z</time>
      </trkpt>
      <trkpt lat="45.61858" lon="6.7636">
        <ele>877.4</ele>
        <time>2021-06-05T10:09:52Z</time>
      </trkpt>
      <trkpt lat="45.61855" lon="6.76363">
        <ele>876.8</ele>
        <time>2021-06-05T10:09:53Z</time>
      </trkpt>
      <trkpt lat="45.61853" lon="6.76365">
        <ele>876.2</ele>
        <time>2021-06-05T10:09:54Z</time>
      </trkpt>
      <trkpt lat="45.61852" lon="6.76368">
        <ele>876</ele>
        <time>2021-06-05T10:09:55Z</time>
      </trkpt>
      <trkpt lat="45.6185" lon="6.7637">
        <ele>875.4</ele>
        <time>2021-06-05T10:09:56Z</time>
      </trkpt>
      <trkpt lat="45.61849" lon="6.76373">
        <ele>875.2</ele>
        <time>2021-06-05T10:09:57Z</time>
      </trkpt>
      <trkpt lat="45.61846" lon="6.76375">
        <ele>874.4</ele>
        <time>2021-06-05T10:09:58Z</time>
      </trkpt>
      <trkpt lat="45.61844" lon="6.76378">
        <ele>874.4</ele>
        <time>2021-06-05T10:09:59Z</time>
      </trkpt>
      <trkpt lat="45.61842" lon="6.7638">
        <ele>874.4</ele>
        <time>2021-06-05T10:10:00Z</time>
      </trkpt>
      <trkpt lat="45.61839" lon="6.76381">
        <ele>873.8</ele>
        <time>2021-06-05T10:10:01Z</time>
      </trkpt>
      <trkpt lat="45.61836" lon="6.76382">
        <ele>873.2</ele>
        <time>2021-06-05T10:10:02Z</time>
      </trkpt>
      <trkpt lat="45.61833" lon="6.76382">
        <ele>872.8</ele>
        <time>2021-06-05T10:10:03Z</time>
      </trkpt>
      <trkpt lat="45.6183" lon="6.76382">
        <ele>873.2</ele>
        <time>2021-06-05T10:10:04Z</time>
      </trkpt>
      <trkpt lat="45.61827" lon="6.76381">
        <ele>873</ele>
        <time>2021-06-05T10:10:05Z</time>
      </trkpt>
      <trkpt lat="45.61824" lon="6.7638">
        <ele>873.2</ele>
        <time>2021-06-05T10:10:06Z</time>
      </trkpt>
      <trkpt lat="45.61822" lon="6.7638">
        <ele>873.4</ele>
        <time>2021-06-05T10:10:07Z</time>
      </trkpt>
      <trkpt lat="45.61819" lon="6.7638">
        <ele>873</ele>
        <time>2021-06-05T10:10:08Z</time>
      </trkpt>
      <trkpt lat="45.61816" lon="6.76379">
        <ele>873</ele>
        <time>2021-06-05T10:10:09Z</time>
      </trkpt>
      <trkpt lat="45.61814" lon="6.76378">
        <ele>873</ele>
        <time>2021-06-05T10:10:10Z</time>
      </trkpt>
      <trkpt lat="45.61812" lon="6.76377">
        <ele>872.8</ele>
        <time>2021-06-05T10:10:11Z</time>
      </trkpt>
      <trkpt lat="45.61809" lon="6.76376">
        <ele>873</ele>
        <time>2021-06-05T10:10:12Z</time>
      </trkpt>
      <trkpt lat="45.61806" lon="6.76376">
        <ele>873</ele>
        <time>2021-06-05T10:10:13Z</time>
      </trkpt>
      <trkpt lat="45.61804" lon="6.76375">
        <ele>872.8</ele>
        <time>2021-06-05T10:10:14Z</time>
      </trkpt>
      <trkpt lat="45.61802" lon="6.76374">
        <ele>872.8</ele>
        <time>2021-06-05T10:10:15Z</time>
      </trkpt>
      <trkpt lat="45.61799" lon="6.76374">
        <ele>872.4</ele>
        <time>2021-06-05T10:10:16Z</time>
      </trkpt>
      <trkpt lat="45.61797" lon="6.76373">
        <ele>872.2</ele>
        <time>2021-06-05T10:10:17Z</time>
      </trkpt>
      <trkpt lat="45.61795" lon="6.76374">
        <ele>872</ele>
        <time>2021-06-05T10:10:18Z</time>
      </trkpt>
      <trkpt lat="45.61792" lon="6.76377">
        <ele>871.6</ele>
        <time>2021-06-05T10:10:20Z</time>
      </trkpt>
      <trkpt lat="45.6179" lon="6.7638">
        <ele>871.2</ele>
        <time>2021-06-05T10:10:21Z</time>
      </trkpt>
      <trkpt lat="45.61788" lon="6.76383">
        <ele>870.8</ele>
        <time>2021-06-05T10:10:22Z</time>
      </trkpt>
      <trkpt lat="45.61788" lon="6.76386">
        <ele>870.8</ele>
        <time>2021-06-05T10:10:23Z</time>
      </trkpt>
      <trkpt lat="45.61787" lon="6.76389">
        <ele>870.4</ele>
        <time>2021-06-05T10:10:24Z</time>
      </trkpt>
      <trkpt lat="45.61786" lon="6.76392">
        <ele>870.4</ele>
        <time>2021-06-05T10:10:25Z</time>
      </trkpt>
      <trkpt lat="45.61785" lon="6.76395">
        <ele>870.2</ele>
        <time>2021-06-05T10:10:26Z</time>
      </trkpt>
      <trkpt lat="45.61784" lon="6.76398">
        <ele>870.2</ele>
        <time>2021-06-05T10:10:27Z</time>
      </trkpt>
      <trkpt lat="45.61783" lon="6.76401">
        <ele>869.6</ele>
        <time>2021-06-05T10:10:28Z</time>
      </trkpt>
      <trkpt lat="45.61782" lon="6.76404">
        <ele>869.2</ele>
        <time>2021-06-05T10:10:29Z</time>
      </trkpt>
      <trkpt lat="45.61782" lon="6.76408">
        <ele>868.6</ele>
        <time>2021-06-05T10:10:30Z</time>
      </trkpt>
      <trkpt lat="45.61782" lon="6.76411">
        <ele>867.6</ele>
        <time>2021-06-05T10:10:31Z</time>
      </trkpt>
      <trkpt lat="45.61783" lon="6.76414">
        <ele>867.8</ele>
        <time>2021-06-05T10:10:32Z</time>
      </trkpt>
      <trkpt lat="45.61783" lon="6.76416">
        <ele>867.4</ele>
        <time>2021-06-05T10:10:33Z</time>
      </trkpt>
      <trkpt lat="45.61783" lon="6.7642">
        <ele>867.2</ele>
        <time>2021-06-05T10:10:34Z</time>
      </trkpt>
      <trkpt lat="45.61782" lon="6.76423">
        <ele>866.8</ele>
        <time>2021-06-05T10:10:35Z</time>
      </trkpt>
      <trkpt lat="45.61782" lon="6.76425">
        <ele>866.2</ele>
        <time>2021-06-05T10:10:36Z</time>
      </trkpt>
      <trkpt lat="45.61781" lon="6.76428">
        <ele>866.2</ele>
        <time>2021-06-05T10:10:37Z</time>
      </trkpt>
      <trkpt lat="45.61782" lon="6.76432">
        <ele>865.8</ele>
        <time>2021-06-05T10:10:38Z</time>
      </trkpt>
      <trkpt lat="45.61783" lon="6.76434">
        <ele>865.8</ele>
        <time>2021-06-05T10:10:39Z</time>
      </trkpt>
      <trkpt lat="45.61784" lon="6.76437">
        <ele>865.8</ele>
        <time>2021-06-05T10:10:40Z</time>
      </trkpt>
      <trkpt lat="45.61786" lon="6.7644">
        <ele>865.6</ele>
        <time>2021-06-05T10:10:41Z</time>
      </trkpt>
      <trkpt lat="45.61787" lon="6.76443">
        <ele>865.4</ele>
        <time>2021-06-05T10:10:42Z</time>
      </trkpt>
      <trkpt lat="45.61788" lon="6.76445">
        <ele>865.2</ele>
        <time>2021-06-05T10:10:43Z</time>
      </trkpt>
      <trkpt lat="45.61788" lon="6.76448">
        <ele>864.8</ele>
        <time>2021-06-05T10:10:44Z</time>
      </trkpt>
      <trkpt lat="45.61789" lon="6.76451">
        <ele>864.6</ele>
        <time>2021-06-05T10:10:45Z</time>
      </trkpt>
      <trkpt lat="45.61789" lon="6.76454">
        <ele>864</ele>
        <time>2021-06-05T10:10:46Z</time>
      </trkpt>
      <trkpt lat="45.61789" lon="6.76458">
        <ele>863.6</ele>
        <time>2021-06-05T10:10:47Z</time>
      </trkpt>
      <trkpt lat="45.61788" lon="6.7646">
        <ele>863.4</ele>
        <time>2021-06-05T10:10:48Z</time>
      </trkpt>
      <trkpt lat="45.61787" lon="6.76463">
        <ele>863</ele>
        <time>2021-06-05T10:10:49Z</time>
      </trkpt>
      <trkpt lat="45.61786" lon="6.76465">
        <ele>862.8</ele>
        <time>2021-06-05T10:10:50Z</time>
      </trkpt>
      <trkpt lat="45.61784" lon="6.76467">
        <ele>862.4</ele>
        <time>2021-06-05T10:10:51Z</time>
      </trkpt>
      <trkpt lat="45.61782" lon="6.76468">
        <ele>862</ele>
        <time>2021-06-05T10:10:52Z</time>
      </trkpt>
      <trkpt lat="45.61781" lon="6.7647">
        <ele>861.6</ele>
        <time>2021-06-05T10:10:53Z</time>
      </trkpt>
      <trkpt lat="45.61779" lon="6.76472">
        <ele>861</ele>
        <time>2021-06-05T10:10:55Z</time>
      </trkpt>
      <trkpt lat="45.61778" lon="6.76477">
        <ele>860.2</ele>
        <time>2021-06-05T10:10:57Z</time>
      </trkpt>
      <trkpt lat="45.61778" lon="6.7648">
        <ele>859.6</ele>
        <time>2021-06-05T10:10:58Z</time>
      </trkpt>
      <trkpt lat="45.61777" lon="6.76484">
        <ele>859</ele>
        <time>2021-06-05T10:10:59Z</time>
      </trkpt>
      <trkpt lat="45.61776" lon="6.76487">
        <ele>858.8</ele>
        <time>2021-06-05T10:11:00Z</time>
      </trkpt>
      <trkpt lat="45.61775" lon="6.76491">
        <ele>858.2</ele>
        <time>2021-06-05T10:11:01Z</time>
      </trkpt>
      <trkpt lat="45.61774" lon="6.76493">
        <ele>857.8</ele>
        <time>2021-06-05T10:11:02Z</time>
      </trkpt>
      <trkpt lat="45.61773" lon="6.76496">
        <ele>857.4</ele>
        <time>2021-06-05T10:11:03Z</time>
      </trkpt>
      <trkpt lat="45.61772" lon="6.765">
        <ele>857</ele>
        <time>2021-06-05T10:11:04Z</time>
      </trkpt>
      <trkpt lat="45.61771" lon="6.76503">
        <ele>857</ele>
        <time>2021-06-05T10:11:05Z</time>
      </trkpt>
      <trkpt lat="45.61769" lon="6.76506">
        <ele>856.4</ele>
        <time>2021-06-05T10:11:06Z</time>
      </trkpt>
      <trkpt lat="45.61766" lon="6.76511">
        <ele>855.4</ele>
        <time>2021-06-05T10:11:08Z</time>
      </trkpt>
      <trkpt lat="45.61765" lon="6.76514">
        <ele>855</ele>
        <time>2021-06-05T10:11:09Z</time>
      </trkpt>
      <trkpt lat="45.61764" lon="6.76518">
        <ele>854.8</ele>
        <time>2021-06-05T10:11:10Z</time>
      </trkpt>
      <trkpt lat="45.61763" lon="6.76525">
        <ele>854.2</ele>
        <time>2021-06-05T10:11:12Z</time>
      </trkpt>
      <trkpt lat="45.61762" lon="6.76528">
        <ele>853.6</ele>
        <time>2021-06-05T10:11:13Z</time>
      </trkpt>
      <trkpt lat="45.61761" lon="6.76532">
        <ele>853.4</ele>
        <time>2021-06-05T10:11:14Z</time>
      </trkpt>
      <trkpt lat="45.6176" lon="6.76535">
        <ele>853.4</ele>
        <time>2021-06-05T10:11:15Z</time>
      </trkpt>
      <trkpt lat="45.61759" lon="6.76538">
        <ele>852.6</ele>
        <time>2021-06-05T10:11:16Z</time>
      </trkpt>
      <trkpt lat="45.61757" lon="6.76541">
        <ele>852.4</ele>
        <time>2021-06-05T10:11:17Z</time>
      </trkpt>
      <trkpt lat="45.61756" lon="6.76544">
        <ele>852.4</ele>
        <time>2021-06-05T10:11:18Z</time>
      </trkpt>
      <trkpt lat="45.61755" lon="6.76546">
        <ele>851.8</ele>
        <time>2021-06-05T10:11:19Z</time>
      </trkpt>
      <trkpt lat="45.61753" lon="6.7655">
        <ele>851.4</ele>
        <time>2021-06-05T10:11:20Z</time>
      </trkpt>
      <trkpt lat="45.61752" lon="6.76552">
        <ele>851.2</ele>
        <time>2021-06-05T10:11:21Z</time>
      </trkpt>
      <trkpt lat="45.61751" lon="6.76556">
        <ele>851</ele>
        <time>2021-06-05T10:11:22Z</time>
      </trkpt>
      <trkpt lat="45.6175" lon="6.76558">
        <ele>850.4</ele>
        <time>2021-06-05T10:11:23Z</time>
      </trkpt>
      <trkpt lat="45.61748" lon="6.76561">
        <ele>850.2</ele>
        <time>2021-06-05T10:11:24Z</time>
      </trkpt>
      <trkpt lat="45.61748" lon="6.76564">
        <ele>849.6</ele>
        <time>2021-06-05T10:11:25Z</time>
      </trkpt>
      <trkpt lat="45.61746" lon="6.76566">
        <ele>849.4</ele>
        <time>2021-06-05T10:11:26Z</time>
      </trkpt>
      <trkpt lat="45.61744" lon="6.76568">
        <ele>849.2</ele>
        <time>2021-06-05T10:11:27Z</time>
      </trkpt>
      <trkpt lat="45.61742" lon="6.7657">
        <ele>848.6</ele>
        <time>2021-06-05T10:11:28Z</time>
      </trkpt>
      <trkpt lat="45.6174" lon="6.76572">
        <ele>848.2</ele>
        <time>2021-06-05T10:11:29Z</time>
      </trkpt>
      <trkpt lat="45.61738" lon="6.76574">
        <ele>848.2</ele>
        <time>2021-06-05T10:11:30Z</time>
      </trkpt>
      <trkpt lat="45.61737" lon="6.76576">
        <ele>848</ele>
        <time>2021-06-05T10:11:31Z</time>
      </trkpt>
      <trkpt lat="45.61735" lon="6.76578">
        <ele>847.4</ele>
        <time>2021-06-05T10:11:32Z</time>
      </trkpt>
      <trkpt lat="45.61733" lon="6.76581">
        <ele>847.2</ele>
        <time>2021-06-05T10:11:33Z</time>
      </trkpt>
      <trkpt lat="45.61732" lon="6.76584">
        <ele>846.8</ele>
        <time>2021-06-05T10:11:34Z</time>
      </trkpt>
      <trkpt lat="45.6173" lon="6.76587">
        <ele>846.8</ele>
        <time>2021-06-05T10:11:35Z</time>
      </trkpt>
      <trkpt lat="45.61727" lon="6.76592">
        <ele>845.8</ele>
        <time>2021-06-05T10:11:37Z</time>
      </trkpt>
      <trkpt lat="45.61726" lon="6.76595">
        <ele>845.8</ele>
        <time>2021-06-05T10:11:38Z</time>
      </trkpt>
      <trkpt lat="45.61724" lon="6.76597">
        <ele>845.4</ele>
        <time>2021-06-05T10:11:39Z</time>
      </trkpt>
      <trkpt lat="45.61723" lon="6.766">
        <ele>845</ele>
        <time>2021-06-05T10:11:40Z</time>
      </trkpt>
      <trkpt lat="45.61721" lon="6.76602">
        <ele>845</ele>
        <time>2021-06-05T10:11:41Z</time>
      </trkpt>
      <trkpt lat="45.6172" lon="6.76605">
        <ele>844.6</ele>
        <time>2021-06-05T10:11:42Z</time>
      </trkpt>
      <trkpt lat="45.61718" lon="6.76607">
        <ele>844.4</ele>
        <time>2021-06-05T10:11:43Z</time>
      </trkpt>
      <trkpt lat="45.61717" lon="6.7661">
        <ele>844.4</ele>
        <time>2021-06-05T10:11:44Z</time>
      </trkpt>
      <trkpt lat="45.61716" lon="6.76613">
        <ele>844</ele>
        <time>2021-06-05T10:11:45Z</time>
      </trkpt>
      <trkpt lat="45.61714" lon="6.76616">
        <ele>843.6</ele>
        <time>2021-06-05T10:11:46Z</time>
      </trkpt>
      <trkpt lat="45.61713" lon="6.76618">
        <ele>843.6</ele>
        <time>2021-06-05T10:11:47Z</time>
      </trkpt>
      <trkpt lat="45.61711" lon="6.76621">
        <ele>843.2</ele>
        <time>2021-06-05T10:11:48Z</time>
      </trkpt>
      <trkpt lat="45.61709" lon="6.76623">
        <ele>843.2</ele>
        <time>2021-06-05T10:11:49Z</time>
      </trkpt>
      <trkpt lat="45.61707" lon="6.76626">
        <ele>842.8</ele>
        <time>2021-06-05T10:11:50Z</time>
      </trkpt>
      <trkpt lat="45.61705" lon="6.76628">
        <ele>842</ele>
        <time>2021-06-05T10:11:51Z</time>
      </trkpt>
      <trkpt lat="45.61702" lon="6.7663">
        <ele>842.2</ele>
        <time>2021-06-05T10:11:52Z</time>
      </trkpt>
      <trkpt lat="45.61699" lon="6.76633">
        <ele>841.8</ele>
        <time>2021-06-05T10:11:53Z</time>
      </trkpt>
      <trkpt lat="45.61698" lon="6.76636">
        <ele>841.4</ele>
        <time>2021-06-05T10:11:54Z</time>
      </trkpt>
      <trkpt lat="45.61698" lon="6.76639">
        <ele>841.4</ele>
        <time>2021-06-05T10:11:55Z</time>
      </trkpt>
      <trkpt lat="45.61698" lon="6.76643">
        <ele>841.2</ele>
        <time>2021-06-05T10:11:56Z</time>
      </trkpt>
      <trkpt lat="45.61697" lon="6.76646">
        <ele>841</ele>
        <time>2021-06-05T10:11:57Z</time>
      </trkpt>
      <trkpt lat="45.61696" lon="6.76649">
        <ele>840</ele>
        <time>2021-06-05T10:11:58Z</time>
      </trkpt>
      <trkpt lat="45.61695" lon="6.76652">
        <ele>839.6</ele>
        <time>2021-06-05T10:11:59Z</time>
      </trkpt>
      <trkpt lat="45.61694" lon="6.76654">
        <ele>839.8</ele>
        <time>2021-06-05T10:12:00Z</time>
      </trkpt>
      <trkpt lat="45.61693" lon="6.76657">
        <ele>839.4</ele>
        <time>2021-06-05T10:12:01Z</time>
      </trkpt>
      <trkpt lat="45.61692" lon="6.7666">
        <ele>839.4</ele>
        <time>2021-06-05T10:12:03Z</time>
      </trkpt>
      <trkpt lat="45.61694" lon="6.76664">
        <ele>839</ele>
        <time>2021-06-05T10:12:05Z</time>
      </trkpt>
      <trkpt lat="45.61696" lon="6.76666">
        <ele>838.6</ele>
        <time>2021-06-05T10:12:06Z</time>
      </trkpt>
      <trkpt lat="45.61699" lon="6.76668">
        <ele>838</ele>
        <time>2021-06-05T10:12:07Z</time>
      </trkpt>
      <trkpt lat="45.61701" lon="6.7667">
        <ele>838</ele>
        <time>2021-06-05T10:12:08Z</time>
      </trkpt>
      <trkpt lat="45.61704" lon="6.76672">
        <ele>837.8</ele>
        <time>2021-06-05T10:12:09Z</time>
      </trkpt>
      <trkpt lat="45.61708" lon="6.76674">
        <ele>838</ele>
        <time>2021-06-05T10:12:10Z</time>
      </trkpt>
      <trkpt lat="45.61711" lon="6.76676">
        <ele>837.8</ele>
        <time>2021-06-05T10:12:11Z</time>
      </trkpt>
      <trkpt lat="45.61714" lon="6.76677">
        <ele>837.8</ele>
        <time>2021-06-05T10:12:12Z</time>
      </trkpt>
      <trkpt lat="45.61717" lon="6.76679">
        <ele>837.4</ele>
        <time>2021-06-05T10:12:13Z</time>
      </trkpt>
      <trkpt lat="45.61719" lon="6.7668">
        <ele>837</ele>
        <time>2021-06-05T10:12:14Z</time>
      </trkpt>
      <trkpt lat="45.61722" lon="6.76682">
        <ele>837.4</ele>
        <time>2021-06-05T10:12:15Z</time>
      </trkpt>
      <trkpt lat="45.61725" lon="6.76683">
        <ele>837.4</ele>
        <time>2021-06-05T10:12:16Z</time>
      </trkpt>
      <trkpt lat="45.61727" lon="6.76684">
        <ele>837.6</ele>
        <time>2021-06-05T10:12:17Z</time>
      </trkpt>
      <trkpt lat="45.6173" lon="6.76685">
        <ele>837.6</ele>
        <time>2021-06-05T10:12:18Z</time>
      </trkpt>
      <trkpt lat="45.61732" lon="6.76686">
        <ele>837.4</ele>
        <time>2021-06-05T10:12:19Z</time>
      </trkpt>
      <trkpt lat="45.61734" lon="6.76686">
        <ele>838</ele>
        <time>2021-06-05T10:12:20Z</time>
      </trkpt>
      <trkpt lat="45.61736" lon="6.76687">
        <ele>838</ele>
        <time>2021-06-05T10:12:21Z</time>
      </trkpt>
      <trkpt lat="45.61738" lon="6.76689">
        <ele>838.4</ele>
        <time>2021-06-05T10:12:22Z</time>
      </trkpt>
      <trkpt lat="45.6174" lon="6.7669">
        <ele>838.2</ele>
        <time>2021-06-05T10:12:23Z</time>
      </trkpt>
      <trkpt lat="45.61743" lon="6.76691">
        <ele>838.2</ele>
        <time>2021-06-05T10:12:24Z</time>
      </trkpt>
      <trkpt lat="45.61745" lon="6.76692">
        <ele>838.4</ele>
        <time>2021-06-05T10:12:25Z</time>
      </trkpt>
      <trkpt lat="45.61747" lon="6.76693">
        <ele>838</ele>
        <time>2021-06-05T10:12:26Z</time>
      </trkpt>
      <trkpt lat="45.61749" lon="6.76694">
        <ele>838.6</ele>
        <time>2021-06-05T10:12:27Z</time>
      </trkpt>
      <trkpt lat="45.61752" lon="6.76695">
        <ele>838.6</ele>
        <time>2021-06-05T10:12:28Z</time>
      </trkpt>
      <trkpt lat="45.61754" lon="6.76696">
        <ele>839</ele>
        <time>2021-06-05T10:12:29Z</time>
      </trkpt>
      <trkpt lat="45.61756" lon="6.76697">
        <ele>838.8</ele>
        <time>2021-06-05T10:12:30Z</time>
      </trkpt>
      <trkpt lat="45.61759" lon="6.76698">
        <ele>839.2</ele>
        <time>2021-06-05T10:12:31Z</time>
      </trkpt>
      <trkpt lat="45.61762" lon="6.76699">
        <ele>839.4</ele>
        <time>2021-06-05T10:12:32Z</time>
      </trkpt>
      <trkpt lat="45.61764" lon="6.767">
        <ele>839</ele>
        <time>2021-06-05T10:12:33Z</time>
      </trkpt>
      <trkpt lat="45.61766" lon="6.76701">
        <ele>839.4</ele>
        <time>2021-06-05T10:12:34Z</time>
      </trkpt>
      <trkpt lat="45.61768" lon="6.76701">
        <ele>839.6</ele>
        <time>2021-06-05T10:12:35Z</time>
      </trkpt>
      <trkpt lat="45.61771" lon="6.76702">
        <ele>839.6</ele>
        <time>2021-06-05T10:12:36Z</time>
      </trkpt>
      <trkpt lat="45.61773" lon="6.76703">
        <ele>839.6</ele>
        <time>2021-06-05T10:12:37Z</time>
      </trkpt>
      <trkpt lat="45.61776" lon="6.76704">
        <ele>839.8</ele>
        <time>2021-06-05T10:12:38Z</time>
      </trkpt>
      <trkpt lat="45.61778" lon="6.76706">
        <ele>840.2</ele>
        <time>2021-06-05T10:12:39Z</time>
      </trkpt>
      <trkpt lat="45.6178" lon="6.76709">
        <ele>840</ele>
        <time>2021-06-05T10:12:40Z</time>
      </trkpt>
      <trkpt lat="45.61782" lon="6.76711">
        <ele>840.4</ele>
        <time>2021-06-05T10:12:41Z</time>
      </trkpt>
      <trkpt lat="45.61784" lon="6.76714">
        <ele>840.2</ele>
        <time>2021-06-05T10:12:42Z</time>
      </trkpt>
      <trkpt lat="45.61786" lon="6.76716">
        <ele>840</ele>
        <time>2021-06-05T10:12:43Z</time>
      </trkpt>
      <trkpt lat="45.61788" lon="6.76718">
        <ele>840.2</ele>
        <time>2021-06-05T10:12:44Z</time>
      </trkpt>
      <trkpt lat="45.61791" lon="6.76719">
        <ele>840</ele>
        <time>2021-06-05T10:12:45Z</time>
      </trkpt>
      <trkpt lat="45.61793" lon="6.76721">
        <ele>839.8</ele>
        <time>2021-06-05T10:12:46Z</time>
      </trkpt>
      <trkpt lat="45.61796" lon="6.76723">
        <ele>840</ele>
        <time>2021-06-05T10:12:47Z</time>
      </trkpt>
      <trkpt lat="45.61797" lon="6.76725">
        <ele>840</ele>
        <time>2021-06-05T10:12:48Z</time>
      </trkpt>
      <trkpt lat="45.618" lon="6.76727">
        <ele>840.2</ele>
        <time>2021-06-05T10:12:49Z</time>
      </trkpt>
      <trkpt lat="45.61802" lon="6.76729">
        <ele>840</ele>
        <time>2021-06-05T10:12:50Z</time>
      </trkpt>
      <trkpt lat="45.61804" lon="6.76732">
        <ele>840</ele>
        <time>2021-06-05T10:12:51Z</time>
      </trkpt>
      <trkpt lat="45.61808" lon="6.76735">
        <ele>840.2</ele>
        <time>2021-06-05T10:12:52Z</time>
      </trkpt>
      <trkpt lat="45.61812" lon="6.76736">
        <ele>839.8</ele>
        <time>2021-06-05T10:12:53Z</time>
      </trkpt>
      <trkpt lat="45.61815" lon="6.76738">
        <ele>839.4</ele>
        <time>2021-06-05T10:12:54Z</time>
      </trkpt>
      <trkpt lat="45.61818" lon="6.76741">
        <ele>839.6</ele>
        <time>2021-06-05T10:12:55Z</time>
      </trkpt>
      <trkpt lat="45.6182" lon="6.76744">
        <ele>839.8</ele>
        <time>2021-06-05T10:12:56Z</time>
      </trkpt>
      <trkpt lat="45.61823" lon="6.76746">
        <ele>839.8</ele>
        <time>2021-06-05T10:12:57Z</time>
      </trkpt>
      <trkpt lat="45.61825" lon="6.76748">
        <ele>839.8</ele>
        <time>2021-06-05T10:12:58Z</time>
      </trkpt>
      <trkpt lat="45.61828" lon="6.76751">
        <ele>839.8</ele>
        <time>2021-06-05T10:12:59Z</time>
      </trkpt>
      <trkpt lat="45.61829" lon="6.76754">
        <ele>839.8</ele>
        <time>2021-06-05T10:13:00Z</time>
      </trkpt>
      <trkpt lat="45.61831" lon="6.76756">
        <ele>839.6</ele>
        <time>2021-06-05T10:13:01Z</time>
      </trkpt>
      <trkpt lat="45.61833" lon="6.76758">
        <ele>839.4</ele>
        <time>2021-06-05T10:13:02Z</time>
      </trkpt>
      <trkpt lat="45.61836" lon="6.76762">
        <ele>839.2</ele>
        <time>2021-06-05T10:13:04Z</time>
      </trkpt>
      <trkpt lat="45.61839" lon="6.76764">
        <ele>839.2</ele>
        <time>2021-06-05T10:13:05Z</time>
      </trkpt>
      <trkpt lat="45.61842" lon="6.76765">
        <ele>838.8</ele>
        <time>2021-06-05T10:13:06Z</time>
      </trkpt>
      <trkpt lat="45.61844" lon="6.76766">
        <ele>838.2</ele>
        <time>2021-06-05T10:13:07Z</time>
      </trkpt>
      <trkpt lat="45.61846" lon="6.76767">
        <ele>838.4</ele>
        <time>2021-06-05T10:13:08Z</time>
      </trkpt>
      <trkpt lat="45.61849" lon="6.76768">
        <ele>838.2</ele>
        <time>2021-06-05T10:13:09Z</time>
      </trkpt>
      <trkpt lat="45.61852" lon="6.76769">
        <ele>838.4</ele>
        <time>2021-06-05T10:13:10Z</time>
      </trkpt>
      <trkpt lat="45.61854" lon="6.76771">
        <ele>838.2</ele>
        <time>2021-06-05T10:13:11Z</time>
      </trkpt>
      <trkpt lat="45.61857" lon="6.76773">
        <ele>838</ele>
        <time>2021-06-05T10:13:12Z</time>
      </trkpt>
      <trkpt lat="45.6186" lon="6.76775">
        <ele>838.4</ele>
        <time>2021-06-05T10:13:13Z</time>
      </trkpt>
      <trkpt lat="45.61862" lon="6.76777">
        <ele>838</ele>
        <time>2021-06-05T10:13:14Z</time>
      </trkpt>
      <trkpt lat="45.61864" lon="6.76779">
        <ele>837.6</ele>
        <time>2021-06-05T10:13:15Z</time>
      </trkpt>
      <trkpt lat="45.61866" lon="6.76781">
        <ele>838</ele>
        <time>2021-06-05T10:13:16Z</time>
      </trkpt>
      <trkpt lat="45.61868" lon="6.76782">
        <ele>838</ele>
        <time>2021-06-05T10:13:17Z</time>
      </trkpt>
      <trkpt lat="45.61869" lon="6.76784">
        <ele>838</ele>
        <time>2021-06-05T10:13:18Z</time>
      </trkpt>
      <trkpt lat="45.61871" lon="6.76786">
        <ele>837.8</ele>
        <time>2021-06-05T10:13:19Z</time>
      </trkpt>
      <trkpt lat="45.61873" lon="6.76789">
        <ele>837.6</ele>
        <time>2021-06-05T10:13:20Z</time>
      </trkpt>
      <trkpt lat="45.61875" lon="6.7679">
        <ele>837.8</ele>
        <time>2021-06-05T10:13:21Z</time>
      </trkpt>
      <trkpt lat="45.61877" lon="6.76792">
        <ele>837.8</ele>
        <time>2021-06-05T10:13:22Z</time>
      </trkpt>
      <trkpt lat="45.61879" lon="6.76794">
        <ele>837.6</ele>
        <time>2021-06-05T10:13:23Z</time>
      </trkpt>
      <trkpt lat="45.61881" lon="6.76796">
        <ele>837.6</ele>
        <time>2021-06-05T10:13:24Z</time>
      </trkpt>
      <trkpt lat="45.61884" lon="6.76798">
        <ele>837.6</ele>
        <time>2021-06-05T10:13:25Z</time>
      </trkpt>
      <trkpt lat="45.61887" lon="6.768">
        <ele>837.8</ele>
        <time>2021-06-05T10:13:26Z</time>
      </trkpt>
      <trkpt lat="45.61889" lon="6.76802">
        <ele>837.6</ele>
        <time>2021-06-05T10:13:27Z</time>
      </trkpt>
      <trkpt lat="45.61892" lon="6.76805">
        <ele>837.4</ele>
        <time>2021-06-05T10:13:28Z</time>
      </trkpt>
      <trkpt lat="45.61894" lon="6.76808">
        <ele>837.6</ele>
        <time>2021-06-05T10:13:29Z</time>
      </trkpt>
      <trkpt lat="45.61895" lon="6.76811">
        <ele>837.2</ele>
        <time>2021-06-05T10:13:30Z</time>
      </trkpt>
      <trkpt lat="45.61896" lon="6.76814">
        <ele>837</ele>
        <time>2021-06-05T10:13:31Z</time>
      </trkpt>
      <trkpt lat="45.61896" lon="6.76818">
        <ele>837</ele>
        <time>2021-06-05T10:13:32Z</time>
      </trkpt>
      <trkpt lat="45.61896" lon="6.76822">
        <ele>836.8</ele>
        <time>2021-06-05T10:13:33Z</time>
      </trkpt>
      <trkpt lat="45.61895" lon="6.76826">
        <ele>836.6</ele>
        <time>2021-06-05T10:13:34Z</time>
      </trkpt>
      <trkpt lat="45.61895" lon="6.7683">
        <ele>836</ele>
        <time>2021-06-05T10:13:35Z</time>
      </trkpt>
      <trkpt lat="45.61894" lon="6.76834">
        <ele>835</ele>
        <time>2021-06-05T10:13:36Z</time>
      </trkpt>
      <trkpt lat="45.61893" lon="6.76837">
        <ele>835.4</ele>
        <time>2021-06-05T10:13:37Z</time>
      </trkpt>
      <trkpt lat="45.61892" lon="6.76841">
        <ele>834.8</ele>
        <time>2021-06-05T10:13:38Z</time>
      </trkpt>
      <trkpt lat="45.61891" lon="6.76844">
        <ele>834.8</ele>
        <time>2021-06-05T10:13:39Z</time>
      </trkpt>
      <trkpt lat="45.6189" lon="6.76846">
        <ele>834.4</ele>
        <time>2021-06-05T10:13:40Z</time>
      </trkpt>
      <trkpt lat="45.61889" lon="6.76849">
        <ele>834</ele>
        <time>2021-06-05T10:13:41Z</time>
      </trkpt>
      <trkpt lat="45.61887" lon="6.76852">
        <ele>833.6</ele>
        <time>2021-06-05T10:13:42Z</time>
      </trkpt>
      <trkpt lat="45.61886" lon="6.76855">
        <ele>833.2</ele>
        <time>2021-06-05T10:13:43Z</time>
      </trkpt>
      <trkpt lat="45.61884" lon="6.76857">
        <ele>833.2</ele>
        <time>2021-06-05T10:13:44Z</time>
      </trkpt>
      <trkpt lat="45.61883" lon="6.76861">
        <ele>832.4</ele>
        <time>2021-06-05T10:13:46Z</time>
      </trkpt>
      <trkpt lat="45.61881" lon="6.76863">
        <ele>831.8</ele>
        <time>2021-06-05T10:13:47Z</time>
      </trkpt>
      <trkpt lat="45.6188" lon="6.76865">
        <ele>831.4</ele>
        <time>2021-06-05T10:13:48Z</time>
      </trkpt>
      <trkpt lat="45.61879" lon="6.76868">
        <ele>831.4</ele>
        <time>2021-06-05T10:13:49Z</time>
      </trkpt>
      <trkpt lat="45.61879" lon="6.76871">
        <ele>831</ele>
        <time>2021-06-05T10:13:50Z</time>
      </trkpt>
      <trkpt lat="45.61878" lon="6.76874">
        <ele>830.6</ele>
        <time>2021-06-05T10:13:51Z</time>
      </trkpt>
      <trkpt lat="45.61877" lon="6.76876">
        <ele>830.2</ele>
        <time>2021-06-05T10:13:52Z</time>
      </trkpt>
      <trkpt lat="45.61876" lon="6.76879">
        <ele>829.6</ele>
        <time>2021-06-05T10:13:53Z</time>
      </trkpt>
      <trkpt lat="45.61876" lon="6.76882">
        <ele>829.2</ele>
        <time>2021-06-05T10:13:55Z</time>
      </trkpt>
      <trkpt lat="45.61879" lon="6.76885">
        <ele>828.6</ele>
        <time>2021-06-05T10:13:57Z</time>
      </trkpt>
      <trkpt lat="45.61881" lon="6.76888">
        <ele>828.4</ele>
        <time>2021-06-05T10:13:58Z</time>
      </trkpt>
      <trkpt lat="45.61883" lon="6.76889">
        <ele>828.4</ele>
        <time>2021-06-05T10:13:59Z</time>
      </trkpt>
      <trkpt lat="45.61885" lon="6.7689">
        <ele>828</ele>
        <time>2021-06-05T10:14:00Z</time>
      </trkpt>
      <trkpt lat="45.61887" lon="6.76891">
        <ele>828.2</ele>
        <time>2021-06-05T10:14:01Z</time>
      </trkpt>
      <trkpt lat="45.6189" lon="6.76892">
        <ele>828</ele>
        <time>2021-06-05T10:14:02Z</time>
      </trkpt>
      <trkpt lat="45.61892" lon="6.76892">
        <ele>827.8</ele>
        <time>2021-06-05T10:14:03Z</time>
      </trkpt>
      <trkpt lat="45.61895" lon="6.76892">
        <ele>827.8</ele>
        <time>2021-06-05T10:14:04Z</time>
      </trkpt>
      <trkpt lat="45.61898" lon="6.76893">
        <ele>827.8</ele>
        <time>2021-06-05T10:14:05Z</time>
      </trkpt>
      <trkpt lat="45.61901" lon="6.76893">
        <ele>828</ele>
        <time>2021-06-05T10:14:06Z</time>
      </trkpt>
      <trkpt lat="45.61903" lon="6.76893">
        <ele>827.8</ele>
        <time>2021-06-05T10:14:07Z</time>
      </trkpt>
      <trkpt lat="45.61906" lon="6.76894">
        <ele>827.8</ele>
        <time>2021-06-05T10:14:08Z</time>
      </trkpt>
      <trkpt lat="45.61909" lon="6.76895">
        <ele>828</ele>
        <time>2021-06-05T10:14:09Z</time>
      </trkpt>
      <trkpt lat="45.61911" lon="6.76896">
        <ele>828</ele>
        <time>2021-06-05T10:14:10Z</time>
      </trkpt>
      <trkpt lat="45.61913" lon="6.76897">
        <ele>828.2</ele>
        <time>2021-06-05T10:14:11Z</time>
      </trkpt>
      <trkpt lat="45.61915" lon="6.76897">
        <ele>828.2</ele>
        <time>2021-06-05T10:14:12Z</time>
      </trkpt>
      <trkpt lat="45.61918" lon="6.76898">
        <ele>828</ele>
        <time>2021-06-05T10:14:13Z</time>
      </trkpt>
      <trkpt lat="45.6192" lon="6.76898">
        <ele>828.4</ele>
        <time>2021-06-05T10:14:14Z</time>
      </trkpt>
      <trkpt lat="45.61924" lon="6.76899">
        <ele>828.2</ele>
        <time>2021-06-05T10:14:16Z</time>
      </trkpt>
      <trkpt lat="45.61927" lon="6.76899">
        <ele>828.2</ele>
        <time>2021-06-05T10:14:17Z</time>
      </trkpt>
      <trkpt lat="45.61929" lon="6.769">
        <ele>828</ele>
        <time>2021-06-05T10:14:18Z</time>
      </trkpt>
      <trkpt lat="45.61931" lon="6.76901">
        <ele>828.4</ele>
        <time>2021-06-05T10:14:19Z</time>
      </trkpt>
      <trkpt lat="45.61934" lon="6.76902">
        <ele>828.2</ele>
        <time>2021-06-05T10:14:20Z</time>
      </trkpt>
      <trkpt lat="45.61937" lon="6.76903">
        <ele>828.4</ele>
        <time>2021-06-05T10:14:21Z</time>
      </trkpt>
      <trkpt lat="45.6194" lon="6.76904">
        <ele>828.6</ele>
        <time>2021-06-05T10:14:22Z</time>
      </trkpt>
      <trkpt lat="45.61943" lon="6.76904">
        <ele>828.4</ele>
        <time>2021-06-05T10:14:23Z</time>
      </trkpt>
      <trkpt lat="45.61945" lon="6.76904">
        <ele>828.8</ele>
        <time>2021-06-05T10:14:24Z</time>
      </trkpt>
      <trkpt lat="45.61949" lon="6.76904">
        <ele>828.6</ele>
        <time>2021-06-05T10:14:25Z</time>
      </trkpt>
      <trkpt lat="45.61953" lon="6.76904">
        <ele>828.6</ele>
        <time>2021-06-05T10:14:26Z</time>
      </trkpt>
      <trkpt lat="45.61956" lon="6.76904">
        <ele>828.6</ele>
        <time>2021-06-05T10:14:27Z</time>
      </trkpt>
      <trkpt lat="45.61958" lon="6.76904">
        <ele>828.4</ele>
        <time>2021-06-05T10:14:28Z</time>
      </trkpt>
      <trkpt lat="45.61961" lon="6.76903">
        <ele>828.8</ele>
        <time>2021-06-05T10:14:29Z</time>
      </trkpt>
      <trkpt lat="45.61963" lon="6.76902">
        <ele>828.6</ele>
        <time>2021-06-05T10:14:30Z</time>
      </trkpt>
      <trkpt lat="45.61965" lon="6.76901">
        <ele>828.8</ele>
        <time>2021-06-05T10:14:31Z</time>
      </trkpt>
      <trkpt lat="45.61967" lon="6.769">
        <ele>828.8</ele>
        <time>2021-06-05T10:14:32Z</time>
      </trkpt>
      <trkpt lat="45.6197" lon="6.769">
        <ele>828.6</ele>
        <time>2021-06-05T10:14:33Z</time>
      </trkpt>
      <trkpt lat="45.61973" lon="6.769">
        <ele>829</ele>
        <time>2021-06-05T10:14:34Z</time>
      </trkpt>
      <trkpt lat="45.61976" lon="6.76901">
        <ele>829</ele>
        <time>2021-06-05T10:14:35Z</time>
      </trkpt>
      <trkpt lat="45.61979" lon="6.76902">
        <ele>829.2</ele>
        <time>2021-06-05T10:14:36Z</time>
      </trkpt>
      <trkpt lat="45.61982" lon="6.76903">
        <ele>829.2</ele>
        <time>2021-06-05T10:14:37Z</time>
      </trkpt>
      <trkpt lat="45.61985" lon="6.76904">
        <ele>829.2</ele>
        <time>2021-06-05T10:14:38Z</time>
      </trkpt>
      <trkpt lat="45.61988" lon="6.76904">
        <ele>829.4</ele>
        <time>2021-06-05T10:14:39Z</time>
      </trkpt>
      <trkpt lat="45.61991" lon="6.76905">
        <ele>829.4</ele>
        <time>2021-06-05T10:14:40Z</time>
      </trkpt>
      <trkpt lat="45.61994" lon="6.76906">
        <ele>829.2</ele>
        <time>2021-06-05T10:14:41Z</time>
      </trkpt>
      <trkpt lat="45.61997" lon="6.76906">
        <ele>829.4</ele>
        <time>2021-06-05T10:14:42Z</time>
      </trkpt>
      <trkpt lat="45.61999" lon="6.76907">
        <ele>829.4</ele>
        <time>2021-06-05T10:14:43Z</time>
      </trkpt>
      <trkpt lat="45.62002" lon="6.76908">
        <ele>829.8</ele>
        <time>2021-06-05T10:14:44Z</time>
      </trkpt>
      <trkpt lat="45.62004" lon="6.7691">
        <ele>829.6</ele>
        <time>2021-06-05T10:14:45Z</time>
      </trkpt>
      <trkpt lat="45.62006" lon="6.76912">
        <ele>829.2</ele>
        <time>2021-06-05T10:14:46Z</time>
      </trkpt>
      <trkpt lat="45.62008" lon="6.76914">
        <ele>829.6</ele>
        <time>2021-06-05T10:14:47Z</time>
      </trkpt>
      <trkpt lat="45.62008" lon="6.76918">
        <ele>829.4</ele>
        <time>2021-06-05T10:14:48Z</time>
      </trkpt>
      <trkpt lat="45.62009" lon="6.7692">
        <ele>829</ele>
        <time>2021-06-05T10:14:49Z</time>
      </trkpt>
      <trkpt lat="45.62009" lon="6.76923">
        <ele>829.4</ele>
        <time>2021-06-05T10:14:50Z</time>
      </trkpt>
      <trkpt lat="45.62008" lon="6.76926">
        <ele>829</ele>
        <time>2021-06-05T10:14:51Z</time>
      </trkpt>
      <trkpt lat="45.62008" lon="6.7693">
        <ele>829.2</ele>
        <time>2021-06-05T10:14:52Z</time>
      </trkpt>
      <trkpt lat="45.62007" lon="6.76933">
        <ele>829</ele>
        <time>2021-06-05T10:14:53Z</time>
      </trkpt>
      <trkpt lat="45.62006" lon="6.76936">
        <ele>828.8</ele>
        <time>2021-06-05T10:14:54Z</time>
      </trkpt>
      <trkpt lat="45.62006" lon="6.7694">
        <ele>829</ele>
        <time>2021-06-05T10:14:55Z</time>
      </trkpt>
      <trkpt lat="45.62005" lon="6.76944">
        <ele>828.6</ele>
        <time>2021-06-05T10:14:56Z</time>
      </trkpt>
      <trkpt lat="45.62004" lon="6.76948">
        <ele>828.4</ele>
        <time>2021-06-05T10:14:57Z</time>
      </trkpt>
      <trkpt lat="45.62003" lon="6.76951">
        <ele>828.6</ele>
        <time>2021-06-05T10:14:58Z</time>
      </trkpt>
      <trkpt lat="45.62002" lon="6.76955">
        <ele>828.4</ele>
        <time>2021-06-05T10:14:59Z</time>
      </trkpt>
      <trkpt lat="45.62001" lon="6.76959">
        <ele>828</ele>
        <time>2021-06-05T10:15:00Z</time>
      </trkpt>
      <trkpt lat="45.62001" lon="6.76962">
        <ele>828.2</ele>
        <time>2021-06-05T10:15:01Z</time>
      </trkpt>
      <trkpt lat="45.62" lon="6.76966">
        <ele>827.8</ele>
        <time>2021-06-05T10:15:02Z</time>
      </trkpt>
      <trkpt lat="45.61999" lon="6.76969">
        <ele>827.4</ele>
        <time>2021-06-05T10:15:03Z</time>
      </trkpt>
      <trkpt lat="45.61998" lon="6.76972">
        <ele>827.8</ele>
        <time>2021-06-05T10:15:04Z</time>
      </trkpt>
      <trkpt lat="45.61997" lon="6.76975">
        <ele>827.4</ele>
        <time>2021-06-05T10:15:05Z</time>
      </trkpt>
      <trkpt lat="45.61996" lon="6.76978">
        <ele>827.2</ele>
        <time>2021-06-05T10:15:06Z</time>
      </trkpt>
      <trkpt lat="45.61994" lon="6.76982">
        <ele>827.2</ele>
        <time>2021-06-05T10:15:07Z</time>
      </trkpt>
      <trkpt lat="45.61993" lon="6.76985">
        <ele>827</ele>
        <time>2021-06-05T10:15:08Z</time>
      </trkpt>
      <trkpt lat="45.61991" lon="6.76988">
        <ele>827</ele>
        <time>2021-06-05T10:15:09Z</time>
      </trkpt>
      <trkpt lat="45.61989" lon="6.76992">
        <ele>826.8</ele>
        <time>2021-06-05T10:15:10Z</time>
      </trkpt>
      <trkpt lat="45.6199" lon="6.76997">
        <ele>826.6</ele>
        <time>2021-06-05T10:15:11Z</time>
      </trkpt>
      <trkpt lat="45.6199" lon="6.77001">
        <ele>826.6</ele>
        <time>2021-06-05T10:15:12Z</time>
      </trkpt>
      <trkpt lat="45.61989" lon="6.77006">
        <ele>826.2</ele>
        <time>2021-06-05T10:15:13Z</time>
      </trkpt>
      <trkpt lat="45.61989" lon="6.7701">
        <ele>826</ele>
        <time>2021-06-05T10:15:14Z</time>
      </trkpt>
      <trkpt lat="45.61988" lon="6.77012">
        <ele>826</ele>
        <time>2021-06-05T10:15:15Z</time>
      </trkpt>
      <trkpt lat="45.61988" lon="6.77016">
        <ele>825.6</ele>
        <time>2021-06-05T10:15:16Z</time>
      </trkpt>
      <trkpt lat="45.61987" lon="6.77019">
        <ele>825.4</ele>
        <time>2021-06-05T10:15:17Z</time>
      </trkpt>
      <trkpt lat="45.61987" lon="6.77022">
        <ele>825</ele>
        <time>2021-06-05T10:15:18Z</time>
      </trkpt>
      <trkpt lat="45.61986" lon="6.77025">
        <ele>824.6</ele>
        <time>2021-06-05T10:15:19Z</time>
      </trkpt>
      <trkpt lat="45.61985" lon="6.77029">
        <ele>824.8</ele>
        <time>2021-06-05T10:15:20Z</time>
      </trkpt>
      <trkpt lat="45.61984" lon="6.77032">
        <ele>824.2</ele>
        <time>2021-06-05T10:15:21Z</time>
      </trkpt>
      <trkpt lat="45.61983" lon="6.77035">
        <ele>824</ele>
        <time>2021-06-05T10:15:22Z</time>
      </trkpt>
      <trkpt lat="45.61981" lon="6.77038">
        <ele>823.6</ele>
        <time>2021-06-05T10:15:23Z</time>
      </trkpt>
      <trkpt lat="45.61979" lon="6.7704">
        <ele>823.2</ele>
        <time>2021-06-05T10:15:24Z</time>
      </trkpt>
      <trkpt lat="45.61977" lon="6.77043">
        <ele>823</ele>
        <time>2021-06-05T10:15:25Z</time>
      </trkpt>
      <trkpt lat="45.61977" lon="6.77046">
        <ele>822.4</ele>
        <time>2021-06-05T10:15:26Z</time>
      </trkpt>
      <trkpt lat="45.6198" lon="6.77049">
        <ele>822.2</ele>
        <time>2021-06-05T10:15:27Z</time>
      </trkpt>
      <trkpt lat="45.61983" lon="6.7705">
        <ele>821.6</ele>
        <time>2021-06-05T10:15:28Z</time>
      </trkpt>
      <trkpt lat="45.61986" lon="6.77052">
        <ele>821</ele>
        <time>2021-06-05T10:15:29Z</time>
      </trkpt>
      <trkpt lat="45.61988" lon="6.77056">
        <ele>821</ele>
        <time>2021-06-05T10:15:30Z</time>
      </trkpt>
      <trkpt lat="45.6199" lon="6.77058">
        <ele>820.8</ele>
        <time>2021-06-05T10:15:31Z</time>
      </trkpt>
      <trkpt lat="45.61992" lon="6.77063">
        <ele>820.8</ele>
        <time>2021-06-05T10:15:32Z</time>
      </trkpt>
      <trkpt lat="45.61994" lon="6.77066">
        <ele>820.6</ele>
        <time>2021-06-05T10:15:33Z</time>
      </trkpt>
      <trkpt lat="45.61997" lon="6.77068">
        <ele>820.4</ele>
        <time>2021-06-05T10:15:34Z</time>
      </trkpt>
      <trkpt lat="45.61999" lon="6.77071">
        <ele>820.6</ele>
        <time>2021-06-05T10:15:35Z</time>
      </trkpt>
      <trkpt lat="45.62002" lon="6.77073">
        <ele>820.2</ele>
        <time>2021-06-05T10:15:36Z</time>
      </trkpt>
      <trkpt lat="45.62005" lon="6.77074">
        <ele>819.8</ele>
        <time>2021-06-05T10:15:37Z</time>
      </trkpt>
      <trkpt lat="45.62008" lon="6.77076">
        <ele>819.8</ele>
        <time>2021-06-05T10:15:38Z</time>
      </trkpt>
      <trkpt lat="45.62011" lon="6.77078">
        <ele>819.8</ele>
        <time>2021-06-05T10:15:39Z</time>
      </trkpt>
      <trkpt lat="45.62013" lon="6.77078">
        <ele>819.8</ele>
        <time>2021-06-05T10:15:40Z</time>
      </trkpt>
      <trkpt lat="45.62015" lon="6.7708">
        <ele>819</ele>
        <time>2021-06-05T10:15:42Z</time>
      </trkpt>
      <trkpt lat="45.62018" lon="6.77082">
        <ele>819.2</ele>
        <time>2021-06-05T10:15:44Z</time>
      </trkpt>
      <trkpt lat="45.62021" lon="6.77082">
        <ele>819.4</ele>
        <time>2021-06-05T10:15:46Z</time>
      </trkpt>
      <trkpt lat="45.62023" lon="6.77082">
        <ele>819.2</ele>
        <time>2021-06-05T10:15:47Z</time>
      </trkpt>
      <trkpt lat="45.62026" lon="6.77083">
        <ele>819.4</ele>
        <time>2021-06-05T10:15:48Z</time>
      </trkpt>
      <trkpt lat="45.62028" lon="6.77084">
        <ele>819</ele>
        <time>2021-06-05T10:15:49Z</time>
      </trkpt>
      <trkpt lat="45.62031" lon="6.77085">
        <ele>819</ele>
        <time>2021-06-05T10:15:50Z</time>
      </trkpt>
      <trkpt lat="45.62035" lon="6.77087">
        <ele>819</ele>
        <time>2021-06-05T10:15:51Z</time>
      </trkpt>
      <trkpt lat="45.62038" lon="6.77088">
        <ele>819</ele>
        <time>2021-06-05T10:15:52Z</time>
      </trkpt>
      <trkpt lat="45.62041" lon="6.7709">
        <ele>819.2</ele>
        <time>2021-06-05T10:15:53Z</time>
      </trkpt>
      <trkpt lat="45.62043" lon="6.77093">
        <ele>818.8</ele>
        <time>2021-06-05T10:15:54Z</time>
      </trkpt>
      <trkpt lat="45.62045" lon="6.77097">
        <ele>818.4</ele>
        <time>2021-06-05T10:15:55Z</time>
      </trkpt>
      <trkpt lat="45.62047" lon="6.77101">
        <ele>818.6</ele>
        <time>2021-06-05T10:15:56Z</time>
      </trkpt>
      <trkpt lat="45.62049" lon="6.77105">
        <ele>818.4</ele>
        <time>2021-06-05T10:15:57Z</time>
      </trkpt>
      <trkpt lat="45.62051" lon="6.77108">
        <ele>818.6</ele>
        <time>2021-06-05T10:15:58Z</time>
      </trkpt>
      <trkpt lat="45.62052" lon="6.77112">
        <ele>818.8</ele>
        <time>2021-06-05T10:15:59Z</time>
      </trkpt>
      <trkpt lat="45.62053" lon="6.77115">
        <ele>818.6</ele>
        <time>2021-06-05T10:16:00Z</time>
      </trkpt>
      <trkpt lat="45.62054" lon="6.77119">
        <ele>818.8</ele>
        <time>2021-06-05T10:16:01Z</time>
      </trkpt>
      <trkpt lat="45.62055" lon="6.77123">
        <ele>818.6</ele>
        <time>2021-06-05T10:16:02Z</time>
      </trkpt>
      <trkpt lat="45.62056" lon="6.77126">
        <ele>818.4</ele>
        <time>2021-06-05T10:16:03Z</time>
      </trkpt>
      <trkpt lat="45.62057" lon="6.77129">
        <ele>818.4</ele>
        <time>2021-06-05T10:16:04Z</time>
      </trkpt>
      <trkpt lat="45.62058" lon="6.77133">
        <ele>818.2</ele>
        <time>2021-06-05T10:16:05Z</time>
      </trkpt>
      <trkpt lat="45.62059" lon="6.77136">
        <ele>818</ele>
        <time>2021-06-05T10:16:06Z</time>
      </trkpt>
      <trkpt lat="45.6206" lon="6.77138">
        <ele>818</ele>
        <time>2021-06-05T10:16:07Z</time>
      </trkpt>
      <trkpt lat="45.6206" lon="6.77141">
        <ele>817.6</ele>
        <time>2021-06-05T10:16:08Z</time>
      </trkpt>
      <trkpt lat="45.6206" lon="6.77143">
        <ele>817.8</ele>
        <time>2021-06-05T10:16:09Z</time>
      </trkpt>
      <trkpt lat="45.62061" lon="6.77147">
        <ele>817.4</ele>
        <time>2021-06-05T10:16:10Z</time>
      </trkpt>
      <trkpt lat="45.62062" lon="6.7715">
        <ele>817.2</ele>
        <time>2021-06-05T10:16:11Z</time>
      </trkpt>
      <trkpt lat="45.62063" lon="6.77154">
        <ele>817.4</ele>
        <time>2021-06-05T10:16:12Z</time>
      </trkpt>
      <trkpt lat="45.62064" lon="6.77158">
        <ele>817.4</ele>
        <time>2021-06-05T10:16:13Z</time>
      </trkpt>
      <trkpt lat="45.62066" lon="6.77161">
        <ele>817</ele>
        <time>2021-06-05T10:16:14Z</time>
      </trkpt>
      <trkpt lat="45.62068" lon="6.77166">
        <ele>817</ele>
        <time>2021-06-05T10:16:16Z</time>
      </trkpt>
      <trkpt lat="45.6207" lon="6.77168">
        <ele>817.2</ele>
        <time>2021-06-05T10:16:17Z</time>
      </trkpt>
      <trkpt lat="45.62071" lon="6.77171">
        <ele>816.8</ele>
        <time>2021-06-05T10:16:18Z</time>
      </trkpt>
      <trkpt lat="45.62073" lon="6.77174">
        <ele>816.4</ele>
        <time>2021-06-05T10:16:19Z</time>
      </trkpt>
      <trkpt lat="45.62075" lon="6.77177">
        <ele>816.8</ele>
        <time>2021-06-05T10:16:20Z</time>
      </trkpt>
      <trkpt lat="45.62076" lon="6.77181">
        <ele>816.6</ele>
        <time>2021-06-05T10:16:21Z</time>
      </trkpt>
      <trkpt lat="45.62077" lon="6.77184">
        <ele>816.8</ele>
        <time>2021-06-05T10:16:22Z</time>
      </trkpt>
      <trkpt lat="45.62079" lon="6.77188">
        <ele>816.4</ele>
        <time>2021-06-05T10:16:23Z</time>
      </trkpt>
      <trkpt lat="45.6208" lon="6.77191">
        <ele>816.4</ele>
        <time>2021-06-05T10:16:24Z</time>
      </trkpt>
      <trkpt lat="45.62082" lon="6.77194">
        <ele>816.6</ele>
        <time>2021-06-05T10:16:25Z</time>
      </trkpt>
      <trkpt lat="45.62084" lon="6.77197">
        <ele>816.4</ele>
        <time>2021-06-05T10:16:26Z</time>
      </trkpt>
      <trkpt lat="45.62085" lon="6.772">
        <ele>816.4</ele>
        <time>2021-06-05T10:16:27Z</time>
      </trkpt>
      <trkpt lat="45.62086" lon="6.77204">
        <ele>816.6</ele>
        <time>2021-06-05T10:16:28Z</time>
      </trkpt>
      <trkpt lat="45.62088" lon="6.77207">
        <ele>816.6</ele>
        <time>2021-06-05T10:16:29Z</time>
      </trkpt>
      <trkpt lat="45.62089" lon="6.77211">
        <ele>816.8</ele>
        <time>2021-06-05T10:16:30Z</time>
      </trkpt>
      <trkpt lat="45.6209" lon="6.77214">
        <ele>816.6</ele>
        <time>2021-06-05T10:16:31Z</time>
      </trkpt>
      <trkpt lat="45.62092" lon="6.77217">
        <ele>816.6</ele>
        <time>2021-06-05T10:16:32Z</time>
      </trkpt>
      <trkpt lat="45.62093" lon="6.7722">
        <ele>816.8</ele>
        <time>2021-06-05T10:16:33Z</time>
      </trkpt>
      <trkpt lat="45.62094" lon="6.77222">
        <ele>816.6</ele>
        <time>2021-06-05T10:16:34Z</time>
      </trkpt>
      <trkpt lat="45.62096" lon="6.77226">
        <ele>816.8</ele>
        <time>2021-06-05T10:16:35Z</time>
      </trkpt>
      <trkpt lat="45.62097" lon="6.77229">
        <ele>816.8</ele>
        <time>2021-06-05T10:16:36Z</time>
      </trkpt>
      <trkpt lat="45.62098" lon="6.77232">
        <ele>816.2</ele>
        <time>2021-06-05T10:16:37Z</time>
      </trkpt>
      <trkpt lat="45.621" lon="6.77235">
        <ele>816.4</ele>
        <time>2021-06-05T10:16:38Z</time>
      </trkpt>
      <trkpt lat="45.62101" lon="6.77238">
        <ele>816.6</ele>
        <time>2021-06-05T10:16:39Z</time>
      </trkpt>
      <trkpt lat="45.62103" lon="6.77241">
        <ele>816.8</ele>
        <time>2021-06-05T10:16:40Z</time>
      </trkpt>
      <trkpt lat="45.62104" lon="6.77244">
        <ele>816.8</ele>
        <time>2021-06-05T10:16:41Z</time>
      </trkpt>
      <trkpt lat="45.62106" lon="6.77247">
        <ele>816.6</ele>
        <time>2021-06-05T10:16:42Z</time>
      </trkpt>
      <trkpt lat="45.62107" lon="6.77248">
        <ele>817</ele>
        <time>2021-06-05T10:16:43Z</time>
      </trkpt>
      <trkpt lat="45.62108" lon="6.7725">
        <ele>816.8</ele>
        <time>2021-06-05T10:16:44Z</time>
      </trkpt>
      <trkpt lat="45.6211" lon="6.77253">
        <ele>816.8</ele>
        <time>2021-06-05T10:16:45Z</time>
      </trkpt>
    </trkseg>
  </trk>
</gpx>